<?xml version="1.0" encoding="UTF-8" standalone="no" ?>
<gpx xmlns="http://www.topografix.com/GPX/1/1" xmlns:xsi="http://www.w3.org/2001/XMLSchema-instance" xsi:schemaLocation="http://www.topografix.com/GPX/1/1 http://www.topografix.com/GPX/1/1/gpx.xsd" version="1.1" creator="VisuGPX - https://www.visugpx.com">
  <metadata>
    <name>PART 1 TET SECTION 4</name>
  </metadata>
  <trk>
    <name><![CDATA[TET-FRANCE-Section04- 20190827]]></name>
    <trkseg>
      <trkpt lat="43.90054" lon="7.50727">
        <ele>594.1</ele>
        <time>2017-01-17T22:05:17Z</time>
      </trkpt>
      <trkpt lat="43.90087" lon="7.50406">
        <ele>624.6</ele>
        <time>2017-01-17T22:05:37Z</time>
      </trkpt>
      <trkpt lat="43.90348" lon="7.50247">
        <ele>650.5</ele>
        <time>2017-01-17T22:05:57Z</time>
      </trkpt>
      <trkpt lat="43.90311" lon="7.49917">
        <ele>675.8</ele>
        <time>2017-01-17T22:06:17Z</time>
      </trkpt>
      <trkpt lat="43.9047" lon="7.49865">
        <ele>684.3</ele>
        <time>2017-01-17T22:06:37Z</time>
      </trkpt>
      <trkpt lat="43.9063" lon="7.49413">
        <ele>716.5</ele>
        <time>2017-01-17T22:06:57Z</time>
      </trkpt>
      <trkpt lat="43.91045" lon="7.49354">
        <ele>742.4</ele>
        <time>2017-01-17T22:07:17Z</time>
      </trkpt>
      <trkpt lat="43.91142" lon="7.49051">
        <ele>770.8</ele>
        <time>2017-01-17T22:07:37Z</time>
      </trkpt>
      <trkpt lat="43.91668" lon="7.49258">
        <ele>807.3</ele>
        <time>2017-01-17T22:07:57Z</time>
      </trkpt>
      <trkpt lat="43.91811" lon="7.49185">
        <ele>826.6</ele>
        <time>2017-01-17T22:08:17Z</time>
      </trkpt>
      <trkpt lat="43.91727" lon="7.49041">
        <ele>846.8</ele>
        <time>2017-01-17T22:08:37Z</time>
      </trkpt>
      <trkpt lat="43.91952" lon="7.48925">
        <ele>872.8</ele>
        <time>2017-01-17T22:08:57Z</time>
      </trkpt>
      <trkpt lat="43.91974" lon="7.48758">
        <ele>877.3</ele>
        <time>2017-01-17T22:09:17Z</time>
      </trkpt>
      <trkpt lat="43.92373" lon="7.48857">
        <ele>908.4</ele>
        <time>2017-01-17T22:09:37Z</time>
      </trkpt>
      <trkpt lat="43.92142" lon="7.48121">
        <ele>912.1</ele>
        <time>2017-01-17T22:09:57Z</time>
      </trkpt>
      <trkpt lat="43.92378" lon="7.48046">
        <ele>895.8</ele>
        <time>2017-01-17T22:10:17Z</time>
      </trkpt>
      <trkpt lat="43.92453" lon="7.47632">
        <ele>875</ele>
        <time>2017-01-17T22:10:37Z</time>
      </trkpt>
      <trkpt lat="43.92643" lon="7.47381">
        <ele>847.8</ele>
        <time>2017-01-17T22:10:57Z</time>
      </trkpt>
      <trkpt lat="43.92728" lon="7.47375">
        <ele>839</ele>
        <time>2017-01-17T22:11:17Z</time>
      </trkpt>
      <trkpt lat="43.92609" lon="7.47514">
        <ele>809.9</ele>
        <time>2017-01-17T22:11:37Z</time>
      </trkpt>
      <trkpt lat="43.92863" lon="7.47495">
        <ele>778.8</ele>
        <time>2017-01-17T22:11:57Z</time>
      </trkpt>
      <trkpt lat="43.93071" lon="7.4778">
        <ele>754.2</ele>
        <time>2017-01-17T22:12:17Z</time>
      </trkpt>
      <trkpt lat="43.93325" lon="7.47786">
        <ele>735.3</ele>
        <time>2017-01-17T22:12:37Z</time>
      </trkpt>
      <trkpt lat="43.93486" lon="7.48005">
        <ele>706.4</ele>
        <time>2017-01-17T22:12:57Z</time>
      </trkpt>
      <trkpt lat="43.93549" lon="7.47836">
        <ele>709.9</ele>
        <time>2017-01-17T22:13:17Z</time>
      </trkpt>
      <trkpt lat="43.93668" lon="7.47971">
        <ele>685.3</ele>
        <time>2017-01-17T22:13:37Z</time>
      </trkpt>
      <trkpt lat="43.93809" lon="7.4785">
        <ele>673.2</ele>
        <time>2017-01-17T22:13:57Z</time>
      </trkpt>
      <trkpt lat="43.93859" lon="7.47924">
        <ele>668.3</ele>
        <time>2017-01-17T22:14:17Z</time>
      </trkpt>
      <trkpt lat="43.93681" lon="7.48329">
        <ele>636.3</ele>
        <time>2017-01-17T22:14:37Z</time>
      </trkpt>
      <trkpt lat="43.93853" lon="7.48921">
        <ele>596.7</ele>
        <time>2017-01-17T22:14:57Z</time>
      </trkpt>
      <trkpt lat="43.94031" lon="7.49232">
        <ele>572.7</ele>
        <time>2017-01-17T22:15:17Z</time>
      </trkpt>
      <trkpt lat="43.94265" lon="7.49263">
        <ele>564.2</ele>
        <time>2017-01-17T22:15:37Z</time>
      </trkpt>
      <trkpt lat="43.94351" lon="7.491">
        <ele>563.1</ele>
        <time>2017-01-17T22:15:57Z</time>
      </trkpt>
      <trkpt lat="43.94381" lon="7.49178">
        <ele>549.3</ele>
        <time>2017-01-17T22:16:17Z</time>
      </trkpt>
      <trkpt lat="43.94259" lon="7.50171">
        <ele>495.2</ele>
        <time>2017-01-17T22:16:37Z</time>
      </trkpt>
      <trkpt lat="43.94258" lon="7.50224">
        <ele>504.82</ele>
      </trkpt>
      <trkpt lat="43.94263" lon="7.50404">
        <ele>503.71</ele>
      </trkpt>
      <trkpt lat="43.94239" lon="7.50556">
        <ele>488.65</ele>
      </trkpt>
      <trkpt lat="43.94255" lon="7.50653">
        <ele>485.55</ele>
      </trkpt>
      <trkpt lat="43.94277" lon="7.50755">
        <ele>480.77</ele>
      </trkpt>
      <trkpt lat="43.94306" lon="7.50875">
        <ele>470.89</ele>
      </trkpt>
      <trkpt lat="43.9432" lon="7.50938">
        <ele>457.2</ele>
      </trkpt>
      <trkpt lat="43.9443" lon="7.50981">
        <ele>456.09</ele>
      </trkpt>
      <trkpt lat="43.94514" lon="7.51031">
        <ele>452.65</ele>
      </trkpt>
      <trkpt lat="43.94603" lon="7.51097">
        <ele>442.51</ele>
      </trkpt>
      <trkpt lat="43.94692" lon="7.51133">
        <ele>443.47</ele>
      </trkpt>
      <trkpt lat="43.94727" lon="7.51176">
        <ele>436.66</ele>
      </trkpt>
      <trkpt lat="43.94829" lon="7.51265">
        <ele>420.33</ele>
      </trkpt>
      <trkpt lat="43.94899" lon="7.51281">
        <ele>437.38</ele>
      </trkpt>
      <trkpt lat="43.94918" lon="7.5137">
        <ele>431.38</ele>
      </trkpt>
      <trkpt lat="43.94924" lon="7.51425">
        <ele>428.32</ele>
      </trkpt>
      <trkpt lat="43.94913" lon="7.51526">
        <ele>403.6</ele>
      </trkpt>
      <trkpt lat="43.94999" lon="7.5153">
        <ele>405.03</ele>
      </trkpt>
      <trkpt lat="43.95064" lon="7.51565">
        <ele>394.32</ele>
      </trkpt>
      <trkpt lat="43.95199" lon="7.51565">
        <ele>385.45</ele>
      </trkpt>
      <trkpt lat="43.95282" lon="7.51573">
        <ele>368.12</ele>
      </trkpt>
      <trkpt lat="43.95341" lon="7.51495">
        <ele>369.64</ele>
      </trkpt>
      <trkpt lat="43.95441" lon="7.51409">
        <ele>353.55</ele>
      </trkpt>
      <trkpt lat="43.95412" lon="7.51472">
        <ele>348.08</ele>
      </trkpt>
      <trkpt lat="43.95336" lon="7.51573">
        <ele>347.65</ele>
      </trkpt>
      <trkpt lat="43.95277" lon="7.51702">
        <ele>345.37</ele>
      </trkpt>
      <trkpt lat="43.95174" lon="7.51717">
        <ele>348.86</ele>
      </trkpt>
      <trkpt lat="43.95085" lon="7.51748">
        <ele>341.18</ele>
      </trkpt>
      <trkpt lat="43.95002" lon="7.51748">
        <ele>335.68</ele>
      </trkpt>
      <trkpt lat="43.95091" lon="7.51803">
        <ele>329.11</ele>
      </trkpt>
      <trkpt lat="43.95096" lon="7.51862">
        <ele>316.02</ele>
      </trkpt>
      <trkpt lat="43.9511" lon="7.51864">
        <ele>354.87</ele>
        <time>2018-08-05T14:38:51Z</time>
      </trkpt>
      <trkpt lat="43.9515" lon="7.51877">
        <ele>351.72</ele>
        <time>2018-08-05T14:38:48Z</time>
      </trkpt>
      <trkpt lat="43.95217" lon="7.5191">
        <ele>347.9</ele>
        <time>2018-08-05T14:38:42Z</time>
      </trkpt>
      <trkpt lat="43.95267" lon="7.5194">
        <ele>344.7</ele>
        <time>2018-08-05T14:38:37Z</time>
      </trkpt>
      <trkpt lat="43.95399" lon="7.51998">
        <ele>341.35</ele>
        <time>2018-08-05T14:38:26Z</time>
      </trkpt>
      <trkpt lat="43.95414" lon="7.52001">
        <ele>341.26</ele>
        <time>2018-08-05T14:38:25Z</time>
      </trkpt>
      <trkpt lat="43.95428" lon="7.52006">
        <ele>341.4</ele>
        <time>2018-08-05T14:38:24Z</time>
      </trkpt>
      <trkpt lat="43.95441" lon="7.52012">
        <ele>341.7</ele>
        <time>2018-08-05T14:38:23Z</time>
      </trkpt>
      <trkpt lat="43.95454" lon="7.52021">
        <ele>341.5</ele>
        <time>2018-08-05T14:38:22Z</time>
      </trkpt>
      <trkpt lat="43.95466" lon="7.52032">
        <ele>341.67</ele>
        <time>2018-08-05T14:38:21Z</time>
      </trkpt>
      <trkpt lat="43.95477" lon="7.52045">
        <ele>341.74</ele>
        <time>2018-08-05T14:38:20Z</time>
      </trkpt>
      <trkpt lat="43.95489" lon="7.52056">
        <ele>341.46</ele>
        <time>2018-08-05T14:38:19Z</time>
      </trkpt>
      <trkpt lat="43.95502" lon="7.52067">
        <ele>341.47</ele>
        <time>2018-08-05T14:38:18Z</time>
      </trkpt>
      <trkpt lat="43.95516" lon="7.52074">
        <ele>341.72</ele>
        <time>2018-08-05T14:38:17Z</time>
      </trkpt>
      <trkpt lat="43.95561" lon="7.52083">
        <ele>343.07</ele>
        <time>2018-08-05T14:38:14Z</time>
      </trkpt>
      <trkpt lat="43.95733" lon="7.52067">
        <ele>343.31</ele>
        <time>2018-08-05T14:38:03Z</time>
      </trkpt>
      <trkpt lat="43.95746" lon="7.52068">
        <ele>342.99</ele>
        <time>2018-08-05T14:38:02Z</time>
      </trkpt>
      <trkpt lat="43.95758" lon="7.52069">
        <ele>342.44</ele>
        <time>2018-08-05T14:38:01Z</time>
      </trkpt>
      <trkpt lat="43.95821" lon="7.52105">
        <ele>341.04</ele>
        <time>2018-08-05T14:37:54Z</time>
      </trkpt>
      <trkpt lat="43.95926" lon="7.52188">
        <ele>342.91</ele>
        <time>2018-08-05T14:37:42Z</time>
      </trkpt>
      <trkpt lat="43.95966" lon="7.52212">
        <ele>344.42</ele>
        <time>2018-08-05T14:37:39Z</time>
      </trkpt>
      <trkpt lat="43.96038" lon="7.52237">
        <ele>348.25</ele>
        <time>2018-08-05T14:37:35Z</time>
      </trkpt>
      <trkpt lat="43.96147" lon="7.52278">
        <ele>351.6</ele>
        <time>2018-08-05T14:37:30Z</time>
      </trkpt>
      <trkpt lat="43.96386" lon="7.52415">
        <ele>355.17</ele>
        <time>2018-08-05T14:37:19Z</time>
      </trkpt>
      <trkpt lat="43.96431" lon="7.52438">
        <ele>356.81</ele>
        <time>2018-08-05T14:37:17Z</time>
      </trkpt>
      <trkpt lat="43.96571" lon="7.52554">
        <ele>359.46</ele>
        <time>2018-08-05T14:37:10Z</time>
      </trkpt>
      <trkpt lat="43.96675" lon="7.52731">
        <ele>362.51</ele>
        <time>2018-08-05T14:37:03Z</time>
      </trkpt>
      <trkpt lat="43.96842" lon="7.53041">
        <ele>363.09</ele>
        <time>2018-08-05T14:36:51Z</time>
      </trkpt>
      <trkpt lat="43.96856" lon="7.53065">
        <ele>362.3</ele>
        <time>2018-08-05T14:36:50Z</time>
      </trkpt>
      <trkpt lat="43.9687" lon="7.53089">
        <ele>363.3</ele>
        <time>2018-08-05T14:36:49Z</time>
      </trkpt>
      <trkpt lat="43.96882" lon="7.53114">
        <ele>363.72</ele>
        <time>2018-08-05T14:36:48Z</time>
      </trkpt>
      <trkpt lat="43.96893" lon="7.53141">
        <ele>364.34</ele>
        <time>2018-08-05T14:36:47Z</time>
      </trkpt>
      <trkpt lat="43.96903" lon="7.53169">
        <ele>365.83</ele>
        <time>2018-08-05T14:36:46Z</time>
      </trkpt>
      <trkpt lat="43.96911" lon="7.532">
        <ele>367.09</ele>
        <time>2018-08-05T14:36:45Z</time>
      </trkpt>
      <trkpt lat="43.9696" lon="7.53453">
        <ele>367.96</ele>
        <time>2018-08-05T14:36:37Z</time>
      </trkpt>
      <trkpt lat="43.96967" lon="7.53476">
        <ele>367.77</ele>
        <time>2018-08-05T14:36:36Z</time>
      </trkpt>
      <trkpt lat="43.96994" lon="7.53559">
        <ele>370.99</ele>
        <time>2018-08-05T14:36:32Z</time>
      </trkpt>
      <trkpt lat="43.97016" lon="7.53617">
        <ele>373.34</ele>
        <time>2018-08-05T14:36:29Z</time>
      </trkpt>
      <trkpt lat="43.9705" lon="7.53692">
        <ele>376.33</ele>
        <time>2018-08-05T14:36:25Z</time>
      </trkpt>
      <trkpt lat="43.9706" lon="7.53709">
        <ele>376.33</ele>
        <time>2018-08-05T14:36:24Z</time>
      </trkpt>
      <trkpt lat="43.97105" lon="7.53771">
        <ele>379.83</ele>
        <time>2018-08-05T14:36:20Z</time>
      </trkpt>
      <trkpt lat="43.97177" lon="7.53829">
        <ele>383.16</ele>
        <time>2018-08-05T14:36:15Z</time>
      </trkpt>
      <trkpt lat="43.97338" lon="7.53896">
        <ele>383.7</ele>
        <time>2018-08-05T14:36:04Z</time>
      </trkpt>
      <trkpt lat="43.97366" lon="7.53912">
        <ele>382.33</ele>
        <time>2018-08-05T14:36:02Z</time>
      </trkpt>
      <trkpt lat="43.97439" lon="7.53961">
        <ele>378.99</ele>
        <time>2018-08-05T14:35:57Z</time>
      </trkpt>
      <trkpt lat="43.97474" lon="7.54359">
        <ele>378.53</ele>
        <time>2018-08-05T14:35:47Z</time>
      </trkpt>
      <trkpt lat="43.97505" lon="7.54366">
        <ele>379.72</ele>
        <time>2018-08-05T14:35:45Z</time>
      </trkpt>
      <trkpt lat="43.97536" lon="7.54374">
        <ele>380.84</ele>
        <time>2018-08-05T14:35:43Z</time>
      </trkpt>
      <trkpt lat="43.97614" lon="7.54393">
        <ele>383.9</ele>
        <time>2018-08-05T14:35:38Z</time>
      </trkpt>
      <trkpt lat="43.97721" lon="7.54419">
        <ele>386.8</ele>
        <time>2018-08-05T14:35:31Z</time>
      </trkpt>
      <trkpt lat="43.97814" lon="7.54441">
        <ele>389.45</ele>
        <time>2018-08-05T14:35:25Z</time>
      </trkpt>
      <trkpt lat="43.97998" lon="7.54486">
        <ele>391.38</ele>
        <time>2018-08-05T14:35:13Z</time>
      </trkpt>
      <trkpt lat="43.98188" lon="7.54554">
        <ele>391.35</ele>
        <time>2018-08-05T14:35:00Z</time>
      </trkpt>
      <trkpt lat="43.98219" lon="7.5457">
        <ele>392.21</ele>
        <time>2018-08-05T14:34:58Z</time>
      </trkpt>
      <trkpt lat="43.9834" lon="7.54575">
        <ele>395.86</ele>
        <time>2018-08-05T14:34:52Z</time>
      </trkpt>
      <trkpt lat="43.9836" lon="7.54581">
        <ele>397.57</ele>
        <time>2018-08-05T14:34:51Z</time>
      </trkpt>
      <trkpt lat="43.98442" lon="7.54603">
        <ele>400.92</ele>
        <time>2018-08-05T14:34:45Z</time>
      </trkpt>
      <trkpt lat="43.98538" lon="7.5463">
        <ele>404.97</ele>
        <time>2018-08-05T14:34:38Z</time>
      </trkpt>
      <trkpt lat="43.98581" lon="7.54642">
        <ele>406.29</ele>
        <time>2018-08-05T14:34:35Z</time>
      </trkpt>
      <trkpt lat="43.9869" lon="7.54679">
        <ele>409.86</ele>
        <time>2018-08-05T14:34:27Z</time>
      </trkpt>
      <trkpt lat="43.98743" lon="7.54709">
        <ele>411.3</ele>
        <time>2018-08-05T14:34:23Z</time>
      </trkpt>
      <trkpt lat="43.98755" lon="7.54717">
        <ele>411.39</ele>
        <time>2018-08-05T14:34:22Z</time>
      </trkpt>
      <trkpt lat="43.98767" lon="7.54724">
        <ele>412.09</ele>
        <time>2018-08-05T14:34:21Z</time>
      </trkpt>
      <trkpt lat="43.9878" lon="7.5473">
        <ele>412.66</ele>
        <time>2018-08-05T14:34:20Z</time>
      </trkpt>
      <trkpt lat="43.98877" lon="7.54738">
        <ele>415.42</ele>
        <time>2018-08-05T14:34:13Z</time>
      </trkpt>
      <trkpt lat="43.9889" lon="7.54739">
        <ele>415.89</ele>
        <time>2018-08-05T14:34:12Z</time>
      </trkpt>
      <trkpt lat="43.98904" lon="7.54739">
        <ele>416.49</ele>
        <time>2018-08-05T14:34:11Z</time>
      </trkpt>
      <trkpt lat="43.98917" lon="7.54738">
        <ele>416.47</ele>
        <time>2018-08-05T14:34:10Z</time>
      </trkpt>
      <trkpt lat="43.98931" lon="7.54734">
        <ele>416.28</ele>
        <time>2018-08-05T14:34:09Z</time>
      </trkpt>
      <trkpt lat="43.98969" lon="7.54711">
        <ele>418.99</ele>
        <time>2018-08-05T14:34:06Z</time>
      </trkpt>
      <trkpt lat="43.98982" lon="7.54701">
        <ele>420.18</ele>
        <time>2018-08-05T14:34:05Z</time>
      </trkpt>
      <trkpt lat="43.98996" lon="7.54686">
        <ele>421.91</ele>
        <time>2018-08-05T14:34:04Z</time>
      </trkpt>
      <trkpt lat="43.99012" lon="7.54674">
        <ele>422.69</ele>
        <time>2018-08-05T14:34:03Z</time>
      </trkpt>
      <trkpt lat="43.9903" lon="7.54664">
        <ele>422.83</ele>
        <time>2018-08-05T14:34:02Z</time>
      </trkpt>
      <trkpt lat="43.99047" lon="7.54656">
        <ele>421.96</ele>
        <time>2018-08-05T14:34:01Z</time>
      </trkpt>
      <trkpt lat="43.99062" lon="7.54652">
        <ele>421.86</ele>
        <time>2018-08-05T14:34:00Z</time>
      </trkpt>
      <trkpt lat="43.99076" lon="7.54654">
        <ele>421.68</ele>
        <time>2018-08-05T14:33:59Z</time>
      </trkpt>
      <trkpt lat="43.99148" lon="7.54691">
        <ele>423.44</ele>
        <time>2018-08-05T14:33:53Z</time>
      </trkpt>
      <trkpt lat="43.99173" lon="7.54707">
        <ele>424.25</ele>
        <time>2018-08-05T14:33:51Z</time>
      </trkpt>
      <trkpt lat="43.99186" lon="7.54715">
        <ele>424.83</ele>
        <time>2018-08-05T14:33:50Z</time>
      </trkpt>
      <trkpt lat="43.99213" lon="7.54727">
        <ele>426.65</ele>
        <time>2018-08-05T14:33:48Z</time>
      </trkpt>
      <trkpt lat="43.99226" lon="7.5473">
        <ele>427.7</ele>
        <time>2018-08-05T14:33:47Z</time>
      </trkpt>
      <trkpt lat="43.99239" lon="7.54734">
        <ele>428.6</ele>
        <time>2018-08-05T14:33:46Z</time>
      </trkpt>
      <trkpt lat="43.99252" lon="7.5474">
        <ele>429.64</ele>
        <time>2018-08-05T14:33:45Z</time>
      </trkpt>
      <trkpt lat="43.99265" lon="7.54748">
        <ele>430.4</ele>
        <time>2018-08-05T14:33:44Z</time>
      </trkpt>
      <trkpt lat="43.99276" lon="7.54759">
        <ele>431.33</ele>
        <time>2018-08-05T14:33:43Z</time>
      </trkpt>
      <trkpt lat="43.99339" lon="7.54868">
        <ele>432.74</ele>
        <time>2018-08-05T14:33:35Z</time>
      </trkpt>
      <trkpt lat="43.99348" lon="7.54883">
        <ele>433.29</ele>
        <time>2018-08-05T14:33:34Z</time>
      </trkpt>
      <trkpt lat="43.99398" lon="7.54946">
        <ele>433.48</ele>
        <time>2018-08-05T14:33:29Z</time>
      </trkpt>
      <trkpt lat="43.99408" lon="7.54957">
        <ele>434.26</ele>
        <time>2018-08-05T14:33:28Z</time>
      </trkpt>
      <trkpt lat="43.99419" lon="7.54966">
        <ele>434.64</ele>
        <time>2018-08-05T14:33:27Z</time>
      </trkpt>
      <trkpt lat="43.9943" lon="7.54973">
        <ele>434.55</ele>
        <time>2018-08-05T14:33:26Z</time>
      </trkpt>
      <trkpt lat="43.99442" lon="7.54975">
        <ele>435.21</ele>
        <time>2018-08-05T14:33:25Z</time>
      </trkpt>
      <trkpt lat="43.99489" lon="7.54968">
        <ele>438.1</ele>
        <time>2018-08-05T14:33:21Z</time>
      </trkpt>
      <trkpt lat="43.99499" lon="7.54966">
        <ele>438.62</ele>
        <time>2018-08-05T14:33:20Z</time>
      </trkpt>
      <trkpt lat="43.99511" lon="7.54964">
        <ele>438.58</ele>
        <time>2018-08-05T14:33:19Z</time>
      </trkpt>
      <trkpt lat="43.99521" lon="7.54963">
        <ele>438.38</ele>
        <time>2018-08-05T14:33:18Z</time>
      </trkpt>
      <trkpt lat="43.99527" lon="7.54965">
        <ele>438.28</ele>
        <time>2018-08-05T14:33:17Z</time>
      </trkpt>
      <trkpt lat="43.9953" lon="7.54967">
        <ele>438.04</ele>
        <time>2018-08-05T14:33:16Z</time>
      </trkpt>
      <trkpt lat="43.99531" lon="7.54968">
        <ele>438.1</ele>
        <time>2018-08-05T14:33:12Z</time>
      </trkpt>
      <trkpt lat="43.99532" lon="7.54971">
        <ele>438.4</ele>
        <time>2018-08-05T14:32:49Z</time>
      </trkpt>
      <trkpt lat="43.99533" lon="7.54974">
        <ele>438.43</ele>
        <time>2018-08-05T14:32:48Z</time>
      </trkpt>
      <trkpt lat="43.99518" lon="7.54983">
        <ele>438.18</ele>
        <time>2018-08-05T14:32:38Z</time>
      </trkpt>
      <trkpt lat="43.99518" lon="7.54984">
        <ele>438.04</ele>
        <time>2018-08-05T14:32:16Z</time>
      </trkpt>
      <trkpt lat="43.99518" lon="7.54985">
        <ele>439.62</ele>
        <time>2018-08-05T14:30:22Z</time>
      </trkpt>
      <trkpt lat="43.99517" lon="7.54988">
        <ele>441.27</ele>
        <time>2018-08-05T14:28:18Z</time>
      </trkpt>
      <trkpt lat="43.99516" lon="7.54986">
        <ele>443.34</ele>
        <time>2018-08-05T14:26:07Z</time>
      </trkpt>
      <trkpt lat="43.99516" lon="7.54987">
        <ele>445.33</ele>
        <time>2018-08-05T14:24:19Z</time>
      </trkpt>
      <trkpt lat="43.99517" lon="7.54984">
        <ele>447.83</ele>
        <time>2018-08-05T14:22:07Z</time>
      </trkpt>
      <trkpt lat="43.99527" lon="7.54971">
        <ele>448.6</ele>
        <time>2018-08-05T14:21:58Z</time>
      </trkpt>
      <trkpt lat="43.99528" lon="7.54965">
        <ele>448.91</ele>
        <time>2018-08-05T14:21:57Z</time>
      </trkpt>
      <trkpt lat="43.99529" lon="7.54957">
        <ele>448.99</ele>
        <time>2018-08-05T14:21:48Z</time>
      </trkpt>
      <trkpt lat="43.99529" lon="7.54957">
        <ele>451.13</ele>
        <time>2018-08-05T14:20:35Z</time>
      </trkpt>
      <trkpt lat="43.99529" lon="7.54959">
        <ele>451.88</ele>
        <time>2018-08-05T14:20:11Z</time>
      </trkpt>
      <trkpt lat="43.99528" lon="7.54958">
        <ele>452.2</ele>
        <time>2018-08-05T14:20:10Z</time>
      </trkpt>
      <trkpt lat="43.99524" lon="7.54957">
        <ele>452.62</ele>
        <time>2018-08-05T14:20:09Z</time>
      </trkpt>
      <trkpt lat="43.99512" lon="7.54957">
        <ele>452.87</ele>
        <time>2018-08-05T14:20:07Z</time>
      </trkpt>
      <trkpt lat="43.99504" lon="7.54957">
        <ele>452.87</ele>
        <time>2018-08-05T14:20:06Z</time>
      </trkpt>
      <trkpt lat="43.99496" lon="7.54956">
        <ele>453.12</ele>
        <time>2018-08-05T14:20:05Z</time>
      </trkpt>
      <trkpt lat="43.99488" lon="7.54955">
        <ele>453.22</ele>
        <time>2018-08-05T14:20:04Z</time>
      </trkpt>
      <trkpt lat="43.99479" lon="7.54952">
        <ele>453.1</ele>
        <time>2018-08-05T14:20:03Z</time>
      </trkpt>
      <trkpt lat="43.9947" lon="7.54948">
        <ele>453.01</ele>
        <time>2018-08-05T14:20:02Z</time>
      </trkpt>
      <trkpt lat="43.9946" lon="7.54943">
        <ele>452.36</ele>
        <time>2018-08-05T14:20:01Z</time>
      </trkpt>
      <trkpt lat="43.99451" lon="7.54937">
        <ele>451.69</ele>
        <time>2018-08-05T14:20:00Z</time>
      </trkpt>
      <trkpt lat="43.99443" lon="7.5493">
        <ele>451.17</ele>
        <time>2018-08-05T14:19:59Z</time>
      </trkpt>
      <trkpt lat="43.99436" lon="7.54922">
        <ele>450.98</ele>
        <time>2018-08-05T14:19:58Z</time>
      </trkpt>
      <trkpt lat="43.99423" lon="7.54871">
        <ele>452.24</ele>
        <time>2018-08-05T14:19:54Z</time>
      </trkpt>
      <trkpt lat="43.99409" lon="7.54799">
        <ele>455.65</ele>
        <time>2018-08-05T14:19:50Z</time>
      </trkpt>
      <trkpt lat="43.99406" lon="7.54781">
        <ele>456.03</ele>
        <time>2018-08-05T14:19:49Z</time>
      </trkpt>
      <trkpt lat="43.99334" lon="7.54591">
        <ele>458.3</ele>
        <time>2018-08-05T14:19:38Z</time>
      </trkpt>
      <trkpt lat="43.99328" lon="7.54576">
        <ele>458.47</ele>
        <time>2018-08-05T14:19:37Z</time>
      </trkpt>
      <trkpt lat="43.9929" lon="7.54518">
        <ele>460.03</ele>
        <time>2018-08-05T14:19:32Z</time>
      </trkpt>
      <trkpt lat="43.99284" lon="7.54508">
        <ele>460.16</ele>
        <time>2018-08-05T14:19:31Z</time>
      </trkpt>
      <trkpt lat="43.99281" lon="7.54498">
        <ele>460.28</ele>
        <time>2018-08-05T14:19:30Z</time>
      </trkpt>
      <trkpt lat="43.99282" lon="7.54472">
        <ele>460.98</ele>
        <time>2018-08-05T14:19:28Z</time>
      </trkpt>
      <trkpt lat="43.99283" lon="7.5439">
        <ele>462.64</ele>
        <time>2018-08-05T14:19:23Z</time>
      </trkpt>
      <trkpt lat="43.99283" lon="7.54373">
        <ele>462.66</ele>
        <time>2018-08-05T14:19:22Z</time>
      </trkpt>
      <trkpt lat="43.99284" lon="7.54357">
        <ele>462.75</ele>
        <time>2018-08-05T14:19:21Z</time>
      </trkpt>
      <trkpt lat="43.99292" lon="7.54307">
        <ele>465.05</ele>
        <time>2018-08-05T14:19:18Z</time>
      </trkpt>
      <trkpt lat="43.99308" lon="7.54213">
        <ele>468.3</ele>
        <time>2018-08-05T14:19:13Z</time>
      </trkpt>
      <trkpt lat="43.99319" lon="7.54134">
        <ele>471.67</ele>
        <time>2018-08-05T14:19:09Z</time>
      </trkpt>
      <trkpt lat="43.99321" lon="7.54113">
        <ele>471.8</ele>
        <time>2018-08-05T14:19:08Z</time>
      </trkpt>
      <trkpt lat="43.99323" lon="7.54094">
        <ele>471.91</ele>
        <time>2018-08-05T14:19:07Z</time>
      </trkpt>
      <trkpt lat="43.99327" lon="7.54078">
        <ele>472.37</ele>
        <time>2018-08-05T14:19:06Z</time>
      </trkpt>
      <trkpt lat="43.99332" lon="7.54062">
        <ele>472.65</ele>
        <time>2018-08-05T14:19:05Z</time>
      </trkpt>
      <trkpt lat="43.99337" lon="7.54046">
        <ele>473.33</ele>
        <time>2018-08-05T14:19:04Z</time>
      </trkpt>
      <trkpt lat="43.99341" lon="7.54027">
        <ele>475.3</ele>
        <time>2018-08-05T14:19:03Z</time>
      </trkpt>
      <trkpt lat="43.99352" lon="7.53962">
        <ele>478.98</ele>
        <time>2018-08-05T14:19:00Z</time>
      </trkpt>
      <trkpt lat="43.99376" lon="7.53822">
        <ele>482.78</ele>
        <time>2018-08-05T14:18:53Z</time>
      </trkpt>
      <trkpt lat="43.99391" lon="7.53773">
        <ele>486.57</ele>
        <time>2018-08-05T14:18:50Z</time>
      </trkpt>
      <trkpt lat="43.99403" lon="7.53698">
        <ele>489.21</ele>
        <time>2018-08-05T14:18:46Z</time>
      </trkpt>
      <trkpt lat="43.99408" lon="7.53575">
        <ele>489.9</ele>
        <time>2018-08-05T14:18:40Z</time>
      </trkpt>
      <trkpt lat="43.99421" lon="7.53506">
        <ele>494.07</ele>
        <time>2018-08-05T14:18:35Z</time>
      </trkpt>
      <trkpt lat="43.99429" lon="7.53497">
        <ele>495.23</ele>
        <time>2018-08-05T14:18:34Z</time>
      </trkpt>
      <trkpt lat="43.99437" lon="7.53486">
        <ele>496.48</ele>
        <time>2018-08-05T14:18:33Z</time>
      </trkpt>
      <trkpt lat="43.99443" lon="7.53473">
        <ele>497.81</ele>
        <time>2018-08-05T14:18:32Z</time>
      </trkpt>
      <trkpt lat="43.99447" lon="7.53458">
        <ele>499.25</ele>
        <time>2018-08-05T14:18:31Z</time>
      </trkpt>
      <trkpt lat="43.99456" lon="7.53411">
        <ele>502.83</ele>
        <time>2018-08-05T14:18:28Z</time>
      </trkpt>
      <trkpt lat="43.99459" lon="7.53399">
        <ele>505.52</ele>
        <time>2018-08-05T14:18:27Z</time>
      </trkpt>
      <trkpt lat="43.99465" lon="7.53388">
        <ele>507.74</ele>
        <time>2018-08-05T14:18:26Z</time>
      </trkpt>
      <trkpt lat="43.99472" lon="7.53376">
        <ele>509.54</ele>
        <time>2018-08-05T14:18:25Z</time>
      </trkpt>
      <trkpt lat="43.9948" lon="7.53362">
        <ele>510.27</ele>
        <time>2018-08-05T14:18:24Z</time>
      </trkpt>
      <trkpt lat="43.99487" lon="7.53347">
        <ele>510.97</ele>
        <time>2018-08-05T14:18:23Z</time>
      </trkpt>
      <trkpt lat="43.99492" lon="7.53331">
        <ele>511.46</ele>
        <time>2018-08-05T14:18:22Z</time>
      </trkpt>
      <trkpt lat="43.99521" lon="7.53159">
        <ele>514.52</ele>
        <time>2018-08-05T14:18:13Z</time>
      </trkpt>
      <trkpt lat="43.99523" lon="7.5314">
        <ele>514.81</ele>
        <time>2018-08-05T14:18:12Z</time>
      </trkpt>
      <trkpt lat="43.99526" lon="7.53121">
        <ele>515.24</ele>
        <time>2018-08-05T14:18:11Z</time>
      </trkpt>
      <trkpt lat="43.99544" lon="7.53066">
        <ele>518.77</ele>
        <time>2018-08-05T14:18:08Z</time>
      </trkpt>
      <trkpt lat="43.9955" lon="7.53047">
        <ele>519.27</ele>
        <time>2018-08-05T14:18:07Z</time>
      </trkpt>
      <trkpt lat="43.99557" lon="7.5301">
        <ele>520.26</ele>
        <time>2018-08-05T14:18:05Z</time>
      </trkpt>
      <trkpt lat="43.99561" lon="7.52995">
        <ele>521.31</ele>
        <time>2018-08-05T14:18:04Z</time>
      </trkpt>
      <trkpt lat="43.99573" lon="7.52967">
        <ele>522.58</ele>
        <time>2018-08-05T14:18:02Z</time>
      </trkpt>
      <trkpt lat="43.99578" lon="7.52954">
        <ele>523.04</ele>
        <time>2018-08-05T14:18:01Z</time>
      </trkpt>
      <trkpt lat="43.99581" lon="7.5294">
        <ele>524.37</ele>
        <time>2018-08-05T14:18:00Z</time>
      </trkpt>
      <trkpt lat="43.99581" lon="7.52911">
        <ele>526.82</ele>
        <time>2018-08-05T14:17:58Z</time>
      </trkpt>
      <trkpt lat="43.99582" lon="7.52879">
        <ele>528.6</ele>
        <time>2018-08-05T14:17:56Z</time>
      </trkpt>
      <trkpt lat="43.99584" lon="7.52862">
        <ele>529</ele>
        <time>2018-08-05T14:17:55Z</time>
      </trkpt>
      <trkpt lat="43.99582" lon="7.5281">
        <ele>528.26</ele>
        <time>2018-08-05T14:17:52Z</time>
      </trkpt>
      <trkpt lat="43.9958" lon="7.52792">
        <ele>527.2</ele>
        <time>2018-08-05T14:17:51Z</time>
      </trkpt>
      <trkpt lat="43.99579" lon="7.52776">
        <ele>526.39</ele>
        <time>2018-08-05T14:17:50Z</time>
      </trkpt>
      <trkpt lat="43.99579" lon="7.52761">
        <ele>526.39</ele>
        <time>2018-08-05T14:17:49Z</time>
      </trkpt>
      <trkpt lat="43.99581" lon="7.52748">
        <ele>526.43</ele>
        <time>2018-08-05T14:17:48Z</time>
      </trkpt>
      <trkpt lat="43.99585" lon="7.52734">
        <ele>526.58</ele>
        <time>2018-08-05T14:17:47Z</time>
      </trkpt>
      <trkpt lat="43.9959" lon="7.52721">
        <ele>527.07</ele>
        <time>2018-08-05T14:17:46Z</time>
      </trkpt>
      <trkpt lat="43.99603" lon="7.52676">
        <ele>528.28</ele>
        <time>2018-08-05T14:17:43Z</time>
      </trkpt>
      <trkpt lat="43.99606" lon="7.5266">
        <ele>528.45</ele>
        <time>2018-08-05T14:17:42Z</time>
      </trkpt>
      <trkpt lat="43.99616" lon="7.52592">
        <ele>531.65</ele>
        <time>2018-08-05T14:17:38Z</time>
      </trkpt>
      <trkpt lat="43.99618" lon="7.52575">
        <ele>532.07</ele>
        <time>2018-08-05T14:17:37Z</time>
      </trkpt>
      <trkpt lat="43.99626" lon="7.52547">
        <ele>535.34</ele>
        <time>2018-08-05T14:17:35Z</time>
      </trkpt>
      <trkpt lat="43.99638" lon="7.52517">
        <ele>540.23</ele>
        <time>2018-08-05T14:17:33Z</time>
      </trkpt>
      <trkpt lat="43.99666" lon="7.52441">
        <ele>544.64</ele>
        <time>2018-08-05T14:17:29Z</time>
      </trkpt>
      <trkpt lat="43.99684" lon="7.52376">
        <ele>547.89</ele>
        <time>2018-08-05T14:17:26Z</time>
      </trkpt>
      <trkpt lat="43.99692" lon="7.52318">
        <ele>551.51</ele>
        <time>2018-08-05T14:17:23Z</time>
      </trkpt>
      <trkpt lat="43.99693" lon="7.523">
        <ele>551.92</ele>
        <time>2018-08-05T14:17:22Z</time>
      </trkpt>
      <trkpt lat="43.99692" lon="7.52267">
        <ele>552.97</ele>
        <time>2018-08-05T14:17:20Z</time>
      </trkpt>
      <trkpt lat="43.99692" lon="7.52252">
        <ele>553.44</ele>
        <time>2018-08-05T14:17:19Z</time>
      </trkpt>
      <trkpt lat="43.99699" lon="7.52183">
        <ele>554.29</ele>
        <time>2018-08-05T14:17:15Z</time>
      </trkpt>
      <trkpt lat="43.99701" lon="7.52168">
        <ele>554.5</ele>
        <time>2018-08-05T14:17:14Z</time>
      </trkpt>
      <trkpt lat="43.99718" lon="7.52124">
        <ele>556.62</ele>
        <time>2018-08-05T14:17:11Z</time>
      </trkpt>
      <trkpt lat="43.99732" lon="7.52091">
        <ele>557.47</ele>
        <time>2018-08-05T14:17:09Z</time>
      </trkpt>
      <trkpt lat="43.99764" lon="7.52029">
        <ele>559.88</ele>
        <time>2018-08-05T14:17:05Z</time>
      </trkpt>
      <trkpt lat="43.99772" lon="7.52013">
        <ele>561.11</ele>
        <time>2018-08-05T14:17:04Z</time>
      </trkpt>
      <trkpt lat="43.99784" lon="7.51978">
        <ele>564.73</ele>
        <time>2018-08-05T14:17:02Z</time>
      </trkpt>
      <trkpt lat="43.998" lon="7.51927">
        <ele>568.49</ele>
        <time>2018-08-05T14:16:59Z</time>
      </trkpt>
      <trkpt lat="43.9982" lon="7.51857">
        <ele>571.68</ele>
        <time>2018-08-05T14:16:54Z</time>
      </trkpt>
      <trkpt lat="43.99825" lon="7.51845">
        <ele>571.83</ele>
        <time>2018-08-05T14:16:53Z</time>
      </trkpt>
      <trkpt lat="43.99831" lon="7.51835">
        <ele>572.1</ele>
        <time>2018-08-05T14:16:52Z</time>
      </trkpt>
      <trkpt lat="43.99839" lon="7.51828">
        <ele>572.33</ele>
        <time>2018-08-05T14:16:51Z</time>
      </trkpt>
      <trkpt lat="43.99846" lon="7.51821">
        <ele>572.47</ele>
        <time>2018-08-05T14:16:50Z</time>
      </trkpt>
      <trkpt lat="43.99854" lon="7.51812">
        <ele>572.78</ele>
        <time>2018-08-05T14:16:49Z</time>
      </trkpt>
      <trkpt lat="43.99861" lon="7.51801">
        <ele>573.35</ele>
        <time>2018-08-05T14:16:48Z</time>
      </trkpt>
      <trkpt lat="43.99866" lon="7.51787">
        <ele>573.92</ele>
        <time>2018-08-05T14:16:47Z</time>
      </trkpt>
      <trkpt lat="43.99871" lon="7.51772">
        <ele>574</ele>
        <time>2018-08-05T14:16:46Z</time>
      </trkpt>
      <trkpt lat="43.99874" lon="7.51697">
        <ele>577.8</ele>
        <time>2018-08-05T14:16:42Z</time>
      </trkpt>
      <trkpt lat="43.99873" lon="7.51677">
        <ele>578.1</ele>
        <time>2018-08-05T14:16:41Z</time>
      </trkpt>
      <trkpt lat="43.99872" lon="7.51658">
        <ele>578.55</ele>
        <time>2018-08-05T14:16:40Z</time>
      </trkpt>
      <trkpt lat="43.9987" lon="7.5164">
        <ele>579.01</ele>
        <time>2018-08-05T14:16:39Z</time>
      </trkpt>
      <trkpt lat="43.9987" lon="7.51623">
        <ele>580.05</ele>
        <time>2018-08-05T14:16:38Z</time>
      </trkpt>
      <trkpt lat="43.99872" lon="7.51607">
        <ele>580.82</ele>
        <time>2018-08-05T14:16:37Z</time>
      </trkpt>
      <trkpt lat="43.99873" lon="7.5159">
        <ele>581.75</ele>
        <time>2018-08-05T14:16:36Z</time>
      </trkpt>
      <trkpt lat="43.99873" lon="7.51572">
        <ele>582.65</ele>
        <time>2018-08-05T14:16:35Z</time>
      </trkpt>
      <trkpt lat="43.99872" lon="7.51554">
        <ele>583.59</ele>
        <time>2018-08-05T14:16:34Z</time>
      </trkpt>
      <trkpt lat="43.9987" lon="7.51536">
        <ele>584.33</ele>
        <time>2018-08-05T14:16:33Z</time>
      </trkpt>
      <trkpt lat="43.99867" lon="7.51517">
        <ele>584.71</ele>
        <time>2018-08-05T14:16:32Z</time>
      </trkpt>
      <trkpt lat="43.99863" lon="7.51501">
        <ele>585.56</ele>
        <time>2018-08-05T14:16:31Z</time>
      </trkpt>
      <trkpt lat="43.99857" lon="7.51487">
        <ele>586.49</ele>
        <time>2018-08-05T14:16:30Z</time>
      </trkpt>
      <trkpt lat="43.9985" lon="7.51477">
        <ele>587.7</ele>
        <time>2018-08-05T14:16:29Z</time>
      </trkpt>
      <trkpt lat="43.99842" lon="7.5147">
        <ele>588.74</ele>
        <time>2018-08-05T14:16:28Z</time>
      </trkpt>
      <trkpt lat="43.99834" lon="7.51462">
        <ele>589.03</ele>
        <time>2018-08-05T14:16:27Z</time>
      </trkpt>
      <trkpt lat="43.99828" lon="7.51452">
        <ele>589.7</ele>
        <time>2018-08-05T14:16:26Z</time>
      </trkpt>
      <trkpt lat="43.99826" lon="7.51441">
        <ele>590.43</ele>
        <time>2018-08-05T14:16:25Z</time>
      </trkpt>
      <trkpt lat="43.99825" lon="7.51429">
        <ele>591</ele>
        <time>2018-08-05T14:16:24Z</time>
      </trkpt>
      <trkpt lat="43.99825" lon="7.51416">
        <ele>591.53</ele>
        <time>2018-08-05T14:16:23Z</time>
      </trkpt>
      <trkpt lat="43.99832" lon="7.51371">
        <ele>593.25</ele>
        <time>2018-08-05T14:16:20Z</time>
      </trkpt>
      <trkpt lat="43.99835" lon="7.51355">
        <ele>593.09</ele>
        <time>2018-08-05T14:16:19Z</time>
      </trkpt>
      <trkpt lat="43.99833" lon="7.51324">
        <ele>593.76</ele>
        <time>2018-08-05T14:16:17Z</time>
      </trkpt>
      <trkpt lat="43.99834" lon="7.51252">
        <ele>596.13</ele>
        <time>2018-08-05T14:16:13Z</time>
      </trkpt>
      <trkpt lat="43.99833" lon="7.51177">
        <ele>598.24</ele>
        <time>2018-08-05T14:16:09Z</time>
      </trkpt>
      <trkpt lat="43.99833" lon="7.51159">
        <ele>599.25</ele>
        <time>2018-08-05T14:16:08Z</time>
      </trkpt>
      <trkpt lat="43.99835" lon="7.5114">
        <ele>600.11</ele>
        <time>2018-08-05T14:16:07Z</time>
      </trkpt>
      <trkpt lat="43.99834" lon="7.5108">
        <ele>603.69</ele>
        <time>2018-08-05T14:16:04Z</time>
      </trkpt>
      <trkpt lat="43.99833" lon="7.51059">
        <ele>604.41</ele>
        <time>2018-08-05T14:16:03Z</time>
      </trkpt>
      <trkpt lat="43.99822" lon="7.51009">
        <ele>607.31</ele>
        <time>2018-08-05T14:16:00Z</time>
      </trkpt>
      <trkpt lat="43.99813" lon="7.50945">
        <ele>608.06</ele>
        <time>2018-08-05T14:15:56Z</time>
      </trkpt>
      <trkpt lat="43.99811" lon="7.50931">
        <ele>608.3</ele>
        <time>2018-08-05T14:15:55Z</time>
      </trkpt>
      <trkpt lat="43.9981" lon="7.50917">
        <ele>608.7</ele>
        <time>2018-08-05T14:15:54Z</time>
      </trkpt>
      <trkpt lat="43.99811" lon="7.5088">
        <ele>610.36</ele>
        <time>2018-08-05T14:15:51Z</time>
      </trkpt>
      <trkpt lat="43.99811" lon="7.50867">
        <ele>611.11</ele>
        <time>2018-08-05T14:15:50Z</time>
      </trkpt>
      <trkpt lat="43.99812" lon="7.50854">
        <ele>612.07</ele>
        <time>2018-08-05T14:15:49Z</time>
      </trkpt>
      <trkpt lat="43.99811" lon="7.50842">
        <ele>612.57</ele>
        <time>2018-08-05T14:15:48Z</time>
      </trkpt>
      <trkpt lat="43.99808" lon="7.50829">
        <ele>613.24</ele>
        <time>2018-08-05T14:15:47Z</time>
      </trkpt>
      <trkpt lat="43.99805" lon="7.50817">
        <ele>614.35</ele>
        <time>2018-08-05T14:15:46Z</time>
      </trkpt>
      <trkpt lat="43.99795" lon="7.50794">
        <ele>616.33</ele>
        <time>2018-08-05T14:15:44Z</time>
      </trkpt>
      <trkpt lat="43.9978" lon="7.5076">
        <ele>619.53</ele>
        <time>2018-08-05T14:15:41Z</time>
      </trkpt>
      <trkpt lat="43.99774" lon="7.50749">
        <ele>620.69</ele>
        <time>2018-08-05T14:15:40Z</time>
      </trkpt>
      <trkpt lat="43.99751" lon="7.50717">
        <ele>624.66</ele>
        <time>2018-08-05T14:15:37Z</time>
      </trkpt>
      <trkpt lat="43.99741" lon="7.50706">
        <ele>626.03</ele>
        <time>2018-08-05T14:15:36Z</time>
      </trkpt>
      <trkpt lat="43.99732" lon="7.50694">
        <ele>627.13</ele>
        <time>2018-08-05T14:15:35Z</time>
      </trkpt>
      <trkpt lat="43.99724" lon="7.50683">
        <ele>628.08</ele>
        <time>2018-08-05T14:15:34Z</time>
      </trkpt>
      <trkpt lat="43.99717" lon="7.50672">
        <ele>628.68</ele>
        <time>2018-08-05T14:15:33Z</time>
      </trkpt>
      <trkpt lat="43.99711" lon="7.5066">
        <ele>629.69</ele>
        <time>2018-08-05T14:15:32Z</time>
      </trkpt>
      <trkpt lat="43.99705" lon="7.50648">
        <ele>630.69</ele>
        <time>2018-08-05T14:15:31Z</time>
      </trkpt>
      <trkpt lat="43.997" lon="7.50635">
        <ele>631.6</ele>
        <time>2018-08-05T14:15:30Z</time>
      </trkpt>
      <trkpt lat="43.99696" lon="7.50622">
        <ele>632.23</ele>
        <time>2018-08-05T14:15:29Z</time>
      </trkpt>
      <trkpt lat="43.99692" lon="7.50608">
        <ele>632.3</ele>
        <time>2018-08-05T14:15:28Z</time>
      </trkpt>
      <trkpt lat="43.99688" lon="7.50597">
        <ele>632.72</ele>
        <time>2018-08-05T14:15:27Z</time>
      </trkpt>
      <trkpt lat="43.99681" lon="7.50589">
        <ele>633.52</ele>
        <time>2018-08-05T14:15:26Z</time>
      </trkpt>
      <trkpt lat="43.99673" lon="7.50583">
        <ele>634.82</ele>
        <time>2018-08-05T14:15:25Z</time>
      </trkpt>
      <trkpt lat="43.99663" lon="7.50577">
        <ele>636.87</ele>
        <time>2018-08-05T14:15:24Z</time>
      </trkpt>
      <trkpt lat="43.99652" lon="7.50573">
        <ele>638.15</ele>
        <time>2018-08-05T14:15:23Z</time>
      </trkpt>
      <trkpt lat="43.9964" lon="7.5057">
        <ele>638.69</ele>
        <time>2018-08-05T14:15:22Z</time>
      </trkpt>
      <trkpt lat="43.99629" lon="7.50569">
        <ele>638.94</ele>
        <time>2018-08-05T14:15:21Z</time>
      </trkpt>
      <trkpt lat="43.9962" lon="7.50565">
        <ele>639.35</ele>
        <time>2018-08-05T14:15:20Z</time>
      </trkpt>
      <trkpt lat="43.99613" lon="7.50559">
        <ele>639.68</ele>
        <time>2018-08-05T14:15:19Z</time>
      </trkpt>
      <trkpt lat="43.99609" lon="7.5055">
        <ele>640.26</ele>
        <time>2018-08-05T14:15:18Z</time>
      </trkpt>
      <trkpt lat="43.99606" lon="7.50539">
        <ele>640.73</ele>
        <time>2018-08-05T14:15:17Z</time>
      </trkpt>
      <trkpt lat="43.99605" lon="7.50527">
        <ele>640.84</ele>
        <time>2018-08-05T14:15:16Z</time>
      </trkpt>
      <trkpt lat="43.99602" lon="7.50516">
        <ele>641.14</ele>
        <time>2018-08-05T14:15:15Z</time>
      </trkpt>
      <trkpt lat="43.99598" lon="7.50505">
        <ele>641.44</ele>
        <time>2018-08-05T14:15:14Z</time>
      </trkpt>
      <trkpt lat="43.99594" lon="7.50493">
        <ele>641.71</ele>
        <time>2018-08-05T14:15:13Z</time>
      </trkpt>
      <trkpt lat="43.99592" lon="7.50481">
        <ele>642.37</ele>
        <time>2018-08-05T14:15:12Z</time>
      </trkpt>
      <trkpt lat="43.99591" lon="7.50468">
        <ele>643.02</ele>
        <time>2018-08-05T14:15:11Z</time>
      </trkpt>
      <trkpt lat="43.99592" lon="7.50455">
        <ele>643.5</ele>
        <time>2018-08-05T14:15:10Z</time>
      </trkpt>
      <trkpt lat="43.99604" lon="7.50405">
        <ele>645.54</ele>
        <time>2018-08-05T14:15:06Z</time>
      </trkpt>
      <trkpt lat="43.99608" lon="7.50394">
        <ele>645.85</ele>
        <time>2018-08-05T14:15:05Z</time>
      </trkpt>
      <trkpt lat="43.99611" lon="7.50382">
        <ele>646.28</ele>
        <time>2018-08-05T14:15:04Z</time>
      </trkpt>
      <trkpt lat="43.99611" lon="7.50342">
        <ele>647.97</ele>
        <time>2018-08-05T14:15:01Z</time>
      </trkpt>
      <trkpt lat="43.99611" lon="7.50331">
        <ele>648.58</ele>
        <time>2018-08-05T14:15:00Z</time>
      </trkpt>
      <trkpt lat="43.99611" lon="7.50319">
        <ele>649.2</ele>
        <time>2018-08-05T14:14:59Z</time>
      </trkpt>
      <trkpt lat="43.99616" lon="7.50296">
        <ele>650.76</ele>
        <time>2018-08-05T14:14:57Z</time>
      </trkpt>
      <trkpt lat="43.99619" lon="7.50284">
        <ele>651.77</ele>
        <time>2018-08-05T14:14:56Z</time>
      </trkpt>
      <trkpt lat="43.99624" lon="7.50274">
        <ele>652.31</ele>
        <time>2018-08-05T14:14:55Z</time>
      </trkpt>
      <trkpt lat="43.9963" lon="7.50266">
        <ele>653.11</ele>
        <time>2018-08-05T14:14:54Z</time>
      </trkpt>
      <trkpt lat="43.99637" lon="7.5026">
        <ele>653.69</ele>
        <time>2018-08-05T14:14:53Z</time>
      </trkpt>
      <trkpt lat="43.99643" lon="7.50252">
        <ele>654.09</ele>
        <time>2018-08-05T14:14:52Z</time>
      </trkpt>
      <trkpt lat="43.99646" lon="7.5024">
        <ele>654.69</ele>
        <time>2018-08-05T14:14:51Z</time>
      </trkpt>
      <trkpt lat="43.99647" lon="7.50227">
        <ele>655.79</ele>
        <time>2018-08-05T14:14:50Z</time>
      </trkpt>
      <trkpt lat="43.99646" lon="7.50198">
        <ele>657.41</ele>
        <time>2018-08-05T14:14:48Z</time>
      </trkpt>
      <trkpt lat="43.99645" lon="7.50182">
        <ele>658.05</ele>
        <time>2018-08-05T14:14:47Z</time>
      </trkpt>
      <trkpt lat="43.99643" lon="7.50167">
        <ele>658.42</ele>
        <time>2018-08-05T14:14:46Z</time>
      </trkpt>
      <trkpt lat="43.99641" lon="7.50154">
        <ele>658.86</ele>
        <time>2018-08-05T14:14:45Z</time>
      </trkpt>
      <trkpt lat="43.99638" lon="7.50142">
        <ele>659.41</ele>
        <time>2018-08-05T14:14:44Z</time>
      </trkpt>
      <trkpt lat="43.99634" lon="7.50132">
        <ele>659.76</ele>
        <time>2018-08-05T14:14:43Z</time>
      </trkpt>
      <trkpt lat="43.99633" lon="7.50123">
        <ele>660.31</ele>
        <time>2018-08-05T14:14:42Z</time>
      </trkpt>
      <trkpt lat="43.99634" lon="7.50114">
        <ele>661.13</ele>
        <time>2018-08-05T14:14:41Z</time>
      </trkpt>
      <trkpt lat="43.99638" lon="7.50108">
        <ele>661.76</ele>
        <time>2018-08-05T14:14:40Z</time>
      </trkpt>
      <trkpt lat="43.99645" lon="7.50103">
        <ele>662.37</ele>
        <time>2018-08-05T14:14:39Z</time>
      </trkpt>
      <trkpt lat="43.9966" lon="7.50091">
        <ele>664.64</ele>
        <time>2018-08-05T14:14:37Z</time>
      </trkpt>
      <trkpt lat="43.9967" lon="7.50085">
        <ele>665.77</ele>
        <time>2018-08-05T14:14:36Z</time>
      </trkpt>
      <trkpt lat="43.99679" lon="7.50078">
        <ele>667.02</ele>
        <time>2018-08-05T14:14:35Z</time>
      </trkpt>
      <trkpt lat="43.99689" lon="7.5007">
        <ele>668.18</ele>
        <time>2018-08-05T14:14:34Z</time>
      </trkpt>
      <trkpt lat="43.99698" lon="7.50063">
        <ele>669.22</ele>
        <time>2018-08-05T14:14:33Z</time>
      </trkpt>
      <trkpt lat="43.99705" lon="7.50057">
        <ele>669.53</ele>
        <time>2018-08-05T14:14:32Z</time>
      </trkpt>
      <trkpt lat="43.99712" lon="7.5005">
        <ele>670.05</ele>
        <time>2018-08-05T14:14:31Z</time>
      </trkpt>
      <trkpt lat="43.99717" lon="7.50041">
        <ele>670.2</ele>
        <time>2018-08-05T14:14:30Z</time>
      </trkpt>
      <trkpt lat="43.99721" lon="7.50032">
        <ele>670.41</ele>
        <time>2018-08-05T14:14:29Z</time>
      </trkpt>
      <trkpt lat="43.99724" lon="7.50022">
        <ele>670.75</ele>
        <time>2018-08-05T14:14:28Z</time>
      </trkpt>
      <trkpt lat="43.99726" lon="7.5001">
        <ele>671.2</ele>
        <time>2018-08-05T14:14:27Z</time>
      </trkpt>
      <trkpt lat="43.99729" lon="7.49998">
        <ele>672.16</ele>
        <time>2018-08-05T14:14:26Z</time>
      </trkpt>
      <trkpt lat="43.99734" lon="7.49985">
        <ele>673.02</ele>
        <time>2018-08-05T14:14:25Z</time>
      </trkpt>
      <trkpt lat="43.9974" lon="7.49973">
        <ele>673.97</ele>
        <time>2018-08-05T14:14:24Z</time>
      </trkpt>
      <trkpt lat="43.99748" lon="7.49961">
        <ele>674.68</ele>
        <time>2018-08-05T14:14:23Z</time>
      </trkpt>
      <trkpt lat="43.99757" lon="7.4995">
        <ele>675.6</ele>
        <time>2018-08-05T14:14:22Z</time>
      </trkpt>
      <trkpt lat="43.99767" lon="7.4994">
        <ele>676.96</ele>
        <time>2018-08-05T14:14:21Z</time>
      </trkpt>
      <trkpt lat="43.99816" lon="7.49901">
        <ele>681.49</ele>
        <time>2018-08-05T14:14:17Z</time>
      </trkpt>
      <trkpt lat="43.99827" lon="7.49891">
        <ele>682.1</ele>
        <time>2018-08-05T14:14:16Z</time>
      </trkpt>
      <trkpt lat="43.99836" lon="7.4988">
        <ele>682.91</ele>
        <time>2018-08-05T14:14:15Z</time>
      </trkpt>
      <trkpt lat="43.9985" lon="7.49859">
        <ele>684.88</ele>
        <time>2018-08-05T14:14:13Z</time>
      </trkpt>
      <trkpt lat="43.99857" lon="7.49849">
        <ele>686.31</ele>
        <time>2018-08-05T14:14:12Z</time>
      </trkpt>
      <trkpt lat="43.99875" lon="7.49834">
        <ele>689.57</ele>
        <time>2018-08-05T14:14:10Z</time>
      </trkpt>
      <trkpt lat="43.99916" lon="7.49797">
        <ele>693.59</ele>
        <time>2018-08-05T14:14:05Z</time>
      </trkpt>
      <trkpt lat="43.99923" lon="7.4979">
        <ele>693.94</ele>
        <time>2018-08-05T14:14:04Z</time>
      </trkpt>
      <trkpt lat="43.9993" lon="7.49782">
        <ele>695</ele>
        <time>2018-08-05T14:14:03Z</time>
      </trkpt>
      <trkpt lat="43.99936" lon="7.49772">
        <ele>695.77</ele>
        <time>2018-08-05T14:14:02Z</time>
      </trkpt>
      <trkpt lat="43.99941" lon="7.49761">
        <ele>696.72</ele>
        <time>2018-08-05T14:14:01Z</time>
      </trkpt>
      <trkpt lat="43.99945" lon="7.4975">
        <ele>697.88</ele>
        <time>2018-08-05T14:14:00Z</time>
      </trkpt>
      <trkpt lat="43.99947" lon="7.49738">
        <ele>699.53</ele>
        <time>2018-08-05T14:13:59Z</time>
      </trkpt>
      <trkpt lat="43.99948" lon="7.49727">
        <ele>701.2</ele>
        <time>2018-08-05T14:13:58Z</time>
      </trkpt>
      <trkpt lat="43.99952" lon="7.49715">
        <ele>703.18</ele>
        <time>2018-08-05T14:13:57Z</time>
      </trkpt>
      <trkpt lat="43.99964" lon="7.49691">
        <ele>707.25</ele>
        <time>2018-08-05T14:13:55Z</time>
      </trkpt>
      <trkpt lat="43.99979" lon="7.49652">
        <ele>710.9</ele>
        <time>2018-08-05T14:13:52Z</time>
      </trkpt>
      <trkpt lat="43.99993" lon="7.49609">
        <ele>714.51</ele>
        <time>2018-08-05T14:13:49Z</time>
      </trkpt>
      <trkpt lat="44.00021" lon="7.49514">
        <ele>717.95</ele>
        <time>2018-08-05T14:13:43Z</time>
      </trkpt>
      <trkpt lat="44.00023" lon="7.49503">
        <ele>718.14</ele>
        <time>2018-08-05T14:13:42Z</time>
      </trkpt>
      <trkpt lat="44.00026" lon="7.49494">
        <ele>718.24</ele>
        <time>2018-08-05T14:13:41Z</time>
      </trkpt>
      <trkpt lat="44.00049" lon="7.49464">
        <ele>720.54</ele>
        <time>2018-08-05T14:13:37Z</time>
      </trkpt>
      <trkpt lat="44.00057" lon="7.49454">
        <ele>721.08</ele>
        <time>2018-08-05T14:13:36Z</time>
      </trkpt>
      <trkpt lat="44.00089" lon="7.4939">
        <ele>725.32</ele>
        <time>2018-08-05T14:13:32Z</time>
      </trkpt>
      <trkpt lat="44.00099" lon="7.49374">
        <ele>725.81</ele>
        <time>2018-08-05T14:13:31Z</time>
      </trkpt>
      <trkpt lat="44.00118" lon="7.49349">
        <ele>728.22</ele>
        <time>2018-08-05T14:13:29Z</time>
      </trkpt>
      <trkpt lat="44.00153" lon="7.49314">
        <ele>731.96</ele>
        <time>2018-08-05T14:13:25Z</time>
      </trkpt>
      <trkpt lat="44.00179" lon="7.49289">
        <ele>735.24</ele>
        <time>2018-08-05T14:13:22Z</time>
      </trkpt>
      <trkpt lat="44.00212" lon="7.49249">
        <ele>738.82</ele>
        <time>2018-08-05T14:13:18Z</time>
      </trkpt>
      <trkpt lat="44.00241" lon="7.49207">
        <ele>742.44</ele>
        <time>2018-08-05T14:13:14Z</time>
      </trkpt>
      <trkpt lat="44.00247" lon="7.49198">
        <ele>742.48</ele>
        <time>2018-08-05T14:13:13Z</time>
      </trkpt>
      <trkpt lat="44.00252" lon="7.49188">
        <ele>743.31</ele>
        <time>2018-08-05T14:13:12Z</time>
      </trkpt>
      <trkpt lat="44.0027" lon="7.49142">
        <ele>746.82</ele>
        <time>2018-08-05T14:13:08Z</time>
      </trkpt>
      <trkpt lat="44.00273" lon="7.49132">
        <ele>747.43</ele>
        <time>2018-08-05T14:13:07Z</time>
      </trkpt>
      <trkpt lat="44.00276" lon="7.49123">
        <ele>748.3</ele>
        <time>2018-08-05T14:13:06Z</time>
      </trkpt>
      <trkpt lat="44.00277" lon="7.49115">
        <ele>748.9</ele>
        <time>2018-08-05T14:13:05Z</time>
      </trkpt>
      <trkpt lat="44.00277" lon="7.49106">
        <ele>749.86</ele>
        <time>2018-08-05T14:13:04Z</time>
      </trkpt>
      <trkpt lat="44.00276" lon="7.49097">
        <ele>750.68</ele>
        <time>2018-08-05T14:13:03Z</time>
      </trkpt>
      <trkpt lat="44.00275" lon="7.49087">
        <ele>751.32</ele>
        <time>2018-08-05T14:13:02Z</time>
      </trkpt>
      <trkpt lat="44.00276" lon="7.49076">
        <ele>752.35</ele>
        <time>2018-08-05T14:13:01Z</time>
      </trkpt>
      <trkpt lat="44.00281" lon="7.49067">
        <ele>753.39</ele>
        <time>2018-08-05T14:13:00Z</time>
      </trkpt>
      <trkpt lat="44.00287" lon="7.49061">
        <ele>754.42</ele>
        <time>2018-08-05T14:12:59Z</time>
      </trkpt>
      <trkpt lat="44.00296" lon="7.49056">
        <ele>755.1</ele>
        <time>2018-08-05T14:12:58Z</time>
      </trkpt>
      <trkpt lat="44.00304" lon="7.49053">
        <ele>755.78</ele>
        <time>2018-08-05T14:12:57Z</time>
      </trkpt>
      <trkpt lat="44.00313" lon="7.49049">
        <ele>756.2</ele>
        <time>2018-08-05T14:12:56Z</time>
      </trkpt>
      <trkpt lat="44.00319" lon="7.49043">
        <ele>756.55</ele>
        <time>2018-08-05T14:12:55Z</time>
      </trkpt>
      <trkpt lat="44.00323" lon="7.49035">
        <ele>757.38</ele>
        <time>2018-08-05T14:12:54Z</time>
      </trkpt>
      <trkpt lat="44.00323" lon="7.49026">
        <ele>758.35</ele>
        <time>2018-08-05T14:12:53Z</time>
      </trkpt>
      <trkpt lat="44.00321" lon="7.49016">
        <ele>759.9</ele>
        <time>2018-08-05T14:12:52Z</time>
      </trkpt>
      <trkpt lat="44.00318" lon="7.49005">
        <ele>761.69</ele>
        <time>2018-08-05T14:12:51Z</time>
      </trkpt>
      <trkpt lat="44.00315" lon="7.48992">
        <ele>762.64</ele>
        <time>2018-08-05T14:12:50Z</time>
      </trkpt>
      <trkpt lat="44.00312" lon="7.48979">
        <ele>763.73</ele>
        <time>2018-08-05T14:12:49Z</time>
      </trkpt>
      <trkpt lat="44.00312" lon="7.48966">
        <ele>765.16</ele>
        <time>2018-08-05T14:12:48Z</time>
      </trkpt>
      <trkpt lat="44.00317" lon="7.48941">
        <ele>768.54</ele>
        <time>2018-08-05T14:12:46Z</time>
      </trkpt>
      <trkpt lat="44.00319" lon="7.48928">
        <ele>769.41</ele>
        <time>2018-08-05T14:12:45Z</time>
      </trkpt>
      <trkpt lat="44.0032" lon="7.489">
        <ele>772.05</ele>
        <time>2018-08-05T14:12:43Z</time>
      </trkpt>
      <trkpt lat="44.0032" lon="7.48885">
        <ele>773.24</ele>
        <time>2018-08-05T14:12:42Z</time>
      </trkpt>
      <trkpt lat="44.0032" lon="7.4887">
        <ele>774.24</ele>
        <time>2018-08-05T14:12:41Z</time>
      </trkpt>
      <trkpt lat="44.00319" lon="7.48822">
        <ele>776.32</ele>
        <time>2018-08-05T14:12:38Z</time>
      </trkpt>
      <trkpt lat="44.00318" lon="7.48808">
        <ele>776.44</ele>
        <time>2018-08-05T14:12:37Z</time>
      </trkpt>
      <trkpt lat="44.00317" lon="7.48796">
        <ele>777.17</ele>
        <time>2018-08-05T14:12:36Z</time>
      </trkpt>
      <trkpt lat="44.00318" lon="7.48786">
        <ele>777.88</ele>
        <time>2018-08-05T14:12:35Z</time>
      </trkpt>
      <trkpt lat="44.0032" lon="7.48778">
        <ele>778.91</ele>
        <time>2018-08-05T14:12:34Z</time>
      </trkpt>
      <trkpt lat="44.00324" lon="7.48769">
        <ele>780.44</ele>
        <time>2018-08-05T14:12:33Z</time>
      </trkpt>
      <trkpt lat="44.00328" lon="7.48757">
        <ele>781.99</ele>
        <time>2018-08-05T14:12:32Z</time>
      </trkpt>
      <trkpt lat="44.00334" lon="7.48728">
        <ele>786.17</ele>
        <time>2018-08-05T14:12:30Z</time>
      </trkpt>
      <trkpt lat="44.00342" lon="7.48694">
        <ele>790.5</ele>
        <time>2018-08-05T14:12:28Z</time>
      </trkpt>
      <trkpt lat="44.00351" lon="7.48657">
        <ele>794.53</ele>
        <time>2018-08-05T14:12:26Z</time>
      </trkpt>
      <trkpt lat="44.00361" lon="7.4862">
        <ele>798.34</ele>
        <time>2018-08-05T14:12:24Z</time>
      </trkpt>
      <trkpt lat="44.00375" lon="7.48568">
        <ele>803.08</ele>
        <time>2018-08-05T14:12:21Z</time>
      </trkpt>
      <trkpt lat="44.00379" lon="7.48552">
        <ele>804.16</ele>
        <time>2018-08-05T14:12:20Z</time>
      </trkpt>
      <trkpt lat="44.00382" lon="7.48521">
        <ele>806.55</ele>
        <time>2018-08-05T14:12:18Z</time>
      </trkpt>
      <trkpt lat="44.00384" lon="7.48504">
        <ele>807.72</ele>
        <time>2018-08-05T14:12:17Z</time>
      </trkpt>
      <trkpt lat="44.00393" lon="7.48473">
        <ele>810.58</ele>
        <time>2018-08-05T14:12:15Z</time>
      </trkpt>
      <trkpt lat="44.00411" lon="7.4843">
        <ele>813.8</ele>
        <time>2018-08-05T14:12:12Z</time>
      </trkpt>
      <trkpt lat="44.00422" lon="7.48402">
        <ele>816.5</ele>
        <time>2018-08-05T14:12:10Z</time>
      </trkpt>
      <trkpt lat="44.0044" lon="7.48355">
        <ele>819.76</ele>
        <time>2018-08-05T14:12:07Z</time>
      </trkpt>
      <trkpt lat="44.00451" lon="7.4832">
        <ele>823.45</ele>
        <time>2018-08-05T14:12:05Z</time>
      </trkpt>
      <trkpt lat="44.00461" lon="7.48283">
        <ele>827.72</ele>
        <time>2018-08-05T14:12:03Z</time>
      </trkpt>
      <trkpt lat="44.0047" lon="7.48248">
        <ele>831.77</ele>
        <time>2018-08-05T14:12:01Z</time>
      </trkpt>
      <trkpt lat="44.00477" lon="7.48214">
        <ele>835.41</ele>
        <time>2018-08-05T14:11:59Z</time>
      </trkpt>
      <trkpt lat="44.00481" lon="7.48181">
        <ele>838.46</ele>
        <time>2018-08-05T14:11:57Z</time>
      </trkpt>
      <trkpt lat="44.00483" lon="7.48166">
        <ele>839.52</ele>
        <time>2018-08-05T14:11:56Z</time>
      </trkpt>
      <trkpt lat="44.00496" lon="7.48119">
        <ele>843.39</ele>
        <time>2018-08-05T14:11:52Z</time>
      </trkpt>
      <trkpt lat="44.00506" lon="7.48097">
        <ele>844.25</ele>
        <time>2018-08-05T14:11:50Z</time>
      </trkpt>
      <trkpt lat="44.00511" lon="7.48085">
        <ele>844.56</ele>
        <time>2018-08-05T14:11:49Z</time>
      </trkpt>
      <trkpt lat="44.00515" lon="7.48073">
        <ele>845.4</ele>
        <time>2018-08-05T14:11:48Z</time>
      </trkpt>
      <trkpt lat="44.00521" lon="7.48031">
        <ele>848.04</ele>
        <time>2018-08-05T14:11:45Z</time>
      </trkpt>
      <trkpt lat="44.00522" lon="7.48014">
        <ele>848.48</ele>
        <time>2018-08-05T14:11:44Z</time>
      </trkpt>
      <trkpt lat="44.0052" lon="7.47982">
        <ele>850.27</ele>
        <time>2018-08-05T14:11:42Z</time>
      </trkpt>
      <trkpt lat="44.00518" lon="7.47968">
        <ele>850.68</ele>
        <time>2018-08-05T14:11:41Z</time>
      </trkpt>
      <trkpt lat="44.00516" lon="7.47954">
        <ele>851.19</ele>
        <time>2018-08-05T14:11:40Z</time>
      </trkpt>
      <trkpt lat="44.00516" lon="7.47941">
        <ele>851.92</ele>
        <time>2018-08-05T14:11:39Z</time>
      </trkpt>
      <trkpt lat="44.00517" lon="7.47929">
        <ele>852.38</ele>
        <time>2018-08-05T14:11:38Z</time>
      </trkpt>
      <trkpt lat="44.0052" lon="7.47918">
        <ele>853.04</ele>
        <time>2018-08-05T14:11:37Z</time>
      </trkpt>
      <trkpt lat="44.00523" lon="7.47906">
        <ele>853.72</ele>
        <time>2018-08-05T14:11:36Z</time>
      </trkpt>
      <trkpt lat="44.00526" lon="7.47895">
        <ele>854.56</ele>
        <time>2018-08-05T14:11:35Z</time>
      </trkpt>
      <trkpt lat="44.00528" lon="7.47883">
        <ele>855.39</ele>
        <time>2018-08-05T14:11:34Z</time>
      </trkpt>
      <trkpt lat="44.00529" lon="7.47872">
        <ele>855.76</ele>
        <time>2018-08-05T14:11:33Z</time>
      </trkpt>
      <trkpt lat="44.00529" lon="7.4786">
        <ele>856.4</ele>
        <time>2018-08-05T14:11:32Z</time>
      </trkpt>
      <trkpt lat="44.00527" lon="7.47835">
        <ele>857.08</ele>
        <time>2018-08-05T14:11:30Z</time>
      </trkpt>
      <trkpt lat="44.00527" lon="7.47822">
        <ele>857.66</ele>
        <time>2018-08-05T14:11:29Z</time>
      </trkpt>
      <trkpt lat="44.00528" lon="7.47808">
        <ele>858.03</ele>
        <time>2018-08-05T14:11:28Z</time>
      </trkpt>
      <trkpt lat="44.00536" lon="7.47763">
        <ele>861.27</ele>
        <time>2018-08-05T14:11:25Z</time>
      </trkpt>
      <trkpt lat="44.00555" lon="7.47663">
        <ele>864.5</ele>
        <time>2018-08-05T14:11:19Z</time>
      </trkpt>
      <trkpt lat="44.00559" lon="7.4765">
        <ele>864.95</ele>
        <time>2018-08-05T14:11:18Z</time>
      </trkpt>
      <trkpt lat="44.00563" lon="7.47638">
        <ele>865.29</ele>
        <time>2018-08-05T14:11:17Z</time>
      </trkpt>
      <trkpt lat="44.00568" lon="7.47629">
        <ele>865.53</ele>
        <time>2018-08-05T14:11:16Z</time>
      </trkpt>
      <trkpt lat="44.00574" lon="7.47623">
        <ele>865.85</ele>
        <time>2018-08-05T14:11:15Z</time>
      </trkpt>
      <trkpt lat="44.00581" lon="7.47618">
        <ele>865.98</ele>
        <time>2018-08-05T14:11:14Z</time>
      </trkpt>
      <trkpt lat="44.00587" lon="7.47613">
        <ele>865.93</ele>
        <time>2018-08-05T14:11:13Z</time>
      </trkpt>
      <trkpt lat="44.00591" lon="7.47608">
        <ele>866.57</ele>
        <time>2018-08-05T14:11:12Z</time>
      </trkpt>
      <trkpt lat="44.00597" lon="7.47591">
        <ele>868.54</ele>
        <time>2018-08-05T14:11:10Z</time>
      </trkpt>
      <trkpt lat="44.006" lon="7.4758">
        <ele>869.3</ele>
        <time>2018-08-05T14:11:09Z</time>
      </trkpt>
      <trkpt lat="44.00602" lon="7.4757">
        <ele>869.43</ele>
        <time>2018-08-05T14:11:08Z</time>
      </trkpt>
      <trkpt lat="44.00603" lon="7.47561">
        <ele>869.74</ele>
        <time>2018-08-05T14:11:07Z</time>
      </trkpt>
      <trkpt lat="44.00602" lon="7.47553">
        <ele>870.32</ele>
        <time>2018-08-05T14:11:06Z</time>
      </trkpt>
      <trkpt lat="44.006" lon="7.47544">
        <ele>871.21</ele>
        <time>2018-08-05T14:11:05Z</time>
      </trkpt>
      <trkpt lat="44.00598" lon="7.47533">
        <ele>872.56</ele>
        <time>2018-08-05T14:11:04Z</time>
      </trkpt>
      <trkpt lat="44.00597" lon="7.4752">
        <ele>873.63</ele>
        <time>2018-08-05T14:11:03Z</time>
      </trkpt>
      <trkpt lat="44.00597" lon="7.47508">
        <ele>874.85</ele>
        <time>2018-08-05T14:11:02Z</time>
      </trkpt>
      <trkpt lat="44.006" lon="7.47496">
        <ele>875.76</ele>
        <time>2018-08-05T14:11:01Z</time>
      </trkpt>
      <trkpt lat="44.00604" lon="7.47485">
        <ele>876.44</ele>
        <time>2018-08-05T14:11:00Z</time>
      </trkpt>
      <trkpt lat="44.00608" lon="7.47474">
        <ele>877.26</ele>
        <time>2018-08-05T14:10:59Z</time>
      </trkpt>
      <trkpt lat="44.00613" lon="7.47464">
        <ele>877.93</ele>
        <time>2018-08-05T14:10:58Z</time>
      </trkpt>
      <trkpt lat="44.00619" lon="7.47456">
        <ele>878.7</ele>
        <time>2018-08-05T14:10:57Z</time>
      </trkpt>
      <trkpt lat="44.00626" lon="7.47448">
        <ele>879.7</ele>
        <time>2018-08-05T14:10:56Z</time>
      </trkpt>
      <trkpt lat="44.00634" lon="7.47441">
        <ele>881.15</ele>
        <time>2018-08-05T14:10:55Z</time>
      </trkpt>
      <trkpt lat="44.00653" lon="7.47429">
        <ele>884.36</ele>
        <time>2018-08-05T14:10:53Z</time>
      </trkpt>
      <trkpt lat="44.00663" lon="7.47424">
        <ele>885.24</ele>
        <time>2018-08-05T14:10:52Z</time>
      </trkpt>
      <trkpt lat="44.00672" lon="7.47418">
        <ele>886.37</ele>
        <time>2018-08-05T14:10:51Z</time>
      </trkpt>
      <trkpt lat="44.00681" lon="7.4741">
        <ele>887.4</ele>
        <time>2018-08-05T14:10:50Z</time>
      </trkpt>
      <trkpt lat="44.00688" lon="7.47401">
        <ele>888.15</ele>
        <time>2018-08-05T14:10:49Z</time>
      </trkpt>
      <trkpt lat="44.00693" lon="7.47389">
        <ele>889.7</ele>
        <time>2018-08-05T14:10:48Z</time>
      </trkpt>
      <trkpt lat="44.00697" lon="7.47376">
        <ele>891.43</ele>
        <time>2018-08-05T14:10:47Z</time>
      </trkpt>
      <trkpt lat="44.007" lon="7.47362">
        <ele>893.13</ele>
        <time>2018-08-05T14:10:46Z</time>
      </trkpt>
      <trkpt lat="44.00704" lon="7.47331">
        <ele>897.12</ele>
        <time>2018-08-05T14:10:44Z</time>
      </trkpt>
      <trkpt lat="44.00708" lon="7.473">
        <ele>901.66</ele>
        <time>2018-08-05T14:10:42Z</time>
      </trkpt>
      <trkpt lat="44.00713" lon="7.47268">
        <ele>905.76</ele>
        <time>2018-08-05T14:10:40Z</time>
      </trkpt>
      <trkpt lat="44.00718" lon="7.47236">
        <ele>909.32</ele>
        <time>2018-08-05T14:10:38Z</time>
      </trkpt>
      <trkpt lat="44.00723" lon="7.47208">
        <ele>913.2</ele>
        <time>2018-08-05T14:10:36Z</time>
      </trkpt>
      <trkpt lat="44.00727" lon="7.47195">
        <ele>914.77</ele>
        <time>2018-08-05T14:10:35Z</time>
      </trkpt>
      <trkpt lat="44.0073" lon="7.47183">
        <ele>916.28</ele>
        <time>2018-08-05T14:10:34Z</time>
      </trkpt>
      <trkpt lat="44.00732" lon="7.4717">
        <ele>917.86</ele>
        <time>2018-08-05T14:10:33Z</time>
      </trkpt>
      <trkpt lat="44.00733" lon="7.47157">
        <ele>919.66</ele>
        <time>2018-08-05T14:10:32Z</time>
      </trkpt>
      <trkpt lat="44.00734" lon="7.47143">
        <ele>921.19</ele>
        <time>2018-08-05T14:10:31Z</time>
      </trkpt>
      <trkpt lat="44.00734" lon="7.47129">
        <ele>922.74</ele>
        <time>2018-08-05T14:10:30Z</time>
      </trkpt>
      <trkpt lat="44.00733" lon="7.47114">
        <ele>924.17</ele>
        <time>2018-08-05T14:10:29Z</time>
      </trkpt>
      <trkpt lat="44.00732" lon="7.47098">
        <ele>925.46</ele>
        <time>2018-08-05T14:10:28Z</time>
      </trkpt>
      <trkpt lat="44.00733" lon="7.47083">
        <ele>926.9</ele>
        <time>2018-08-05T14:10:27Z</time>
      </trkpt>
      <trkpt lat="44.00736" lon="7.47069">
        <ele>928.68</ele>
        <time>2018-08-05T14:10:26Z</time>
      </trkpt>
      <trkpt lat="44.0074" lon="7.47056">
        <ele>929.98</ele>
        <time>2018-08-05T14:10:25Z</time>
      </trkpt>
      <trkpt lat="44.00752" lon="7.47032">
        <ele>931.88</ele>
        <time>2018-08-05T14:10:23Z</time>
      </trkpt>
      <trkpt lat="44.00758" lon="7.4702">
        <ele>932.91</ele>
        <time>2018-08-05T14:10:22Z</time>
      </trkpt>
      <trkpt lat="44.00762" lon="7.47007">
        <ele>933.94</ele>
        <time>2018-08-05T14:10:21Z</time>
      </trkpt>
      <trkpt lat="44.00768" lon="7.46964">
        <ele>938.13</ele>
        <time>2018-08-05T14:10:18Z</time>
      </trkpt>
      <trkpt lat="44.0077" lon="7.46951">
        <ele>938.91</ele>
        <time>2018-08-05T14:10:17Z</time>
      </trkpt>
      <trkpt lat="44.00774" lon="7.46938">
        <ele>939.97</ele>
        <time>2018-08-05T14:10:16Z</time>
      </trkpt>
      <trkpt lat="44.00789" lon="7.469">
        <ele>943.91</ele>
        <time>2018-08-05T14:10:13Z</time>
      </trkpt>
      <trkpt lat="44.00794" lon="7.46886">
        <ele>945.18</ele>
        <time>2018-08-05T14:10:12Z</time>
      </trkpt>
      <trkpt lat="44.00797" lon="7.46872">
        <ele>946.71</ele>
        <time>2018-08-05T14:10:11Z</time>
      </trkpt>
      <trkpt lat="44.008" lon="7.4684">
        <ele>950.45</ele>
        <time>2018-08-05T14:10:09Z</time>
      </trkpt>
      <trkpt lat="44.00805" lon="7.46787">
        <ele>954.8</ele>
        <time>2018-08-05T14:10:06Z</time>
      </trkpt>
      <trkpt lat="44.00809" lon="7.46752">
        <ele>958.77</ele>
        <time>2018-08-05T14:10:04Z</time>
      </trkpt>
      <trkpt lat="44.00812" lon="7.46718">
        <ele>961.89</ele>
        <time>2018-08-05T14:10:02Z</time>
      </trkpt>
      <trkpt lat="44.00813" lon="7.46666">
        <ele>965.43</ele>
        <time>2018-08-05T14:09:59Z</time>
      </trkpt>
      <trkpt lat="44.0082" lon="7.4659">
        <ele>969.23</ele>
        <time>2018-08-05T14:09:54Z</time>
      </trkpt>
      <trkpt lat="44.00821" lon="7.46577">
        <ele>969.2</ele>
        <time>2018-08-05T14:09:53Z</time>
      </trkpt>
      <trkpt lat="44.00822" lon="7.46565">
        <ele>969.1</ele>
        <time>2018-08-05T14:09:52Z</time>
      </trkpt>
      <trkpt lat="44.00821" lon="7.46553">
        <ele>969.44</ele>
        <time>2018-08-05T14:09:51Z</time>
      </trkpt>
      <trkpt lat="44.00818" lon="7.4654">
        <ele>969.75</ele>
        <time>2018-08-05T14:09:50Z</time>
      </trkpt>
      <trkpt lat="44.00813" lon="7.46529">
        <ele>969.78</ele>
        <time>2018-08-05T14:09:49Z</time>
      </trkpt>
      <trkpt lat="44.00795" lon="7.46502">
        <ele>969.54</ele>
        <time>2018-08-05T14:09:46Z</time>
      </trkpt>
      <trkpt lat="44.00789" lon="7.46492">
        <ele>969.29</ele>
        <time>2018-08-05T14:09:45Z</time>
      </trkpt>
      <trkpt lat="44.00784" lon="7.46482">
        <ele>969.19</ele>
        <time>2018-08-05T14:09:44Z</time>
      </trkpt>
      <trkpt lat="44.00774" lon="7.46448">
        <ele>970.33</ele>
        <time>2018-08-05T14:09:41Z</time>
      </trkpt>
      <trkpt lat="44.00772" lon="7.46437">
        <ele>970.66</ele>
        <time>2018-08-05T14:09:40Z</time>
      </trkpt>
      <trkpt lat="44.0077" lon="7.46429">
        <ele>970.93</ele>
        <time>2018-08-05T14:09:39Z</time>
      </trkpt>
      <trkpt lat="44.0077" lon="7.46422">
        <ele>971.38</ele>
        <time>2018-08-05T14:09:07Z</time>
      </trkpt>
      <trkpt lat="44.0077" lon="7.46388">
        <ele>970.73</ele>
        <time>2018-08-05T14:08:56Z</time>
      </trkpt>
      <trkpt lat="44.0077" lon="7.46379">
        <ele>971.07</ele>
        <time>2018-08-05T14:08:55Z</time>
      </trkpt>
      <trkpt lat="44.00771" lon="7.46368">
        <ele>971.13</ele>
        <time>2018-08-05T14:08:54Z</time>
      </trkpt>
      <trkpt lat="44.00773" lon="7.46359">
        <ele>971.17</ele>
        <time>2018-08-05T14:08:53Z</time>
      </trkpt>
      <trkpt lat="44.00775" lon="7.46351">
        <ele>971.06</ele>
        <time>2018-08-05T14:08:52Z</time>
      </trkpt>
      <trkpt lat="44.00777" lon="7.46344">
        <ele>970.83</ele>
        <time>2018-08-05T14:08:51Z</time>
      </trkpt>
      <trkpt lat="44.00777" lon="7.46338">
        <ele>970.63</ele>
        <time>2018-08-05T14:08:50Z</time>
      </trkpt>
      <trkpt lat="44.00776" lon="7.46332">
        <ele>970.66</ele>
        <time>2018-08-05T14:08:49Z</time>
      </trkpt>
      <trkpt lat="44.00774" lon="7.46327">
        <ele>970.65</ele>
        <time>2018-08-05T14:08:48Z</time>
      </trkpt>
      <trkpt lat="44.00771" lon="7.46324">
        <ele>970.6</ele>
        <time>2018-08-05T14:08:47Z</time>
      </trkpt>
      <trkpt lat="44.00767" lon="7.46322">
        <ele>970.58</ele>
        <time>2018-08-05T14:08:46Z</time>
      </trkpt>
      <trkpt lat="44.00762" lon="7.46322">
        <ele>970.77</ele>
        <time>2018-08-05T14:08:45Z</time>
      </trkpt>
      <trkpt lat="44.00757" lon="7.46323">
        <ele>970.89</ele>
        <time>2018-08-05T14:08:44Z</time>
      </trkpt>
      <trkpt lat="44.00752" lon="7.46326">
        <ele>971.08</ele>
        <time>2018-08-05T14:08:43Z</time>
      </trkpt>
      <trkpt lat="44.00742" lon="7.46337">
        <ele>971.53</ele>
        <time>2018-08-05T14:08:41Z</time>
      </trkpt>
      <trkpt lat="44.00738" lon="7.46343">
        <ele>971.88</ele>
        <time>2018-08-05T14:08:40Z</time>
      </trkpt>
      <trkpt lat="44.00727" lon="7.46373">
        <ele>971.78</ele>
        <time>2018-08-05T14:08:37Z</time>
      </trkpt>
      <trkpt lat="44.00719" lon="7.46399">
        <ele>973.69</ele>
        <time>2018-08-05T14:08:35Z</time>
      </trkpt>
      <trkpt lat="44.00715" lon="7.46412">
        <ele>974.99</ele>
        <time>2018-08-05T14:08:34Z</time>
      </trkpt>
      <trkpt lat="44.00708" lon="7.46442">
        <ele>975.17</ele>
        <time>2018-08-05T14:08:32Z</time>
      </trkpt>
      <trkpt lat="44.00705" lon="7.46456">
        <ele>976.7</ele>
        <time>2018-08-05T14:08:31Z</time>
      </trkpt>
      <trkpt lat="44.0069" lon="7.46494">
        <ele>979.95</ele>
        <time>2018-08-05T14:08:28Z</time>
      </trkpt>
      <trkpt lat="44.00684" lon="7.46507">
        <ele>980.75</ele>
        <time>2018-08-05T14:08:27Z</time>
      </trkpt>
      <trkpt lat="44.00677" lon="7.46536">
        <ele>980.92</ele>
        <time>2018-08-05T14:08:25Z</time>
      </trkpt>
      <trkpt lat="44.00667" lon="7.46593">
        <ele>985.11</ele>
        <time>2018-08-05T14:08:21Z</time>
      </trkpt>
      <trkpt lat="44.00665" lon="7.46607">
        <ele>986.42</ele>
        <time>2018-08-05T14:08:20Z</time>
      </trkpt>
      <trkpt lat="44.00664" lon="7.46621">
        <ele>987.23</ele>
        <time>2018-08-05T14:08:19Z</time>
      </trkpt>
      <trkpt lat="44.00663" lon="7.46635">
        <ele>987.24</ele>
        <time>2018-08-05T14:08:18Z</time>
      </trkpt>
      <trkpt lat="44.00663" lon="7.46647">
        <ele>989.03</ele>
        <time>2018-08-05T14:08:17Z</time>
      </trkpt>
      <trkpt lat="44.00664" lon="7.46658">
        <ele>990.27</ele>
        <time>2018-08-05T14:08:16Z</time>
      </trkpt>
      <trkpt lat="44.00663" lon="7.46668">
        <ele>990.8</ele>
        <time>2018-08-05T14:08:15Z</time>
      </trkpt>
      <trkpt lat="44.00659" lon="7.46676">
        <ele>991.3</ele>
        <time>2018-08-05T14:08:14Z</time>
      </trkpt>
      <trkpt lat="44.00635" lon="7.46715">
        <ele>995.75</ele>
        <time>2018-08-05T14:08:10Z</time>
      </trkpt>
      <trkpt lat="44.0063" lon="7.46727">
        <ele>996.73</ele>
        <time>2018-08-05T14:08:09Z</time>
      </trkpt>
      <trkpt lat="44.00626" lon="7.46739">
        <ele>998.08</ele>
        <time>2018-08-05T14:08:08Z</time>
      </trkpt>
      <trkpt lat="44.00616" lon="7.46778">
        <ele>1001.36</ele>
        <time>2018-08-05T14:08:05Z</time>
      </trkpt>
      <trkpt lat="44.00598" lon="7.4683">
        <ele>1004.76</ele>
        <time>2018-08-05T14:08:01Z</time>
      </trkpt>
      <trkpt lat="44.00592" lon="7.46842">
        <ele>1004.76</ele>
        <time>2018-08-05T14:08:00Z</time>
      </trkpt>
      <trkpt lat="44.00586" lon="7.46855">
        <ele>1006.32</ele>
        <time>2018-08-05T14:07:59Z</time>
      </trkpt>
      <trkpt lat="44.00581" lon="7.46869">
        <ele>1008.12</ele>
        <time>2018-08-05T14:07:58Z</time>
      </trkpt>
      <trkpt lat="44.00569" lon="7.46927">
        <ele>1012.8</ele>
        <time>2018-08-05T14:07:54Z</time>
      </trkpt>
      <trkpt lat="44.00563" lon="7.4697">
        <ele>1016.41</ele>
        <time>2018-08-05T14:07:51Z</time>
      </trkpt>
      <trkpt lat="44.0056" lon="7.46983">
        <ele>1017.99</ele>
        <time>2018-08-05T14:07:50Z</time>
      </trkpt>
      <trkpt lat="44.00546" lon="7.47019">
        <ele>1020.67</ele>
        <time>2018-08-05T14:07:47Z</time>
      </trkpt>
      <trkpt lat="44.0054" lon="7.4703">
        <ele>1022.04</ele>
        <time>2018-08-05T14:07:46Z</time>
      </trkpt>
      <trkpt lat="44.00533" lon="7.47039">
        <ele>1022.21</ele>
        <time>2018-08-05T14:07:45Z</time>
      </trkpt>
      <trkpt lat="44.00525" lon="7.47047">
        <ele>1022.77</ele>
        <time>2018-08-05T14:07:44Z</time>
      </trkpt>
      <trkpt lat="44.00507" lon="7.47062">
        <ele>1025.98</ele>
        <time>2018-08-05T14:07:42Z</time>
      </trkpt>
      <trkpt lat="44.00498" lon="7.47069">
        <ele>1027.17</ele>
        <time>2018-08-05T14:07:41Z</time>
      </trkpt>
      <trkpt lat="44.00489" lon="7.47076">
        <ele>1027.94</ele>
        <time>2018-08-05T14:07:40Z</time>
      </trkpt>
      <trkpt lat="44.00481" lon="7.47085">
        <ele>1028.52</ele>
        <time>2018-08-05T14:07:39Z</time>
      </trkpt>
      <trkpt lat="44.00474" lon="7.47096">
        <ele>1029.46</ele>
        <time>2018-08-05T14:07:38Z</time>
      </trkpt>
      <trkpt lat="44.00464" lon="7.47119">
        <ele>1031.8</ele>
        <time>2018-08-05T14:07:36Z</time>
      </trkpt>
      <trkpt lat="44.00447" lon="7.47157">
        <ele>1035.57</ele>
        <time>2018-08-05T14:07:33Z</time>
      </trkpt>
      <trkpt lat="44.00442" lon="7.4717">
        <ele>1034.27</ele>
        <time>2018-08-05T14:07:32Z</time>
      </trkpt>
      <trkpt lat="44.00426" lon="7.47214">
        <ele>1038.96</ele>
        <time>2018-08-05T14:07:29Z</time>
      </trkpt>
      <trkpt lat="44.00421" lon="7.47229">
        <ele>1041.02</ele>
        <time>2018-08-05T14:07:28Z</time>
      </trkpt>
      <trkpt lat="44.0041" lon="7.47274">
        <ele>1043.83</ele>
        <time>2018-08-05T14:07:25Z</time>
      </trkpt>
      <trkpt lat="44.00401" lon="7.47319">
        <ele>1047.7</ele>
        <time>2018-08-05T14:07:22Z</time>
      </trkpt>
      <trkpt lat="44.00394" lon="7.4735">
        <ele>1049.08</ele>
        <time>2018-08-05T14:07:20Z</time>
      </trkpt>
      <trkpt lat="44.0039" lon="7.47365">
        <ele>1050.74</ele>
        <time>2018-08-05T14:07:19Z</time>
      </trkpt>
      <trkpt lat="44.00388" lon="7.47379">
        <ele>1051.92</ele>
        <time>2018-08-05T14:07:18Z</time>
      </trkpt>
      <trkpt lat="44.00387" lon="7.47394">
        <ele>1052.98</ele>
        <time>2018-08-05T14:07:17Z</time>
      </trkpt>
      <trkpt lat="44.00386" lon="7.47406">
        <ele>1054.19</ele>
        <time>2018-08-05T14:07:16Z</time>
      </trkpt>
      <trkpt lat="44.00384" lon="7.47417">
        <ele>1055.69</ele>
        <time>2018-08-05T14:07:15Z</time>
      </trkpt>
      <trkpt lat="44.00382" lon="7.47425">
        <ele>1056.35</ele>
        <time>2018-08-05T14:07:14Z</time>
      </trkpt>
      <trkpt lat="44.00356" lon="7.47455">
        <ele>1059.89</ele>
        <time>2018-08-05T14:07:09Z</time>
      </trkpt>
      <trkpt lat="44.0035" lon="7.47462">
        <ele>1060.43</ele>
        <time>2018-08-05T14:07:08Z</time>
      </trkpt>
      <trkpt lat="44.00345" lon="7.47466">
        <ele>1061.22</ele>
        <time>2018-08-05T14:07:07Z</time>
      </trkpt>
      <trkpt lat="44.0034" lon="7.47468">
        <ele>1061.69</ele>
        <time>2018-08-05T14:07:06Z</time>
      </trkpt>
      <trkpt lat="44.00335" lon="7.47467">
        <ele>1062.17</ele>
        <time>2018-08-05T14:07:05Z</time>
      </trkpt>
      <trkpt lat="44.00332" lon="7.47463">
        <ele>1062.56</ele>
        <time>2018-08-05T14:07:04Z</time>
      </trkpt>
      <trkpt lat="44.00329" lon="7.47456">
        <ele>1063.21</ele>
        <time>2018-08-05T14:07:03Z</time>
      </trkpt>
      <trkpt lat="44.00327" lon="7.47447">
        <ele>1064.22</ele>
        <time>2018-08-05T14:07:02Z</time>
      </trkpt>
      <trkpt lat="44.00325" lon="7.47437">
        <ele>1065.06</ele>
        <time>2018-08-05T14:07:01Z</time>
      </trkpt>
      <trkpt lat="44.00323" lon="7.47427">
        <ele>1065.77</ele>
        <time>2018-08-05T14:07:00Z</time>
      </trkpt>
      <trkpt lat="44.00319" lon="7.47418">
        <ele>1067.23</ele>
        <time>2018-08-05T14:06:59Z</time>
      </trkpt>
      <trkpt lat="44.00314" lon="7.47409">
        <ele>1068.56</ele>
        <time>2018-08-05T14:06:58Z</time>
      </trkpt>
      <trkpt lat="44.00307" lon="7.47399">
        <ele>1069.49</ele>
        <time>2018-08-05T14:06:57Z</time>
      </trkpt>
      <trkpt lat="44.00283" lon="7.47372">
        <ele>1073.23</ele>
        <time>2018-08-05T14:06:54Z</time>
      </trkpt>
      <trkpt lat="44.00247" lon="7.4734">
        <ele>1077.56</ele>
        <time>2018-08-05T14:06:50Z</time>
      </trkpt>
      <trkpt lat="44.00217" lon="7.47314">
        <ele>1080.97</ele>
        <time>2018-08-05T14:06:47Z</time>
      </trkpt>
      <trkpt lat="44.00207" lon="7.47306">
        <ele>1081.61</ele>
        <time>2018-08-05T14:06:46Z</time>
      </trkpt>
      <trkpt lat="44.00186" lon="7.47294">
        <ele>1083.84</ele>
        <time>2018-08-05T14:06:44Z</time>
      </trkpt>
      <trkpt lat="44.00154" lon="7.47281">
        <ele>1087.36</ele>
        <time>2018-08-05T14:06:41Z</time>
      </trkpt>
      <trkpt lat="44.00107" lon="7.47267">
        <ele>1090.99</ele>
        <time>2018-08-05T14:06:37Z</time>
      </trkpt>
      <trkpt lat="44.00096" lon="7.47262">
        <ele>1091.25</ele>
        <time>2018-08-05T14:06:36Z</time>
      </trkpt>
      <trkpt lat="44.00066" lon="7.47244">
        <ele>1094.64</ele>
        <time>2018-08-05T14:06:33Z</time>
      </trkpt>
      <trkpt lat="44.0004" lon="7.47227">
        <ele>1097.71</ele>
        <time>2018-08-05T14:06:30Z</time>
      </trkpt>
      <trkpt lat="44.00032" lon="7.47223">
        <ele>1097.62</ele>
        <time>2018-08-05T14:06:29Z</time>
      </trkpt>
      <trkpt lat="44.00024" lon="7.4722">
        <ele>1097.59</ele>
        <time>2018-08-05T14:06:28Z</time>
      </trkpt>
      <trkpt lat="44.00016" lon="7.47219">
        <ele>1098</ele>
        <time>2018-08-05T14:06:27Z</time>
      </trkpt>
      <trkpt lat="44.0001" lon="7.47221">
        <ele>1098.7</ele>
        <time>2018-08-05T14:06:26Z</time>
      </trkpt>
      <trkpt lat="44.00005" lon="7.47226">
        <ele>1099.2</ele>
        <time>2018-08-05T14:06:25Z</time>
      </trkpt>
      <trkpt lat="44.00002" lon="7.47233">
        <ele>1099.24</ele>
        <time>2018-08-05T14:06:24Z</time>
      </trkpt>
      <trkpt lat="44" lon="7.47238">
        <ele>1099.68</ele>
        <time>2018-08-05T14:06:23Z</time>
      </trkpt>
      <trkpt lat="43.99996" lon="7.47241">
        <ele>1099.84</ele>
        <time>2018-08-05T14:06:22Z</time>
      </trkpt>
      <trkpt lat="43.99993" lon="7.4724">
        <ele>1100.12</ele>
        <time>2018-08-05T14:06:21Z</time>
      </trkpt>
      <trkpt lat="43.9999" lon="7.47236">
        <ele>1100.53</ele>
        <time>2018-08-05T14:06:20Z</time>
      </trkpt>
      <trkpt lat="43.99988" lon="7.4723">
        <ele>1101.26</ele>
        <time>2018-08-05T14:06:19Z</time>
      </trkpt>
      <trkpt lat="43.99989" lon="7.47222">
        <ele>1101.85</ele>
        <time>2018-08-05T14:06:18Z</time>
      </trkpt>
      <trkpt lat="43.99992" lon="7.47214">
        <ele>1102.42</ele>
        <time>2018-08-05T14:06:17Z</time>
      </trkpt>
      <trkpt lat="43.99997" lon="7.47208">
        <ele>1102.7</ele>
        <time>2018-08-05T14:06:16Z</time>
      </trkpt>
      <trkpt lat="44.00004" lon="7.47203">
        <ele>1102.31</ele>
        <time>2018-08-05T14:06:15Z</time>
      </trkpt>
      <trkpt lat="44.0002" lon="7.47202">
        <ele>1104.13</ele>
        <time>2018-08-05T14:06:13Z</time>
      </trkpt>
      <trkpt lat="44.00054" lon="7.4721">
        <ele>1108.23</ele>
        <time>2018-08-05T14:06:10Z</time>
      </trkpt>
      <trkpt lat="44.00079" lon="7.47217">
        <ele>1109.72</ele>
        <time>2018-08-05T14:06:08Z</time>
      </trkpt>
      <trkpt lat="44.00103" lon="7.47223">
        <ele>1112.77</ele>
        <time>2018-08-05T14:06:06Z</time>
      </trkpt>
      <trkpt lat="44.00126" lon="7.47226">
        <ele>1116.85</ele>
        <time>2018-08-05T14:06:04Z</time>
      </trkpt>
      <trkpt lat="44.00173" lon="7.47228">
        <ele>1120.74</ele>
        <time>2018-08-05T14:06:00Z</time>
      </trkpt>
      <trkpt lat="44.00183" lon="7.47229">
        <ele>1122.11</ele>
        <time>2018-08-05T14:05:59Z</time>
      </trkpt>
      <trkpt lat="44.00202" lon="7.47228">
        <ele>1123.92</ele>
        <time>2018-08-05T14:05:57Z</time>
      </trkpt>
      <trkpt lat="44.00213" lon="7.47228">
        <ele>1124.09</ele>
        <time>2018-08-05T14:05:56Z</time>
      </trkpt>
      <trkpt lat="44.00223" lon="7.47231">
        <ele>1124.96</ele>
        <time>2018-08-05T14:05:55Z</time>
      </trkpt>
      <trkpt lat="44.00243" lon="7.47241">
        <ele>1127.55</ele>
        <time>2018-08-05T14:05:53Z</time>
      </trkpt>
      <trkpt lat="44.00263" lon="7.47254">
        <ele>1131</ele>
        <time>2018-08-05T14:05:51Z</time>
      </trkpt>
      <trkpt lat="44.00273" lon="7.4726">
        <ele>1131.54</ele>
        <time>2018-08-05T14:05:50Z</time>
      </trkpt>
      <trkpt lat="44.00282" lon="7.47264">
        <ele>1131.98</ele>
        <time>2018-08-05T14:05:49Z</time>
      </trkpt>
      <trkpt lat="44.00289" lon="7.47267">
        <ele>1131.66</ele>
        <time>2018-08-05T14:05:48Z</time>
      </trkpt>
      <trkpt lat="44.00294" lon="7.47266">
        <ele>1131.74</ele>
        <time>2018-08-05T14:05:47Z</time>
      </trkpt>
      <trkpt lat="44.00297" lon="7.47264">
        <ele>1132.15</ele>
        <time>2018-08-05T14:05:46Z</time>
      </trkpt>
      <trkpt lat="44.00297" lon="7.47261">
        <ele>1132.61</ele>
        <time>2018-08-05T14:05:45Z</time>
      </trkpt>
      <trkpt lat="44.00296" lon="7.47257">
        <ele>1133.39</ele>
        <time>2018-08-05T14:05:44Z</time>
      </trkpt>
      <trkpt lat="44.00293" lon="7.47254">
        <ele>1134.13</ele>
        <time>2018-08-05T14:05:43Z</time>
      </trkpt>
      <trkpt lat="44.00287" lon="7.47253">
        <ele>1134.54</ele>
        <time>2018-08-05T14:05:42Z</time>
      </trkpt>
      <trkpt lat="44.00281" lon="7.47251">
        <ele>1135.09</ele>
        <time>2018-08-05T14:05:41Z</time>
      </trkpt>
      <trkpt lat="44.00274" lon="7.47248">
        <ele>1135.69</ele>
        <time>2018-08-05T14:05:40Z</time>
      </trkpt>
      <trkpt lat="44.00266" lon="7.47243">
        <ele>1136.77</ele>
        <time>2018-08-05T14:05:39Z</time>
      </trkpt>
      <trkpt lat="44.00258" lon="7.47237">
        <ele>1137.63</ele>
        <time>2018-08-05T14:05:38Z</time>
      </trkpt>
      <trkpt lat="44.0025" lon="7.4723">
        <ele>1138.31</ele>
        <time>2018-08-05T14:05:37Z</time>
      </trkpt>
      <trkpt lat="44.00242" lon="7.47222">
        <ele>1138.52</ele>
        <time>2018-08-05T14:05:36Z</time>
      </trkpt>
      <trkpt lat="44.00233" lon="7.47215">
        <ele>1138.65</ele>
        <time>2018-08-05T14:05:35Z</time>
      </trkpt>
      <trkpt lat="44.00223" lon="7.4721">
        <ele>1139.62</ele>
        <time>2018-08-05T14:05:34Z</time>
      </trkpt>
      <trkpt lat="44.00213" lon="7.47208">
        <ele>1140.01</ele>
        <time>2018-08-05T14:05:33Z</time>
      </trkpt>
      <trkpt lat="44.00204" lon="7.47207">
        <ele>1140.52</ele>
        <time>2018-08-05T14:05:32Z</time>
      </trkpt>
      <trkpt lat="44.00195" lon="7.47207">
        <ele>1142.13</ele>
        <time>2018-08-05T14:05:31Z</time>
      </trkpt>
      <trkpt lat="44.00188" lon="7.47206">
        <ele>1143.1</ele>
        <time>2018-08-05T14:05:30Z</time>
      </trkpt>
      <trkpt lat="44.00182" lon="7.47203">
        <ele>1143.72</ele>
        <time>2018-08-05T14:05:29Z</time>
      </trkpt>
      <trkpt lat="44.00176" lon="7.47197">
        <ele>1144.29</ele>
        <time>2018-08-05T14:05:28Z</time>
      </trkpt>
      <trkpt lat="44.0017" lon="7.47191">
        <ele>1145.06</ele>
        <time>2018-08-05T14:05:27Z</time>
      </trkpt>
      <trkpt lat="44.00162" lon="7.47187">
        <ele>1145.97</ele>
        <time>2018-08-05T14:05:26Z</time>
      </trkpt>
      <trkpt lat="44.00133" lon="7.47174">
        <ele>1149.61</ele>
        <time>2018-08-05T14:05:23Z</time>
      </trkpt>
      <trkpt lat="44.00105" lon="7.47152">
        <ele>1152.18</ele>
        <time>2018-08-05T14:05:20Z</time>
      </trkpt>
      <trkpt lat="44.00065" lon="7.47119">
        <ele>1155.98</ele>
        <time>2018-08-05T14:05:16Z</time>
      </trkpt>
      <trkpt lat="44.00032" lon="7.47098">
        <ele>1159.05</ele>
        <time>2018-08-05T14:05:13Z</time>
      </trkpt>
      <trkpt lat="44.00001" lon="7.4708">
        <ele>1162.42</ele>
        <time>2018-08-05T14:05:10Z</time>
      </trkpt>
      <trkpt lat="43.99991" lon="7.47074">
        <ele>1163.93</ele>
        <time>2018-08-05T14:05:09Z</time>
      </trkpt>
      <trkpt lat="43.99971" lon="7.47068">
        <ele>1166.51</ele>
        <time>2018-08-05T14:05:07Z</time>
      </trkpt>
      <trkpt lat="43.99961" lon="7.47067">
        <ele>1167.42</ele>
        <time>2018-08-05T14:05:06Z</time>
      </trkpt>
      <trkpt lat="43.99952" lon="7.47066">
        <ele>1168.4</ele>
        <time>2018-08-05T14:05:05Z</time>
      </trkpt>
      <trkpt lat="43.99943" lon="7.47062">
        <ele>1168.76</ele>
        <time>2018-08-05T14:05:04Z</time>
      </trkpt>
      <trkpt lat="43.99935" lon="7.47059">
        <ele>1169.01</ele>
        <time>2018-08-05T14:05:03Z</time>
      </trkpt>
      <trkpt lat="43.99928" lon="7.47057">
        <ele>1169.56</ele>
        <time>2018-08-05T14:05:02Z</time>
      </trkpt>
      <trkpt lat="43.99922" lon="7.47058">
        <ele>1170.15</ele>
        <time>2018-08-05T14:05:01Z</time>
      </trkpt>
      <trkpt lat="43.99917" lon="7.47061">
        <ele>1170.86</ele>
        <time>2018-08-05T14:05:00Z</time>
      </trkpt>
      <trkpt lat="43.99913" lon="7.47066">
        <ele>1171.52</ele>
        <time>2018-08-05T14:04:59Z</time>
      </trkpt>
      <trkpt lat="43.99909" lon="7.47082">
        <ele>1172.96</ele>
        <time>2018-08-05T14:04:57Z</time>
      </trkpt>
      <trkpt lat="43.99902" lon="7.47102">
        <ele>1176.01</ele>
        <time>2018-08-05T14:04:55Z</time>
      </trkpt>
      <trkpt lat="43.99898" lon="7.47113">
        <ele>1177.32</ele>
        <time>2018-08-05T14:04:54Z</time>
      </trkpt>
      <trkpt lat="43.99895" lon="7.47125">
        <ele>1178.15</ele>
        <time>2018-08-05T14:04:53Z</time>
      </trkpt>
      <trkpt lat="43.99892" lon="7.47138">
        <ele>1179.42</ele>
        <time>2018-08-05T14:04:52Z</time>
      </trkpt>
      <trkpt lat="43.99889" lon="7.47151">
        <ele>1179.97</ele>
        <time>2018-08-05T14:04:51Z</time>
      </trkpt>
      <trkpt lat="43.99889" lon="7.47164">
        <ele>1180.67</ele>
        <time>2018-08-05T14:04:50Z</time>
      </trkpt>
      <trkpt lat="43.99889" lon="7.47177">
        <ele>1181.37</ele>
        <time>2018-08-05T14:04:49Z</time>
      </trkpt>
      <trkpt lat="43.99897" lon="7.47227">
        <ele>1184.87</ele>
        <time>2018-08-05T14:04:45Z</time>
      </trkpt>
      <trkpt lat="43.99899" lon="7.47239">
        <ele>1186.09</ele>
        <time>2018-08-05T14:04:44Z</time>
      </trkpt>
      <trkpt lat="43.99902" lon="7.47248">
        <ele>1187.64</ele>
        <time>2018-08-05T14:04:43Z</time>
      </trkpt>
      <trkpt lat="43.99903" lon="7.47256">
        <ele>1188.24</ele>
        <time>2018-08-05T14:04:42Z</time>
      </trkpt>
      <trkpt lat="43.99902" lon="7.47263">
        <ele>1188.74</ele>
        <time>2018-08-05T14:04:41Z</time>
      </trkpt>
      <trkpt lat="43.999" lon="7.47269">
        <ele>1189.21</ele>
        <time>2018-08-05T14:04:40Z</time>
      </trkpt>
      <trkpt lat="43.99865" lon="7.47307">
        <ele>1191.42</ele>
        <time>2018-08-05T14:04:34Z</time>
      </trkpt>
      <trkpt lat="43.99859" lon="7.47314">
        <ele>1192.28</ele>
        <time>2018-08-05T14:04:33Z</time>
      </trkpt>
      <trkpt lat="43.99853" lon="7.47322">
        <ele>1193.36</ele>
        <time>2018-08-05T14:04:32Z</time>
      </trkpt>
      <trkpt lat="43.99837" lon="7.47356">
        <ele>1196.43</ele>
        <time>2018-08-05T14:04:29Z</time>
      </trkpt>
      <trkpt lat="43.99818" lon="7.47392">
        <ele>1196.54</ele>
        <time>2018-08-05T14:04:26Z</time>
      </trkpt>
      <trkpt lat="43.99813" lon="7.47402">
        <ele>1197.32</ele>
        <time>2018-08-05T14:04:25Z</time>
      </trkpt>
      <trkpt lat="43.99808" lon="7.47411">
        <ele>1197.77</ele>
        <time>2018-08-05T14:04:24Z</time>
      </trkpt>
      <trkpt lat="43.99806" lon="7.4742">
        <ele>1198.21</ele>
        <time>2018-08-05T14:04:23Z</time>
      </trkpt>
      <trkpt lat="43.99807" lon="7.47428">
        <ele>1199.02</ele>
        <time>2018-08-05T14:04:22Z</time>
      </trkpt>
      <trkpt lat="43.9981" lon="7.47437">
        <ele>1199.64</ele>
        <time>2018-08-05T14:04:21Z</time>
      </trkpt>
      <trkpt lat="43.99816" lon="7.47443">
        <ele>1200.09</ele>
        <time>2018-08-05T14:04:20Z</time>
      </trkpt>
      <trkpt lat="43.99823" lon="7.47448">
        <ele>1200.91</ele>
        <time>2018-08-05T14:04:19Z</time>
      </trkpt>
      <trkpt lat="43.99831" lon="7.4745">
        <ele>1201.8</ele>
        <time>2018-08-05T14:04:18Z</time>
      </trkpt>
      <trkpt lat="43.99839" lon="7.47451">
        <ele>1203.53</ele>
        <time>2018-08-05T14:04:17Z</time>
      </trkpt>
      <trkpt lat="43.99847" lon="7.47453">
        <ele>1204.12</ele>
        <time>2018-08-05T14:04:16Z</time>
      </trkpt>
      <trkpt lat="43.99853" lon="7.47457">
        <ele>1204.24</ele>
        <time>2018-08-05T14:04:15Z</time>
      </trkpt>
      <trkpt lat="43.99859" lon="7.47465">
        <ele>1204.61</ele>
        <time>2018-08-05T14:04:14Z</time>
      </trkpt>
      <trkpt lat="43.99863" lon="7.47475">
        <ele>1205.22</ele>
        <time>2018-08-05T14:04:13Z</time>
      </trkpt>
      <trkpt lat="43.99868" lon="7.47486">
        <ele>1205.62</ele>
        <time>2018-08-05T14:04:12Z</time>
      </trkpt>
      <trkpt lat="43.99873" lon="7.47496">
        <ele>1206.87</ele>
        <time>2018-08-05T14:04:11Z</time>
      </trkpt>
      <trkpt lat="43.99878" lon="7.47506">
        <ele>1207.74</ele>
        <time>2018-08-05T14:04:10Z</time>
      </trkpt>
      <trkpt lat="43.99881" lon="7.47516">
        <ele>1208.49</ele>
        <time>2018-08-05T14:04:09Z</time>
      </trkpt>
      <trkpt lat="43.99882" lon="7.47526">
        <ele>1209.08</ele>
        <time>2018-08-05T14:04:08Z</time>
      </trkpt>
      <trkpt lat="43.9988" lon="7.47537">
        <ele>1209.37</ele>
        <time>2018-08-05T14:04:07Z</time>
      </trkpt>
      <trkpt lat="43.99873" lon="7.47561">
        <ele>1211.24</ele>
        <time>2018-08-05T14:04:05Z</time>
      </trkpt>
      <trkpt lat="43.99869" lon="7.47573">
        <ele>1212.07</ele>
        <time>2018-08-05T14:04:04Z</time>
      </trkpt>
      <trkpt lat="43.99858" lon="7.47595">
        <ele>1213.23</ele>
        <time>2018-08-05T14:04:02Z</time>
      </trkpt>
      <trkpt lat="43.99851" lon="7.47605">
        <ele>1213.64</ele>
        <time>2018-08-05T14:04:01Z</time>
      </trkpt>
      <trkpt lat="43.99845" lon="7.47616">
        <ele>1214.06</ele>
        <time>2018-08-05T14:04:00Z</time>
      </trkpt>
      <trkpt lat="43.9984" lon="7.47628">
        <ele>1214.64</ele>
        <time>2018-08-05T14:03:59Z</time>
      </trkpt>
      <trkpt lat="43.99837" lon="7.47641">
        <ele>1215.58</ele>
        <time>2018-08-05T14:03:58Z</time>
      </trkpt>
      <trkpt lat="43.99835" lon="7.47654">
        <ele>1216.22</ele>
        <time>2018-08-05T14:03:57Z</time>
      </trkpt>
      <trkpt lat="43.99836" lon="7.47682">
        <ele>1220.26</ele>
        <time>2018-08-05T14:03:55Z</time>
      </trkpt>
      <trkpt lat="43.99836" lon="7.47695">
        <ele>1221.25</ele>
        <time>2018-08-05T14:03:54Z</time>
      </trkpt>
      <trkpt lat="43.99835" lon="7.47708">
        <ele>1221.34</ele>
        <time>2018-08-05T14:03:53Z</time>
      </trkpt>
      <trkpt lat="43.99833" lon="7.47721">
        <ele>1222.46</ele>
        <time>2018-08-05T14:03:52Z</time>
      </trkpt>
      <trkpt lat="43.99832" lon="7.47734">
        <ele>1223.56</ele>
        <time>2018-08-05T14:03:51Z</time>
      </trkpt>
      <trkpt lat="43.99832" lon="7.47747">
        <ele>1224.67</ele>
        <time>2018-08-05T14:03:50Z</time>
      </trkpt>
      <trkpt lat="43.99833" lon="7.4776">
        <ele>1225.32</ele>
        <time>2018-08-05T14:03:49Z</time>
      </trkpt>
      <trkpt lat="43.99838" lon="7.47772">
        <ele>1226.36</ele>
        <time>2018-08-05T14:03:48Z</time>
      </trkpt>
      <trkpt lat="43.99846" lon="7.47782">
        <ele>1227.29</ele>
        <time>2018-08-05T14:03:47Z</time>
      </trkpt>
      <trkpt lat="43.99854" lon="7.47791">
        <ele>1228.15</ele>
        <time>2018-08-05T14:03:46Z</time>
      </trkpt>
      <trkpt lat="43.99862" lon="7.47798">
        <ele>1228.72</ele>
        <time>2018-08-05T14:03:45Z</time>
      </trkpt>
      <trkpt lat="43.99871" lon="7.47804">
        <ele>1229.35</ele>
        <time>2018-08-05T14:03:44Z</time>
      </trkpt>
      <trkpt lat="43.9988" lon="7.47806">
        <ele>1230.87</ele>
        <time>2018-08-05T14:03:43Z</time>
      </trkpt>
      <trkpt lat="43.99888" lon="7.47808">
        <ele>1231.66</ele>
        <time>2018-08-05T14:03:42Z</time>
      </trkpt>
      <trkpt lat="43.99894" lon="7.47811">
        <ele>1232.66</ele>
        <time>2018-08-05T14:03:41Z</time>
      </trkpt>
      <trkpt lat="43.99899" lon="7.47816">
        <ele>1233.63</ele>
        <time>2018-08-05T14:03:40Z</time>
      </trkpt>
      <trkpt lat="43.99902" lon="7.47824">
        <ele>1233.97</ele>
        <time>2018-08-05T14:03:39Z</time>
      </trkpt>
      <trkpt lat="43.99906" lon="7.4786">
        <ele>1236.59</ele>
        <time>2018-08-05T14:03:36Z</time>
      </trkpt>
      <trkpt lat="43.99906" lon="7.47873">
        <ele>1236.92</ele>
        <time>2018-08-05T14:03:35Z</time>
      </trkpt>
      <trkpt lat="43.99907" lon="7.47886">
        <ele>1238.01</ele>
        <time>2018-08-05T14:03:34Z</time>
      </trkpt>
      <trkpt lat="43.9991" lon="7.47898">
        <ele>1239.69</ele>
        <time>2018-08-05T14:03:33Z</time>
      </trkpt>
      <trkpt lat="43.99912" lon="7.47909">
        <ele>1240.1</ele>
        <time>2018-08-05T14:03:32Z</time>
      </trkpt>
      <trkpt lat="43.99912" lon="7.47919">
        <ele>1240.83</ele>
        <time>2018-08-05T14:03:31Z</time>
      </trkpt>
      <trkpt lat="43.99909" lon="7.47928">
        <ele>1241.04</ele>
        <time>2018-08-05T14:03:30Z</time>
      </trkpt>
      <trkpt lat="43.99904" lon="7.47939">
        <ele>1242.93</ele>
        <time>2018-08-05T14:03:29Z</time>
      </trkpt>
      <trkpt lat="43.99899" lon="7.47952">
        <ele>1243.7</ele>
        <time>2018-08-05T14:03:28Z</time>
      </trkpt>
      <trkpt lat="43.99896" lon="7.47965">
        <ele>1244.2</ele>
        <time>2018-08-05T14:03:27Z</time>
      </trkpt>
      <trkpt lat="43.99892" lon="7.47978">
        <ele>1245.02</ele>
        <time>2018-08-05T14:03:26Z</time>
      </trkpt>
      <trkpt lat="43.99881" lon="7.48004">
        <ele>1246.73</ele>
        <time>2018-08-05T14:03:24Z</time>
      </trkpt>
      <trkpt lat="43.99875" lon="7.48017">
        <ele>1247.28</ele>
        <time>2018-08-05T14:03:23Z</time>
      </trkpt>
      <trkpt lat="43.99869" lon="7.4803">
        <ele>1247.91</ele>
        <time>2018-08-05T14:03:22Z</time>
      </trkpt>
      <trkpt lat="43.99866" lon="7.48043">
        <ele>1249.24</ele>
        <time>2018-08-05T14:03:21Z</time>
      </trkpt>
      <trkpt lat="43.99865" lon="7.48055">
        <ele>1250.31</ele>
        <time>2018-08-05T14:03:20Z</time>
      </trkpt>
      <trkpt lat="43.99863" lon="7.48066">
        <ele>1250.69</ele>
        <time>2018-08-05T14:03:19Z</time>
      </trkpt>
      <trkpt lat="43.99861" lon="7.48074">
        <ele>1250.92</ele>
        <time>2018-08-05T14:03:18Z</time>
      </trkpt>
      <trkpt lat="43.99856" lon="7.4808">
        <ele>1251.18</ele>
        <time>2018-08-05T14:03:17Z</time>
      </trkpt>
      <trkpt lat="43.99851" lon="7.48085">
        <ele>1252.08</ele>
        <time>2018-08-05T14:03:16Z</time>
      </trkpt>
      <trkpt lat="43.99825" lon="7.48097">
        <ele>1254.16</ele>
        <time>2018-08-05T14:03:13Z</time>
      </trkpt>
      <trkpt lat="43.99795" lon="7.48112">
        <ele>1257.32</ele>
        <time>2018-08-05T14:03:10Z</time>
      </trkpt>
      <trkpt lat="43.99787" lon="7.48118">
        <ele>1258.52</ele>
        <time>2018-08-05T14:03:09Z</time>
      </trkpt>
      <trkpt lat="43.99778" lon="7.48126">
        <ele>1258.56</ele>
        <time>2018-08-05T14:03:08Z</time>
      </trkpt>
      <trkpt lat="43.99771" lon="7.48136">
        <ele>1258.25</ele>
        <time>2018-08-05T14:03:07Z</time>
      </trkpt>
      <trkpt lat="43.99763" lon="7.48146">
        <ele>1259.23</ele>
        <time>2018-08-05T14:03:06Z</time>
      </trkpt>
      <trkpt lat="43.99756" lon="7.48156">
        <ele>1259.79</ele>
        <time>2018-08-05T14:03:05Z</time>
      </trkpt>
      <trkpt lat="43.99748" lon="7.48163">
        <ele>1259.9</ele>
        <time>2018-08-05T14:03:04Z</time>
      </trkpt>
      <trkpt lat="43.99739" lon="7.48166">
        <ele>1259.68</ele>
        <time>2018-08-05T14:03:03Z</time>
      </trkpt>
      <trkpt lat="43.9973" lon="7.48166">
        <ele>1260.21</ele>
        <time>2018-08-05T14:03:02Z</time>
      </trkpt>
      <trkpt lat="43.99722" lon="7.48165">
        <ele>1260.9</ele>
        <time>2018-08-05T14:03:01Z</time>
      </trkpt>
      <trkpt lat="43.99715" lon="7.48162">
        <ele>1261.12</ele>
        <time>2018-08-05T14:03:00Z</time>
      </trkpt>
      <trkpt lat="43.99709" lon="7.48156">
        <ele>1260.88</ele>
        <time>2018-08-05T14:02:59Z</time>
      </trkpt>
      <trkpt lat="43.99705" lon="7.48148">
        <ele>1261.28</ele>
        <time>2018-08-05T14:02:58Z</time>
      </trkpt>
      <trkpt lat="43.997" lon="7.48138">
        <ele>1261.87</ele>
        <time>2018-08-05T14:02:57Z</time>
      </trkpt>
      <trkpt lat="43.99694" lon="7.48129">
        <ele>1263</ele>
        <time>2018-08-05T14:02:56Z</time>
      </trkpt>
      <trkpt lat="43.99686" lon="7.48121">
        <ele>1263.49</ele>
        <time>2018-08-05T14:02:55Z</time>
      </trkpt>
      <trkpt lat="43.99628" lon="7.48087">
        <ele>1264.74</ele>
        <time>2018-08-05T14:02:50Z</time>
      </trkpt>
      <trkpt lat="43.99606" lon="7.4807">
        <ele>1265.48</ele>
        <time>2018-08-05T14:02:48Z</time>
      </trkpt>
      <trkpt lat="43.99596" lon="7.48061">
        <ele>1264.96</ele>
        <time>2018-08-05T14:02:47Z</time>
      </trkpt>
      <trkpt lat="43.99575" lon="7.4805">
        <ele>1266.55</ele>
        <time>2018-08-05T14:02:45Z</time>
      </trkpt>
      <trkpt lat="43.99565" lon="7.48047">
        <ele>1266.81</ele>
        <time>2018-08-05T14:02:44Z</time>
      </trkpt>
      <trkpt lat="43.99546" lon="7.48045">
        <ele>1268.36</ele>
        <time>2018-08-05T14:02:42Z</time>
      </trkpt>
      <trkpt lat="43.99538" lon="7.48044">
        <ele>1269.53</ele>
        <time>2018-08-05T14:02:41Z</time>
      </trkpt>
      <trkpt lat="43.9953" lon="7.4804">
        <ele>1270.34</ele>
        <time>2018-08-05T14:02:40Z</time>
      </trkpt>
      <trkpt lat="43.99508" lon="7.48017">
        <ele>1270.35</ele>
        <time>2018-08-05T14:02:37Z</time>
      </trkpt>
      <trkpt lat="43.995" lon="7.48006">
        <ele>1270.3</ele>
        <time>2018-08-05T14:02:36Z</time>
      </trkpt>
      <trkpt lat="43.99491" lon="7.47997">
        <ele>1270.5</ele>
        <time>2018-08-05T14:02:35Z</time>
      </trkpt>
      <trkpt lat="43.99482" lon="7.4799">
        <ele>1270.81</ele>
        <time>2018-08-05T14:02:34Z</time>
      </trkpt>
      <trkpt lat="43.99473" lon="7.47987">
        <ele>1271.26</ele>
        <time>2018-08-05T14:02:33Z</time>
      </trkpt>
      <trkpt lat="43.99463" lon="7.47986">
        <ele>1272.33</ele>
        <time>2018-08-05T14:02:32Z</time>
      </trkpt>
      <trkpt lat="43.99446" lon="7.47994">
        <ele>1274.05</ele>
        <time>2018-08-05T14:02:30Z</time>
      </trkpt>
      <trkpt lat="43.9943" lon="7.4801">
        <ele>1275.12</ele>
        <time>2018-08-05T14:02:28Z</time>
      </trkpt>
      <trkpt lat="43.99395" lon="7.4805">
        <ele>1277.7</ele>
        <time>2018-08-05T14:02:24Z</time>
      </trkpt>
      <trkpt lat="43.99385" lon="7.4806">
        <ele>1278.28</ele>
        <time>2018-08-05T14:02:23Z</time>
      </trkpt>
      <trkpt lat="43.99375" lon="7.4807">
        <ele>1277.74</ele>
        <time>2018-08-05T14:02:22Z</time>
      </trkpt>
      <trkpt lat="43.99367" lon="7.48081">
        <ele>1277.19</ele>
        <time>2018-08-05T14:02:21Z</time>
      </trkpt>
      <trkpt lat="43.99362" lon="7.48093">
        <ele>1277.55</ele>
        <time>2018-08-05T14:02:20Z</time>
      </trkpt>
      <trkpt lat="43.99359" lon="7.48105">
        <ele>1278.35</ele>
        <time>2018-08-05T14:02:19Z</time>
      </trkpt>
      <trkpt lat="43.99359" lon="7.48117">
        <ele>1279.16</ele>
        <time>2018-08-05T14:02:18Z</time>
      </trkpt>
      <trkpt lat="43.99362" lon="7.48128">
        <ele>1279.45</ele>
        <time>2018-08-05T14:02:17Z</time>
      </trkpt>
      <trkpt lat="43.99367" lon="7.48138">
        <ele>1279.87</ele>
        <time>2018-08-05T14:02:16Z</time>
      </trkpt>
      <trkpt lat="43.99372" lon="7.4815">
        <ele>1280.92</ele>
        <time>2018-08-05T14:02:15Z</time>
      </trkpt>
      <trkpt lat="43.99376" lon="7.48162">
        <ele>1281.08</ele>
        <time>2018-08-05T14:02:14Z</time>
      </trkpt>
      <trkpt lat="43.99375" lon="7.48174">
        <ele>1281.44</ele>
        <time>2018-08-05T14:02:13Z</time>
      </trkpt>
      <trkpt lat="43.99373" lon="7.48186">
        <ele>1281.41</ele>
        <time>2018-08-05T14:02:12Z</time>
      </trkpt>
      <trkpt lat="43.99369" lon="7.48197">
        <ele>1281.39</ele>
        <time>2018-08-05T14:02:11Z</time>
      </trkpt>
      <trkpt lat="43.99363" lon="7.48208">
        <ele>1281.36</ele>
        <time>2018-08-05T14:02:10Z</time>
      </trkpt>
      <trkpt lat="43.99357" lon="7.48218">
        <ele>1281.84</ele>
        <time>2018-08-05T14:02:09Z</time>
      </trkpt>
      <trkpt lat="43.99352" lon="7.48228">
        <ele>1282.65</ele>
        <time>2018-08-05T14:02:08Z</time>
      </trkpt>
      <trkpt lat="43.99349" lon="7.48239">
        <ele>1283.58</ele>
        <time>2018-08-05T14:02:07Z</time>
      </trkpt>
      <trkpt lat="43.99349" lon="7.4825">
        <ele>1284.27</ele>
        <time>2018-08-05T14:02:06Z</time>
      </trkpt>
      <trkpt lat="43.99355" lon="7.48272">
        <ele>1284.97</ele>
        <time>2018-08-05T14:02:04Z</time>
      </trkpt>
      <trkpt lat="43.99358" lon="7.48283">
        <ele>1284.91</ele>
        <time>2018-08-05T14:02:03Z</time>
      </trkpt>
      <trkpt lat="43.99362" lon="7.48296">
        <ele>1285.35</ele>
        <time>2018-08-05T14:02:02Z</time>
      </trkpt>
      <trkpt lat="43.99363" lon="7.48308">
        <ele>1285.42</ele>
        <time>2018-08-05T14:02:01Z</time>
      </trkpt>
      <trkpt lat="43.99361" lon="7.48319">
        <ele>1285.29</ele>
        <time>2018-08-05T14:02:00Z</time>
      </trkpt>
      <trkpt lat="43.99357" lon="7.4833">
        <ele>1285.1</ele>
        <time>2018-08-05T14:01:59Z</time>
      </trkpt>
      <trkpt lat="43.99353" lon="7.48342">
        <ele>1285.91</ele>
        <time>2018-08-05T14:01:58Z</time>
      </trkpt>
      <trkpt lat="43.99352" lon="7.48354">
        <ele>1286.62</ele>
        <time>2018-08-05T14:01:57Z</time>
      </trkpt>
      <trkpt lat="43.99353" lon="7.48366">
        <ele>1287.6</ele>
        <time>2018-08-05T14:01:56Z</time>
      </trkpt>
      <trkpt lat="43.99356" lon="7.48377">
        <ele>1288.29</ele>
        <time>2018-08-05T14:01:55Z</time>
      </trkpt>
      <trkpt lat="43.99361" lon="7.48386">
        <ele>1288.45</ele>
        <time>2018-08-05T14:01:54Z</time>
      </trkpt>
      <trkpt lat="43.99365" lon="7.48396">
        <ele>1289.44</ele>
        <time>2018-08-05T14:01:53Z</time>
      </trkpt>
      <trkpt lat="43.9937" lon="7.48406">
        <ele>1289.95</ele>
        <time>2018-08-05T14:01:52Z</time>
      </trkpt>
      <trkpt lat="43.99374" lon="7.48443">
        <ele>1291.06</ele>
        <time>2018-08-05T14:01:49Z</time>
      </trkpt>
      <trkpt lat="43.99375" lon="7.48457">
        <ele>1291.59</ele>
        <time>2018-08-05T14:01:48Z</time>
      </trkpt>
      <trkpt lat="43.99379" lon="7.48471">
        <ele>1291.33</ele>
        <time>2018-08-05T14:01:47Z</time>
      </trkpt>
      <trkpt lat="43.99396" lon="7.4851">
        <ele>1292.21</ele>
        <time>2018-08-05T14:01:44Z</time>
      </trkpt>
      <trkpt lat="43.99402" lon="7.48522">
        <ele>1291.87</ele>
        <time>2018-08-05T14:01:43Z</time>
      </trkpt>
      <trkpt lat="43.99416" lon="7.48593">
        <ele>1295.62</ele>
        <time>2018-08-05T14:01:38Z</time>
      </trkpt>
      <trkpt lat="43.99423" lon="7.48623">
        <ele>1298.12</ele>
        <time>2018-08-05T14:01:36Z</time>
      </trkpt>
      <trkpt lat="43.99428" lon="7.48666">
        <ele>1297.2</ele>
        <time>2018-08-05T14:01:33Z</time>
      </trkpt>
      <trkpt lat="43.9943" lon="7.48691">
        <ele>1298.05</ele>
        <time>2018-08-05T14:01:31Z</time>
      </trkpt>
      <trkpt lat="43.99431" lon="7.48702">
        <ele>1298.93</ele>
        <time>2018-08-05T14:01:30Z</time>
      </trkpt>
      <trkpt lat="43.99432" lon="7.48712">
        <ele>1299.86</ele>
        <time>2018-08-05T14:01:29Z</time>
      </trkpt>
      <trkpt lat="43.99433" lon="7.4872">
        <ele>1300.57</ele>
        <time>2018-08-05T14:01:28Z</time>
      </trkpt>
      <trkpt lat="43.99431" lon="7.48727">
        <ele>1301.23</ele>
        <time>2018-08-05T14:01:27Z</time>
      </trkpt>
      <trkpt lat="43.99428" lon="7.4873">
        <ele>1301.57</ele>
        <time>2018-08-05T14:01:26Z</time>
      </trkpt>
      <trkpt lat="43.99423" lon="7.4873">
        <ele>1301.87</ele>
        <time>2018-08-05T14:01:25Z</time>
      </trkpt>
      <trkpt lat="43.99417" lon="7.48727">
        <ele>1301.51</ele>
        <time>2018-08-05T14:01:24Z</time>
      </trkpt>
      <trkpt lat="43.99404" lon="7.48715">
        <ele>1302.83</ele>
        <time>2018-08-05T14:01:22Z</time>
      </trkpt>
      <trkpt lat="43.99395" lon="7.48708">
        <ele>1303.48</ele>
        <time>2018-08-05T14:01:21Z</time>
      </trkpt>
      <trkpt lat="43.99373" lon="7.48698">
        <ele>1304.06</ele>
        <time>2018-08-05T14:01:19Z</time>
      </trkpt>
      <trkpt lat="43.99361" lon="7.48694">
        <ele>1304.65</ele>
        <time>2018-08-05T14:01:18Z</time>
      </trkpt>
      <trkpt lat="43.99349" lon="7.48691">
        <ele>1304.4</ele>
        <time>2018-08-05T14:01:17Z</time>
      </trkpt>
      <trkpt lat="43.99338" lon="7.48688">
        <ele>1304.39</ele>
        <time>2018-08-05T14:01:16Z</time>
      </trkpt>
      <trkpt lat="43.99327" lon="7.48687">
        <ele>1304.76</ele>
        <time>2018-08-05T14:01:15Z</time>
      </trkpt>
      <trkpt lat="43.99316" lon="7.48688">
        <ele>1304.96</ele>
        <time>2018-08-05T14:01:14Z</time>
      </trkpt>
      <trkpt lat="43.99307" lon="7.48693">
        <ele>1305.78</ele>
        <time>2018-08-05T14:01:13Z</time>
      </trkpt>
      <trkpt lat="43.99298" lon="7.487">
        <ele>1306.34</ele>
        <time>2018-08-05T14:01:12Z</time>
      </trkpt>
      <trkpt lat="43.9929" lon="7.48709">
        <ele>1306.95</ele>
        <time>2018-08-05T14:01:11Z</time>
      </trkpt>
      <trkpt lat="43.99282" lon="7.48718">
        <ele>1307.23</ele>
        <time>2018-08-05T14:01:10Z</time>
      </trkpt>
      <trkpt lat="43.99274" lon="7.48725">
        <ele>1307.97</ele>
        <time>2018-08-05T14:01:09Z</time>
      </trkpt>
      <trkpt lat="43.99265" lon="7.4873">
        <ele>1308.33</ele>
        <time>2018-08-05T14:01:08Z</time>
      </trkpt>
      <trkpt lat="43.99224" lon="7.48739">
        <ele>1308.99</ele>
        <time>2018-08-05T14:01:03Z</time>
      </trkpt>
      <trkpt lat="43.99218" lon="7.48741">
        <ele>1309.37</ele>
        <time>2018-08-05T14:01:02Z</time>
      </trkpt>
      <trkpt lat="43.99211" lon="7.48743">
        <ele>1309.57</ele>
        <time>2018-08-05T14:01:01Z</time>
      </trkpt>
      <trkpt lat="43.99205" lon="7.48746">
        <ele>1309.93</ele>
        <time>2018-08-05T14:01:00Z</time>
      </trkpt>
      <trkpt lat="43.99196" lon="7.48752">
        <ele>1310.79</ele>
        <time>2018-08-05T14:00:59Z</time>
      </trkpt>
      <trkpt lat="43.99189" lon="7.4876">
        <ele>1310.74</ele>
        <time>2018-08-05T14:00:58Z</time>
      </trkpt>
      <trkpt lat="43.99183" lon="7.48771">
        <ele>1311.4</ele>
        <time>2018-08-05T14:00:57Z</time>
      </trkpt>
      <trkpt lat="43.99178" lon="7.48783">
        <ele>1311.24</ele>
        <time>2018-08-05T14:00:56Z</time>
      </trkpt>
      <trkpt lat="43.99175" lon="7.48796">
        <ele>1311.19</ele>
        <time>2018-08-05T14:00:55Z</time>
      </trkpt>
      <trkpt lat="43.99173" lon="7.48808">
        <ele>1311.51</ele>
        <time>2018-08-05T14:00:54Z</time>
      </trkpt>
      <trkpt lat="43.99171" lon="7.4882">
        <ele>1312.41</ele>
        <time>2018-08-05T14:00:53Z</time>
      </trkpt>
      <trkpt lat="43.99168" lon="7.4883">
        <ele>1312.43</ele>
        <time>2018-08-05T14:00:52Z</time>
      </trkpt>
      <trkpt lat="43.99163" lon="7.48838">
        <ele>1312.61</ele>
        <time>2018-08-05T14:00:51Z</time>
      </trkpt>
      <trkpt lat="43.99157" lon="7.48842">
        <ele>1312.41</ele>
        <time>2018-08-05T14:00:50Z</time>
      </trkpt>
      <trkpt lat="43.9915" lon="7.48844">
        <ele>1312.85</ele>
        <time>2018-08-05T14:00:49Z</time>
      </trkpt>
      <trkpt lat="43.99141" lon="7.48845">
        <ele>1313.22</ele>
        <time>2018-08-05T14:00:48Z</time>
      </trkpt>
      <trkpt lat="43.99131" lon="7.48848">
        <ele>1313.24</ele>
        <time>2018-08-05T14:00:47Z</time>
      </trkpt>
      <trkpt lat="43.99123" lon="7.48853">
        <ele>1313.64</ele>
        <time>2018-08-05T14:00:46Z</time>
      </trkpt>
      <trkpt lat="43.99115" lon="7.4886">
        <ele>1315.1</ele>
        <time>2018-08-05T14:00:45Z</time>
      </trkpt>
      <trkpt lat="43.99109" lon="7.48868">
        <ele>1315.93</ele>
        <time>2018-08-05T14:00:44Z</time>
      </trkpt>
      <trkpt lat="43.99102" lon="7.48878">
        <ele>1316.3</ele>
        <time>2018-08-05T14:00:43Z</time>
      </trkpt>
      <trkpt lat="43.99094" lon="7.48887">
        <ele>1315.89</ele>
        <time>2018-08-05T14:00:42Z</time>
      </trkpt>
      <trkpt lat="43.99085" lon="7.48895">
        <ele>1316.25</ele>
        <time>2018-08-05T14:00:41Z</time>
      </trkpt>
      <trkpt lat="43.99076" lon="7.48901">
        <ele>1315.89</ele>
        <time>2018-08-05T14:00:40Z</time>
      </trkpt>
      <trkpt lat="43.99066" lon="7.48905">
        <ele>1316.1</ele>
        <time>2018-08-05T14:00:39Z</time>
      </trkpt>
      <trkpt lat="43.99056" lon="7.4891">
        <ele>1316.15</ele>
        <time>2018-08-05T14:00:38Z</time>
      </trkpt>
      <trkpt lat="43.99048" lon="7.48912">
        <ele>1316.8</ele>
        <time>2018-08-05T14:00:37Z</time>
      </trkpt>
      <trkpt lat="43.9904" lon="7.48911">
        <ele>1317.82</ele>
        <time>2018-08-05T14:00:36Z</time>
      </trkpt>
      <trkpt lat="43.99033" lon="7.48907">
        <ele>1318.03</ele>
        <time>2018-08-05T14:00:35Z</time>
      </trkpt>
      <trkpt lat="43.99013" lon="7.48878">
        <ele>1318.12</ele>
        <time>2018-08-05T14:00:32Z</time>
      </trkpt>
      <trkpt lat="43.98983" lon="7.48824">
        <ele>1320.64</ele>
        <time>2018-08-05T14:00:28Z</time>
      </trkpt>
      <trkpt lat="43.98976" lon="7.4881">
        <ele>1320.95</ele>
        <time>2018-08-05T14:00:27Z</time>
      </trkpt>
      <trkpt lat="43.98937" lon="7.48768">
        <ele>1321.27</ele>
        <time>2018-08-05T14:00:23Z</time>
      </trkpt>
      <trkpt lat="43.98927" lon="7.48759">
        <ele>1321.15</ele>
        <time>2018-08-05T14:00:22Z</time>
      </trkpt>
      <trkpt lat="43.98918" lon="7.48752">
        <ele>1321.31</ele>
        <time>2018-08-05T14:00:21Z</time>
      </trkpt>
      <trkpt lat="43.98908" lon="7.48748">
        <ele>1322.8</ele>
        <time>2018-08-05T14:00:20Z</time>
      </trkpt>
      <trkpt lat="43.98899" lon="7.48749">
        <ele>1322.88</ele>
        <time>2018-08-05T14:00:19Z</time>
      </trkpt>
      <trkpt lat="43.98889" lon="7.48752">
        <ele>1322.95</ele>
        <time>2018-08-05T14:00:18Z</time>
      </trkpt>
      <trkpt lat="43.9888" lon="7.48756">
        <ele>1323.94</ele>
        <time>2018-08-05T14:00:17Z</time>
      </trkpt>
      <trkpt lat="43.98871" lon="7.48762">
        <ele>1323.86</ele>
        <time>2018-08-05T14:00:16Z</time>
      </trkpt>
      <trkpt lat="43.98863" lon="7.48771">
        <ele>1324.54</ele>
        <time>2018-08-05T14:00:15Z</time>
      </trkpt>
      <trkpt lat="43.98841" lon="7.48806">
        <ele>1327.07</ele>
        <time>2018-08-05T14:00:12Z</time>
      </trkpt>
      <trkpt lat="43.98834" lon="7.48819">
        <ele>1328.34</ele>
        <time>2018-08-05T14:00:11Z</time>
      </trkpt>
      <trkpt lat="43.98809" lon="7.48882">
        <ele>1328.32</ele>
        <time>2018-08-05T14:00:07Z</time>
      </trkpt>
      <trkpt lat="43.98803" lon="7.48897">
        <ele>1329.71</ele>
        <time>2018-08-05T14:00:06Z</time>
      </trkpt>
      <trkpt lat="43.98797" lon="7.4891">
        <ele>1330.48</ele>
        <time>2018-08-05T14:00:05Z</time>
      </trkpt>
      <trkpt lat="43.98727" lon="7.48969">
        <ele>1330.9</ele>
        <time>2018-08-05T13:59:58Z</time>
      </trkpt>
      <trkpt lat="43.98718" lon="7.48974">
        <ele>1331.41</ele>
        <time>2018-08-05T13:59:57Z</time>
      </trkpt>
      <trkpt lat="43.98709" lon="7.48978">
        <ele>1331.98</ele>
        <time>2018-08-05T13:59:56Z</time>
      </trkpt>
      <trkpt lat="43.98703" lon="7.48985">
        <ele>1331.95</ele>
        <time>2018-08-05T13:59:55Z</time>
      </trkpt>
      <trkpt lat="43.98698" lon="7.48995">
        <ele>1331.31</ele>
        <time>2018-08-05T13:59:54Z</time>
      </trkpt>
      <trkpt lat="43.98691" lon="7.49019">
        <ele>1331.86</ele>
        <time>2018-08-05T13:59:52Z</time>
      </trkpt>
      <trkpt lat="43.98688" lon="7.4903">
        <ele>1332.68</ele>
        <time>2018-08-05T13:59:51Z</time>
      </trkpt>
      <trkpt lat="43.98686" lon="7.4904">
        <ele>1332.93</ele>
        <time>2018-08-05T13:59:50Z</time>
      </trkpt>
      <trkpt lat="43.98683" lon="7.49048">
        <ele>1333.04</ele>
        <time>2018-08-05T13:59:49Z</time>
      </trkpt>
      <trkpt lat="43.98678" lon="7.49054">
        <ele>1333.32</ele>
        <time>2018-08-05T13:59:48Z</time>
      </trkpt>
      <trkpt lat="43.98664" lon="7.49064">
        <ele>1333.1</ele>
        <time>2018-08-05T13:59:46Z</time>
      </trkpt>
      <trkpt lat="43.98655" lon="7.49071">
        <ele>1332.9</ele>
        <time>2018-08-05T13:59:45Z</time>
      </trkpt>
      <trkpt lat="43.9864" lon="7.49088">
        <ele>1333.88</ele>
        <time>2018-08-05T13:59:43Z</time>
      </trkpt>
      <trkpt lat="43.98632" lon="7.49097">
        <ele>1334.13</ele>
        <time>2018-08-05T13:59:42Z</time>
      </trkpt>
      <trkpt lat="43.98625" lon="7.49106">
        <ele>1334.57</ele>
        <time>2018-08-05T13:59:41Z</time>
      </trkpt>
      <trkpt lat="43.986" lon="7.49173">
        <ele>1335.32</ele>
        <time>2018-08-05T13:59:36Z</time>
      </trkpt>
      <trkpt lat="43.98594" lon="7.49187">
        <ele>1335.94</ele>
        <time>2018-08-05T13:59:35Z</time>
      </trkpt>
      <trkpt lat="43.98574" lon="7.49223">
        <ele>1336.45</ele>
        <time>2018-08-05T13:59:32Z</time>
      </trkpt>
      <trkpt lat="43.98567" lon="7.49237">
        <ele>1337.13</ele>
        <time>2018-08-05T13:59:31Z</time>
      </trkpt>
      <trkpt lat="43.98562" lon="7.49252">
        <ele>1337.11</ele>
        <time>2018-08-05T13:59:30Z</time>
      </trkpt>
      <trkpt lat="43.98557" lon="7.49268">
        <ele>1336.69</ele>
        <time>2018-08-05T13:59:29Z</time>
      </trkpt>
      <trkpt lat="43.98554" lon="7.49284">
        <ele>1336.52</ele>
        <time>2018-08-05T13:59:28Z</time>
      </trkpt>
      <trkpt lat="43.98552" lon="7.493">
        <ele>1336.74</ele>
        <time>2018-08-05T13:59:27Z</time>
      </trkpt>
      <trkpt lat="43.98552" lon="7.49314">
        <ele>1337.75</ele>
        <time>2018-08-05T13:59:26Z</time>
      </trkpt>
      <trkpt lat="43.98554" lon="7.49326">
        <ele>1338.24</ele>
        <time>2018-08-05T13:59:25Z</time>
      </trkpt>
      <trkpt lat="43.98557" lon="7.49337">
        <ele>1338.87</ele>
        <time>2018-08-05T13:59:24Z</time>
      </trkpt>
      <trkpt lat="43.98559" lon="7.49347">
        <ele>1339.26</ele>
        <time>2018-08-05T13:59:23Z</time>
      </trkpt>
      <trkpt lat="43.9856" lon="7.49357">
        <ele>1339.57</ele>
        <time>2018-08-05T13:59:22Z</time>
      </trkpt>
      <trkpt lat="43.98558" lon="7.49368">
        <ele>1339.08</ele>
        <time>2018-08-05T13:59:21Z</time>
      </trkpt>
      <trkpt lat="43.98556" lon="7.49381">
        <ele>1339.7</ele>
        <time>2018-08-05T13:59:20Z</time>
      </trkpt>
      <trkpt lat="43.98555" lon="7.49394">
        <ele>1340.07</ele>
        <time>2018-08-05T13:59:19Z</time>
      </trkpt>
      <trkpt lat="43.98556" lon="7.49407">
        <ele>1340.5</ele>
        <time>2018-08-05T13:59:18Z</time>
      </trkpt>
      <trkpt lat="43.9858" lon="7.49485">
        <ele>1341.32</ele>
        <time>2018-08-05T13:59:12Z</time>
      </trkpt>
      <trkpt lat="43.98582" lon="7.49495">
        <ele>1342.41</ele>
        <time>2018-08-05T13:59:11Z</time>
      </trkpt>
      <trkpt lat="43.98584" lon="7.49504">
        <ele>1342.93</ele>
        <time>2018-08-05T13:59:10Z</time>
      </trkpt>
      <trkpt lat="43.98585" lon="7.49512">
        <ele>1342.81</ele>
        <time>2018-08-05T13:59:09Z</time>
      </trkpt>
      <trkpt lat="43.98583" lon="7.49521">
        <ele>1342.82</ele>
        <time>2018-08-05T13:59:08Z</time>
      </trkpt>
      <trkpt lat="43.98579" lon="7.49529">
        <ele>1342.98</ele>
        <time>2018-08-05T13:59:07Z</time>
      </trkpt>
      <trkpt lat="43.98565" lon="7.49549">
        <ele>1342.87</ele>
        <time>2018-08-05T13:59:05Z</time>
      </trkpt>
      <trkpt lat="43.98558" lon="7.49561">
        <ele>1342.93</ele>
        <time>2018-08-05T13:59:04Z</time>
      </trkpt>
      <trkpt lat="43.98551" lon="7.49574">
        <ele>1344.25</ele>
        <time>2018-08-05T13:59:03Z</time>
      </trkpt>
      <trkpt lat="43.98546" lon="7.49588">
        <ele>1344.93</ele>
        <time>2018-08-05T13:59:02Z</time>
      </trkpt>
      <trkpt lat="43.98543" lon="7.49604">
        <ele>1344.82</ele>
        <time>2018-08-05T13:59:01Z</time>
      </trkpt>
      <trkpt lat="43.98538" lon="7.49634">
        <ele>1345.85</ele>
        <time>2018-08-05T13:58:59Z</time>
      </trkpt>
      <trkpt lat="43.98537" lon="7.49648">
        <ele>1346.16</ele>
        <time>2018-08-05T13:58:58Z</time>
      </trkpt>
      <trkpt lat="43.98534" lon="7.49661">
        <ele>1346.51</ele>
        <time>2018-08-05T13:58:57Z</time>
      </trkpt>
      <trkpt lat="43.9853" lon="7.49672">
        <ele>1346.88</ele>
        <time>2018-08-05T13:58:56Z</time>
      </trkpt>
      <trkpt lat="43.98525" lon="7.49682">
        <ele>1346.9</ele>
        <time>2018-08-05T13:58:55Z</time>
      </trkpt>
      <trkpt lat="43.9852" lon="7.49693">
        <ele>1346.4</ele>
        <time>2018-08-05T13:58:54Z</time>
      </trkpt>
      <trkpt lat="43.98493" lon="7.4973">
        <ele>1346.58</ele>
        <time>2018-08-05T13:58:51Z</time>
      </trkpt>
      <trkpt lat="43.98474" lon="7.49762">
        <ele>1347.9</ele>
        <time>2018-08-05T13:58:49Z</time>
      </trkpt>
      <trkpt lat="43.98431" lon="7.49849">
        <ele>1351.35</ele>
        <time>2018-08-05T13:58:44Z</time>
      </trkpt>
      <trkpt lat="43.98423" lon="7.49865">
        <ele>1351.37</ele>
        <time>2018-08-05T13:58:43Z</time>
      </trkpt>
      <trkpt lat="43.98412" lon="7.49897">
        <ele>1353.52</ele>
        <time>2018-08-05T13:58:41Z</time>
      </trkpt>
      <trkpt lat="43.98408" lon="7.49913">
        <ele>1354.75</ele>
        <time>2018-08-05T13:58:40Z</time>
      </trkpt>
      <trkpt lat="43.98403" lon="7.49965">
        <ele>1353.56</ele>
        <time>2018-08-05T13:58:37Z</time>
      </trkpt>
      <trkpt lat="43.98402" lon="7.49981">
        <ele>1353.58</ele>
        <time>2018-08-05T13:58:36Z</time>
      </trkpt>
      <trkpt lat="43.98402" lon="7.49997">
        <ele>1354.56</ele>
        <time>2018-08-05T13:58:35Z</time>
      </trkpt>
      <trkpt lat="43.98402" lon="7.50011">
        <ele>1356.36</ele>
        <time>2018-08-05T13:58:34Z</time>
      </trkpt>
      <trkpt lat="43.98402" lon="7.50024">
        <ele>1357.75</ele>
        <time>2018-08-05T13:58:33Z</time>
      </trkpt>
      <trkpt lat="43.984" lon="7.50036">
        <ele>1359.32</ele>
        <time>2018-08-05T13:58:32Z</time>
      </trkpt>
      <trkpt lat="43.98397" lon="7.50047">
        <ele>1360.38</ele>
        <time>2018-08-05T13:58:31Z</time>
      </trkpt>
      <trkpt lat="43.98364" lon="7.50116">
        <ele>1361.66</ele>
        <time>2018-08-05T13:58:25Z</time>
      </trkpt>
      <trkpt lat="43.98361" lon="7.50125">
        <ele>1361.3</ele>
        <time>2018-08-05T13:58:24Z</time>
      </trkpt>
      <trkpt lat="43.98358" lon="7.50134">
        <ele>1361.39</ele>
        <time>2018-08-05T13:58:23Z</time>
      </trkpt>
      <trkpt lat="43.98356" lon="7.5014">
        <ele>1361.33</ele>
        <time>2018-08-05T13:58:22Z</time>
      </trkpt>
      <trkpt lat="43.98341" lon="7.50168">
        <ele>1344.4</ele>
        <time>2017-01-17T22:35:57Z</time>
      </trkpt>
      <trkpt lat="43.9828" lon="7.49913">
        <ele>1360.7</ele>
        <time>2017-01-17T22:36:17Z</time>
      </trkpt>
      <trkpt lat="43.9842" lon="7.49498">
        <ele>1395.4</ele>
        <time>2017-01-17T22:36:37Z</time>
      </trkpt>
      <trkpt lat="43.98294" lon="7.48416">
        <ele>1476.7</ele>
        <time>2017-01-17T22:36:57Z</time>
      </trkpt>
      <trkpt lat="43.98467" lon="7.48239">
        <ele>1503.8</ele>
        <time>2017-01-17T22:37:17Z</time>
      </trkpt>
      <trkpt lat="43.98513" lon="7.47728">
        <ele>1537.8</ele>
        <time>2017-01-17T22:37:37Z</time>
      </trkpt>
      <trkpt lat="43.99094" lon="7.47091">
        <ele>1601</ele>
        <time>2017-01-17T22:37:57Z</time>
      </trkpt>
      <trkpt lat="43.99083" lon="7.46857">
        <ele>1611.4</ele>
        <time>2017-01-17T22:38:17Z</time>
      </trkpt>
      <trkpt lat="43.99691" lon="7.45753">
        <ele>1672.8</ele>
        <time>2017-01-17T22:38:37Z</time>
      </trkpt>
      <trkpt lat="43.99799" lon="7.45171">
        <ele>1706</ele>
        <time>2017-01-17T22:38:57Z</time>
      </trkpt>
      <trkpt lat="43.99647" lon="7.4471">
        <ele>1717.9</ele>
        <time>2017-01-17T22:39:17Z</time>
      </trkpt>
      <trkpt lat="43.99258" lon="7.44746">
        <ele>1717.2</ele>
        <time>2017-01-17T22:39:37Z</time>
      </trkpt>
      <trkpt lat="43.99001" lon="7.44961">
        <ele>1749.1</ele>
        <time>2017-01-17T22:39:57Z</time>
      </trkpt>
      <trkpt lat="43.98712" lon="7.4437">
        <ele>1785.7</ele>
        <time>2017-01-17T22:40:17Z</time>
      </trkpt>
      <trkpt lat="43.98743" lon="7.4435">
        <ele>1793.54</ele>
      </trkpt>
      <trkpt lat="43.98881" lon="7.44323">
        <ele>1795.39</ele>
      </trkpt>
      <trkpt lat="43.98579" lon="7.44004">
        <ele>1778.95</ele>
      </trkpt>
      <trkpt lat="43.98372" lon="7.43786">
        <ele>1790.65</ele>
      </trkpt>
      <trkpt lat="43.98755" lon="7.43277">
        <ele>1827.99</ele>
      </trkpt>
      <trkpt lat="43.98749" lon="7.43049">
        <ele>1818.28</ele>
      </trkpt>
      <trkpt lat="43.98944" lon="7.43022">
        <ele>1851.34</ele>
      </trkpt>
      <trkpt lat="43.99069" lon="7.42886">
        <ele>1845.54</ele>
      </trkpt>
      <trkpt lat="43.99038" lon="7.42695">
        <ele>1847.82</ele>
      </trkpt>
      <trkpt lat="43.9934" lon="7.42658">
        <ele>1889.4</ele>
      </trkpt>
      <trkpt lat="43.99378" lon="7.42495">
        <ele>1865.27</ele>
      </trkpt>
      <trkpt lat="43.99353" lon="7.42067">
        <ele>1885.99</ele>
      </trkpt>
      <trkpt lat="43.99478" lon="7.4194">
        <ele>1897.85</ele>
      </trkpt>
      <trkpt lat="43.99547" lon="7.41676">
        <ele>1896.71</ele>
      </trkpt>
      <trkpt lat="43.99541" lon="7.4143">
        <ele>1894.42</ele>
      </trkpt>
      <trkpt lat="43.99515" lon="7.41214">
        <ele>1878.7</ele>
        <time>2017-01-17T22:42:57Z</time>
      </trkpt>
      <trkpt lat="43.98848" lon="7.40529">
        <ele>1799.4</ele>
        <time>2017-01-17T22:43:17Z</time>
      </trkpt>
      <trkpt lat="43.98845" lon="7.40614">
        <ele>1796</ele>
        <time>2017-01-17T22:43:37Z</time>
      </trkpt>
      <trkpt lat="43.98874" lon="7.40113">
        <ele>1747.8</ele>
        <time>2017-01-17T22:43:57Z</time>
      </trkpt>
      <trkpt lat="43.98649" lon="7.39849">
        <ele>1738.1</ele>
        <time>2017-01-17T22:44:17Z</time>
      </trkpt>
      <trkpt lat="43.98386" lon="7.3985">
        <ele>1713.9</ele>
        <time>2017-01-17T22:44:37Z</time>
      </trkpt>
      <trkpt lat="43.98276" lon="7.39728">
        <ele>1706.4</ele>
        <time>2017-01-17T22:44:57Z</time>
      </trkpt>
      <trkpt lat="43.97986" lon="7.38979">
        <ele>1643.3</ele>
        <time>2017-01-17T22:45:17Z</time>
      </trkpt>
      <trkpt lat="43.97919" lon="7.39139">
        <ele>1633.7</ele>
        <time>2017-01-17T22:45:37Z</time>
      </trkpt>
      <trkpt lat="43.97766" lon="7.39142">
        <ele>1604.6</ele>
        <time>2017-01-17T22:45:57Z</time>
      </trkpt>
      <trkpt lat="43.97884" lon="7.3902">
        <ele>1594.5</ele>
        <time>2017-01-17T22:46:17Z</time>
      </trkpt>
      <trkpt lat="43.97851" lon="7.3878">
        <ele>1572.2</ele>
        <time>2017-01-17T22:46:37Z</time>
      </trkpt>
      <trkpt lat="43.98041" lon="7.38682">
        <ele>1551.1</ele>
        <time>2017-01-17T22:46:57Z</time>
      </trkpt>
      <trkpt lat="43.98073" lon="7.37939">
        <ele>1484.3</ele>
        <time>2017-01-17T22:47:17Z</time>
      </trkpt>
      <trkpt lat="43.97792" lon="7.37801">
        <ele>1455.6</ele>
        <time>2017-01-17T22:47:37Z</time>
      </trkpt>
      <trkpt lat="43.97801" lon="7.37093">
        <ele>1397</ele>
        <time>2017-01-17T22:47:57Z</time>
      </trkpt>
      <trkpt lat="43.9767" lon="7.37333">
        <ele>1368.6</ele>
        <time>2017-01-17T22:48:17Z</time>
      </trkpt>
      <trkpt lat="43.97587" lon="7.37234">
        <ele>1354.1</ele>
        <time>2017-01-17T22:48:37Z</time>
      </trkpt>
      <trkpt lat="43.97696" lon="7.36892">
        <ele>1333.3</ele>
        <time>2017-01-17T22:48:57Z</time>
      </trkpt>
      <trkpt lat="43.97828" lon="7.36777">
        <ele>1311.6</ele>
        <time>2017-01-17T22:49:17Z</time>
      </trkpt>
      <trkpt lat="43.98046" lon="7.36823">
        <ele>1295.2</ele>
        <time>2017-01-17T22:49:37Z</time>
      </trkpt>
      <trkpt lat="43.98196" lon="7.36484">
        <ele>1235.7</ele>
        <time>2017-01-17T22:49:57Z</time>
      </trkpt>
      <trkpt lat="43.98488" lon="7.36662">
        <ele>1207.9</ele>
        <time>2017-01-17T22:50:17Z</time>
      </trkpt>
      <trkpt lat="43.98557" lon="7.36586">
        <ele>1193.3</ele>
        <time>2017-01-17T22:50:37Z</time>
      </trkpt>
      <trkpt lat="43.98441" lon="7.35959">
        <ele>1092.9</ele>
        <time>2017-01-17T22:50:57Z</time>
      </trkpt>
      <trkpt lat="43.9877" lon="7.36017">
        <ele>1065.4</ele>
        <time>2017-01-17T22:51:17Z</time>
      </trkpt>
      <trkpt lat="43.9861" lon="7.35567">
        <ele>1028.5</ele>
        <time>2017-01-17T22:51:37Z</time>
      </trkpt>
      <trkpt lat="43.98591" lon="7.35743">
        <ele>1013.4</ele>
        <time>2017-01-17T22:51:57Z</time>
      </trkpt>
      <trkpt lat="43.98564" lon="7.35401">
        <ele>986.9</ele>
        <time>2017-01-17T22:52:17Z</time>
      </trkpt>
      <trkpt lat="43.9843" lon="7.35687">
        <ele>953.4</ele>
        <time>2017-01-17T22:52:37Z</time>
      </trkpt>
      <trkpt lat="43.98457" lon="7.34567">
        <ele>867.4</ele>
        <time>2017-01-17T22:52:57Z</time>
      </trkpt>
      <trkpt lat="43.98282" lon="7.34253">
        <ele>840.9</ele>
        <time>2017-01-17T22:53:17Z</time>
      </trkpt>
      <trkpt lat="43.98562" lon="7.34008">
        <ele>812.7</ele>
        <time>2017-01-17T22:53:37Z</time>
      </trkpt>
      <trkpt lat="43.98557" lon="7.33481">
        <ele>760.7</ele>
        <time>2017-01-17T22:53:57Z</time>
      </trkpt>
      <trkpt lat="43.99005" lon="7.335">
        <ele>729.6</ele>
        <time>2017-01-17T22:54:17Z</time>
      </trkpt>
      <trkpt lat="43.99159" lon="7.33383">
        <ele>707.4</ele>
        <time>2017-01-17T22:54:37Z</time>
      </trkpt>
      <trkpt lat="43.9892" lon="7.32746">
        <ele>627</ele>
        <time>2017-01-17T22:54:57Z</time>
      </trkpt>
      <trkpt lat="43.98988" lon="7.32581">
        <ele>617.9</ele>
        <time>2017-01-17T22:55:17Z</time>
      </trkpt>
      <trkpt lat="43.98849" lon="7.32356">
        <ele>602.5</ele>
        <time>2017-01-17T22:55:37Z</time>
      </trkpt>
      <trkpt lat="43.98711" lon="7.32412">
        <ele>596.7</ele>
        <time>2017-01-17T22:55:57Z</time>
      </trkpt>
      <trkpt lat="43.98908" lon="7.32261">
        <ele>581.3</ele>
        <time>2017-01-17T22:56:17Z</time>
      </trkpt>
      <trkpt lat="43.99099" lon="7.32526">
        <ele>552.3</ele>
        <time>2017-01-17T22:56:37Z</time>
      </trkpt>
      <trkpt lat="43.99049" lon="7.32083">
        <ele>501</ele>
        <time>2017-01-17T22:56:57Z</time>
      </trkpt>
      <trkpt lat="43.99815" lon="7.31696">
        <ele>528.2</ele>
        <time>2017-01-17T22:57:17Z</time>
      </trkpt>
      <trkpt lat="44.00057" lon="7.31133">
        <ele>534.5</ele>
        <time>2017-01-17T22:57:37Z</time>
      </trkpt>
      <trkpt lat="44.00096" lon="7.31086">
        <ele>527.4</ele>
        <time>2017-01-17T22:57:57Z</time>
      </trkpt>
      <trkpt lat="44.0019" lon="7.30939">
        <ele>532.1</ele>
      </trkpt>
      <trkpt lat="44.00908" lon="7.30996">
        <ele>571.6</ele>
      </trkpt>
      <trkpt lat="44.01121" lon="7.30698">
        <ele>613.5</ele>
        <time>2017-01-17T22:58:17Z</time>
      </trkpt>
      <trkpt lat="44.01119" lon="7.30698">
        <ele>613.3</ele>
        <time>2017-01-17T22:58:37Z</time>
      </trkpt>
      <trkpt lat="44.01209" lon="7.30629">
        <ele>621.4</ele>
        <time>2017-01-17T22:58:57Z</time>
      </trkpt>
      <trkpt lat="44.01156" lon="7.30547">
        <ele>626.7</ele>
        <time>2017-01-17T22:59:17Z</time>
      </trkpt>
      <trkpt lat="44.01027" lon="7.30531">
        <ele>628.1</ele>
        <time>2017-01-17T22:59:37Z</time>
      </trkpt>
      <trkpt lat="44.00879" lon="7.30408">
        <ele>650.4</ele>
        <time>2017-01-17T22:59:57Z</time>
      </trkpt>
      <trkpt lat="44.00929" lon="7.30566">
        <ele>649.2</ele>
        <time>2017-01-17T23:00:17Z</time>
      </trkpt>
      <trkpt lat="44.00831" lon="7.3069">
        <ele>661.8</ele>
        <time>2017-01-17T23:00:37Z</time>
      </trkpt>
      <trkpt lat="44.00629" lon="7.30647">
        <ele>675.2</ele>
        <time>2017-01-17T23:00:57Z</time>
      </trkpt>
      <trkpt lat="44.00531" lon="7.30531">
        <ele>686.2</ele>
        <time>2017-01-17T23:01:17Z</time>
      </trkpt>
      <trkpt lat="44.00634" lon="7.30466">
        <ele>697.1</ele>
        <time>2017-01-17T23:01:37Z</time>
      </trkpt>
      <trkpt lat="44.00557" lon="7.30457">
        <ele>700.7</ele>
        <time>2017-01-17T23:01:57Z</time>
      </trkpt>
      <trkpt lat="44.00608" lon="7.3024">
        <ele>719.9</ele>
        <time>2017-01-17T23:02:17Z</time>
      </trkpt>
      <trkpt lat="44.00831" lon="7.30131">
        <ele>736.3</ele>
        <time>2017-01-17T23:02:37Z</time>
      </trkpt>
      <trkpt lat="44.00929" lon="7.29917">
        <ele>757.5</ele>
        <time>2017-01-17T23:02:57Z</time>
      </trkpt>
      <trkpt lat="44.00696" lon="7.3005">
        <ele>779.4</ele>
        <time>2017-01-17T23:03:17Z</time>
      </trkpt>
      <trkpt lat="44.00595" lon="7.30002">
        <ele>779.1</ele>
        <time>2017-01-17T23:03:37Z</time>
      </trkpt>
      <trkpt lat="44.00531" lon="7.2981">
        <ele>801.8</ele>
        <time>2017-01-17T23:03:57Z</time>
      </trkpt>
      <trkpt lat="44.0048" lon="7.29767">
        <ele>805.7</ele>
        <time>2017-01-17T23:04:17Z</time>
      </trkpt>
      <trkpt lat="44.00432" lon="7.29826">
        <ele>797.1</ele>
        <time>2017-01-17T23:04:37Z</time>
      </trkpt>
      <trkpt lat="44.00402" lon="7.29746">
        <ele>821.1</ele>
        <time>2017-01-17T23:04:57Z</time>
      </trkpt>
      <trkpt lat="44.00342" lon="7.29759">
        <ele>830.7</ele>
        <time>2017-01-17T23:05:17Z</time>
      </trkpt>
      <trkpt lat="44.00221" lon="7.29926">
        <ele>819.1</ele>
        <time>2017-01-17T23:05:37Z</time>
      </trkpt>
      <trkpt lat="44.00076" lon="7.29964">
        <ele>832.8</ele>
        <time>2017-01-17T23:05:57Z</time>
      </trkpt>
      <trkpt lat="44.00217" lon="7.2988">
        <ele>846.5</ele>
        <time>2017-01-17T23:06:17Z</time>
      </trkpt>
      <trkpt lat="44.00402" lon="7.29575">
        <ele>898.8</ele>
        <time>2017-01-17T23:06:37Z</time>
      </trkpt>
      <trkpt lat="44.00628" lon="7.29627">
        <ele>906.1</ele>
        <time>2017-01-17T23:06:57Z</time>
      </trkpt>
      <trkpt lat="44.00719" lon="7.29548">
        <ele>912.2</ele>
        <time>2017-01-17T23:07:17Z</time>
      </trkpt>
      <trkpt lat="44.00628" lon="7.29574">
        <ele>922.6</ele>
        <time>2017-01-17T23:07:37Z</time>
      </trkpt>
      <trkpt lat="44.00454" lon="7.29487">
        <ele>939.3</ele>
        <time>2017-01-17T23:07:57Z</time>
      </trkpt>
      <trkpt lat="44.00625" lon="7.29488">
        <ele>949.2</ele>
        <time>2017-01-17T23:08:17Z</time>
      </trkpt>
      <trkpt lat="44.00676" lon="7.29444">
        <ele>950.1</ele>
        <time>2017-01-17T23:08:37Z</time>
      </trkpt>
      <trkpt lat="44.00456" lon="7.2938">
        <ele>978.6</ele>
        <time>2017-01-17T23:08:57Z</time>
      </trkpt>
      <trkpt lat="44.00573" lon="7.29337">
        <ele>992</ele>
        <time>2017-01-17T23:09:17Z</time>
      </trkpt>
      <trkpt lat="44.00584" lon="7.29127">
        <ele>1008.6</ele>
        <time>2017-01-17T23:09:37Z</time>
      </trkpt>
      <trkpt lat="44.00703" lon="7.28976">
        <ele>1013.6</ele>
        <time>2017-01-17T23:09:57Z</time>
      </trkpt>
      <trkpt lat="44.00702" lon="7.28751">
        <ele>1032.7</ele>
        <time>2017-01-17T23:10:17Z</time>
      </trkpt>
      <trkpt lat="44.00639" lon="7.28621">
        <ele>1054</ele>
        <time>2017-01-17T23:10:37Z</time>
      </trkpt>
      <trkpt lat="44.00637" lon="7.28483">
        <ele>1065.9</ele>
        <time>2017-01-17T23:10:57Z</time>
      </trkpt>
      <trkpt lat="44.00691" lon="7.28394">
        <ele>1070.8</ele>
        <time>2017-01-17T23:11:17Z</time>
      </trkpt>
      <trkpt lat="44.00785" lon="7.28384">
        <ele>1091.1</ele>
        <time>2017-01-17T23:11:37Z</time>
      </trkpt>
      <trkpt lat="44.01002" lon="7.28596">
        <ele>1102.6</ele>
        <time>2017-01-17T23:11:57Z</time>
      </trkpt>
      <trkpt lat="44.01058" lon="7.28484">
        <ele>1115</ele>
        <time>2017-01-17T23:12:17Z</time>
      </trkpt>
      <trkpt lat="44.01016" lon="7.28087">
        <ele>1148.2</ele>
        <time>2017-01-17T23:12:37Z</time>
      </trkpt>
      <trkpt lat="44.00986" lon="7.28403">
        <ele>1165.2</ele>
        <time>2017-01-17T23:12:57Z</time>
      </trkpt>
      <trkpt lat="44.00719" lon="7.28115">
        <ele>1210.9</ele>
        <time>2017-01-17T23:13:17Z</time>
      </trkpt>
      <trkpt lat="44.00557" lon="7.28174">
        <ele>1214.9</ele>
        <time>2017-01-17T23:13:37Z</time>
      </trkpt>
      <trkpt lat="44.00737" lon="7.28054">
        <ele>1247</ele>
        <time>2017-01-17T23:13:57Z</time>
      </trkpt>
      <trkpt lat="44.00828" lon="7.28149">
        <ele>1247.8</ele>
        <time>2017-01-17T23:14:17Z</time>
      </trkpt>
      <trkpt lat="44.00732" lon="7.28003">
        <ele>1268.1</ele>
        <time>2017-01-17T23:14:37Z</time>
      </trkpt>
      <trkpt lat="44.0068" lon="7.28028">
        <ele>1261</ele>
        <time>2017-01-17T23:14:57Z</time>
      </trkpt>
      <trkpt lat="44.00715" lon="7.27974">
        <ele>1280.5</ele>
        <time>2017-01-17T23:15:17Z</time>
      </trkpt>
      <trkpt lat="44.00861" lon="7.2808">
        <ele>1286.1</ele>
        <time>2017-01-17T23:15:37Z</time>
      </trkpt>
      <trkpt lat="44.00836" lon="7.27952">
        <ele>1314.4</ele>
        <time>2017-01-17T23:15:57Z</time>
      </trkpt>
      <trkpt lat="44.00943" lon="7.27651">
        <ele>1307.4</ele>
        <time>2017-01-17T23:16:17Z</time>
      </trkpt>
      <trkpt lat="44.00802" lon="7.27536">
        <ele>1348.7</ele>
        <time>2017-01-17T23:16:37Z</time>
      </trkpt>
      <trkpt lat="44.00886" lon="7.27672">
        <ele>1341.1</ele>
        <time>2017-01-17T23:16:57Z</time>
      </trkpt>
      <trkpt lat="44.00758" lon="7.2754">
        <ele>1381.6</ele>
        <time>2017-01-17T23:17:17Z</time>
      </trkpt>
      <trkpt lat="44.00732" lon="7.27381">
        <ele>1390</ele>
        <time>2017-01-17T23:17:37Z</time>
      </trkpt>
      <trkpt lat="44.00728" lon="7.2751">
        <ele>1396.5</ele>
        <time>2017-01-17T23:17:57Z</time>
      </trkpt>
      <trkpt lat="44.00702" lon="7.27424">
        <ele>1408</ele>
        <time>2017-01-17T23:18:17Z</time>
      </trkpt>
      <trkpt lat="44.00746" lon="7.27286">
        <ele>1418.6</ele>
        <time>2017-01-17T23:18:37Z</time>
      </trkpt>
      <trkpt lat="44.00818" lon="7.27252">
        <ele>1410.7</ele>
        <time>2017-01-17T23:18:57Z</time>
      </trkpt>
      <trkpt lat="44.00728" lon="7.27248">
        <ele>1443.9</ele>
        <time>2017-01-17T23:19:17Z</time>
      </trkpt>
      <trkpt lat="44.00668" lon="7.27364">
        <ele>1436.7</ele>
        <time>2017-01-17T23:19:37Z</time>
      </trkpt>
      <trkpt lat="44.00707" lon="7.2766">
        <ele>1449.7</ele>
        <time>2017-01-17T23:19:57Z</time>
      </trkpt>
      <trkpt lat="44.0062" lon="7.2766">
        <ele>1473</ele>
        <time>2017-01-17T23:20:17Z</time>
      </trkpt>
      <trkpt lat="44.00527" lon="7.2778">
        <ele>1461</ele>
        <time>2017-01-17T23:20:37Z</time>
      </trkpt>
      <trkpt lat="44.00484" lon="7.27767">
        <ele>1466</ele>
        <time>2017-01-17T23:20:57Z</time>
      </trkpt>
      <trkpt lat="44.00608" lon="7.27582">
        <ele>1489.4</ele>
        <time>2017-01-17T23:21:17Z</time>
      </trkpt>
      <trkpt lat="44.00591" lon="7.27235">
        <ele>1517.6</ele>
        <time>2017-01-17T23:21:37Z</time>
      </trkpt>
      <trkpt lat="44.0066" lon="7.27094">
        <ele>1545.1</ele>
        <time>2017-01-17T23:21:57Z</time>
      </trkpt>
      <trkpt lat="44.00733" lon="7.27072">
        <ele>1526.4</ele>
        <time>2017-01-17T23:22:17Z</time>
      </trkpt>
      <trkpt lat="44.00672" lon="7.26955">
        <ele>1551.9</ele>
        <time>2017-01-17T23:22:37Z</time>
      </trkpt>
      <trkpt lat="44.00715" lon="7.26677">
        <ele>1592.7</ele>
        <time>2017-01-17T23:22:57Z</time>
      </trkpt>
      <trkpt lat="44.0069" lon="7.26433">
        <ele>1590</ele>
        <time>2017-01-17T23:23:17Z</time>
      </trkpt>
      <trkpt lat="44.00835" lon="7.26428">
        <ele>1620.4</ele>
        <time>2017-01-17T23:23:37Z</time>
      </trkpt>
      <trkpt lat="44.00921" lon="7.26282">
        <ele>1616.2</ele>
        <time>2017-01-17T23:23:57Z</time>
      </trkpt>
      <trkpt lat="44.01032" lon="7.26218">
        <ele>1635.8</ele>
        <time>2017-01-17T23:24:17Z</time>
      </trkpt>
      <trkpt lat="44.01034" lon="7.25984">
        <ele>1635</ele>
        <time>2017-01-17T23:24:37Z</time>
      </trkpt>
      <trkpt lat="44.01187" lon="7.25548">
        <ele>1664.5</ele>
        <time>2017-01-17T23:24:57Z</time>
      </trkpt>
      <trkpt lat="44.01149" lon="7.25334">
        <ele>1673.3</ele>
        <time>2017-01-17T23:25:17Z</time>
      </trkpt>
      <trkpt lat="44.00909" lon="7.25058">
        <ele>1684.8</ele>
        <time>2017-01-17T23:25:37Z</time>
      </trkpt>
      <trkpt lat="44.009" lon="7.24421">
        <ele>1674.6</ele>
        <time>2017-01-17T23:25:57Z</time>
      </trkpt>
      <trkpt lat="44.01008" lon="7.24038">
        <ele>1671</ele>
        <time>2017-01-17T23:26:17Z</time>
      </trkpt>
      <trkpt lat="44.01003" lon="7.2375">
        <ele>1675.2</ele>
        <time>2017-01-17T23:26:37Z</time>
      </trkpt>
      <trkpt lat="44.00873" lon="7.23635">
        <ele>1664.4</ele>
        <time>2017-01-17T23:26:57Z</time>
      </trkpt>
      <trkpt lat="44.00673" lon="7.23647">
        <ele>1658.6</ele>
        <time>2017-01-17T23:27:17Z</time>
      </trkpt>
      <trkpt lat="44.00549" lon="7.23619">
        <ele>1658.3</ele>
        <time>2017-01-17T23:27:37Z</time>
      </trkpt>
      <trkpt lat="44.00436" lon="7.23518">
        <ele>1660</ele>
        <time>2017-01-17T23:27:57Z</time>
      </trkpt>
      <trkpt lat="44.00286" lon="7.23506">
        <ele>1661.5</ele>
        <time>2017-01-17T23:28:17Z</time>
      </trkpt>
      <trkpt lat="44.0011" lon="7.23578">
        <ele>1672.3</ele>
        <time>2017-01-17T23:28:37Z</time>
      </trkpt>
      <trkpt lat="44.00041" lon="7.23681">
        <ele>1662.4</ele>
        <time>2017-01-17T23:28:57Z</time>
      </trkpt>
      <trkpt lat="43.99869" lon="7.23597">
        <ele>1686.4</ele>
        <time>2017-01-17T23:29:17Z</time>
      </trkpt>
      <trkpt lat="43.99606" lon="7.237">
        <ele>1659</ele>
        <time>2017-01-17T23:29:37Z</time>
      </trkpt>
      <trkpt lat="43.99436" lon="7.23617">
        <ele>1639.8</ele>
        <time>2017-01-17T23:29:57Z</time>
      </trkpt>
      <trkpt lat="43.99235" lon="7.23695">
        <ele>1616.1</ele>
        <time>2017-01-17T23:30:17Z</time>
      </trkpt>
      <trkpt lat="43.99364" lon="7.23531">
        <ele>1598.4</ele>
        <time>2017-01-17T23:30:37Z</time>
      </trkpt>
      <trkpt lat="43.99501" lon="7.23489">
        <ele>1587.3</ele>
        <time>2017-01-17T23:30:57Z</time>
      </trkpt>
      <trkpt lat="43.99566" lon="7.23411">
        <ele>1571.2</ele>
        <time>2017-01-17T23:31:17Z</time>
      </trkpt>
      <trkpt lat="43.99283" lon="7.23118">
        <ele>1524.3</ele>
        <time>2017-01-17T23:31:37Z</time>
      </trkpt>
      <trkpt lat="43.99346" lon="7.23235">
        <ele>1513.4</ele>
        <time>2017-01-17T23:31:57Z</time>
      </trkpt>
      <trkpt lat="43.99205" lon="7.23115">
        <ele>1498.1</ele>
        <time>2017-01-17T23:32:17Z</time>
      </trkpt>
      <trkpt lat="43.99145" lon="7.23102">
        <ele>1482</ele>
        <time>2017-01-17T23:32:37Z</time>
      </trkpt>
      <trkpt lat="43.99222" lon="7.23175">
        <ele>1483.1</ele>
        <time>2017-01-17T23:32:57Z</time>
      </trkpt>
      <trkpt lat="43.99106" lon="7.23145">
        <ele>1471.3</ele>
        <time>2017-01-17T23:33:17Z</time>
      </trkpt>
      <trkpt lat="43.99192" lon="7.22767">
        <ele>1449.9</ele>
        <time>2017-01-17T23:33:37Z</time>
      </trkpt>
      <trkpt lat="43.99084" lon="7.22437">
        <ele>1431.3</ele>
        <time>2017-01-17T23:33:57Z</time>
      </trkpt>
      <trkpt lat="43.99015" lon="7.2239">
        <ele>1425.3</ele>
        <time>2017-01-17T23:34:17Z</time>
      </trkpt>
      <trkpt lat="43.99012" lon="7.22532">
        <ele>1400</ele>
        <time>2017-01-17T23:34:37Z</time>
      </trkpt>
      <trkpt lat="43.99102" lon="7.22647">
        <ele>1397.3</ele>
        <time>2017-01-17T23:34:57Z</time>
      </trkpt>
      <trkpt lat="43.9908" lon="7.22892">
        <ele>1374.1</ele>
        <time>2017-01-17T23:35:17Z</time>
      </trkpt>
      <trkpt lat="43.98938" lon="7.23014">
        <ele>1358.2</ele>
        <time>2017-01-17T23:35:37Z</time>
      </trkpt>
      <trkpt lat="43.98798" lon="7.23033">
        <ele>1334</ele>
        <time>2017-01-17T23:35:57Z</time>
      </trkpt>
      <trkpt lat="43.98573" lon="7.23166">
        <ele>1323.5</ele>
        <time>2017-01-17T23:36:17Z</time>
      </trkpt>
      <trkpt lat="43.9848" lon="7.23123">
        <ele>1302.1</ele>
        <time>2017-01-17T23:36:37Z</time>
      </trkpt>
      <trkpt lat="43.98609" lon="7.23116">
        <ele>1303.3</ele>
        <time>2017-01-17T23:36:57Z</time>
      </trkpt>
      <trkpt lat="43.98771" lon="7.22905">
        <ele>1263</ele>
        <time>2017-01-17T23:37:17Z</time>
      </trkpt>
      <trkpt lat="43.98887" lon="7.22862">
        <ele>1259.2</ele>
        <time>2017-01-17T23:37:37Z</time>
      </trkpt>
      <trkpt lat="43.98943" lon="7.22781">
        <ele>1256.2</ele>
        <time>2017-01-17T23:37:57Z</time>
      </trkpt>
      <trkpt lat="43.98613" lon="7.22252">
        <ele>1209.6</ele>
        <time>2017-01-17T23:38:17Z</time>
      </trkpt>
      <trkpt lat="43.9835" lon="7.22081">
        <ele>1176.2</ele>
        <time>2017-01-17T23:38:37Z</time>
      </trkpt>
      <trkpt lat="43.9812" lon="7.22062">
        <ele>1149.1</ele>
        <time>2017-01-17T23:38:57Z</time>
      </trkpt>
      <trkpt lat="43.98248" lon="7.21961">
        <ele>1137.8</ele>
        <time>2017-01-17T23:39:17Z</time>
      </trkpt>
      <trkpt lat="43.98236" lon="7.21866">
        <ele>1109.2</ele>
        <time>2017-01-17T23:39:37Z</time>
      </trkpt>
      <trkpt lat="43.98324" lon="7.21823">
        <ele>1114.3</ele>
        <time>2017-01-17T23:39:57Z</time>
      </trkpt>
      <trkpt lat="43.98368" lon="7.21707">
        <ele>1093.7</ele>
        <time>2017-01-17T23:40:17Z</time>
      </trkpt>
      <trkpt lat="43.98621" lon="7.21759">
        <ele>1089</ele>
        <time>2017-01-17T23:40:37Z</time>
      </trkpt>
      <trkpt lat="43.98677" lon="7.2161">
        <ele>1072.7</ele>
        <time>2017-01-17T23:40:57Z</time>
      </trkpt>
      <trkpt lat="43.98652" lon="7.21467">
        <ele>1049.9</ele>
        <time>2017-01-17T23:41:17Z</time>
      </trkpt>
      <trkpt lat="43.98775" lon="7.21429">
        <ele>1044</ele>
        <time>2017-01-17T23:41:37Z</time>
      </trkpt>
      <trkpt lat="43.98921" lon="7.21467">
        <ele>1032</ele>
        <time>2017-01-17T23:41:57Z</time>
      </trkpt>
      <trkpt lat="43.98973" lon="7.21532">
        <ele>1035.1</ele>
        <time>2017-01-17T23:42:17Z</time>
      </trkpt>
      <trkpt lat="43.99076" lon="7.21519">
        <ele>1018.8</ele>
        <time>2017-01-17T23:42:37Z</time>
      </trkpt>
      <trkpt lat="43.98904" lon="7.21213">
        <ele>1006</ele>
        <time>2017-01-17T23:42:57Z</time>
      </trkpt>
      <trkpt lat="43.99054" lon="7.21008">
        <ele>1003.2</ele>
        <time>2017-01-17T23:43:17Z</time>
      </trkpt>
      <trkpt lat="43.9896" lon="7.21021">
        <ele>995.7</ele>
        <time>2017-01-17T23:43:37Z</time>
      </trkpt>
      <trkpt lat="43.98917" lon="7.2097">
        <ele>1004.5</ele>
        <time>2017-01-17T23:43:57Z</time>
      </trkpt>
      <trkpt lat="43.98887" lon="7.21042">
        <ele>987.8</ele>
        <time>2017-01-17T23:44:17Z</time>
      </trkpt>
      <trkpt lat="43.98694" lon="7.20944">
        <ele>992.2</ele>
        <time>2017-01-17T23:44:37Z</time>
      </trkpt>
      <trkpt lat="43.98557" lon="7.20982">
        <ele>983.4</ele>
        <time>2017-01-17T23:44:57Z</time>
      </trkpt>
      <trkpt lat="43.98497" lon="7.20823">
        <ele>1003.3</ele>
        <time>2017-01-17T23:45:17Z</time>
      </trkpt>
      <trkpt lat="43.98325" lon="7.20815">
        <ele>991.4</ele>
        <time>2017-01-17T23:45:37Z</time>
      </trkpt>
      <trkpt lat="43.98321" lon="7.2061">
        <ele>1004.5</ele>
        <time>2017-01-17T23:45:57Z</time>
      </trkpt>
      <trkpt lat="43.9823" lon="7.20287">
        <ele>1035.6</ele>
        <time>2017-01-17T23:46:17Z</time>
      </trkpt>
      <trkpt lat="43.97947" lon="7.20711">
        <ele>1013.4</ele>
        <time>2017-01-17T23:46:37Z</time>
      </trkpt>
      <trkpt lat="43.97784" lon="7.20745">
        <ele>1008</ele>
        <time>2017-01-17T23:46:57Z</time>
      </trkpt>
      <trkpt lat="43.97664" lon="7.20672">
        <ele>1018.2</ele>
        <time>2017-01-17T23:47:17Z</time>
      </trkpt>
      <trkpt lat="43.97651" lon="7.20519">
        <ele>1016.7</ele>
        <time>2017-01-17T23:47:37Z</time>
      </trkpt>
      <trkpt lat="43.97574" lon="7.20471">
        <ele>1002.9</ele>
        <time>2017-01-17T23:47:57Z</time>
      </trkpt>
      <trkpt lat="43.97479" lon="7.20265">
        <ele>1003.7</ele>
        <time>2017-01-17T23:48:17Z</time>
      </trkpt>
      <trkpt lat="43.97196" lon="7.20505">
        <ele>999.8</ele>
        <time>2017-01-17T23:48:37Z</time>
      </trkpt>
      <trkpt lat="43.9702" lon="7.20205">
        <ele>1006.6</ele>
        <time>2017-01-17T23:48:57Z</time>
      </trkpt>
      <trkpt lat="43.96892" lon="7.20243">
        <ele>988</ele>
        <time>2017-01-17T23:49:17Z</time>
      </trkpt>
      <trkpt lat="43.9663" lon="7.19986">
        <ele>1008.8</ele>
        <time>2017-01-17T23:49:37Z</time>
      </trkpt>
      <trkpt lat="43.96561" lon="7.19985">
        <ele>989.3</ele>
        <time>2017-01-17T23:49:57Z</time>
      </trkpt>
      <trkpt lat="43.96557" lon="7.19888">
        <ele>1004.8</ele>
        <time>2017-01-17T23:50:17Z</time>
      </trkpt>
      <trkpt lat="43.96406" lon="7.19803">
        <ele>1003.5</ele>
        <time>2017-01-17T23:50:37Z</time>
      </trkpt>
      <trkpt lat="43.95868" lon="7.19892">
        <ele>933.6</ele>
        <time>2017-01-17T23:50:57Z</time>
      </trkpt>
      <trkpt lat="43.95633" lon="7.19788">
        <ele>918</ele>
        <time>2017-01-17T23:51:17Z</time>
      </trkpt>
      <trkpt lat="43.95517" lon="7.19638">
        <ele>907.2</ele>
        <time>2017-01-17T23:51:37Z</time>
      </trkpt>
      <trkpt lat="43.95162" lon="7.19523">
        <ele>869.7</ele>
        <time>2017-01-17T23:51:57Z</time>
      </trkpt>
      <trkpt lat="43.95076" lon="7.19536">
        <ele>860.7</ele>
        <time>2017-01-17T23:52:17Z</time>
      </trkpt>
      <trkpt lat="43.95241" lon="7.19611">
        <ele>847.1</ele>
        <time>2017-01-17T23:52:37Z</time>
      </trkpt>
      <trkpt lat="43.95368" lon="7.19772">
        <ele>825.6</ele>
        <time>2017-01-17T23:52:57Z</time>
      </trkpt>
      <trkpt lat="43.95278" lon="7.19695">
        <ele>817.8</ele>
        <time>2017-01-17T23:53:17Z</time>
      </trkpt>
      <trkpt lat="43.94978" lon="7.19647">
        <ele>788.1</ele>
        <time>2017-01-17T23:53:37Z</time>
      </trkpt>
      <trkpt lat="43.94965" lon="7.19601">
        <ele>791</ele>
        <time>2017-01-17T23:53:57Z</time>
      </trkpt>
      <trkpt lat="43.94986" lon="7.19669">
        <ele>782.8</ele>
        <time>2017-01-17T23:54:17Z</time>
      </trkpt>
      <trkpt lat="43.95063" lon="7.19691">
        <ele>779.8</ele>
        <time>2017-01-17T23:54:37Z</time>
      </trkpt>
      <trkpt lat="43.94943" lon="7.19664">
        <ele>762</ele>
        <time>2017-01-17T23:54:57Z</time>
      </trkpt>
      <trkpt lat="43.94875" lon="7.19373">
        <ele>747.4</ele>
        <time>2017-01-17T23:55:17Z</time>
      </trkpt>
      <trkpt lat="43.94884" lon="7.19552">
        <ele>740.3</ele>
        <time>2017-01-17T23:55:37Z</time>
      </trkpt>
      <trkpt lat="43.94785" lon="7.19223">
        <ele>710.1</ele>
        <time>2017-01-17T23:55:57Z</time>
      </trkpt>
      <trkpt lat="43.94797" lon="7.19072">
        <ele>693.1</ele>
        <time>2017-01-17T23:56:17Z</time>
      </trkpt>
      <trkpt lat="43.94755" lon="7.19265">
        <ele>673.5</ele>
        <time>2017-01-17T23:56:37Z</time>
      </trkpt>
      <trkpt lat="43.94729" lon="7.19119">
        <ele>664</ele>
        <time>2017-01-17T23:56:57Z</time>
      </trkpt>
      <trkpt lat="43.94861" lon="7.18824">
        <ele>637.9</ele>
        <time>2017-01-17T23:57:17Z</time>
      </trkpt>
      <trkpt lat="43.94784" lon="7.18883">
        <ele>619.2</ele>
        <time>2017-01-17T23:57:37Z</time>
      </trkpt>
      <trkpt lat="43.94871" lon="7.18718">
        <ele>611.7</ele>
        <time>2017-01-17T23:57:57Z</time>
      </trkpt>
      <trkpt lat="43.94869" lon="7.18615">
        <ele>599</ele>
        <time>2017-01-17T23:58:17Z</time>
      </trkpt>
      <trkpt lat="43.94462" lon="7.17993">
        <ele>591.9</ele>
        <time>2017-01-17T23:58:37Z</time>
      </trkpt>
      <trkpt lat="43.94461" lon="7.17958">
        <ele>579.6</ele>
      </trkpt>
      <trkpt lat="43.94201" lon="7.17958">
        <ele>551.1</ele>
      </trkpt>
      <trkpt lat="43.94192" lon="7.17958">
        <ele>547.8</ele>
      </trkpt>
      <trkpt lat="43.94075" lon="7.17659">
        <ele>554</ele>
      </trkpt>
      <trkpt lat="43.94165" lon="7.1736">
        <ele>499.5</ele>
      </trkpt>
      <trkpt lat="43.93878" lon="7.17689">
        <ele>457.1</ele>
      </trkpt>
      <trkpt lat="43.9386" lon="7.17689">
        <ele>455.1</ele>
      </trkpt>
      <trkpt lat="43.9394" lon="7.17868">
        <ele>404.7</ele>
      </trkpt>
      <trkpt lat="43.9394" lon="7.17883">
        <ele>398.9</ele>
      </trkpt>
      <trkpt lat="43.93617" lon="7.17644">
        <ele>382.8</ele>
      </trkpt>
      <trkpt lat="43.93617" lon="7.17629">
        <ele>383.4</ele>
      </trkpt>
      <trkpt lat="43.9394" lon="7.17315">
        <ele>340.9</ele>
      </trkpt>
      <trkpt lat="43.93949" lon="7.17015">
        <ele>317.7</ele>
      </trkpt>
      <trkpt lat="43.93842" lon="7.16671">
        <ele>319.2</ele>
      </trkpt>
      <trkpt lat="43.93851" lon="7.16656">
        <ele>313.5</ele>
      </trkpt>
      <trkpt lat="43.93985" lon="7.16432">
        <ele>299.6</ele>
      </trkpt>
      <trkpt lat="43.93878" lon="7.16312">
        <ele>254</ele>
      </trkpt>
      <trkpt lat="43.93842" lon="7.16297">
        <ele>238.1</ele>
      </trkpt>
      <trkpt lat="43.93967" lon="7.16103">
        <ele>236.8</ele>
      </trkpt>
      <trkpt lat="43.9456" lon="7.16312">
        <ele>272.5</ele>
      </trkpt>
      <trkpt lat="43.94578" lon="7.16312">
        <ele>272.2</ele>
      </trkpt>
      <trkpt lat="43.94749" lon="7.16073">
        <ele>267.7</ele>
      </trkpt>
      <trkpt lat="43.95423" lon="7.15893">
        <ele>268.8</ele>
      </trkpt>
      <trkpt lat="43.96132" lon="7.15429">
        <ele>279.6</ele>
      </trkpt>
      <trkpt lat="43.96141" lon="7.15429">
        <ele>281.2</ele>
      </trkpt>
      <trkpt lat="43.96836" lon="7.15004">
        <ele>286.2</ele>
        <time>2017-01-18T00:07:17Z</time>
      </trkpt>
      <trkpt lat="43.97229" lon="7.14619">
        <ele>291.7</ele>
      </trkpt>
      <trkpt lat="43.97305" lon="7.14157">
        <ele>297.2</ele>
      </trkpt>
      <trkpt lat="43.97501" lon="7.13957">
        <ele>290</ele>
      </trkpt>
      <trkpt lat="43.97718" lon="7.14074">
        <ele>308.9</ele>
      </trkpt>
      <trkpt lat="43.98071" lon="7.1394">
        <ele>300.6</ele>
        <time>2017-01-18T00:07:37Z</time>
      </trkpt>
      <trkpt lat="43.98671" lon="7.13625">
        <ele>323.2</ele>
      </trkpt>
      <trkpt lat="43.99383" lon="7.13678">
        <ele>341.5</ele>
      </trkpt>
      <trkpt lat="43.99714" lon="7.13785">
        <ele>348.9</ele>
      </trkpt>
      <trkpt lat="43.99928" lon="7.13742">
        <ele>354.7</ele>
      </trkpt>
      <trkpt lat="44.00263" lon="7.13846">
        <ele>356.4</ele>
      </trkpt>
      <trkpt lat="44.00625" lon="7.13623">
        <ele>332.4</ele>
        <time>2017-01-18T00:07:57Z</time>
      </trkpt>
      <trkpt lat="44.01046" lon="7.13165">
        <ele>345.6</ele>
      </trkpt>
      <trkpt lat="44.01961" lon="7.13171">
        <ele>354.8</ele>
      </trkpt>
      <trkpt lat="44.02349" lon="7.13159">
        <ele>355.5</ele>
      </trkpt>
      <trkpt lat="44.02783" lon="7.13101">
        <ele>371.6</ele>
      </trkpt>
      <trkpt lat="44.02972" lon="7.13195">
        <ele>368.1</ele>
      </trkpt>
      <trkpt lat="44.03447" lon="7.1319">
        <ele>405.7</ele>
      </trkpt>
      <trkpt lat="44.03644" lon="7.12812">
        <ele>418</ele>
      </trkpt>
      <trkpt lat="44.03872" lon="7.12748">
        <ele>421.1</ele>
      </trkpt>
      <trkpt lat="44.04089" lon="7.12903">
        <ele>424.6</ele>
      </trkpt>
      <trkpt lat="44.0476" lon="7.12987">
        <ele>458.7</ele>
        <time>2017-01-18T00:08:17Z</time>
      </trkpt>
      <trkpt lat="44.05423" lon="7.1222">
        <ele>498.7</ele>
      </trkpt>
      <trkpt lat="44.05473" lon="7.11928">
        <ele>481.2</ele>
      </trkpt>
      <trkpt lat="44.06431" lon="7.11716">
        <ele>467</ele>
      </trkpt>
      <trkpt lat="44.06563" lon="7.11399">
        <ele>440.8</ele>
        <time>2017-01-18T00:08:37Z</time>
      </trkpt>
      <trkpt lat="44.06764" lon="7.11465">
        <ele>489.5</ele>
      </trkpt>
      <trkpt lat="44.07121" lon="7.10951">
        <ele>472.1</ele>
      </trkpt>
      <trkpt lat="44.07346" lon="7.10958">
        <ele>481</ele>
      </trkpt>
      <trkpt lat="44.07552" lon="7.10793">
        <ele>470.9</ele>
      </trkpt>
      <trkpt lat="44.0775" lon="7.10503">
        <ele>470.3</ele>
      </trkpt>
      <trkpt lat="44.07992" lon="7.10534">
        <ele>479.4</ele>
      </trkpt>
      <trkpt lat="44.08082" lon="7.10666">
        <ele>486.1</ele>
      </trkpt>
      <trkpt lat="44.08391" lon="7.1049">
        <ele>497.2</ele>
      </trkpt>
      <trkpt lat="44.08477" lon="7.10644">
        <ele>489.9</ele>
      </trkpt>
      <trkpt lat="44.08676" lon="7.1062">
        <ele>518</ele>
      </trkpt>
      <trkpt lat="44.0886" lon="7.10676">
        <ele>497.8</ele>
        <time>2017-01-18T00:08:57Z</time>
      </trkpt>
      <trkpt lat="44.08771" lon="7.10462">
        <ele>514.3</ele>
      </trkpt>
      <trkpt lat="44.08586" lon="7.10386">
        <ele>527.6</ele>
      </trkpt>
      <trkpt lat="44.08502" lon="7.10116">
        <ele>560.9</ele>
      </trkpt>
      <trkpt lat="44.08622" lon="7.10306">
        <ele>572.4</ele>
      </trkpt>
      <trkpt lat="44.08828" lon="7.10292">
        <ele>600.2</ele>
      </trkpt>
      <trkpt lat="44.08642" lon="7.10216">
        <ele>610.9</ele>
      </trkpt>
      <trkpt lat="44.08617" lon="7.10048">
        <ele>635.7</ele>
      </trkpt>
      <trkpt lat="44.08361" lon="7.09842">
        <ele>641.4</ele>
      </trkpt>
      <trkpt lat="44.08614" lon="7.09455">
        <ele>681.1</ele>
      </trkpt>
      <trkpt lat="44.08637" lon="7.09299">
        <ele>690.5</ele>
      </trkpt>
      <trkpt lat="44.08655" lon="7.09127">
        <ele>720.8</ele>
      </trkpt>
      <trkpt lat="44.08516" lon="7.08932">
        <ele>716.1</ele>
      </trkpt>
      <trkpt lat="44.08502" lon="7.08522">
        <ele>739</ele>
      </trkpt>
      <trkpt lat="44.08588" lon="7.08464">
        <ele>783.3</ele>
      </trkpt>
      <trkpt lat="44.08922" lon="7.07735">
        <ele>819</ele>
      </trkpt>
      <trkpt lat="44.08982" lon="7.07406">
        <ele>824.7</ele>
      </trkpt>
      <trkpt lat="44.08915" lon="7.07206">
        <ele>849.3</ele>
      </trkpt>
      <trkpt lat="44.0913" lon="7.06261">
        <ele>934.5</ele>
      </trkpt>
      <trkpt lat="44.09683" lon="7.0558">
        <ele>1004.3</ele>
        <time>2017-01-18T00:09:17Z</time>
      </trkpt>
      <trkpt lat="44.08814" lon="7.06138">
        <ele>1049.7</ele>
        <time>2017-01-18T00:09:37Z</time>
      </trkpt>
      <trkpt lat="44.08413" lon="7.05726">
        <ele>1124.5</ele>
        <time>2017-01-18T00:09:57Z</time>
      </trkpt>
      <trkpt lat="44.09264" lon="7.05262">
        <ele>1254.6</ele>
        <time>2017-01-18T00:10:17Z</time>
      </trkpt>
      <trkpt lat="44.09209" lon="7.03932">
        <ele>1377.8</ele>
        <time>2017-01-18T00:10:37Z</time>
      </trkpt>
      <trkpt lat="44.09061" lon="7.034">
        <ele>1534.1</ele>
        <time>2017-01-18T00:10:57Z</time>
      </trkpt>
      <trkpt lat="44.09313" lon="7.02636">
        <ele>1595.7</ele>
        <time>2017-01-18T00:11:17Z</time>
      </trkpt>
      <trkpt lat="44.10189" lon="7.02147">
        <ele>1646.5</ele>
        <time>2017-01-18T00:11:37Z</time>
      </trkpt>
      <trkpt lat="44.09215" lon="7.0025">
        <ele>1591.6</ele>
        <time>2017-01-18T00:11:57Z</time>
      </trkpt>
      <trkpt lat="44.09628" lon="7.00104">
        <ele>1581.5</ele>
        <time>2017-01-18T00:12:17Z</time>
      </trkpt>
      <trkpt lat="44.10182" lon="7.00567">
        <ele>1567.3</ele>
        <time>2017-01-18T00:12:37Z</time>
      </trkpt>
      <trkpt lat="44.09862" lon="6.99537">
        <ele>1542.1</ele>
        <time>2017-01-18T00:12:57Z</time>
      </trkpt>
      <trkpt lat="44.10478" lon="6.9867">
        <ele>1438.7</ele>
        <time>2017-01-18T00:13:17Z</time>
      </trkpt>
      <trkpt lat="44.09609" lon="6.98653">
        <ele>1447.1</ele>
        <time>2017-01-18T00:13:37Z</time>
      </trkpt>
      <trkpt lat="44.09677" lon="6.98224">
        <ele>1465.9</ele>
        <time>2017-01-18T00:13:57Z</time>
      </trkpt>
      <trkpt lat="44.09443" lon="6.97426">
        <ele>1513.3</ele>
        <time>2017-01-18T00:14:17Z</time>
      </trkpt>
      <trkpt lat="44.0911" lon="6.97134">
        <ele>1547.5</ele>
        <time>2017-01-18T00:14:37Z</time>
      </trkpt>
      <trkpt lat="44.08974" lon="6.9649">
        <ele>1554.6</ele>
        <time>2017-01-18T00:14:57Z</time>
      </trkpt>
      <trkpt lat="44.08672" lon="6.96362">
        <ele>1539.4</ele>
        <time>2017-01-18T00:15:17Z</time>
      </trkpt>
      <trkpt lat="44.08626" lon="6.96164">
        <ele>1541.4</ele>
        <time>2017-01-18T00:15:37Z</time>
      </trkpt>
      <trkpt lat="44.08577" lon="6.95664">
        <ele>1533.6</ele>
        <time>2017-01-18T00:15:57Z</time>
      </trkpt>
      <trkpt lat="44.08876" lon="6.95248">
        <ele>1540</ele>
        <time>2017-01-18T00:16:17Z</time>
      </trkpt>
      <trkpt lat="44.08968" lon="6.95231">
        <ele>1542.9</ele>
        <time>2017-01-18T00:16:37Z</time>
      </trkpt>
      <trkpt lat="44.08853" lon="6.95145">
        <ele>1549.9</ele>
        <time>2017-01-18T00:16:57Z</time>
      </trkpt>
      <trkpt lat="44.08873" lon="6.94967">
        <ele>1562.9</ele>
        <time>2017-01-18T00:17:17Z</time>
      </trkpt>
      <trkpt lat="44.08999" lon="6.94823">
        <ele>1574</ele>
        <time>2017-01-18T00:17:37Z</time>
      </trkpt>
      <trkpt lat="44.08871" lon="6.94812">
        <ele>1574.3</ele>
        <time>2017-01-18T00:17:57Z</time>
      </trkpt>
      <trkpt lat="44.08675" lon="6.94327">
        <ele>1611.8</ele>
        <time>2017-01-18T00:18:17Z</time>
      </trkpt>
      <trkpt lat="44.09646" lon="6.92928">
        <ele>1675.2</ele>
        <time>2017-01-18T00:18:37Z</time>
      </trkpt>
      <trkpt lat="44.09534" lon="6.92905">
        <ele>1673</ele>
        <time>2017-01-18T00:18:57Z</time>
      </trkpt>
      <trkpt lat="44.09423" lon="6.92632">
        <ele>1667.4</ele>
        <time>2017-01-18T00:19:17Z</time>
      </trkpt>
      <trkpt lat="44.09238" lon="6.92647">
        <ele>1669.4</ele>
        <time>2017-01-18T00:19:37Z</time>
      </trkpt>
      <trkpt lat="44.0899" lon="6.921">
        <ele>1673.2</ele>
        <time>2017-01-18T00:19:57Z</time>
      </trkpt>
      <trkpt lat="44.08803" lon="6.91461">
        <ele>1632.9</ele>
        <time>2017-01-18T00:20:17Z</time>
      </trkpt>
      <trkpt lat="44.08601" lon="6.91461">
        <ele>1613.9</ele>
        <time>2017-01-18T00:20:37Z</time>
      </trkpt>
      <trkpt lat="44.08606" lon="6.91898">
        <ele>1587.8</ele>
        <time>2017-01-18T00:20:57Z</time>
      </trkpt>
      <trkpt lat="44.08467" lon="6.9127">
        <ele>1542.5</ele>
        <time>2017-01-18T00:21:17Z</time>
      </trkpt>
      <trkpt lat="44.08817" lon="6.91111">
        <ele>1517.7</ele>
        <time>2017-01-18T00:21:37Z</time>
      </trkpt>
      <trkpt lat="44.0837" lon="6.90821">
        <ele>1474.9</ele>
        <time>2017-01-18T00:21:57Z</time>
      </trkpt>
      <trkpt lat="44.08786" lon="6.90553">
        <ele>1426.2</ele>
        <time>2017-01-18T00:22:17Z</time>
      </trkpt>
      <trkpt lat="44.08658" lon="6.89733">
        <ele>1370.9</ele>
        <time>2017-01-18T00:22:37Z</time>
      </trkpt>
      <trkpt lat="44.08765" lon="6.89349">
        <ele>1374.2</ele>
        <time>2017-01-18T00:22:57Z</time>
      </trkpt>
      <trkpt lat="44.08422" lon="6.8925">
        <ele>1322.1</ele>
        <time>2017-01-18T00:23:17Z</time>
      </trkpt>
      <trkpt lat="44.08352" lon="6.88791">
        <ele>1292.8</ele>
        <time>2017-01-18T00:23:37Z</time>
      </trkpt>
      <trkpt lat="44.08318" lon="6.89216">
        <ele>1266.8</ele>
        <time>2017-01-18T00:23:57Z</time>
      </trkpt>
      <trkpt lat="44.08487" lon="6.89504">
        <ele>1245.7</ele>
        <time>2017-01-18T00:24:17Z</time>
      </trkpt>
      <trkpt lat="44.08105" lon="6.89873">
        <ele>1205.8</ele>
        <time>2017-01-18T00:24:37Z</time>
      </trkpt>
      <trkpt lat="44.07988" lon="6.88388">
        <ele>1084.3</ele>
        <time>2017-01-18T00:24:57Z</time>
      </trkpt>
      <trkpt lat="44.08419" lon="6.87521">
        <ele>1030.3</ele>
        <time>2017-01-18T00:25:17Z</time>
      </trkpt>
      <trkpt lat="44.08315" lon="6.86036">
        <ele>884.6</ele>
        <time>2017-01-18T00:25:37Z</time>
      </trkpt>
      <trkpt lat="44.08919" lon="6.85813">
        <ele>873.1</ele>
        <time>2017-01-18T00:25:57Z</time>
      </trkpt>
      <trkpt lat="44.08715" lon="6.85624">
        <ele>858.8</ele>
        <time>2017-01-18T00:26:17Z</time>
      </trkpt>
      <trkpt lat="44.08469" lon="6.8577">
        <ele>808.9</ele>
        <time>2017-01-18T00:26:37Z</time>
      </trkpt>
      <trkpt lat="44.08759" lon="6.85375">
        <ele>798</ele>
        <time>2017-01-18T00:26:57Z</time>
      </trkpt>
      <trkpt lat="44.07575" lon="6.85804">
        <ele>761.6</ele>
        <time>2017-01-18T00:27:17Z</time>
      </trkpt>
      <trkpt lat="44.06366" lon="6.85384">
        <ele>783.3</ele>
        <time>2017-01-18T00:27:37Z</time>
      </trkpt>
      <trkpt lat="44.0628" lon="6.84852">
        <ele>766.5</ele>
        <time>2017-01-18T00:27:57Z</time>
      </trkpt>
      <trkpt lat="44.06101" lon="6.85427">
        <ele>815.8</ele>
        <time>2017-01-18T00:28:17Z</time>
      </trkpt>
      <trkpt lat="44.05626" lon="6.85058">
        <ele>818</ele>
        <time>2017-01-18T00:28:37Z</time>
      </trkpt>
      <trkpt lat="44.05502" lon="6.84517">
        <ele>828.4</ele>
        <time>2017-01-18T00:28:57Z</time>
      </trkpt>
      <trkpt lat="44.04682" lon="6.84277">
        <ele>865</ele>
        <time>2017-01-18T00:29:17Z</time>
      </trkpt>
      <trkpt lat="44.04034" lon="6.83753">
        <ele>820.2</ele>
        <time>2017-01-18T00:29:37Z</time>
      </trkpt>
      <trkpt lat="44.04195" lon="6.83161">
        <ele>794.3</ele>
        <time>2017-01-18T00:29:57Z</time>
      </trkpt>
      <trkpt lat="44.03942" lon="6.8353">
        <ele>793</ele>
        <time>2017-01-18T00:30:17Z</time>
      </trkpt>
      <trkpt lat="44.03713" lon="6.82886">
        <ele>743.4</ele>
        <time>2017-01-18T00:30:37Z</time>
      </trkpt>
      <trkpt lat="44.03195" lon="6.82551">
        <ele>723.7</ele>
        <time>2017-01-18T00:30:57Z</time>
      </trkpt>
      <trkpt lat="44.02831" lon="6.8177">
        <ele>667.7</ele>
        <time>2017-01-18T00:31:17Z</time>
      </trkpt>
      <trkpt lat="44.02646" lon="6.81341">
        <ele>668.8</ele>
        <time>2017-01-18T00:31:37Z</time>
      </trkpt>
      <trkpt lat="44.02393" lon="6.81152">
        <ele>653.9</ele>
        <time>2017-01-18T00:31:57Z</time>
      </trkpt>
      <trkpt lat="43.98244" lon="6.759">
        <ele>553.8</ele>
        <time>2017-01-18T00:32:17Z</time>
      </trkpt>
      <trkpt lat="43.97009" lon="6.76037">
        <ele>530.1</ele>
        <time>2017-01-18T00:32:37Z</time>
      </trkpt>
      <trkpt lat="43.95872" lon="6.73565">
        <ele>555.5</ele>
        <time>2017-01-18T00:32:57Z</time>
      </trkpt>
      <trkpt lat="43.95989" lon="6.71711">
        <ele>599.8</ele>
        <time>2017-01-18T00:33:17Z</time>
      </trkpt>
      <trkpt lat="43.95736" lon="6.69994">
        <ele>604.6</ele>
        <time>2017-01-18T00:33:37Z</time>
      </trkpt>
      <trkpt lat="43.95798" lon="6.69308">
        <ele>644.2</ele>
        <time>2017-01-18T00:33:57Z</time>
      </trkpt>
      <trkpt lat="43.95561" lon="6.68728">
        <ele>656.73828125</ele>
      </trkpt>
      <trkpt lat="43.95639" lon="6.68586">
        <ele>662.70703125</ele>
      </trkpt>
      <trkpt lat="43.95679" lon="6.67904">
        <ele>678.640625</ele>
      </trkpt>
      <trkpt lat="43.9607" lon="6.67183">
        <ele>678.4296875</ele>
      </trkpt>
      <trkpt lat="43.96622" lon="6.66735">
        <ele>690.67578125</ele>
      </trkpt>
      <trkpt lat="43.96434" lon="6.66579">
        <ele>693.73828125</ele>
      </trkpt>
      <trkpt lat="43.96151" lon="6.65857">
        <ele>772.0703125</ele>
      </trkpt>
      <trkpt lat="43.95935" lon="6.65857">
        <ele>805.43359375</ele>
      </trkpt>
      <trkpt lat="43.95895" lon="6.65448">
        <ele>856.921875</ele>
      </trkpt>
      <trkpt lat="43.96124" lon="6.65429">
        <ele>868.21484375</ele>
      </trkpt>
      <trkpt lat="43.95895" lon="6.65195">
        <ele>905.9375</ele>
      </trkpt>
      <trkpt lat="43.96258" lon="6.65273">
        <ele>903.92578125</ele>
      </trkpt>
      <trkpt lat="43.96393" lon="6.65">
        <ele>929.1875</ele>
      </trkpt>
      <trkpt lat="43.96676" lon="6.64941">
        <ele>921.07421875</ele>
      </trkpt>
      <trkpt lat="43.97283" lon="6.64513">
        <ele>910.4453125</ele>
      </trkpt>
      <trkpt lat="43.97606" lon="6.64415">
        <ele>929.88671875</ele>
      </trkpt>
      <trkpt lat="43.97889" lon="6.63967">
        <ele>986.52734375</ele>
      </trkpt>
      <trkpt lat="43.97808" lon="6.63772">
        <ele>1028.65625</ele>
      </trkpt>
      <trkpt lat="43.98064" lon="6.63811">
        <ele>1052.58984375</ele>
      </trkpt>
      <trkpt lat="43.97929" lon="6.63636">
        <ele>1076.7265625</ele>
      </trkpt>
      <trkpt lat="43.97768" lon="6.63597">
        <ele>1082.26953125</ele>
      </trkpt>
      <trkpt lat="43.97579" lon="6.63831">
        <ele>1104.4296875</ele>
      </trkpt>
      <trkpt lat="43.97202" lon="6.63947">
        <ele>1134.1640625</ele>
      </trkpt>
      <trkpt lat="43.97606" lon="6.63441">
        <ele>1203.4140625</ele>
      </trkpt>
      <trkpt lat="43.97229" lon="6.63519">
        <ele>1266.57421875</ele>
      </trkpt>
      <trkpt lat="43.96878" lon="6.63772">
        <ele>1273.953125</ele>
      </trkpt>
      <trkpt lat="43.96447" lon="6.6387">
        <ele>1353.3671875</ele>
      </trkpt>
      <trkpt lat="43.95935" lon="6.63792">
        <ele>1416.33203125</ele>
      </trkpt>
      <trkpt lat="43.95692" lon="6.63265">
        <ele>1454.43359375</ele>
      </trkpt>
      <trkpt lat="43.95962" lon="6.62837">
        <ele>1439.16796875</ele>
      </trkpt>
      <trkpt lat="43.95868" lon="6.62622">
        <ele>1434.50390625</ele>
      </trkpt>
      <trkpt lat="43.95585" lon="6.62486">
        <ele>1449.08984375</ele>
      </trkpt>
      <trkpt lat="43.95234" lon="6.62349">
        <ele>1393.125</ele>
      </trkpt>
      <trkpt lat="43.95032" lon="6.62037">
        <ele>1415.48046875</ele>
      </trkpt>
      <trkpt lat="43.95221" lon="6.61921">
        <ele>1420.9296875</ele>
      </trkpt>
      <trkpt lat="43.95248" lon="6.61609">
        <ele>1430.05859375</ele>
      </trkpt>
      <trkpt lat="43.9514" lon="6.61492">
        <ele>1467.8515625</ele>
      </trkpt>
      <trkpt lat="43.95463" lon="6.61258">
        <ele>1490.44921875</ele>
      </trkpt>
      <trkpt lat="43.95558" lon="6.61414">
        <ele>1480.51953125</ele>
      </trkpt>
      <trkpt lat="43.95881" lon="6.61375">
        <ele>1472.5</ele>
      </trkpt>
      <trkpt lat="43.95881" lon="6.61277">
        <ele>1465.49609375</ele>
      </trkpt>
      <trkpt lat="43.95975" lon="6.61297">
        <ele>1448.46484375</ele>
      </trkpt>
      <trkpt lat="43.95895" lon="6.61102">
        <ele>1445.3203125</ele>
      </trkpt>
      <trkpt lat="43.96231" lon="6.61024">
        <ele>1412.08203125</ele>
      </trkpt>
      <trkpt lat="43.96366" lon="6.61102">
        <ele>1348.5625</ele>
      </trkpt>
      <trkpt lat="43.96366" lon="6.60985">
        <ele>1384.296875</ele>
      </trkpt>
      <trkpt lat="43.96487" lon="6.60868">
        <ele>1386.29296875</ele>
      </trkpt>
      <trkpt lat="43.96811" lon="6.61024">
        <ele>1333.44140625</ele>
      </trkpt>
      <trkpt lat="43.96932" lon="6.6116">
        <ele>1306.76953125</ele>
      </trkpt>
      <trkpt lat="43.97161" lon="6.60927">
        <ele>1273.171875</ele>
      </trkpt>
      <trkpt lat="43.97094" lon="6.61277">
        <ele>1228.98046875</ele>
      </trkpt>
      <trkpt lat="43.9735" lon="6.60985">
        <ele>1183.38671875</ele>
      </trkpt>
      <trkpt lat="43.97363" lon="6.60049">
        <ele>1140.578125</ele>
      </trkpt>
      <trkpt lat="43.97444" lon="6.60381">
        <ele>1129.765625</ele>
      </trkpt>
      <trkpt lat="43.97525" lon="6.60011">
        <ele>1106.94140625</ele>
      </trkpt>
      <trkpt lat="43.97768" lon="6.59933">
        <ele>1100.27734375</ele>
      </trkpt>
      <trkpt lat="43.97768" lon="6.59835">
        <ele>1087.78515625</ele>
      </trkpt>
      <trkpt lat="43.97633" lon="6.5966">
        <ele>1081.234375</ele>
      </trkpt>
      <trkpt lat="43.9766" lon="6.59036">
        <ele>1058.83203125</ele>
      </trkpt>
      <trkpt lat="43.97983" lon="6.58432">
        <ele>1053.7421875</ele>
      </trkpt>
      <trkpt lat="43.9828" lon="6.58295">
        <ele>1045.24609375</ele>
      </trkpt>
      <trkpt lat="43.98886" lon="6.58217">
        <ele>1052.55078125</ele>
      </trkpt>
      <trkpt lat="43.99519" lon="6.57496">
        <ele>1016.8046875</ele>
      </trkpt>
      <trkpt lat="43.99816" lon="6.57555">
        <ele>1017.734375</ele>
      </trkpt>
      <trkpt lat="44.00233" lon="6.57009">
        <ele>1007.765625</ele>
      </trkpt>
      <trkpt lat="44.0026" lon="6.56892">
        <ele>1008.9296875</ele>
      </trkpt>
      <trkpt lat="44.00948" lon="6.56405">
        <ele>1004.3203125</ele>
      </trkpt>
      <trkpt lat="44.00867" lon="6.5621">
        <ele>966.4921875</ele>
      </trkpt>
      <trkpt lat="44.00921" lon="6.56015">
        <ele>962.2734375</ele>
      </trkpt>
      <trkpt lat="44.00705" lon="6.55937">
        <ele>963.5</ele>
      </trkpt>
      <trkpt lat="44.00489" lon="6.55216">
        <ele>959.40625</ele>
      </trkpt>
      <trkpt lat="44.00301" lon="6.54826">
        <ele>955.609375</ele>
      </trkpt>
      <trkpt lat="44.00126" lon="6.54339">
        <ele>991.09765625</ele>
      </trkpt>
      <trkpt lat="43.99533" lon="6.54125">
        <ele>975.89453125</ele>
      </trkpt>
      <trkpt lat="43.99395" lon="6.53863">
        <ele>994.69140625</ele>
      </trkpt>
      <trkpt lat="43.99599" lon="6.53788">
        <ele>1030.19</ele>
        <time>2017-09-08T10:32:35Z</time>
      </trkpt>
      <trkpt lat="43.99689" lon="6.53822">
        <ele>1038.36</ele>
        <time>2017-09-08T10:32:27Z</time>
      </trkpt>
      <trkpt lat="43.99778" lon="6.53853">
        <ele>1045.57</ele>
        <time>2017-09-08T10:32:18Z</time>
      </trkpt>
      <trkpt lat="43.99839" lon="6.53955">
        <ele>1053.26</ele>
        <time>2017-09-08T10:32:10Z</time>
      </trkpt>
      <trkpt lat="43.99915" lon="6.53994">
        <ele>1058.55</ele>
        <time>2017-09-08T10:31:58Z</time>
      </trkpt>
      <trkpt lat="43.99972" lon="6.53946">
        <ele>1066.72</ele>
        <time>2017-09-08T10:31:43Z</time>
      </trkpt>
      <trkpt lat="43.99896" lon="6.5393">
        <ele>1072.97</ele>
        <time>2017-09-08T10:31:27Z</time>
      </trkpt>
      <trkpt lat="43.99977" lon="6.53876">
        <ele>1085.95</ele>
        <time>2017-09-08T10:31:15Z</time>
      </trkpt>
      <trkpt lat="44.00059" lon="6.53838">
        <ele>1097</ele>
        <time>2017-09-08T10:31:03Z</time>
      </trkpt>
      <trkpt lat="44.00138" lon="6.53869">
        <ele>1106.13</ele>
        <time>2017-09-08T10:30:51Z</time>
      </trkpt>
      <trkpt lat="44.0017" lon="6.53992">
        <ele>1116.23</ele>
        <time>2017-09-08T10:30:41Z</time>
      </trkpt>
      <trkpt lat="44.00225" lon="6.54093">
        <ele>1126.32</ele>
        <time>2017-09-08T10:30:28Z</time>
      </trkpt>
      <trkpt lat="44.00305" lon="6.54161">
        <ele>1136.9</ele>
        <time>2017-09-08T10:30:14Z</time>
      </trkpt>
      <trkpt lat="44.00384" lon="6.54237">
        <ele>1146.99</ele>
        <time>2017-09-08T10:30:02Z</time>
      </trkpt>
      <trkpt lat="44.00453" lon="6.54328">
        <ele>1156.12</ele>
        <time>2017-09-08T10:29:49Z</time>
      </trkpt>
      <trkpt lat="44.00508" lon="6.54425">
        <ele>1169.1</ele>
        <time>2017-09-08T10:29:34Z</time>
      </trkpt>
      <trkpt lat="44.00566" lon="6.5452">
        <ele>1178.23</ele>
        <time>2017-09-08T10:29:18Z</time>
      </trkpt>
      <trkpt lat="44.00636" lon="6.54584">
        <ele>1186.88</ele>
        <time>2017-09-08T10:29:04Z</time>
      </trkpt>
      <trkpt lat="44.00726" lon="6.54577">
        <ele>1193.61</ele>
        <time>2017-09-08T10:28:48Z</time>
      </trkpt>
      <trkpt lat="44.00775" lon="6.5462">
        <ele>1195.54</ele>
        <time>2017-09-08T10:28:33Z</time>
      </trkpt>
      <trkpt lat="44.00855" lon="6.54674">
        <ele>1206.59</ele>
        <time>2017-09-08T10:28:22Z</time>
      </trkpt>
      <trkpt lat="44.00938" lon="6.54722">
        <ele>1216.69</ele>
        <time>2017-09-08T10:28:11Z</time>
      </trkpt>
      <trkpt lat="44.01027" lon="6.54692">
        <ele>1228.22</ele>
        <time>2017-09-08T10:27:59Z</time>
      </trkpt>
      <trkpt lat="44.01105" lon="6.54608">
        <ele>1236.39</ele>
        <time>2017-09-08T10:27:46Z</time>
      </trkpt>
      <trkpt lat="44.01166" lon="6.54562">
        <ele>1241.68</ele>
        <time>2017-09-08T10:27:31Z</time>
      </trkpt>
      <trkpt lat="44.01253" lon="6.54611">
        <ele>1250.33</ele>
        <time>2017-09-08T10:27:19Z</time>
      </trkpt>
      <trkpt lat="44.01342" lon="6.54622">
        <ele>1261.39</ele>
        <time>2017-09-08T10:27:03Z</time>
      </trkpt>
      <trkpt lat="44.01282" lon="6.54549">
        <ele>1273.4</ele>
        <time>2017-09-08T10:26:47Z</time>
      </trkpt>
      <trkpt lat="44.01211" lon="6.54469">
        <ele>1283.98</ele>
        <time>2017-09-08T10:26:33Z</time>
      </trkpt>
      <trkpt lat="44.0114" lon="6.5438">
        <ele>1292.63</ele>
        <time>2017-09-08T10:26:19Z</time>
      </trkpt>
      <trkpt lat="44.01059" lon="6.54418">
        <ele>1299.36</ele>
        <time>2017-09-08T10:26:05Z</time>
      </trkpt>
      <trkpt lat="44.00963" lon="6.54421">
        <ele>1310.41</ele>
        <time>2017-09-08T10:25:51Z</time>
      </trkpt>
      <trkpt lat="44.00897" lon="6.5433">
        <ele>1320.03</ele>
        <time>2017-09-08T10:25:35Z</time>
      </trkpt>
      <trkpt lat="44.00886" lon="6.54248">
        <ele>1331.08</ele>
        <time>2017-09-08T10:25:12Z</time>
      </trkpt>
      <trkpt lat="44.00946" lon="6.54331">
        <ele>1336.85</ele>
        <time>2017-09-08T10:24:58Z</time>
      </trkpt>
      <trkpt lat="44.0103" lon="6.54288">
        <ele>1345.02</ele>
        <time>2017-09-08T10:24:45Z</time>
      </trkpt>
      <trkpt lat="44.01106" lon="6.54218">
        <ele>1353.67</ele>
        <time>2017-09-08T10:24:32Z</time>
      </trkpt>
      <trkpt lat="44.01182" lon="6.54147">
        <ele>1362.33</ele>
        <time>2017-09-08T10:24:19Z</time>
      </trkpt>
      <trkpt lat="44.01265" lon="6.54153">
        <ele>1372.42</ele>
        <time>2017-09-08T10:24:06Z</time>
      </trkpt>
      <trkpt lat="44.01332" lon="6.54069">
        <ele>1380.11</ele>
        <time>2017-09-08T10:23:52Z</time>
      </trkpt>
      <trkpt lat="44.01405" lon="6.54009">
        <ele>1384.92</ele>
        <time>2017-09-08T10:23:36Z</time>
      </trkpt>
      <trkpt lat="44.01468" lon="6.54105">
        <ele>1387.32</ele>
        <time>2017-09-08T10:23:24Z</time>
      </trkpt>
      <trkpt lat="44.01543" lon="6.54172">
        <ele>1388.76</ele>
        <time>2017-09-08T10:23:14Z</time>
      </trkpt>
      <trkpt lat="44.01613" lon="6.54245">
        <ele>1385.88</ele>
        <time>2017-09-08T10:23:03Z</time>
      </trkpt>
      <trkpt lat="44.01666" lon="6.54345">
        <ele>1385.88</ele>
        <time>2017-09-08T10:21:37Z</time>
      </trkpt>
      <trkpt lat="44.01752" lon="6.5439">
        <ele>1370.02</ele>
        <time>2017-09-08T10:21:17Z</time>
      </trkpt>
      <trkpt lat="44.01845" lon="6.54393">
        <ele>1352.71</ele>
        <time>2017-09-08T10:21:00Z</time>
      </trkpt>
      <trkpt lat="44.01936" lon="6.54349">
        <ele>1346.94</ele>
        <time>2017-09-08T10:20:44Z</time>
      </trkpt>
      <trkpt lat="44.02011" lon="6.54322">
        <ele>1338.77</ele>
        <time>2017-09-08T10:20:28Z</time>
      </trkpt>
      <trkpt lat="44.02149" lon="6.54351">
        <ele>1326.28</ele>
        <time>2017-09-08T10:20:10Z</time>
      </trkpt>
      <trkpt lat="44.02197" lon="6.54266">
        <ele>1319.55</ele>
        <time>2017-09-08T10:18:13Z</time>
      </trkpt>
      <trkpt lat="44.02223" lon="6.54147">
        <ele>1324.35</ele>
        <time>2017-09-08T10:18:00Z</time>
      </trkpt>
      <trkpt lat="44.0222" lon="6.54186">
        <ele>1322.43</ele>
        <time>2017-09-08T10:17:27Z</time>
      </trkpt>
      <trkpt lat="44.0218" lon="6.54301">
        <ele>1319.55</ele>
        <time>2017-09-08T10:17:00Z</time>
      </trkpt>
      <trkpt lat="44.02178" lon="6.54306">
        <ele>1318.1</ele>
        <time>2017-09-08T09:59:25Z</time>
      </trkpt>
      <trkpt lat="44.0222" lon="6.54193">
        <ele>1324.83</ele>
        <time>2017-09-08T09:59:06Z</time>
      </trkpt>
      <trkpt lat="44.02251" lon="6.5411">
        <ele>1327.72</ele>
        <time>2017-09-08T09:58:43Z</time>
      </trkpt>
      <trkpt lat="44.02341" lon="6.54144">
        <ele>1337.33</ele>
        <time>2017-09-08T09:58:27Z</time>
      </trkpt>
      <trkpt lat="44.02425" lon="6.5409">
        <ele>1337.81</ele>
        <time>2017-09-08T09:58:14Z</time>
      </trkpt>
      <trkpt lat="44.02499" lon="6.53999">
        <ele>1336.85</ele>
        <time>2017-09-08T09:58:03Z</time>
      </trkpt>
      <trkpt lat="44.02558" lon="6.53935">
        <ele>1335.41</ele>
        <time>2017-09-08T09:57:47Z</time>
      </trkpt>
      <trkpt lat="44.02644" lon="6.53938">
        <ele>1333.49</ele>
        <time>2017-09-08T09:57:36Z</time>
      </trkpt>
      <trkpt lat="44.02739" lon="6.53906">
        <ele>1333.49</ele>
        <time>2017-09-08T09:57:23Z</time>
      </trkpt>
      <trkpt lat="44.02806" lon="6.53826">
        <ele>1332.04</ele>
        <time>2017-09-08T09:57:01Z</time>
      </trkpt>
      <trkpt lat="44.02881" lon="6.53741">
        <ele>1328.2</ele>
        <time>2017-09-08T09:56:50Z</time>
      </trkpt>
      <trkpt lat="44.02961" lon="6.53666">
        <ele>1326.76</ele>
        <time>2017-09-08T09:56:38Z</time>
      </trkpt>
      <trkpt lat="44.03043" lon="6.53616">
        <ele>1324.35</ele>
        <time>2017-09-08T09:56:24Z</time>
      </trkpt>
      <trkpt lat="44.0311" lon="6.53532">
        <ele>1321.47</ele>
        <time>2017-09-08T09:56:10Z</time>
      </trkpt>
      <trkpt lat="44.0319" lon="6.53481">
        <ele>1319.07</ele>
        <time>2017-09-08T09:55:57Z</time>
      </trkpt>
      <trkpt lat="44.03229" lon="6.53359">
        <ele>1312.82</ele>
        <time>2017-09-08T09:55:44Z</time>
      </trkpt>
      <trkpt lat="44.03265" lon="6.53241">
        <ele>1308.01</ele>
        <time>2017-09-08T09:55:32Z</time>
      </trkpt>
      <trkpt lat="44.0332" lon="6.53152">
        <ele>1307.53</ele>
        <time>2017-09-08T09:55:18Z</time>
      </trkpt>
      <trkpt lat="44.03395" lon="6.53139">
        <ele>1305.61</ele>
        <time>2017-09-08T09:55:04Z</time>
      </trkpt>
      <trkpt lat="44.03466" lon="6.53054">
        <ele>1314.26</ele>
        <time>2017-09-08T09:54:50Z</time>
      </trkpt>
      <trkpt lat="44.0355" lon="6.53004">
        <ele>1318.59</ele>
        <time>2017-09-08T09:54:36Z</time>
      </trkpt>
      <trkpt lat="44.03623" lon="6.52927">
        <ele>1322.91</ele>
        <time>2017-09-08T09:54:22Z</time>
      </trkpt>
      <trkpt lat="44.03699" lon="6.52899">
        <ele>1320.51</ele>
        <time>2017-09-08T09:54:07Z</time>
      </trkpt>
      <trkpt lat="44.03779" lon="6.52836">
        <ele>1323.87</ele>
        <time>2017-09-08T09:53:51Z</time>
      </trkpt>
      <trkpt lat="44.03831" lon="6.52797">
        <ele>1327.24</ele>
        <time>2017-09-08T09:53:32Z</time>
      </trkpt>
      <trkpt lat="44.03911" lon="6.52797">
        <ele>1334.93</ele>
        <time>2017-09-08T09:53:15Z</time>
      </trkpt>
      <trkpt lat="44.03997" lon="6.52753">
        <ele>1341.18</ele>
        <time>2017-09-08T09:53:00Z</time>
      </trkpt>
      <trkpt lat="44.04079" lon="6.52694">
        <ele>1339.73</ele>
        <time>2017-09-08T09:52:46Z</time>
      </trkpt>
      <trkpt lat="44.04168" lon="6.52659">
        <ele>1335.89</ele>
        <time>2017-09-08T09:52:32Z</time>
      </trkpt>
      <trkpt lat="44.04187" lon="6.52649">
        <ele>1317.7</ele>
      </trkpt>
      <trkpt lat="44.04259" lon="6.52554">
        <ele>1321.1</ele>
        <time>2017-01-18T01:09:17Z</time>
      </trkpt>
      <trkpt lat="44.04357" lon="6.52539">
        <ele>1332.1</ele>
        <time>2017-01-18T01:09:37Z</time>
      </trkpt>
      <trkpt lat="44.04334" lon="6.52402">
        <ele>1338.7</ele>
        <time>2017-01-18T01:09:57Z</time>
      </trkpt>
      <trkpt lat="44.04434" lon="6.52299">
        <ele>1349.2</ele>
        <time>2017-01-18T01:10:17Z</time>
      </trkpt>
      <trkpt lat="44.04461" lon="6.52236">
        <ele>1350.3</ele>
        <time>2017-01-18T01:10:37Z</time>
      </trkpt>
      <trkpt lat="44.04392" lon="6.52402">
        <ele>1357</ele>
        <time>2017-01-18T01:10:57Z</time>
      </trkpt>
      <trkpt lat="44.04436" lon="6.52429">
        <ele>1359.8</ele>
        <time>2017-01-18T01:11:17Z</time>
      </trkpt>
      <trkpt lat="44.04563" lon="6.52277">
        <ele>1371.6</ele>
        <time>2017-01-18T01:11:37Z</time>
      </trkpt>
      <trkpt lat="44.05378" lon="6.51797">
        <ele>1406.7</ele>
        <time>2017-01-18T01:11:57Z</time>
      </trkpt>
      <trkpt lat="44.05589" lon="6.51619">
        <ele>1434.1</ele>
        <time>2017-01-18T01:12:17Z</time>
      </trkpt>
      <trkpt lat="44.05523" lon="6.51559">
        <ele>1441.9</ele>
        <time>2017-01-18T01:12:37Z</time>
      </trkpt>
      <trkpt lat="44.05798" lon="6.5155">
        <ele>1475.1</ele>
        <time>2017-01-18T01:12:57Z</time>
      </trkpt>
      <trkpt lat="44.05748" lon="6.5143">
        <ele>1476.1</ele>
        <time>2017-01-18T01:13:17Z</time>
      </trkpt>
      <trkpt lat="44.05803" lon="6.51454">
        <ele>1474.7</ele>
        <time>2017-01-18T01:13:37Z</time>
      </trkpt>
      <trkpt lat="44.05864" lon="6.51269">
        <ele>1461</ele>
        <time>2017-01-18T01:13:57Z</time>
      </trkpt>
      <trkpt lat="44.0587" lon="6.51192">
        <ele>1446.3</ele>
        <time>2017-01-18T01:14:17Z</time>
      </trkpt>
      <trkpt lat="44.06062" lon="6.51192">
        <ele>1438.2</ele>
        <time>2017-01-18T01:14:37Z</time>
      </trkpt>
      <trkpt lat="44.05806" lon="6.50894">
        <ele>1461.3</ele>
        <time>2017-01-18T01:14:57Z</time>
      </trkpt>
      <trkpt lat="44.05835" lon="6.50809">
        <ele>1471.7</ele>
        <time>2017-01-18T01:15:17Z</time>
      </trkpt>
      <trkpt lat="44.05895" lon="6.50579">
        <ele>1483.3</ele>
        <time>2017-01-18T01:15:37Z</time>
      </trkpt>
      <trkpt lat="44.06206" lon="6.50009">
        <ele>1490.2</ele>
        <time>2017-01-18T01:15:57Z</time>
      </trkpt>
      <trkpt lat="44.06307" lon="6.49942">
        <ele>1499.1</ele>
        <time>2017-01-18T01:16:17Z</time>
      </trkpt>
      <trkpt lat="44.06342" lon="6.49709">
        <ele>1493.9</ele>
        <time>2017-01-18T01:16:37Z</time>
      </trkpt>
      <trkpt lat="44.06497" lon="6.49571">
        <ele>1503.2</ele>
        <time>2017-01-18T01:16:57Z</time>
      </trkpt>
      <trkpt lat="44.06497" lon="6.49505">
        <ele>1502.7</ele>
        <time>2017-01-18T01:17:17Z</time>
      </trkpt>
      <trkpt lat="44.06618" lon="6.49589">
        <ele>1510</ele>
        <time>2017-01-18T01:17:37Z</time>
      </trkpt>
      <trkpt lat="44.0666" lon="6.49475">
        <ele>1495.1</ele>
        <time>2017-01-18T01:17:57Z</time>
      </trkpt>
      <trkpt lat="44.06761" lon="6.49451">
        <ele>1476.1</ele>
        <time>2017-01-18T01:18:17Z</time>
      </trkpt>
      <trkpt lat="44.07016" lon="6.49675">
        <ele>1446.8</ele>
      </trkpt>
      <trkpt lat="44.07177" lon="6.50363">
        <ele>1406.2</ele>
      </trkpt>
      <trkpt lat="44.07177" lon="6.50378">
        <ele>1407.6</ele>
      </trkpt>
      <trkpt lat="44.07294" lon="6.50887">
        <ele>1397</ele>
      </trkpt>
      <trkpt lat="44.07501" lon="6.50992">
        <ele>1338.5</ele>
      </trkpt>
      <trkpt lat="44.0751" lon="6.50992">
        <ele>1336.7</ele>
      </trkpt>
      <trkpt lat="44.07564" lon="6.51142">
        <ele>1333.4</ele>
      </trkpt>
      <trkpt lat="44.07564" lon="6.51171">
        <ele>1335.6</ele>
      </trkpt>
      <trkpt lat="44.07689" lon="6.51246">
        <ele>1314.8</ele>
      </trkpt>
      <trkpt lat="44.07698" lon="6.51052">
        <ele>1297.4</ele>
      </trkpt>
      <trkpt lat="44.07689" lon="6.51052">
        <ele>1298</ele>
      </trkpt>
      <trkpt lat="44.07716" lon="6.50872">
        <ele>1283.1</ele>
      </trkpt>
      <trkpt lat="44.07815" lon="6.51037">
        <ele>1291.2</ele>
      </trkpt>
      <trkpt lat="44.07878" lon="6.50827">
        <ele>1258.1</ele>
      </trkpt>
      <trkpt lat="44.08112" lon="6.50917">
        <ele>1230.8</ele>
      </trkpt>
      <trkpt lat="44.08121" lon="6.50917">
        <ele>1228.3</ele>
      </trkpt>
      <trkpt lat="44.08067" lon="6.51186">
        <ele>1222.9</ele>
      </trkpt>
      <trkpt lat="44.08067" lon="6.51201">
        <ele>1221.9</ele>
      </trkpt>
      <trkpt lat="44.08193" lon="6.51306">
        <ele>1195.2</ele>
      </trkpt>
      <trkpt lat="44.08201" lon="6.51306">
        <ele>1194.5</ele>
      </trkpt>
      <trkpt lat="44.08525" lon="6.51276">
        <ele>1154.1</ele>
      </trkpt>
      <trkpt lat="44.08677" lon="6.51082">
        <ele>1132.7</ele>
      </trkpt>
      <trkpt lat="44.0883" lon="6.51097">
        <ele>1120.2</ele>
      </trkpt>
      <trkpt lat="44.0883" lon="6.51112">
        <ele>1120.2</ele>
      </trkpt>
      <trkpt lat="44.08857" lon="6.50288">
        <ele>1108.2</ele>
      </trkpt>
      <trkpt lat="44.09082" lon="6.50288">
        <ele>1128.6</ele>
      </trkpt>
      <trkpt lat="44.09091" lon="6.49929">
        <ele>1132.3</ele>
      </trkpt>
      <trkpt lat="44.09073" lon="6.49929">
        <ele>1130</ele>
      </trkpt>
      <trkpt lat="44.0892" lon="6.49555">
        <ele>1113.4</ele>
      </trkpt>
      <trkpt lat="44.08686" lon="6.49211">
        <ele>1098.7</ele>
      </trkpt>
      <trkpt lat="44.08579" lon="6.48628">
        <ele>1101.3</ele>
      </trkpt>
      <trkpt lat="44.08615" lon="6.47984">
        <ele>1094.1</ele>
      </trkpt>
      <trkpt lat="44.08121" lon="6.47819">
        <ele>1100.8</ele>
      </trkpt>
      <trkpt lat="44.07779" lon="6.47131">
        <ele>1114.4</ele>
      </trkpt>
      <trkpt lat="44.07824" lon="6.46836">
        <ele>1109.4</ele>
        <time>2017-01-18T01:24:17Z</time>
      </trkpt>
      <trkpt lat="44.07794" lon="6.46773">
        <ele>1103.8</ele>
        <time>2017-01-18T01:24:37Z</time>
      </trkpt>
      <trkpt lat="44.07874" lon="6.46728">
        <ele>1117.4</ele>
        <time>2017-01-18T01:24:57Z</time>
      </trkpt>
      <trkpt lat="44.07905" lon="6.46473">
        <ele>1121.1</ele>
        <time>2017-01-18T01:25:17Z</time>
      </trkpt>
      <trkpt lat="44.07854" lon="6.45901">
        <ele>1146.8</ele>
        <time>2017-01-18T01:25:37Z</time>
      </trkpt>
      <trkpt lat="44.08216" lon="6.45448">
        <ele>1173.5</ele>
        <time>2017-01-18T01:25:57Z</time>
      </trkpt>
      <trkpt lat="44.08336" lon="6.45384">
        <ele>1185.3</ele>
        <time>2017-01-18T01:26:17Z</time>
      </trkpt>
      <trkpt lat="44.0815" lon="6.45363">
        <ele>1195</ele>
        <time>2017-01-18T01:26:37Z</time>
      </trkpt>
      <trkpt lat="44.08111" lon="6.45273">
        <ele>1209.1</ele>
        <time>2017-01-18T01:26:57Z</time>
      </trkpt>
      <trkpt lat="44.08067" lon="6.45228">
        <ele>1215.6</ele>
        <time>2017-01-18T01:27:17Z</time>
      </trkpt>
      <trkpt lat="44.08007" lon="6.45444">
        <ele>1223.6</ele>
        <time>2017-01-18T01:27:37Z</time>
      </trkpt>
      <trkpt lat="44.08059" lon="6.44872">
        <ele>1280</ele>
        <time>2017-01-18T01:27:57Z</time>
      </trkpt>
      <trkpt lat="44.08148" lon="6.45174">
        <ele>1279.4</ele>
        <time>2017-01-18T01:28:17Z</time>
      </trkpt>
      <trkpt lat="44.08238" lon="6.45204">
        <ele>1290.9</ele>
        <time>2017-01-18T01:28:37Z</time>
      </trkpt>
      <trkpt lat="44.08142" lon="6.44921">
        <ele>1327</ele>
        <time>2017-01-18T01:28:57Z</time>
      </trkpt>
      <trkpt lat="44.07941" lon="6.44372">
        <ele>1377.5</ele>
        <time>2017-01-18T01:29:17Z</time>
      </trkpt>
      <trkpt lat="44.07789" lon="6.44333">
        <ele>1382.5</ele>
        <time>2017-01-18T01:29:37Z</time>
      </trkpt>
      <trkpt lat="44.07812" lon="6.44132">
        <ele>1363</ele>
        <time>2017-01-18T01:29:57Z</time>
      </trkpt>
      <trkpt lat="44.07486" lon="6.43819">
        <ele>1273.8</ele>
        <time>2017-01-18T01:30:17Z</time>
      </trkpt>
      <trkpt lat="44.07034" lon="6.43699">
        <ele>1203.3</ele>
        <time>2017-01-18T01:30:37Z</time>
      </trkpt>
      <trkpt lat="44.06116" lon="6.43997">
        <ele>1162.8</ele>
        <time>2017-01-18T01:30:57Z</time>
      </trkpt>
      <trkpt lat="44.05749" lon="6.43926">
        <ele>1150</ele>
        <time>2017-01-18T01:31:17Z</time>
      </trkpt>
      <trkpt lat="44.05066" lon="6.44267">
        <ele>1140.2</ele>
        <time>2017-01-18T01:31:37Z</time>
      </trkpt>
      <trkpt lat="44.04557" lon="6.4433">
        <ele>1137.8</ele>
        <time>2017-01-18T01:31:57Z</time>
      </trkpt>
      <trkpt lat="44.04347" lon="6.44493">
        <ele>1121.1</ele>
        <time>2017-01-18T01:32:17Z</time>
      </trkpt>
      <trkpt lat="44.04535" lon="6.44173">
        <ele>1116.6</ele>
        <time>2017-01-18T01:32:37Z</time>
      </trkpt>
      <trkpt lat="44.04531" lon="6.43933">
        <ele>1123.2</ele>
        <time>2017-01-18T01:32:57Z</time>
      </trkpt>
      <trkpt lat="44.0429" lon="6.44029">
        <ele>1127.1</ele>
        <time>2017-01-18T01:33:17Z</time>
      </trkpt>
      <trkpt lat="44.03881" lon="6.43852">
        <ele>1164.2</ele>
        <time>2017-01-18T01:33:37Z</time>
      </trkpt>
      <trkpt lat="44.03723" lon="6.43896">
        <ele>1174.7</ele>
        <time>2017-01-18T01:33:57Z</time>
      </trkpt>
      <trkpt lat="44.03583" lon="6.43824">
        <ele>1185.6</ele>
        <time>2017-01-18T01:34:17Z</time>
      </trkpt>
      <trkpt lat="44.03785" lon="6.43719">
        <ele>1198.2</ele>
        <time>2017-01-18T01:34:37Z</time>
      </trkpt>
      <trkpt lat="44.03689" lon="6.43656">
        <ele>1220.5</ele>
        <time>2017-01-18T01:34:57Z</time>
      </trkpt>
      <trkpt lat="44.03762" lon="6.43616">
        <ele>1222.6</ele>
        <time>2017-01-18T01:35:17Z</time>
      </trkpt>
      <trkpt lat="44.03409" lon="6.43556">
        <ele>1255.2</ele>
        <time>2017-01-18T01:35:37Z</time>
      </trkpt>
      <trkpt lat="44.03327" lon="6.43446">
        <ele>1264.6</ele>
        <time>2017-01-18T01:35:57Z</time>
      </trkpt>
      <trkpt lat="44.0303" lon="6.43289">
        <ele>1301.9</ele>
        <time>2017-01-18T01:36:17Z</time>
      </trkpt>
      <trkpt lat="44.02878" lon="6.43154">
        <ele>1309.7</ele>
        <time>2017-01-18T01:36:37Z</time>
      </trkpt>
      <trkpt lat="44.02784" lon="6.43131">
        <ele>1308.1</ele>
        <time>2017-01-18T01:36:57Z</time>
      </trkpt>
      <trkpt lat="44.02807" lon="6.42985">
        <ele>1307.1</ele>
        <time>2017-01-18T01:37:17Z</time>
      </trkpt>
      <trkpt lat="44.02798" lon="6.4267">
        <ele>1294.4</ele>
        <time>2017-01-18T01:37:37Z</time>
      </trkpt>
      <trkpt lat="44.02966" lon="6.42427">
        <ele>1295.7</ele>
        <time>2017-01-18T01:37:57Z</time>
      </trkpt>
      <trkpt lat="44.0295" lon="6.42114">
        <ele>1281.1</ele>
        <time>2017-01-18T01:38:17Z</time>
      </trkpt>
      <trkpt lat="44.03101" lon="6.41889">
        <ele>1270.3</ele>
        <time>2017-01-18T01:38:37Z</time>
      </trkpt>
      <trkpt lat="44.03186" lon="6.41911">
        <ele>1276</ele>
        <time>2017-01-18T01:38:57Z</time>
      </trkpt>
      <trkpt lat="44.03233" lon="6.41855">
        <ele>1277.3</ele>
        <time>2017-01-18T01:39:17Z</time>
      </trkpt>
      <trkpt lat="44.03222" lon="6.416">
        <ele>1270.6</ele>
        <time>2017-01-18T01:39:37Z</time>
      </trkpt>
      <trkpt lat="44.02973" lon="6.41344">
        <ele>1242.8</ele>
        <time>2017-01-18T01:39:57Z</time>
      </trkpt>
      <trkpt lat="44.02943" lon="6.41214">
        <ele>1238.7</ele>
        <time>2017-01-18T01:40:17Z</time>
      </trkpt>
      <trkpt lat="44.02784" lon="6.41233">
        <ele>1211.1</ele>
        <time>2017-01-18T01:40:37Z</time>
      </trkpt>
      <trkpt lat="44.02669" lon="6.41075">
        <ele>1194.8</ele>
        <time>2017-01-18T01:40:57Z</time>
      </trkpt>
      <trkpt lat="44.02877" lon="6.41088">
        <ele>1179.7</ele>
        <time>2017-01-18T01:41:17Z</time>
      </trkpt>
      <trkpt lat="44.02929" lon="6.40982">
        <ele>1173.2</ele>
        <time>2017-01-18T01:41:37Z</time>
      </trkpt>
      <trkpt lat="44.0285" lon="6.41025">
        <ele>1155.2</ele>
        <time>2017-01-18T01:41:57Z</time>
      </trkpt>
      <trkpt lat="44.02505" lon="6.40772">
        <ele>1089.5</ele>
        <time>2017-01-18T01:42:17Z</time>
      </trkpt>
      <trkpt lat="44.01994" lon="6.40777">
        <ele>1023.5</ele>
        <time>2017-01-18T01:42:37Z</time>
      </trkpt>
      <trkpt lat="44.01881" lon="6.40855">
        <ele>993.2</ele>
        <time>2017-01-18T01:42:57Z</time>
      </trkpt>
      <trkpt lat="44.01904" lon="6.40795">
        <ele>993.6</ele>
        <time>2017-01-18T01:43:17Z</time>
      </trkpt>
      <trkpt lat="44.0183" lon="6.40788">
        <ele>981.5</ele>
        <time>2017-01-18T01:43:37Z</time>
      </trkpt>
      <trkpt lat="44.01814" lon="6.40893">
        <ele>968.2</ele>
        <time>2017-01-18T01:43:57Z</time>
      </trkpt>
      <trkpt lat="44.01714" lon="6.40973">
        <ele>951</ele>
        <time>2017-01-18T01:44:17Z</time>
      </trkpt>
      <trkpt lat="44.01715" lon="6.40973">
        <ele>951.2</ele>
        <time>2017-01-18T01:44:37Z</time>
      </trkpt>
      <trkpt lat="44.01048" lon="6.41072">
        <ele>894.1</ele>
        <time>2017-01-18T01:44:57Z</time>
      </trkpt>
      <trkpt lat="44.01015" lon="6.41029">
        <ele>890.7</ele>
        <time>2017-01-18T01:45:17Z</time>
      </trkpt>
      <trkpt lat="44.01044" lon="6.40825">
        <ele>886.6</ele>
        <time>2017-01-18T01:45:37Z</time>
      </trkpt>
      <trkpt lat="44.0104" lon="6.40698">
        <ele>876.3</ele>
        <time>2017-01-18T01:45:57Z</time>
      </trkpt>
      <trkpt lat="44.01198" lon="6.40546">
        <ele>872.8</ele>
        <time>2017-01-18T01:46:17Z</time>
      </trkpt>
      <trkpt lat="44.01268" lon="6.40062">
        <ele>863.3</ele>
        <time>2017-01-18T01:46:37Z</time>
      </trkpt>
      <trkpt lat="44.01145" lon="6.3957">
        <ele>847.4</ele>
        <time>2017-01-18T01:46:57Z</time>
      </trkpt>
      <trkpt lat="44.01244" lon="6.39395">
        <ele>846.4</ele>
        <time>2017-01-18T01:47:17Z</time>
      </trkpt>
      <trkpt lat="44.01318" lon="6.39133">
        <ele>835.7</ele>
        <time>2017-01-18T01:47:37Z</time>
      </trkpt>
      <trkpt lat="44.01257" lon="6.38546">
        <ele>814.4</ele>
        <time>2017-01-18T01:47:57Z</time>
      </trkpt>
      <trkpt lat="44.01237" lon="6.38419">
        <ele>810.1</ele>
        <time>2017-01-18T01:48:17Z</time>
      </trkpt>
      <trkpt lat="44.00976" lon="6.38338">
        <ele>806</ele>
        <time>2017-01-18T01:48:37Z</time>
      </trkpt>
      <trkpt lat="44.0073" lon="6.38314">
        <ele>802.3</ele>
        <time>2017-01-18T01:48:57Z</time>
      </trkpt>
      <trkpt lat="44.00597" lon="6.3819">
        <ele>805.5</ele>
        <time>2017-01-18T01:49:17Z</time>
      </trkpt>
      <trkpt lat="44.00616" lon="6.37911">
        <ele>809</ele>
        <time>2017-01-18T01:49:37Z</time>
      </trkpt>
      <trkpt lat="44.00503" lon="6.37767">
        <ele>802.9</ele>
        <time>2017-01-18T01:49:57Z</time>
      </trkpt>
      <trkpt lat="44.00339" lon="6.37853">
        <ele>802.2</ele>
        <time>2017-01-18T01:50:17Z</time>
      </trkpt>
      <trkpt lat="44.00013" lon="6.38373">
        <ele>800.1</ele>
        <time>2017-01-18T01:50:37Z</time>
      </trkpt>
      <trkpt lat="43.99131" lon="6.38498">
        <ele>782.7</ele>
        <time>2017-01-18T01:50:57Z</time>
      </trkpt>
      <trkpt lat="43.98796" lon="6.38715">
        <ele>772.8</ele>
        <time>2017-01-18T01:51:17Z</time>
      </trkpt>
      <trkpt lat="43.98512" lon="6.38697">
        <ele>774.2</ele>
        <time>2017-01-18T01:51:37Z</time>
      </trkpt>
      <trkpt lat="43.98034" lon="6.3892">
        <ele>764.9</ele>
        <time>2017-01-18T01:51:57Z</time>
      </trkpt>
      <trkpt lat="43.97756" lon="6.3888">
        <ele>764.2</ele>
        <time>2017-01-18T01:52:17Z</time>
      </trkpt>
      <trkpt lat="43.97341" lon="6.39051">
        <ele>759.4</ele>
        <time>2017-01-18T01:52:37Z</time>
      </trkpt>
      <trkpt lat="43.96981" lon="6.38813">
        <ele>755.5</ele>
        <time>2017-01-18T01:52:57Z</time>
      </trkpt>
      <trkpt lat="43.9664" lon="6.3876">
        <ele>749.9</ele>
        <time>2017-01-18T01:53:17Z</time>
      </trkpt>
      <trkpt lat="43.96526" lon="6.38715">
        <ele>745.4</ele>
        <time>2017-01-18T01:53:37Z</time>
      </trkpt>
      <trkpt lat="43.96441" lon="6.38586">
        <ele>753.1</ele>
        <time>2017-01-18T01:53:57Z</time>
      </trkpt>
      <trkpt lat="43.96103" lon="6.3841">
        <ele>739.6</ele>
        <time>2017-01-18T01:54:17Z</time>
      </trkpt>
      <trkpt lat="43.95932" lon="6.37825">
        <ele>738.2</ele>
        <time>2017-01-18T01:54:37Z</time>
      </trkpt>
      <trkpt lat="43.95627" lon="6.37464">
        <ele>734.3</ele>
        <time>2017-01-18T01:54:57Z</time>
      </trkpt>
      <trkpt lat="43.95268" lon="6.36691">
        <ele>724.2</ele>
        <time>2017-01-18T01:55:17Z</time>
      </trkpt>
      <trkpt lat="43.95162" lon="6.36674">
        <ele>719.9</ele>
        <time>2017-01-18T01:55:37Z</time>
      </trkpt>
      <trkpt lat="43.9485" lon="6.37058">
        <ele>721</ele>
        <time>2017-01-18T01:55:57Z</time>
      </trkpt>
      <trkpt lat="43.94509" lon="6.37845">
        <ele>731.5</ele>
        <time>2017-01-18T01:56:17Z</time>
      </trkpt>
      <trkpt lat="43.9352" lon="6.38557">
        <ele>738.8</ele>
        <time>2017-01-18T01:56:37Z</time>
      </trkpt>
      <trkpt lat="43.93359" lon="6.38994">
        <ele>751.5</ele>
        <time>2017-01-18T01:56:57Z</time>
      </trkpt>
      <trkpt lat="43.91877" lon="6.40906">
        <ele>775.2</ele>
        <time>2017-01-18T01:57:17Z</time>
      </trkpt>
      <trkpt lat="43.91517" lon="6.40931">
        <ele>776.3</ele>
        <time>2017-01-18T01:57:37Z</time>
      </trkpt>
      <trkpt lat="43.91501" lon="6.41163">
        <ele>780.6</ele>
      </trkpt>
      <trkpt lat="43.91359" lon="6.41372">
        <ele>789</ele>
        <time>2017-01-18T01:57:57Z</time>
      </trkpt>
      <trkpt lat="43.9097" lon="6.41515">
        <ele>793.3</ele>
      </trkpt>
      <trkpt lat="43.90765" lon="6.41714">
        <ele>799.3</ele>
      </trkpt>
      <trkpt lat="43.90414" lon="6.41739">
        <ele>797</ele>
      </trkpt>
      <trkpt lat="43.89987" lon="6.41974">
        <ele>806.6</ele>
      </trkpt>
      <trkpt lat="43.89346" lon="6.42107">
        <ele>804.9</ele>
        <time>2017-01-18T01:58:17Z</time>
      </trkpt>
      <trkpt lat="43.89238" lon="6.42319">
        <ele>811.8</ele>
        <time>2017-01-18T01:58:37Z</time>
      </trkpt>
      <trkpt lat="43.89077" lon="6.42182">
        <ele>814.2</ele>
        <time>2017-01-18T01:58:57Z</time>
      </trkpt>
      <trkpt lat="43.88789" lon="6.41707">
        <ele>813.3</ele>
        <time>2017-01-18T01:59:17Z</time>
      </trkpt>
      <trkpt lat="43.8878" lon="6.41707">
        <ele>814.1</ele>
        <time>2017-01-18T01:59:37Z</time>
      </trkpt>
      <trkpt lat="43.88529" lon="6.41595">
        <ele>814.7</ele>
        <time>2017-01-18T01:59:57Z</time>
      </trkpt>
      <trkpt lat="43.88475" lon="6.41457">
        <ele>830.7</ele>
        <time>2017-01-18T02:00:17Z</time>
      </trkpt>
      <trkpt lat="43.88241" lon="6.41457">
        <ele>839.2</ele>
        <time>2017-01-18T02:00:37Z</time>
      </trkpt>
      <trkpt lat="43.88053" lon="6.41295">
        <ele>845.6</ele>
        <time>2017-01-18T02:00:57Z</time>
      </trkpt>
      <trkpt lat="43.87882" lon="6.41445">
        <ele>825.8</ele>
        <time>2017-01-18T02:01:17Z</time>
      </trkpt>
      <trkpt lat="43.87882" lon="6.41395">
        <ele>831.7</ele>
        <time>2017-01-18T02:01:37Z</time>
      </trkpt>
      <trkpt lat="43.87855" lon="6.41095">
        <ele>874.2</ele>
        <time>2017-01-18T02:01:57Z</time>
      </trkpt>
      <trkpt lat="43.87693" lon="6.40783">
        <ele>865</ele>
        <time>2017-01-18T02:02:17Z</time>
      </trkpt>
      <trkpt lat="43.87684" lon="6.40758">
        <ele>858.2</ele>
        <time>2017-01-18T02:02:37Z</time>
      </trkpt>
      <trkpt lat="43.87613" lon="6.40296">
        <ele>870.5</ele>
        <time>2017-01-18T02:02:57Z</time>
      </trkpt>
      <trkpt lat="43.87343" lon="6.39771">
        <ele>870.8</ele>
        <time>2017-01-18T02:03:17Z</time>
      </trkpt>
      <trkpt lat="43.87083" lon="6.39271">
        <ele>883.2</ele>
        <time>2017-01-18T02:03:37Z</time>
      </trkpt>
      <trkpt lat="43.87074" lon="6.39271">
        <ele>880.4</ele>
        <time>2017-01-18T02:03:57Z</time>
      </trkpt>
      <trkpt lat="43.86948" lon="6.39121">
        <ele>876.6</ele>
        <time>2017-01-18T02:04:17Z</time>
      </trkpt>
      <trkpt lat="43.86993" lon="6.38446">
        <ele>918.7</ele>
        <time>2017-01-18T02:04:37Z</time>
      </trkpt>
      <trkpt lat="43.86993" lon="6.38421">
        <ele>919.5</ele>
        <time>2017-01-18T02:04:57Z</time>
      </trkpt>
      <trkpt lat="43.87038" lon="6.37784">
        <ele>916.6</ele>
        <time>2017-01-18T02:05:17Z</time>
      </trkpt>
      <trkpt lat="43.87127" lon="6.3726">
        <ele>953.4</ele>
        <time>2017-01-18T02:05:37Z</time>
      </trkpt>
      <trkpt lat="43.87136" lon="6.3726">
        <ele>954.7</ele>
        <time>2017-01-18T02:05:57Z</time>
      </trkpt>
      <trkpt lat="43.87334" lon="6.36935">
        <ele>959.5</ele>
        <time>2017-01-18T02:06:17Z</time>
      </trkpt>
      <trkpt lat="43.87402" lon="6.36795">
        <ele>977.9</ele>
        <time>2017-01-18T02:06:37Z</time>
      </trkpt>
      <trkpt lat="43.87232" lon="6.36874">
        <ele>993</ele>
        <time>2017-01-18T02:06:57Z</time>
      </trkpt>
      <trkpt lat="43.87239" lon="6.36865">
        <ele>993.8</ele>
        <time>2017-01-18T02:07:17Z</time>
      </trkpt>
      <trkpt lat="43.87314" lon="6.36498">
        <ele>956.2</ele>
        <time>2017-01-18T02:07:37Z</time>
      </trkpt>
      <trkpt lat="43.87616" lon="6.36157">
        <ele>956.7</ele>
        <time>2017-01-18T02:07:57Z</time>
      </trkpt>
      <trkpt lat="43.87868" lon="6.35737">
        <ele>966.3</ele>
        <time>2017-01-18T02:08:17Z</time>
      </trkpt>
      <trkpt lat="43.88069" lon="6.35247">
        <ele>978</ele>
        <time>2017-01-18T02:08:37Z</time>
      </trkpt>
      <trkpt lat="43.88132" lon="6.34994">
        <ele>982.1</ele>
        <time>2017-01-18T02:08:57Z</time>
      </trkpt>
      <trkpt lat="43.88566" lon="6.3488">
        <ele>1031.9</ele>
        <time>2017-01-18T02:09:17Z</time>
      </trkpt>
      <trkpt lat="43.88522" lon="6.34574">
        <ele>1063.7</ele>
        <time>2017-01-18T02:09:37Z</time>
      </trkpt>
      <trkpt lat="43.8866" lon="6.3467">
        <ele>1085.3</ele>
        <time>2017-01-18T02:09:57Z</time>
      </trkpt>
      <trkpt lat="43.88899" lon="6.34539">
        <ele>1120.2</ele>
        <time>2017-01-18T02:10:17Z</time>
      </trkpt>
      <trkpt lat="43.88918" lon="6.34749">
        <ele>1136.2</ele>
        <time>2017-01-18T02:10:37Z</time>
      </trkpt>
      <trkpt lat="43.89025" lon="6.34661">
        <ele>1152.9</ele>
        <time>2017-01-18T02:10:57Z</time>
      </trkpt>
      <trkpt lat="43.88981" lon="6.34819">
        <ele>1163</ele>
        <time>2017-01-18T02:11:17Z</time>
      </trkpt>
      <trkpt lat="43.89119" lon="6.34731">
        <ele>1191</ele>
        <time>2017-01-18T02:11:37Z</time>
      </trkpt>
      <trkpt lat="43.89195" lon="6.34049">
        <ele>1237.8</ele>
        <time>2017-01-18T02:11:57Z</time>
      </trkpt>
      <trkpt lat="43.89308" lon="6.34303">
        <ele>1268.5</ele>
        <time>2017-01-18T02:12:17Z</time>
      </trkpt>
      <trkpt lat="43.89509" lon="6.33664">
        <ele>1308.9</ele>
        <time>2017-01-18T02:12:37Z</time>
      </trkpt>
      <trkpt lat="43.89666" lon="6.33463">
        <ele>1340.5</ele>
        <time>2017-01-18T02:12:57Z</time>
      </trkpt>
      <trkpt lat="43.89704" lon="6.33218">
        <ele>1352</ele>
        <time>2017-01-18T02:13:17Z</time>
      </trkpt>
      <trkpt lat="43.89842" lon="6.33175">
        <ele>1365</ele>
        <time>2017-01-18T02:13:37Z</time>
      </trkpt>
      <trkpt lat="43.89943" lon="6.33114">
        <ele>1378.1</ele>
        <time>2017-01-18T02:13:57Z</time>
      </trkpt>
      <trkpt lat="43.90131" lon="6.33175">
        <ele>1403</ele>
        <time>2017-01-18T02:14:17Z</time>
      </trkpt>
      <trkpt lat="43.90238" lon="6.33035">
        <ele>1419.5</ele>
        <time>2017-01-18T02:14:37Z</time>
      </trkpt>
      <trkpt lat="43.90245" lon="6.33035">
        <ele>1421.1</ele>
        <time>2017-01-18T02:14:57Z</time>
      </trkpt>
      <trkpt lat="43.90251" lon="6.3321">
        <ele>1435.4</ele>
        <time>2017-01-18T02:15:17Z</time>
      </trkpt>
      <trkpt lat="43.9054" lon="6.32641">
        <ele>1446</ele>
        <time>2017-01-18T02:15:37Z</time>
      </trkpt>
      <trkpt lat="43.90559" lon="6.323">
        <ele>1458</ele>
        <time>2017-01-18T02:15:57Z</time>
      </trkpt>
      <trkpt lat="43.90446" lon="6.32239">
        <ele>1457</ele>
        <time>2017-01-18T02:16:17Z</time>
      </trkpt>
      <trkpt lat="43.90245" lon="6.323">
        <ele>1469.9</ele>
        <time>2017-01-18T02:16:37Z</time>
      </trkpt>
      <trkpt lat="43.90213" lon="6.31959">
        <ele>1445.7</ele>
        <time>2017-01-18T02:16:57Z</time>
      </trkpt>
      <trkpt lat="43.90194" lon="6.31618">
        <ele>1472.3</ele>
        <time>2017-01-18T02:17:17Z</time>
      </trkpt>
      <trkpt lat="43.90339" lon="6.31085">
        <ele>1435.9</ele>
        <time>2017-01-18T02:17:37Z</time>
      </trkpt>
      <trkpt lat="43.90678" lon="6.30525">
        <ele>1391.6</ele>
        <time>2017-01-18T02:17:57Z</time>
      </trkpt>
      <trkpt lat="43.90931" lon="6.30255">
        <ele>1358</ele>
        <time>2017-01-18T02:18:17Z</time>
      </trkpt>
      <trkpt lat="43.90931" lon="6.30246">
        <ele>1358.6</ele>
        <time>2017-01-18T02:18:37Z</time>
      </trkpt>
      <trkpt lat="43.91063" lon="6.30141">
        <ele>1337.3</ele>
        <time>2017-01-18T02:18:57Z</time>
      </trkpt>
      <trkpt lat="43.91346" lon="6.29878">
        <ele>1311.3</ele>
        <time>2017-01-18T02:19:17Z</time>
      </trkpt>
      <trkpt lat="43.91529" lon="6.29634">
        <ele>1287.4</ele>
        <time>2017-01-18T02:19:37Z</time>
      </trkpt>
      <trkpt lat="43.91774" lon="6.29345">
        <ele>1253.4</ele>
        <time>2017-01-18T02:19:57Z</time>
      </trkpt>
      <trkpt lat="43.91654" lon="6.29188">
        <ele>1241.9</ele>
        <time>2017-01-18T02:20:17Z</time>
      </trkpt>
      <trkpt lat="43.91711" lon="6.29004">
        <ele>1233.9</ele>
        <time>2017-01-18T02:20:37Z</time>
      </trkpt>
      <trkpt lat="43.91704" lon="6.2902">
        <ele>1232.7</ele>
        <time>2017-01-18T02:20:57Z</time>
      </trkpt>
      <trkpt lat="43.91804" lon="6.286">
        <ele>1241.9</ele>
        <time>2017-01-18T02:21:17Z</time>
      </trkpt>
      <trkpt lat="43.91804" lon="6.28592">
        <ele>1241.3</ele>
        <time>2017-01-18T02:21:37Z</time>
      </trkpt>
      <trkpt lat="43.91943" lon="6.28207">
        <ele>1234.8</ele>
        <time>2017-01-18T02:21:57Z</time>
      </trkpt>
      <trkpt lat="43.92025" lon="6.27936">
        <ele>1226.5</ele>
        <time>2017-01-18T02:22:17Z</time>
      </trkpt>
      <trkpt lat="43.92094" lon="6.27813">
        <ele>1211.8</ele>
        <time>2017-01-18T02:22:37Z</time>
      </trkpt>
      <trkpt lat="43.9193" lon="6.27831">
        <ele>1196.1</ele>
        <time>2017-01-18T02:22:57Z</time>
      </trkpt>
      <trkpt lat="43.91924" lon="6.27831">
        <ele>1196.3</ele>
        <time>2017-01-18T02:23:17Z</time>
      </trkpt>
      <trkpt lat="43.91842" lon="6.27848">
        <ele>1188.5</ele>
        <time>2017-01-18T02:23:37Z</time>
      </trkpt>
      <trkpt lat="43.91842" lon="6.27866">
        <ele>1188.7</ele>
        <time>2017-01-18T02:23:57Z</time>
      </trkpt>
      <trkpt lat="43.91874" lon="6.27962">
        <ele>1182.8</ele>
        <time>2017-01-18T02:24:17Z</time>
      </trkpt>
      <trkpt lat="43.91811" lon="6.27927">
        <ele>1174.1</ele>
        <time>2017-01-18T02:24:37Z</time>
      </trkpt>
      <trkpt lat="43.92037" lon="6.2742">
        <ele>1135.2</ele>
        <time>2017-01-18T02:24:57Z</time>
      </trkpt>
      <trkpt lat="43.91767" lon="6.27673">
        <ele>1123.6</ele>
        <time>2017-01-18T02:25:17Z</time>
      </trkpt>
      <trkpt lat="43.91767" lon="6.28058">
        <ele>1149.2</ele>
        <time>2017-01-18T02:25:37Z</time>
      </trkpt>
      <trkpt lat="43.91553" lon="6.28373">
        <ele>1144.3</ele>
        <time>2017-01-18T02:25:57Z</time>
      </trkpt>
      <trkpt lat="43.91547" lon="6.28775">
        <ele>1155.1</ele>
        <time>2017-01-18T02:26:17Z</time>
      </trkpt>
      <trkpt lat="43.91364" lon="6.29011">
        <ele>1168.4</ele>
        <time>2017-01-18T02:26:37Z</time>
      </trkpt>
      <trkpt lat="43.91163" lon="6.29099">
        <ele>1186.9</ele>
        <time>2017-01-18T02:26:57Z</time>
      </trkpt>
      <trkpt lat="43.90949" lon="6.2881">
        <ele>1172.6</ele>
        <time>2017-01-18T02:27:17Z</time>
      </trkpt>
      <trkpt lat="43.90547" lon="6.29143">
        <ele>1198.4</ele>
        <time>2017-01-18T02:27:37Z</time>
      </trkpt>
      <trkpt lat="43.90113" lon="6.29125">
        <ele>1222.3</ele>
        <time>2017-01-18T02:27:57Z</time>
      </trkpt>
      <trkpt lat="43.89742" lon="6.28889">
        <ele>1229.2</ele>
        <time>2017-01-18T02:28:17Z</time>
      </trkpt>
      <trkpt lat="43.89094" lon="6.28959">
        <ele>1249.7</ele>
        <time>2017-01-18T02:28:37Z</time>
      </trkpt>
      <trkpt lat="43.88774" lon="6.29011">
        <ele>1254.2</ele>
        <time>2017-01-18T02:28:57Z</time>
      </trkpt>
      <trkpt lat="43.88554" lon="6.29326">
        <ele>1278</ele>
        <time>2017-01-18T02:29:17Z</time>
      </trkpt>
      <trkpt lat="43.88384" lon="6.29256">
        <ele>1271.4</ele>
        <time>2017-01-18T02:29:37Z</time>
      </trkpt>
      <trkpt lat="43.8822" lon="6.29484">
        <ele>1300.6</ele>
        <time>2017-01-18T02:29:57Z</time>
      </trkpt>
      <trkpt lat="43.8795" lon="6.29475">
        <ele>1316.8</ele>
        <time>2017-01-18T02:30:17Z</time>
      </trkpt>
      <trkpt lat="43.87667" lon="6.29527">
        <ele>1342.9</ele>
        <time>2017-01-18T02:30:37Z</time>
      </trkpt>
      <trkpt lat="43.87661" lon="6.29527">
        <ele>1342.5</ele>
        <time>2017-01-18T02:30:57Z</time>
      </trkpt>
      <trkpt lat="43.87579" lon="6.29755">
        <ele>1359.2</ele>
        <time>2017-01-18T02:31:17Z</time>
      </trkpt>
      <trkpt lat="43.87428" lon="6.29755">
        <ele>1339.5</ele>
        <time>2017-01-18T02:31:37Z</time>
      </trkpt>
      <trkpt lat="43.87327" lon="6.29807">
        <ele>1340.5</ele>
        <time>2017-01-18T02:31:57Z</time>
      </trkpt>
      <trkpt lat="43.87244" lon="6.29769">
        <ele>1319.9</ele>
        <time>2017-01-18T02:32:17Z</time>
      </trkpt>
      <trkpt lat="43.87326" lon="6.29629">
        <ele>1310.9</ele>
        <time>2017-01-18T02:32:37Z</time>
      </trkpt>
      <trkpt lat="43.87043" lon="6.2962">
        <ele>1290.8</ele>
        <time>2017-01-18T02:32:57Z</time>
      </trkpt>
      <trkpt lat="43.8698" lon="6.29725">
        <ele>1292.8</ele>
        <time>2017-01-18T02:33:17Z</time>
      </trkpt>
      <trkpt lat="43.8681" lon="6.2955">
        <ele>1282.7</ele>
        <time>2017-01-18T02:33:37Z</time>
      </trkpt>
      <trkpt lat="43.86691" lon="6.29611">
        <ele>1288.8</ele>
        <time>2017-01-18T02:33:57Z</time>
      </trkpt>
      <trkpt lat="43.86471" lon="6.29507">
        <ele>1268.5</ele>
        <time>2017-01-18T02:34:17Z</time>
      </trkpt>
      <trkpt lat="43.86464" lon="6.29743">
        <ele>1268.7</ele>
        <time>2017-01-18T02:34:37Z</time>
      </trkpt>
      <trkpt lat="43.86332" lon="6.29769">
        <ele>1258.4</ele>
        <time>2017-01-18T02:34:57Z</time>
      </trkpt>
      <trkpt lat="43.86295" lon="6.299">
        <ele>1267.6</ele>
        <time>2017-01-18T02:35:17Z</time>
      </trkpt>
      <trkpt lat="43.86295" lon="6.29891">
        <ele>1265.8</ele>
        <time>2017-01-18T02:35:37Z</time>
      </trkpt>
      <trkpt lat="43.86049" lon="6.29638">
        <ele>1227.9</ele>
        <time>2017-01-18T02:35:57Z</time>
      </trkpt>
      <trkpt lat="43.86181" lon="6.29603">
        <ele>1211.1</ele>
        <time>2017-01-18T02:36:17Z</time>
      </trkpt>
      <trkpt lat="43.86049" lon="6.29445">
        <ele>1192.3</ele>
        <time>2017-01-18T02:36:37Z</time>
      </trkpt>
      <trkpt lat="43.86263" lon="6.29113">
        <ele>1190.9</ele>
        <time>2017-01-18T02:36:57Z</time>
      </trkpt>
      <trkpt lat="43.86034" lon="6.29187">
        <ele>1229.4</ele>
        <time>2017-01-18T02:37:17Z</time>
      </trkpt>
      <trkpt lat="43.8606" lon="6.29193">
        <ele>1225.8</ele>
        <time>2017-01-18T02:37:37Z</time>
      </trkpt>
      <trkpt lat="43.86082" lon="6.29177">
        <ele>1226.2</ele>
        <time>2017-01-18T02:37:57Z</time>
      </trkpt>
      <trkpt lat="43.86095" lon="6.29153">
        <ele>1225.5</ele>
        <time>2017-01-18T02:38:17Z</time>
      </trkpt>
      <trkpt lat="43.86099" lon="6.29093">
        <ele>1231.4</ele>
        <time>2017-01-18T02:38:37Z</time>
      </trkpt>
      <trkpt lat="43.86106" lon="6.2908">
        <ele>1232.6</ele>
        <time>2017-01-18T02:38:57Z</time>
      </trkpt>
      <trkpt lat="43.86114" lon="6.29084">
        <ele>1230.9</ele>
        <time>2017-01-18T02:39:17Z</time>
      </trkpt>
      <trkpt lat="43.8614" lon="6.29125">
        <ele>1219.8</ele>
        <time>2017-01-18T02:39:37Z</time>
      </trkpt>
      <trkpt lat="43.86158" lon="6.29126">
        <ele>1216.7</ele>
        <time>2017-01-18T02:39:57Z</time>
      </trkpt>
      <trkpt lat="43.862" lon="6.29078">
        <ele>1218.1</ele>
        <time>2017-01-18T02:40:17Z</time>
      </trkpt>
      <trkpt lat="43.86321" lon="6.28967">
        <ele>1203.6</ele>
        <time>2017-01-18T02:40:37Z</time>
      </trkpt>
      <trkpt lat="43.86338" lon="6.28974">
        <ele>1199.9</ele>
        <time>2017-01-18T02:40:57Z</time>
      </trkpt>
      <trkpt lat="43.86365" lon="6.29016">
        <ele>1190.8</ele>
        <time>2017-01-18T02:41:17Z</time>
      </trkpt>
      <trkpt lat="43.86377" lon="6.29015">
        <ele>1189.8</ele>
        <time>2017-01-18T02:41:37Z</time>
      </trkpt>
      <trkpt lat="43.86528" lon="6.28863">
        <ele>1196.4</ele>
        <time>2017-01-18T02:41:57Z</time>
      </trkpt>
      <trkpt lat="43.86579" lon="6.28783">
        <ele>1202.1</ele>
        <time>2017-01-18T02:42:17Z</time>
      </trkpt>
      <trkpt lat="43.86648" lon="6.28748">
        <ele>1195.4</ele>
        <time>2017-01-18T02:42:37Z</time>
      </trkpt>
      <trkpt lat="43.86688" lon="6.2869">
        <ele>1201</ele>
        <time>2017-01-18T02:42:57Z</time>
      </trkpt>
      <trkpt lat="43.86749" lon="6.28639">
        <ele>1200.1</ele>
        <time>2017-01-18T02:43:17Z</time>
      </trkpt>
      <trkpt lat="43.86797" lon="6.28628">
        <ele>1196.4</ele>
        <time>2017-01-18T02:43:37Z</time>
      </trkpt>
      <trkpt lat="43.86913" lon="6.28575">
        <ele>1194.9</ele>
        <time>2017-01-18T02:43:57Z</time>
      </trkpt>
      <trkpt lat="43.86931" lon="6.28554">
        <ele>1195.7</ele>
        <time>2017-01-18T02:44:17Z</time>
      </trkpt>
      <trkpt lat="43.86951" lon="6.2848">
        <ele>1201.4</ele>
        <time>2017-01-18T02:44:37Z</time>
      </trkpt>
      <trkpt lat="43.86976" lon="6.28444">
        <ele>1201.5</ele>
        <time>2017-01-18T02:44:57Z</time>
      </trkpt>
      <trkpt lat="43.87061" lon="6.28429">
        <ele>1195.9</ele>
        <time>2017-01-18T02:45:17Z</time>
      </trkpt>
      <trkpt lat="43.87142" lon="6.28394">
        <ele>1196.9</ele>
        <time>2017-01-18T02:45:37Z</time>
      </trkpt>
      <trkpt lat="43.87185" lon="6.28354">
        <ele>1199.5</ele>
        <time>2017-01-18T02:45:57Z</time>
      </trkpt>
      <trkpt lat="43.8725" lon="6.2826">
        <ele>1203.6</ele>
        <time>2017-01-18T02:46:17Z</time>
      </trkpt>
      <trkpt lat="43.87315" lon="6.28203">
        <ele>1202.2</ele>
        <time>2017-01-18T02:46:37Z</time>
      </trkpt>
      <trkpt lat="43.87456" lon="6.28113">
        <ele>1206.7</ele>
        <time>2017-01-18T02:46:57Z</time>
      </trkpt>
      <trkpt lat="43.87504" lon="6.28106">
        <ele>1206.5</ele>
        <time>2017-01-18T02:47:17Z</time>
      </trkpt>
      <trkpt lat="43.87552" lon="6.28119">
        <ele>1202.5</ele>
        <time>2017-01-18T02:47:37Z</time>
      </trkpt>
      <trkpt lat="43.87603" lon="6.28059">
        <ele>1207.7</ele>
        <time>2017-01-18T02:47:57Z</time>
      </trkpt>
      <trkpt lat="43.87636" lon="6.28034">
        <ele>1208.5</ele>
        <time>2017-01-18T02:48:17Z</time>
      </trkpt>
      <trkpt lat="43.87767" lon="6.27988">
        <ele>1205.7</ele>
        <time>2017-01-18T02:48:37Z</time>
      </trkpt>
      <trkpt lat="43.87829" lon="6.27928">
        <ele>1204.4</ele>
        <time>2017-01-18T02:48:57Z</time>
      </trkpt>
      <trkpt lat="43.87863" lon="6.27879">
        <ele>1210.2</ele>
        <time>2017-01-18T02:49:17Z</time>
      </trkpt>
      <trkpt lat="43.87901" lon="6.27883">
        <ele>1203.7</ele>
        <time>2017-01-18T02:49:37Z</time>
      </trkpt>
      <trkpt lat="43.87911" lon="6.27868">
        <ele>1205.6</ele>
        <time>2017-01-18T02:49:57Z</time>
      </trkpt>
      <trkpt lat="43.87926" lon="6.2781">
        <ele>1210.6</ele>
        <time>2017-01-18T02:50:17Z</time>
      </trkpt>
      <trkpt lat="43.87953" lon="6.27761">
        <ele>1206.5</ele>
        <time>2017-01-18T02:50:37Z</time>
      </trkpt>
      <trkpt lat="43.87959" lon="6.2772">
        <ele>1212.3</ele>
        <time>2017-01-18T02:50:57Z</time>
      </trkpt>
      <trkpt lat="43.87971" lon="6.27704">
        <ele>1212.7</ele>
        <time>2017-01-18T02:51:17Z</time>
      </trkpt>
      <trkpt lat="43.88007" lon="6.27712">
        <ele>1209.9</ele>
        <time>2017-01-18T02:51:37Z</time>
      </trkpt>
      <trkpt lat="43.88048" lon="6.27767">
        <ele>1204.1</ele>
        <time>2017-01-18T02:51:57Z</time>
      </trkpt>
      <trkpt lat="43.88074" lon="6.27779">
        <ele>1204.2</ele>
        <time>2017-01-18T02:52:17Z</time>
      </trkpt>
      <trkpt lat="43.88114" lon="6.27755">
        <ele>1209.8</ele>
        <time>2017-01-18T02:52:37Z</time>
      </trkpt>
      <trkpt lat="43.88185" lon="6.27668">
        <ele>1216.7</ele>
        <time>2017-01-18T02:52:57Z</time>
      </trkpt>
      <trkpt lat="43.88206" lon="6.27626">
        <ele>1221.2</ele>
        <time>2017-01-18T02:53:17Z</time>
      </trkpt>
      <trkpt lat="43.88267" lon="6.27579">
        <ele>1221.7</ele>
        <time>2017-01-18T02:53:37Z</time>
      </trkpt>
      <trkpt lat="43.88293" lon="6.27574">
        <ele>1222.9</ele>
        <time>2017-01-18T02:53:57Z</time>
      </trkpt>
      <trkpt lat="43.88362" lon="6.27619">
        <ele>1219.5</ele>
        <time>2017-01-18T02:54:17Z</time>
      </trkpt>
      <trkpt lat="43.88382" lon="6.27614">
        <ele>1220.6</ele>
        <time>2017-01-18T02:54:37Z</time>
      </trkpt>
      <trkpt lat="43.884" lon="6.27595">
        <ele>1222.9</ele>
        <time>2017-01-18T02:54:57Z</time>
      </trkpt>
      <trkpt lat="43.88463" lon="6.27491">
        <ele>1235.6</ele>
        <time>2017-01-18T02:55:17Z</time>
      </trkpt>
      <trkpt lat="43.88483" lon="6.27477">
        <ele>1237.2</ele>
        <time>2017-01-18T02:55:37Z</time>
      </trkpt>
      <trkpt lat="43.88519" lon="6.27467">
        <ele>1234.2</ele>
        <time>2017-01-18T02:55:57Z</time>
      </trkpt>
      <trkpt lat="43.88564" lon="6.27438">
        <ele>1234.2</ele>
        <time>2017-01-18T02:56:17Z</time>
      </trkpt>
      <trkpt lat="43.88707" lon="6.27251">
        <ele>1240.7</ele>
        <time>2017-01-18T02:56:37Z</time>
      </trkpt>
      <trkpt lat="43.88767" lon="6.27229">
        <ele>1237.1</ele>
        <time>2017-01-18T02:56:57Z</time>
      </trkpt>
      <trkpt lat="43.88788" lon="6.27205">
        <ele>1237.5</ele>
        <time>2017-01-18T02:57:17Z</time>
      </trkpt>
      <trkpt lat="43.88815" lon="6.27153">
        <ele>1245.1</ele>
        <time>2017-01-18T02:57:37Z</time>
      </trkpt>
      <trkpt lat="43.88932" lon="6.2709">
        <ele>1242.7</ele>
        <time>2017-01-18T02:57:57Z</time>
      </trkpt>
      <trkpt lat="43.88976" lon="6.27052">
        <ele>1248.3</ele>
        <time>2017-01-18T02:58:17Z</time>
      </trkpt>
      <trkpt lat="43.89026" lon="6.26974">
        <ele>1257.2</ele>
        <time>2017-01-18T02:58:37Z</time>
      </trkpt>
      <trkpt lat="43.89079" lon="6.26938">
        <ele>1261</ele>
        <time>2017-01-18T02:58:57Z</time>
      </trkpt>
      <trkpt lat="43.89102" lon="6.26933">
        <ele>1259.7</ele>
        <time>2017-01-18T02:59:17Z</time>
      </trkpt>
      <trkpt lat="43.89245" lon="6.26805">
        <ele>1267.7</ele>
        <time>2017-01-18T02:59:37Z</time>
      </trkpt>
      <trkpt lat="43.89299" lon="6.26725">
        <ele>1277.8</ele>
        <time>2017-01-18T02:59:57Z</time>
      </trkpt>
      <trkpt lat="43.8957" lon="6.26529">
        <ele>1299.8</ele>
        <time>2017-01-18T03:00:17Z</time>
      </trkpt>
      <trkpt lat="43.89608" lon="6.2651">
        <ele>1302.9</ele>
        <time>2017-01-18T03:00:37Z</time>
      </trkpt>
      <trkpt lat="43.8973" lon="6.26486">
        <ele>1303.2</ele>
        <time>2017-01-18T03:00:57Z</time>
      </trkpt>
      <trkpt lat="43.89839" lon="6.26481">
        <ele>1304.7</ele>
        <time>2017-01-18T03:01:17Z</time>
      </trkpt>
      <trkpt lat="43.89884" lon="6.26472">
        <ele>1309.2</ele>
        <time>2017-01-18T03:01:37Z</time>
      </trkpt>
      <trkpt lat="43.89982" lon="6.26388">
        <ele>1320.1</ele>
        <time>2017-01-18T03:01:57Z</time>
      </trkpt>
      <trkpt lat="43.90056" lon="6.26359">
        <ele>1320.6</ele>
        <time>2017-01-18T03:02:17Z</time>
      </trkpt>
      <trkpt lat="43.90259" lon="6.26159">
        <ele>1346</ele>
        <time>2017-01-18T03:02:37Z</time>
      </trkpt>
      <trkpt lat="43.90289" lon="6.26139">
        <ele>1347.7</ele>
        <time>2017-01-18T03:02:57Z</time>
      </trkpt>
      <trkpt lat="43.90344" lon="6.26124">
        <ele>1350.8</ele>
        <time>2017-01-18T03:03:17Z</time>
      </trkpt>
      <trkpt lat="43.90356" lon="6.26134">
        <ele>1350.8</ele>
        <time>2017-01-18T03:03:37Z</time>
      </trkpt>
      <trkpt lat="43.90357" lon="6.26147">
        <ele>1350.8</ele>
        <time>2017-01-18T03:03:57Z</time>
      </trkpt>
      <trkpt lat="43.90336" lon="6.26191">
        <ele>1350.9</ele>
        <time>2017-01-18T03:04:17Z</time>
      </trkpt>
      <trkpt lat="43.90324" lon="6.2624">
        <ele>1348.7</ele>
        <time>2017-01-18T03:04:37Z</time>
      </trkpt>
      <trkpt lat="43.90324" lon="6.26263">
        <ele>1346.6</ele>
        <time>2017-01-18T03:04:57Z</time>
      </trkpt>
      <trkpt lat="43.90331" lon="6.26271">
        <ele>1345.3</ele>
        <time>2017-01-18T03:05:17Z</time>
      </trkpt>
      <trkpt lat="43.90385" lon="6.26263">
        <ele>1341.9</ele>
        <time>2017-01-18T03:05:37Z</time>
      </trkpt>
      <trkpt lat="43.90484" lon="6.26167">
        <ele>1344.8</ele>
        <time>2017-01-18T03:05:57Z</time>
      </trkpt>
      <trkpt lat="43.90545" lon="6.26078">
        <ele>1334.5</ele>
        <time>2017-01-18T03:06:17Z</time>
      </trkpt>
      <trkpt lat="43.90588" lon="6.2597">
        <ele>1327.6</ele>
        <time>2017-01-18T03:06:37Z</time>
      </trkpt>
      <trkpt lat="43.90591" lon="6.2594">
        <ele>1327.2</ele>
        <time>2017-01-18T03:06:57Z</time>
      </trkpt>
      <trkpt lat="43.90579" lon="6.25847">
        <ele>1327.6</ele>
        <time>2017-01-18T03:07:17Z</time>
      </trkpt>
      <trkpt lat="43.90588" lon="6.25744">
        <ele>1326.8</ele>
        <time>2017-01-18T03:07:37Z</time>
      </trkpt>
      <trkpt lat="43.90597" lon="6.25717">
        <ele>1325.5</ele>
        <time>2017-01-18T03:07:57Z</time>
      </trkpt>
      <trkpt lat="43.90637" lon="6.25653">
        <ele>1317.5</ele>
        <time>2017-01-18T03:08:17Z</time>
      </trkpt>
      <trkpt lat="43.90744" lon="6.25086">
        <ele>1306.8</ele>
        <time>2017-01-18T03:08:37Z</time>
      </trkpt>
      <trkpt lat="43.90755" lon="6.2507">
        <ele>1306.4</ele>
        <time>2017-01-18T03:08:57Z</time>
      </trkpt>
      <trkpt lat="43.90792" lon="6.25054">
        <ele>1303.4</ele>
        <time>2017-01-18T03:09:17Z</time>
      </trkpt>
      <trkpt lat="43.90876" lon="6.24987">
        <ele>1303.6</ele>
        <time>2017-01-18T03:09:37Z</time>
      </trkpt>
      <trkpt lat="43.90926" lon="6.24908">
        <ele>1301.6</ele>
        <time>2017-01-18T03:09:57Z</time>
      </trkpt>
      <trkpt lat="43.90973" lon="6.24757">
        <ele>1298.2</ele>
        <time>2017-01-18T03:10:17Z</time>
      </trkpt>
      <trkpt lat="43.9097" lon="6.24623">
        <ele>1298.2</ele>
        <time>2017-01-18T03:10:37Z</time>
      </trkpt>
      <trkpt lat="43.9094" lon="6.24557">
        <ele>1306.5</ele>
        <time>2017-01-18T03:10:57Z</time>
      </trkpt>
      <trkpt lat="43.90935" lon="6.24525">
        <ele>1310.1</ele>
        <time>2017-01-18T03:11:17Z</time>
      </trkpt>
      <trkpt lat="43.90977" lon="6.24498">
        <ele>1304.5</ele>
        <time>2017-01-18T03:11:37Z</time>
      </trkpt>
      <trkpt lat="43.91024" lon="6.24418">
        <ele>1309.2</ele>
        <time>2017-01-18T03:11:57Z</time>
      </trkpt>
      <trkpt lat="43.91043" lon="6.24353">
        <ele>1309.8</ele>
        <time>2017-01-18T03:12:17Z</time>
      </trkpt>
      <trkpt lat="43.91037" lon="6.24261">
        <ele>1313.3</ele>
        <time>2017-01-18T03:12:37Z</time>
      </trkpt>
      <trkpt lat="43.9101" lon="6.24185">
        <ele>1317.3</ele>
        <time>2017-01-18T03:12:57Z</time>
      </trkpt>
      <trkpt lat="43.91021" lon="6.24136">
        <ele>1319.2</ele>
        <time>2017-01-18T03:13:17Z</time>
      </trkpt>
      <trkpt lat="43.91014" lon="6.23832">
        <ele>1328.2</ele>
        <time>2017-01-18T03:13:37Z</time>
      </trkpt>
      <trkpt lat="43.91" lon="6.23777">
        <ele>1325.7</ele>
        <time>2017-01-18T03:13:57Z</time>
      </trkpt>
      <trkpt lat="43.91001" lon="6.23676">
        <ele>1315.5</ele>
        <time>2017-01-18T03:14:17Z</time>
      </trkpt>
      <trkpt lat="43.9098" lon="6.23628">
        <ele>1317.8</ele>
        <time>2017-01-18T03:14:37Z</time>
      </trkpt>
      <trkpt lat="43.90952" lon="6.23583">
        <ele>1325.7</ele>
        <time>2017-01-18T03:14:57Z</time>
      </trkpt>
      <trkpt lat="43.90952" lon="6.23467">
        <ele>1329.3</ele>
        <time>2017-01-18T03:15:17Z</time>
      </trkpt>
      <trkpt lat="43.90958" lon="6.23423">
        <ele>1327.2</ele>
        <time>2017-01-18T03:15:37Z</time>
      </trkpt>
      <trkpt lat="43.90976" lon="6.23403">
        <ele>1322.4</ele>
        <time>2017-01-18T03:15:57Z</time>
      </trkpt>
      <trkpt lat="43.90994" lon="6.23396">
        <ele>1321.3</ele>
        <time>2017-01-18T03:16:17Z</time>
      </trkpt>
      <trkpt lat="43.91029" lon="6.234">
        <ele>1321.9</ele>
        <time>2017-01-18T03:16:37Z</time>
      </trkpt>
      <trkpt lat="43.91159" lon="6.2333">
        <ele>1315.1</ele>
        <time>2017-01-18T03:16:57Z</time>
      </trkpt>
      <trkpt lat="43.91233" lon="6.23223">
        <ele>1305.2</ele>
        <time>2017-01-18T03:17:17Z</time>
      </trkpt>
      <trkpt lat="43.91294" lon="6.23186">
        <ele>1303.7</ele>
        <time>2017-01-18T03:17:37Z</time>
      </trkpt>
      <trkpt lat="43.9134" lon="6.23169">
        <ele>1300.8</ele>
        <time>2017-01-18T03:17:57Z</time>
      </trkpt>
      <trkpt lat="43.91509" lon="6.23166">
        <ele>1294.8</ele>
        <time>2017-01-18T03:18:17Z</time>
      </trkpt>
      <trkpt lat="43.91714" lon="6.23107">
        <ele>1279.5</ele>
        <time>2017-01-18T03:18:37Z</time>
      </trkpt>
      <trkpt lat="43.91775" lon="6.23067">
        <ele>1272.6</ele>
        <time>2017-01-18T03:18:57Z</time>
      </trkpt>
      <trkpt lat="43.9181" lon="6.23053">
        <ele>1271.9</ele>
        <time>2017-01-18T03:19:17Z</time>
      </trkpt>
      <trkpt lat="43.91872" lon="6.22994">
        <ele>1269.1</ele>
        <time>2017-01-18T03:19:37Z</time>
      </trkpt>
      <trkpt lat="43.91906" lon="6.22972">
        <ele>1268.6</ele>
        <time>2017-01-18T03:19:57Z</time>
      </trkpt>
      <trkpt lat="43.91904" lon="6.22955">
        <ele>1266.6</ele>
        <time>2017-01-18T03:20:17Z</time>
      </trkpt>
      <trkpt lat="43.91891" lon="6.22949">
        <ele>1265.5</ele>
        <time>2017-01-18T03:20:37Z</time>
      </trkpt>
      <trkpt lat="43.91811" lon="6.22999">
        <ele>1262.6</ele>
        <time>2017-01-18T03:20:57Z</time>
      </trkpt>
      <trkpt lat="43.91691" lon="6.23031">
        <ele>1254.8</ele>
        <time>2017-01-18T03:21:17Z</time>
      </trkpt>
      <trkpt lat="43.91578" lon="6.23007">
        <ele>1244.1</ele>
        <time>2017-01-18T03:21:37Z</time>
      </trkpt>
      <trkpt lat="43.91519" lon="6.23007">
        <ele>1241</ele>
        <time>2017-01-18T03:21:57Z</time>
      </trkpt>
      <trkpt lat="43.91463" lon="6.22991">
        <ele>1236.2</ele>
        <time>2017-01-18T03:22:17Z</time>
      </trkpt>
      <trkpt lat="43.91442" lon="6.22979">
        <ele>1235.3</ele>
        <time>2017-01-18T03:22:37Z</time>
      </trkpt>
      <trkpt lat="43.91425" lon="6.22941">
        <ele>1231.2</ele>
        <time>2017-01-18T03:22:57Z</time>
      </trkpt>
      <trkpt lat="43.9141" lon="6.22844">
        <ele>1222.8</ele>
        <time>2017-01-18T03:23:17Z</time>
      </trkpt>
      <trkpt lat="43.91414" lon="6.22783">
        <ele>1218.4</ele>
        <time>2017-01-18T03:23:37Z</time>
      </trkpt>
      <trkpt lat="43.9141" lon="6.22772">
        <ele>1217.5</ele>
        <time>2017-01-18T03:23:57Z</time>
      </trkpt>
      <trkpt lat="43.91391" lon="6.22766">
        <ele>1216.7</ele>
        <time>2017-01-18T03:24:17Z</time>
      </trkpt>
      <trkpt lat="43.91351" lon="6.22796">
        <ele>1214.8</ele>
        <time>2017-01-18T03:24:57Z</time>
      </trkpt>
      <trkpt lat="43.91252" lon="6.22803">
        <ele>1207.5</ele>
        <time>2017-01-18T03:25:17Z</time>
      </trkpt>
      <trkpt lat="43.91207" lon="6.2282">
        <ele>1201.5</ele>
        <time>2017-01-18T03:25:37Z</time>
      </trkpt>
      <trkpt lat="43.91189" lon="6.22844">
        <ele>1199.1</ele>
        <time>2017-01-18T03:25:57Z</time>
      </trkpt>
      <trkpt lat="43.91164" lon="6.22911">
        <ele>1199.2</ele>
        <time>2017-01-18T03:26:17Z</time>
      </trkpt>
      <trkpt lat="43.91098" lon="6.22913">
        <ele>1182.7</ele>
        <time>2017-01-18T03:26:37Z</time>
      </trkpt>
      <trkpt lat="43.91057" lon="6.2297">
        <ele>1186.7</ele>
        <time>2017-01-18T03:26:57Z</time>
      </trkpt>
      <trkpt lat="43.9103" lon="6.22971">
        <ele>1185.8</ele>
        <time>2017-01-18T03:27:17Z</time>
      </trkpt>
      <trkpt lat="43.91005" lon="6.22923">
        <ele>1180.4</ele>
        <time>2017-01-18T03:27:37Z</time>
      </trkpt>
      <trkpt lat="43.90939" lon="6.22899">
        <ele>1177.9</ele>
        <time>2017-01-18T03:27:57Z</time>
      </trkpt>
      <trkpt lat="43.90877" lon="6.22838">
        <ele>1169.5</ele>
        <time>2017-01-18T03:28:17Z</time>
      </trkpt>
      <trkpt lat="43.90776" lon="6.22718">
        <ele>1169.2</ele>
        <time>2017-01-18T03:28:37Z</time>
      </trkpt>
      <trkpt lat="43.90736" lon="6.22682">
        <ele>1170</ele>
        <time>2017-01-18T03:28:57Z</time>
      </trkpt>
      <trkpt lat="43.90634" lon="6.22646">
        <ele>1174.6</ele>
        <time>2017-01-18T03:29:17Z</time>
      </trkpt>
      <trkpt lat="43.90582" lon="6.22619">
        <ele>1170.3</ele>
        <time>2017-01-18T03:29:37Z</time>
      </trkpt>
      <trkpt lat="43.90492" lon="6.22596">
        <ele>1168.7</ele>
        <time>2017-01-18T03:29:57Z</time>
      </trkpt>
      <trkpt lat="43.90349" lon="6.22466">
        <ele>1155.3</ele>
        <time>2017-01-18T03:30:17Z</time>
      </trkpt>
      <trkpt lat="43.90342" lon="6.2245">
        <ele>1154.7</ele>
        <time>2017-01-18T03:30:37Z</time>
      </trkpt>
      <trkpt lat="43.90349" lon="6.22397">
        <ele>1148.4</ele>
        <time>2017-01-18T03:30:57Z</time>
      </trkpt>
      <trkpt lat="43.90337" lon="6.22304">
        <ele>1143.1</ele>
        <time>2017-01-18T03:31:17Z</time>
      </trkpt>
      <trkpt lat="43.90298" lon="6.22224">
        <ele>1135.9</ele>
        <time>2017-01-18T03:31:37Z</time>
      </trkpt>
      <trkpt lat="43.90212" lon="6.22133">
        <ele>1117.4</ele>
        <time>2017-01-18T03:31:57Z</time>
      </trkpt>
      <trkpt lat="43.90184" lon="6.22117">
        <ele>1111.3</ele>
        <time>2017-01-18T03:32:17Z</time>
      </trkpt>
      <trkpt lat="43.90192" lon="6.22092">
        <ele>1108.9</ele>
        <time>2017-01-18T03:32:37Z</time>
      </trkpt>
      <trkpt lat="43.9021" lon="6.22083">
        <ele>1105.8</ele>
        <time>2017-01-18T03:32:57Z</time>
      </trkpt>
      <trkpt lat="43.90245" lon="6.22094">
        <ele>1103.5</ele>
        <time>2017-01-18T03:33:17Z</time>
      </trkpt>
      <trkpt lat="43.90265" lon="6.22119">
        <ele>1105.6</ele>
        <time>2017-01-18T03:33:37Z</time>
      </trkpt>
      <trkpt lat="43.90273" lon="6.22116">
        <ele>1103.1</ele>
        <time>2017-01-18T03:33:57Z</time>
      </trkpt>
      <trkpt lat="43.90276" lon="6.22105">
        <ele>1100.2</ele>
        <time>2017-01-18T03:34:17Z</time>
      </trkpt>
      <trkpt lat="43.90269" lon="6.22088">
        <ele>1098.4</ele>
        <time>2017-01-18T03:34:37Z</time>
      </trkpt>
      <trkpt lat="43.90227" lon="6.22055">
        <ele>1098</ele>
        <time>2017-01-18T03:34:57Z</time>
      </trkpt>
      <trkpt lat="43.90163" lon="6.21965">
        <ele>1086.2</ele>
        <time>2017-01-18T03:35:17Z</time>
      </trkpt>
      <trkpt lat="43.90152" lon="6.21906">
        <ele>1080.3</ele>
        <time>2017-01-18T03:35:37Z</time>
      </trkpt>
      <trkpt lat="43.90162" lon="6.21852">
        <ele>1074.9</ele>
        <time>2017-01-18T03:35:57Z</time>
      </trkpt>
      <trkpt lat="43.90153" lon="6.21814">
        <ele>1073.8</ele>
        <time>2017-01-18T03:36:17Z</time>
      </trkpt>
      <trkpt lat="43.90087" lon="6.21719">
        <ele>1060.9</ele>
        <time>2017-01-18T03:36:37Z</time>
      </trkpt>
      <trkpt lat="43.90009" lon="6.21651">
        <ele>1068.4</ele>
        <time>2017-01-18T03:36:57Z</time>
      </trkpt>
      <trkpt lat="43.89989" lon="6.2164">
        <ele>1068.6</ele>
        <time>2017-01-18T03:37:17Z</time>
      </trkpt>
      <trkpt lat="43.89906" lon="6.21623">
        <ele>1064.1</ele>
        <time>2017-01-18T03:37:37Z</time>
      </trkpt>
      <trkpt lat="43.89858" lon="6.21622">
        <ele>1060.3</ele>
        <time>2017-01-18T03:37:57Z</time>
      </trkpt>
      <trkpt lat="43.8984" lon="6.21603">
        <ele>1060.1</ele>
        <time>2017-01-18T03:38:17Z</time>
      </trkpt>
      <trkpt lat="43.89837" lon="6.21561">
        <ele>1058.4</ele>
        <time>2017-01-18T03:38:37Z</time>
      </trkpt>
      <trkpt lat="43.89863" lon="6.21515">
        <ele>1060.5</ele>
        <time>2017-01-18T03:38:57Z</time>
      </trkpt>
      <trkpt lat="43.89873" lon="6.21459">
        <ele>1056.4</ele>
        <time>2017-01-18T03:39:17Z</time>
      </trkpt>
      <trkpt lat="43.8986" lon="6.21411">
        <ele>1049.5</ele>
        <time>2017-01-18T03:39:37Z</time>
      </trkpt>
      <trkpt lat="43.89864" lon="6.21373">
        <ele>1047</ele>
        <time>2017-01-18T03:39:57Z</time>
      </trkpt>
      <trkpt lat="43.89881" lon="6.2135">
        <ele>1044.8</ele>
        <time>2017-01-18T03:40:17Z</time>
      </trkpt>
      <trkpt lat="43.89909" lon="6.21345">
        <ele>1047.3</ele>
        <time>2017-01-18T03:40:37Z</time>
      </trkpt>
      <trkpt lat="43.89921" lon="6.21334">
        <ele>1045.9</ele>
        <time>2017-01-18T03:40:57Z</time>
      </trkpt>
      <trkpt lat="43.89923" lon="6.21295">
        <ele>1034.7</ele>
        <time>2017-01-18T03:41:17Z</time>
      </trkpt>
      <trkpt lat="43.89972" lon="6.21203">
        <ele>1030.9</ele>
        <time>2017-01-18T03:41:37Z</time>
      </trkpt>
      <trkpt lat="43.89972" lon="6.21137">
        <ele>1025.9</ele>
        <time>2017-01-18T03:41:57Z</time>
      </trkpt>
      <trkpt lat="43.8996" lon="6.21112">
        <ele>1022.9</ele>
        <time>2017-01-18T03:42:17Z</time>
      </trkpt>
      <trkpt lat="43.89928" lon="6.21077">
        <ele>1015.4</ele>
        <time>2017-01-18T03:42:37Z</time>
      </trkpt>
      <trkpt lat="43.89925" lon="6.21061">
        <ele>1015</ele>
        <time>2017-01-18T03:42:57Z</time>
      </trkpt>
      <trkpt lat="43.89929" lon="6.21035">
        <ele>1015.1</ele>
        <time>2017-01-18T03:43:17Z</time>
      </trkpt>
      <trkpt lat="43.89948" lon="6.21012">
        <ele>1016.6</ele>
        <time>2017-01-18T03:43:37Z</time>
      </trkpt>
      <trkpt lat="43.90012" lon="6.20996">
        <ele>1010.3</ele>
        <time>2017-01-18T03:43:57Z</time>
      </trkpt>
      <trkpt lat="43.9005" lon="6.21">
        <ele>1001.6</ele>
        <time>2017-01-18T03:44:17Z</time>
      </trkpt>
      <trkpt lat="43.90063" lon="6.20986">
        <ele>997.6</ele>
        <time>2017-01-18T03:44:37Z</time>
      </trkpt>
      <trkpt lat="43.90067" lon="6.20969">
        <ele>997.2</ele>
        <time>2017-01-18T03:44:57Z</time>
      </trkpt>
      <trkpt lat="43.90043" lon="6.20899">
        <ele>996.2</ele>
        <time>2017-01-18T03:45:17Z</time>
      </trkpt>
      <trkpt lat="43.90038" lon="6.20821">
        <ele>990</ele>
        <time>2017-01-18T03:45:37Z</time>
      </trkpt>
      <trkpt lat="43.90021" lon="6.20797">
        <ele>986.9</ele>
        <time>2017-01-18T03:45:57Z</time>
      </trkpt>
      <trkpt lat="43.89989" lon="6.20786">
        <ele>982.2</ele>
        <time>2017-01-18T03:46:17Z</time>
      </trkpt>
      <trkpt lat="43.8996" lon="6.2076">
        <ele>978.3</ele>
        <time>2017-01-18T03:46:37Z</time>
      </trkpt>
      <trkpt lat="43.89956" lon="6.20743">
        <ele>978.7</ele>
        <time>2017-01-18T03:46:57Z</time>
      </trkpt>
      <trkpt lat="43.89961" lon="6.20688">
        <ele>985.3</ele>
        <time>2017-01-18T03:47:17Z</time>
      </trkpt>
      <trkpt lat="43.89952" lon="6.20665">
        <ele>983.7</ele>
        <time>2017-01-18T03:47:37Z</time>
      </trkpt>
      <trkpt lat="43.89942" lon="6.20656">
        <ele>982</ele>
        <time>2017-01-18T03:47:57Z</time>
      </trkpt>
      <trkpt lat="43.89913" lon="6.20662">
        <ele>973.4</ele>
        <time>2017-01-18T03:48:17Z</time>
      </trkpt>
      <trkpt lat="43.89902" lon="6.20654">
        <ele>971.1</ele>
        <time>2017-01-18T03:48:37Z</time>
      </trkpt>
      <trkpt lat="43.89883" lon="6.20557">
        <ele>968.5</ele>
        <time>2017-01-18T03:48:57Z</time>
      </trkpt>
      <trkpt lat="43.89865" lon="6.20523">
        <ele>963.5</ele>
        <time>2017-01-18T03:49:17Z</time>
      </trkpt>
      <trkpt lat="43.89832" lon="6.20489">
        <ele>960.2</ele>
        <time>2017-01-18T03:49:37Z</time>
      </trkpt>
      <trkpt lat="43.89841" lon="6.20448">
        <ele>959.6</ele>
        <time>2017-01-18T03:49:57Z</time>
      </trkpt>
      <trkpt lat="43.89838" lon="6.20433">
        <ele>957.9</ele>
        <time>2017-01-18T03:50:17Z</time>
      </trkpt>
      <trkpt lat="43.89773" lon="6.20389">
        <ele>949.8</ele>
        <time>2017-01-18T03:50:37Z</time>
      </trkpt>
      <trkpt lat="43.89739" lon="6.20393">
        <ele>948.1</ele>
        <time>2017-01-18T03:50:57Z</time>
      </trkpt>
      <trkpt lat="43.89729" lon="6.20379">
        <ele>945.5</ele>
        <time>2017-01-18T03:51:17Z</time>
      </trkpt>
      <trkpt lat="43.89735" lon="6.20368">
        <ele>944.5</ele>
        <time>2017-01-18T03:51:37Z</time>
      </trkpt>
      <trkpt lat="43.89821" lon="6.20322">
        <ele>935.8</ele>
        <time>2017-01-18T03:51:57Z</time>
      </trkpt>
      <trkpt lat="43.89867" lon="6.20251">
        <ele>923</ele>
        <time>2017-01-18T03:52:17Z</time>
      </trkpt>
      <trkpt lat="43.89877" lon="6.20213">
        <ele>918.3</ele>
        <time>2017-01-18T03:52:37Z</time>
      </trkpt>
      <trkpt lat="43.89898" lon="6.20186">
        <ele>915.4</ele>
        <time>2017-01-18T03:52:57Z</time>
      </trkpt>
      <trkpt lat="43.89907" lon="6.20001">
        <ele>900.9</ele>
        <time>2017-01-18T03:53:17Z</time>
      </trkpt>
      <trkpt lat="43.89928" lon="6.19916">
        <ele>892.1</ele>
        <time>2017-01-18T03:53:37Z</time>
      </trkpt>
      <trkpt lat="43.8993" lon="6.19872">
        <ele>886.7</ele>
        <time>2017-01-18T03:53:57Z</time>
      </trkpt>
      <trkpt lat="43.89876" lon="6.19786">
        <ele>870.9</ele>
        <time>2017-01-18T03:54:17Z</time>
      </trkpt>
      <trkpt lat="43.89847" lon="6.19778">
        <ele>867</ele>
        <time>2017-01-18T03:54:37Z</time>
      </trkpt>
      <trkpt lat="43.89813" lon="6.19715">
        <ele>860.7</ele>
        <time>2017-01-18T03:54:57Z</time>
      </trkpt>
      <trkpt lat="43.89807" lon="6.19692">
        <ele>860.1</ele>
        <time>2017-01-18T03:55:17Z</time>
      </trkpt>
      <trkpt lat="43.8985" lon="6.19364">
        <ele>840.8</ele>
        <time>2017-01-18T03:55:37Z</time>
      </trkpt>
      <trkpt lat="43.89905" lon="6.19282">
        <ele>838.6</ele>
        <time>2017-01-18T03:55:57Z</time>
      </trkpt>
      <trkpt lat="43.89937" lon="6.19208">
        <ele>842</ele>
        <time>2017-01-18T03:56:17Z</time>
      </trkpt>
      <trkpt lat="43.89955" lon="6.19183">
        <ele>843.1</ele>
        <time>2017-01-18T03:56:37Z</time>
      </trkpt>
      <trkpt lat="43.90086" lon="6.19122">
        <ele>842.1</ele>
        <time>2017-01-18T03:56:57Z</time>
      </trkpt>
      <trkpt lat="43.90102" lon="6.19101">
        <ele>842.1</ele>
        <time>2017-01-18T03:57:17Z</time>
      </trkpt>
      <trkpt lat="43.90106" lon="6.19088">
        <ele>842.4</ele>
        <time>2017-01-18T03:57:37Z</time>
      </trkpt>
      <trkpt lat="43.90119" lon="6.18893">
        <ele>844.8</ele>
        <time>2017-01-18T03:57:57Z</time>
      </trkpt>
      <trkpt lat="43.89931" lon="6.18378">
        <ele>845.1</ele>
        <time>2017-01-18T03:58:17Z</time>
      </trkpt>
      <trkpt lat="43.89973" lon="6.18316">
        <ele>843.4</ele>
        <time>2017-01-18T03:58:37Z</time>
      </trkpt>
      <trkpt lat="43.89991" lon="6.18274">
        <ele>842.5</ele>
        <time>2017-01-18T03:58:57Z</time>
      </trkpt>
      <trkpt lat="43.90052" lon="6.17971">
        <ele>831.8</ele>
        <time>2017-01-18T03:59:17Z</time>
      </trkpt>
      <trkpt lat="43.8996" lon="6.17032">
        <ele>797.1</ele>
        <time>2017-01-18T03:59:37Z</time>
      </trkpt>
      <trkpt lat="43.89941" lon="6.17011">
        <ele>796.1</ele>
        <time>2017-01-18T03:59:57Z</time>
      </trkpt>
      <trkpt lat="43.89912" lon="6.17011">
        <ele>793</ele>
        <time>2017-01-18T04:00:17Z</time>
      </trkpt>
      <trkpt lat="43.89897" lon="6.17003">
        <ele>791.7</ele>
        <time>2017-01-18T04:00:37Z</time>
      </trkpt>
      <trkpt lat="43.89875" lon="6.16962">
        <ele>791.5</ele>
        <time>2017-01-18T04:00:57Z</time>
      </trkpt>
      <trkpt lat="43.89855" lon="6.1695">
        <ele>792.1</ele>
        <time>2017-01-18T04:01:17Z</time>
      </trkpt>
      <trkpt lat="43.89802" lon="6.16952">
        <ele>795.4</ele>
        <time>2017-01-18T04:01:37Z</time>
      </trkpt>
      <trkpt lat="43.89696" lon="6.16922">
        <ele>796.2</ele>
        <time>2017-01-18T04:01:57Z</time>
      </trkpt>
      <trkpt lat="43.89732" lon="6.16902">
        <ele>795.5</ele>
        <time>2017-01-18T04:02:17Z</time>
      </trkpt>
      <trkpt lat="43.89766" lon="6.16854">
        <ele>794.2</ele>
        <time>2017-01-18T04:02:37Z</time>
      </trkpt>
      <trkpt lat="43.89809" lon="6.16812">
        <ele>791.7</ele>
        <time>2017-01-18T04:02:57Z</time>
      </trkpt>
      <trkpt lat="43.89974" lon="6.164">
        <ele>783</ele>
        <time>2017-01-18T04:03:17Z</time>
      </trkpt>
      <trkpt lat="43.89982" lon="6.16395">
        <ele>783</ele>
        <time>2017-01-18T04:03:37Z</time>
      </trkpt>
      <trkpt lat="43.90177" lon="6.16411">
        <ele>777.8</ele>
        <time>2017-01-18T04:03:57Z</time>
      </trkpt>
      <trkpt lat="43.90219" lon="6.1643">
        <ele>776.2</ele>
        <time>2017-01-18T04:04:17Z</time>
      </trkpt>
      <trkpt lat="43.90243" lon="6.16423">
        <ele>776.2</ele>
        <time>2017-01-18T04:04:37Z</time>
      </trkpt>
      <trkpt lat="43.90257" lon="6.16402">
        <ele>776.3</ele>
        <time>2017-01-18T04:04:57Z</time>
      </trkpt>
      <trkpt lat="43.9029" lon="6.16201">
        <ele>773.1</ele>
        <time>2017-01-18T04:05:17Z</time>
      </trkpt>
      <trkpt lat="43.9029" lon="6.16201">
        <ele>773.1</ele>
        <time>2017-01-18T04:05:37Z</time>
      </trkpt>
      <trkpt lat="43.90353" lon="6.16151">
        <ele>773.8</ele>
        <time>2017-01-18T04:05:57Z</time>
      </trkpt>
      <trkpt lat="43.9052" lon="6.16033">
        <ele>774.4</ele>
        <time>2017-01-18T04:06:17Z</time>
      </trkpt>
      <trkpt lat="43.90635" lon="6.15956">
        <ele>763.1</ele>
        <time>2017-01-18T04:06:37Z</time>
      </trkpt>
      <trkpt lat="43.90787" lon="6.15812">
        <ele>761.5</ele>
        <time>2017-01-18T04:06:57Z</time>
      </trkpt>
      <trkpt lat="43.9079" lon="6.1574">
        <ele>765.5</ele>
        <time>2017-01-18T04:07:17Z</time>
      </trkpt>
      <trkpt lat="43.90788" lon="6.15729">
        <ele>765.5</ele>
        <time>2017-01-18T04:07:37Z</time>
      </trkpt>
      <trkpt lat="43.90554" lon="6.15371">
        <ele>752.8</ele>
        <time>2017-01-18T04:07:57Z</time>
      </trkpt>
      <trkpt lat="43.90456" lon="6.15137">
        <ele>749.6</ele>
        <time>2017-01-18T04:08:17Z</time>
      </trkpt>
      <trkpt lat="43.90245" lon="6.14919">
        <ele>742.5</ele>
        <time>2017-01-18T04:08:37Z</time>
      </trkpt>
      <trkpt lat="43.90193" lon="6.1484">
        <ele>743.2</ele>
        <time>2017-01-18T04:08:57Z</time>
      </trkpt>
      <trkpt lat="43.90174" lon="6.14792">
        <ele>742.1</ele>
        <time>2017-01-18T04:09:17Z</time>
      </trkpt>
      <trkpt lat="43.90147" lon="6.14522">
        <ele>743.8</ele>
        <time>2017-01-18T04:09:37Z</time>
      </trkpt>
      <trkpt lat="43.90123" lon="6.14471">
        <ele>744.7</ele>
        <time>2017-01-18T04:09:57Z</time>
      </trkpt>
      <trkpt lat="43.90092" lon="6.14323">
        <ele>745</ele>
        <time>2017-01-18T04:10:17Z</time>
      </trkpt>
      <trkpt lat="43.90081" lon="6.14305">
        <ele>745.1</ele>
        <time>2017-01-18T04:10:37Z</time>
      </trkpt>
      <trkpt lat="43.90051" lon="6.14285">
        <ele>745.6</ele>
        <time>2017-01-18T04:10:57Z</time>
      </trkpt>
      <trkpt lat="43.90001" lon="6.14225">
        <ele>744</ele>
        <time>2017-01-18T04:11:17Z</time>
      </trkpt>
      <trkpt lat="43.89611" lon="6.13433">
        <ele>736.2</ele>
        <time>2017-01-18T04:11:37Z</time>
      </trkpt>
      <trkpt lat="43.89542" lon="6.13354">
        <ele>735.4</ele>
        <time>2017-01-18T04:11:57Z</time>
      </trkpt>
      <trkpt lat="43.8954" lon="6.13286">
        <ele>733.1</ele>
        <time>2017-01-18T04:12:17Z</time>
      </trkpt>
      <trkpt lat="43.89556" lon="6.13219">
        <ele>733.6</ele>
        <time>2017-01-18T04:12:37Z</time>
      </trkpt>
      <trkpt lat="43.89539" lon="6.13073">
        <ele>735.3</ele>
        <time>2017-01-18T04:12:57Z</time>
      </trkpt>
      <trkpt lat="43.89545" lon="6.13062">
        <ele>735.3</ele>
        <time>2017-01-18T04:13:17Z</time>
      </trkpt>
      <trkpt lat="43.89569" lon="6.13047">
        <ele>733.2</ele>
        <time>2017-01-18T04:13:37Z</time>
      </trkpt>
      <trkpt lat="43.89615" lon="6.12984">
        <ele>731.2</ele>
        <time>2017-01-18T04:13:57Z</time>
      </trkpt>
      <trkpt lat="43.89628" lon="6.12924">
        <ele>731.4</ele>
        <time>2017-01-18T04:14:17Z</time>
      </trkpt>
      <trkpt lat="43.89621" lon="6.12886">
        <ele>732.6</ele>
        <time>2017-01-18T04:14:37Z</time>
      </trkpt>
      <trkpt lat="43.89627" lon="6.12877">
        <ele>731.8</ele>
        <time>2017-01-18T04:14:57Z</time>
      </trkpt>
      <trkpt lat="43.89635" lon="6.1288">
        <ele>730.5</ele>
        <time>2017-01-18T04:15:17Z</time>
      </trkpt>
      <trkpt lat="43.89641" lon="6.1298">
        <ele>725.5</ele>
        <time>2017-01-18T04:15:37Z</time>
      </trkpt>
      <trkpt lat="43.89596" lon="6.13056">
        <ele>726.3</ele>
        <time>2017-01-18T04:15:57Z</time>
      </trkpt>
      <trkpt lat="43.89583" lon="6.13105">
        <ele>724.7</ele>
        <time>2017-01-18T04:16:17Z</time>
      </trkpt>
      <trkpt lat="43.89585" lon="6.1314">
        <ele>721.4</ele>
        <time>2017-01-18T04:16:37Z</time>
      </trkpt>
      <trkpt lat="43.89605" lon="6.13221">
        <ele>715.8</ele>
        <time>2017-01-18T04:16:57Z</time>
      </trkpt>
      <trkpt lat="43.89601" lon="6.13248">
        <ele>716.3</ele>
        <time>2017-01-18T04:17:17Z</time>
      </trkpt>
      <trkpt lat="43.8958" lon="6.1329">
        <ele>722.4</ele>
        <time>2017-01-18T04:17:37Z</time>
      </trkpt>
      <trkpt lat="43.89585" lon="6.1331">
        <ele>722.3</ele>
        <time>2017-01-18T04:17:57Z</time>
      </trkpt>
      <trkpt lat="43.89624" lon="6.1333">
        <ele>717.5</ele>
        <time>2017-01-18T04:18:17Z</time>
      </trkpt>
      <trkpt lat="43.89662" lon="6.13345">
        <ele>712.5</ele>
        <time>2017-01-18T04:18:37Z</time>
      </trkpt>
      <trkpt lat="43.89682" lon="6.13363">
        <ele>711.3</ele>
        <time>2017-01-18T04:18:57Z</time>
      </trkpt>
      <trkpt lat="43.89718" lon="6.13454">
        <ele>708.2</ele>
        <time>2017-01-18T04:19:17Z</time>
      </trkpt>
      <trkpt lat="43.89807" lon="6.13582">
        <ele>700.4</ele>
        <time>2017-01-18T04:19:37Z</time>
      </trkpt>
      <trkpt lat="43.89859" lon="6.13622">
        <ele>693.2</ele>
        <time>2017-01-18T04:19:57Z</time>
      </trkpt>
      <trkpt lat="43.8988" lon="6.13702">
        <ele>692.9</ele>
        <time>2017-01-18T04:20:17Z</time>
      </trkpt>
      <trkpt lat="43.89942" lon="6.13807">
        <ele>686.9</ele>
        <time>2017-01-18T04:20:37Z</time>
      </trkpt>
      <trkpt lat="43.89995" lon="6.13827">
        <ele>680.1</ele>
        <time>2017-01-18T04:20:57Z</time>
      </trkpt>
      <trkpt lat="43.90028" lon="6.13872">
        <ele>680.4</ele>
        <time>2017-01-18T04:21:17Z</time>
      </trkpt>
      <trkpt lat="43.90057" lon="6.13898">
        <ele>679.4</ele>
        <time>2017-01-18T04:21:37Z</time>
      </trkpt>
      <trkpt lat="43.90078" lon="6.13896">
        <ele>676.9</ele>
        <time>2017-01-18T04:21:57Z</time>
      </trkpt>
      <trkpt lat="43.90117" lon="6.13872">
        <ele>668.6</ele>
        <time>2017-01-18T04:22:17Z</time>
      </trkpt>
      <trkpt lat="43.90142" lon="6.1388">
        <ele>666.3</ele>
        <time>2017-01-18T04:22:37Z</time>
      </trkpt>
      <trkpt lat="43.90154" lon="6.13949">
        <ele>669</ele>
        <time>2017-01-18T04:22:57Z</time>
      </trkpt>
      <trkpt lat="43.90173" lon="6.13997">
        <ele>668.8</ele>
        <time>2017-01-18T04:23:17Z</time>
      </trkpt>
      <trkpt lat="43.90189" lon="6.14003">
        <ele>667.2</ele>
        <time>2017-01-18T04:23:37Z</time>
      </trkpt>
      <trkpt lat="43.90237" lon="6.13981">
        <ele>661.6</ele>
        <time>2017-01-18T04:23:57Z</time>
      </trkpt>
      <trkpt lat="43.90285" lon="6.13938">
        <ele>655.9</ele>
        <time>2017-01-18T04:24:17Z</time>
      </trkpt>
      <trkpt lat="43.90326" lon="6.13919">
        <ele>653.9</ele>
        <time>2017-01-18T04:24:37Z</time>
      </trkpt>
      <trkpt lat="43.90381" lon="6.13878">
        <ele>647.1</ele>
        <time>2017-01-18T04:24:57Z</time>
      </trkpt>
      <trkpt lat="43.90411" lon="6.13869">
        <ele>643.8</ele>
        <time>2017-01-18T04:25:17Z</time>
      </trkpt>
      <trkpt lat="43.90428" lon="6.13874">
        <ele>642.3</ele>
        <time>2017-01-18T04:25:37Z</time>
      </trkpt>
      <trkpt lat="43.90434" lon="6.13882">
        <ele>641.6</ele>
        <time>2017-01-18T04:25:57Z</time>
      </trkpt>
      <trkpt lat="43.90435" lon="6.13902">
        <ele>640.2</ele>
        <time>2017-01-18T04:26:17Z</time>
      </trkpt>
      <trkpt lat="43.90408" lon="6.13961">
        <ele>641.8</ele>
        <time>2017-01-18T04:26:37Z</time>
      </trkpt>
      <trkpt lat="43.90403" lon="6.13998">
        <ele>641.4</ele>
        <time>2017-01-18T04:26:57Z</time>
      </trkpt>
      <trkpt lat="43.90416" lon="6.14009">
        <ele>640.3</ele>
        <time>2017-01-18T04:27:17Z</time>
      </trkpt>
      <trkpt lat="43.90456" lon="6.1399">
        <ele>635</ele>
        <time>2017-01-18T04:27:37Z</time>
      </trkpt>
      <trkpt lat="43.90481" lon="6.13986">
        <ele>630.9</ele>
        <time>2017-01-18T04:27:57Z</time>
      </trkpt>
      <trkpt lat="43.90502" lon="6.13997">
        <ele>628.7</ele>
        <time>2017-01-18T04:28:17Z</time>
      </trkpt>
      <trkpt lat="43.9052" lon="6.14019">
        <ele>626.2</ele>
        <time>2017-01-18T04:28:37Z</time>
      </trkpt>
      <trkpt lat="43.90531" lon="6.14051">
        <ele>624.4</ele>
        <time>2017-01-18T04:28:57Z</time>
      </trkpt>
      <trkpt lat="43.90532" lon="6.14084">
        <ele>624.5</ele>
        <time>2017-01-18T04:29:17Z</time>
      </trkpt>
      <trkpt lat="43.90516" lon="6.1416">
        <ele>626.7</ele>
        <time>2017-01-18T04:29:37Z</time>
      </trkpt>
      <trkpt lat="43.90534" lon="6.14184">
        <ele>626.4</ele>
        <time>2017-01-18T04:29:57Z</time>
      </trkpt>
      <trkpt lat="43.9055" lon="6.14179">
        <ele>626.4</ele>
        <time>2017-01-18T04:30:17Z</time>
      </trkpt>
      <trkpt lat="43.90575" lon="6.14148">
        <ele>623.3</ele>
        <time>2017-01-18T04:30:37Z</time>
      </trkpt>
      <trkpt lat="43.90611" lon="6.14077">
        <ele>613.7</ele>
        <time>2017-01-18T04:30:57Z</time>
      </trkpt>
      <trkpt lat="43.90645" lon="6.14032">
        <ele>608.9</ele>
        <time>2017-01-18T04:31:17Z</time>
      </trkpt>
      <trkpt lat="43.90671" lon="6.14012">
        <ele>606.8</ele>
        <time>2017-01-18T04:31:37Z</time>
      </trkpt>
      <trkpt lat="43.90741" lon="6.1399">
        <ele>606.4</ele>
        <time>2017-01-18T04:31:57Z</time>
      </trkpt>
      <trkpt lat="43.90869" lon="6.13856">
        <ele>592.8</ele>
        <time>2017-01-18T04:32:17Z</time>
      </trkpt>
      <trkpt lat="43.90938" lon="6.13719">
        <ele>580.9</ele>
        <time>2017-01-18T04:32:37Z</time>
      </trkpt>
      <trkpt lat="43.90955" lon="6.137">
        <ele>579.6</ele>
        <time>2017-01-18T04:32:57Z</time>
      </trkpt>
      <trkpt lat="43.90983" lon="6.137">
        <ele>578.3</ele>
        <time>2017-01-18T04:33:17Z</time>
      </trkpt>
      <trkpt lat="43.90999" lon="6.13719">
        <ele>577.1</ele>
        <time>2017-01-18T04:33:37Z</time>
      </trkpt>
      <trkpt lat="43.91015" lon="6.13757">
        <ele>574.3</ele>
        <time>2017-01-18T04:33:57Z</time>
      </trkpt>
      <trkpt lat="43.9102" lon="6.13787">
        <ele>573</ele>
        <time>2017-01-18T04:34:17Z</time>
      </trkpt>
      <trkpt lat="43.90998" lon="6.13958">
        <ele>565.9</ele>
        <time>2017-01-18T04:34:37Z</time>
      </trkpt>
      <trkpt lat="43.9101" lon="6.1398">
        <ele>567.3</ele>
        <time>2017-01-18T04:34:57Z</time>
      </trkpt>
      <trkpt lat="43.91027" lon="6.13983">
        <ele>569.1</ele>
        <time>2017-01-18T04:35:17Z</time>
      </trkpt>
      <trkpt lat="43.91126" lon="6.13934">
        <ele>558.6</ele>
        <time>2017-01-18T04:35:37Z</time>
      </trkpt>
      <trkpt lat="43.91153" lon="6.13929">
        <ele>553.7</ele>
        <time>2017-01-18T04:35:57Z</time>
      </trkpt>
      <trkpt lat="43.91158" lon="6.13924">
        <ele>552.3</ele>
        <time>2017-01-18T04:36:17Z</time>
      </trkpt>
      <trkpt lat="43.91154" lon="6.13911">
        <ele>551.1</ele>
        <time>2017-01-18T04:36:37Z</time>
      </trkpt>
      <trkpt lat="43.91114" lon="6.13917">
        <ele>555.8</ele>
        <time>2017-01-18T04:36:57Z</time>
      </trkpt>
      <trkpt lat="43.91108" lon="6.13912">
        <ele>555.3</ele>
        <time>2017-01-18T04:37:17Z</time>
      </trkpt>
      <trkpt lat="43.91105" lon="6.13894">
        <ele>552.2</ele>
        <time>2017-01-18T04:37:37Z</time>
      </trkpt>
      <trkpt lat="43.91192" lon="6.13809">
        <ele>537.2</ele>
        <time>2017-01-18T04:37:57Z</time>
      </trkpt>
      <trkpt lat="43.91209" lon="6.1381">
        <ele>536.1</ele>
        <time>2017-01-18T04:38:17Z</time>
      </trkpt>
      <trkpt lat="43.91237" lon="6.13846">
        <ele>535.6</ele>
        <time>2017-01-18T04:38:37Z</time>
      </trkpt>
      <trkpt lat="43.91258" lon="6.13847">
        <ele>535.3</ele>
        <time>2017-01-18T04:38:57Z</time>
      </trkpt>
      <trkpt lat="43.91408" lon="6.13778">
        <ele>520.8</ele>
        <time>2017-01-18T04:39:17Z</time>
      </trkpt>
      <trkpt lat="43.91426" lon="6.13748">
        <ele>522.5</ele>
        <time>2017-01-18T04:39:37Z</time>
      </trkpt>
      <trkpt lat="43.9146" lon="6.13561">
        <ele>514</ele>
        <time>2017-01-18T04:39:57Z</time>
      </trkpt>
      <trkpt lat="43.9149" lon="6.13504">
        <ele>511.2</ele>
        <time>2017-01-18T04:40:17Z</time>
      </trkpt>
      <trkpt lat="43.9153" lon="6.13471">
        <ele>509</ele>
        <time>2017-01-18T04:40:37Z</time>
      </trkpt>
      <trkpt lat="43.91599" lon="6.13452">
        <ele>507.7</ele>
        <time>2017-01-18T04:40:57Z</time>
      </trkpt>
      <trkpt lat="43.91668" lon="6.13419">
        <ele>498.2</ele>
        <time>2017-01-18T04:41:17Z</time>
      </trkpt>
      <trkpt lat="43.91689" lon="6.13428">
        <ele>497.7</ele>
        <time>2017-01-18T04:41:37Z</time>
      </trkpt>
      <trkpt lat="43.91719" lon="6.13461">
        <ele>498.8</ele>
        <time>2017-01-18T04:41:57Z</time>
      </trkpt>
      <trkpt lat="43.91761" lon="6.13486">
        <ele>497.5</ele>
        <time>2017-01-18T04:42:17Z</time>
      </trkpt>
      <trkpt lat="43.91825" lon="6.1351">
        <ele>496.1</ele>
        <time>2017-01-18T04:42:37Z</time>
      </trkpt>
      <trkpt lat="43.91856" lon="6.13514">
        <ele>495.2</ele>
        <time>2017-01-18T04:42:57Z</time>
      </trkpt>
      <trkpt lat="43.91908" lon="6.13494">
        <ele>493</ele>
        <time>2017-01-18T04:43:17Z</time>
      </trkpt>
      <trkpt lat="43.91996" lon="6.13383">
        <ele>483.9</ele>
        <time>2017-01-18T04:43:37Z</time>
      </trkpt>
      <trkpt lat="43.92012" lon="6.1338">
        <ele>482.9</ele>
        <time>2017-01-18T04:43:57Z</time>
      </trkpt>
      <trkpt lat="43.92058" lon="6.13411">
        <ele>483.4</ele>
        <time>2017-01-18T04:44:17Z</time>
      </trkpt>
      <trkpt lat="43.92512" lon="6.12593">
        <ele>481.4</ele>
        <time>2017-01-18T04:44:37Z</time>
      </trkpt>
      <trkpt lat="43.92522" lon="6.12537">
        <ele>479.8</ele>
        <time>2017-01-18T04:44:57Z</time>
      </trkpt>
      <trkpt lat="43.92512" lon="6.12446">
        <ele>479.4</ele>
        <time>2017-01-18T04:45:17Z</time>
      </trkpt>
      <trkpt lat="43.92517" lon="6.12429">
        <ele>479.4</ele>
        <time>2017-01-18T04:45:37Z</time>
      </trkpt>
      <trkpt lat="43.92523" lon="6.12249">
        <ele>488.3</ele>
        <time>2017-01-18T04:45:57Z</time>
      </trkpt>
      <trkpt lat="43.92531" lon="6.12251">
        <ele>490.5</ele>
        <time>2017-01-18T04:46:17Z</time>
      </trkpt>
      <trkpt lat="43.92555" lon="6.12297">
        <ele>491.3</ele>
        <time>2017-01-18T04:46:37Z</time>
      </trkpt>
      <trkpt lat="43.92592" lon="6.1234">
        <ele>495.3</ele>
        <time>2017-01-18T04:46:57Z</time>
      </trkpt>
      <trkpt lat="43.92618" lon="6.12359">
        <ele>496.6</ele>
        <time>2017-01-18T04:47:17Z</time>
      </trkpt>
      <trkpt lat="43.92646" lon="6.12366">
        <ele>498.6</ele>
        <time>2017-01-18T04:47:37Z</time>
      </trkpt>
      <trkpt lat="43.9279" lon="6.1232">
        <ele>505.3</ele>
        <time>2017-01-18T04:47:57Z</time>
      </trkpt>
      <trkpt lat="43.92809" lon="6.12307">
        <ele>506.5</ele>
        <time>2017-01-18T04:48:17Z</time>
      </trkpt>
      <trkpt lat="43.92842" lon="6.12262">
        <ele>509.1</ele>
        <time>2017-01-18T04:48:37Z</time>
      </trkpt>
      <trkpt lat="43.92862" lon="6.12249">
        <ele>510.3</ele>
        <time>2017-01-18T04:48:57Z</time>
      </trkpt>
      <trkpt lat="43.92858" lon="6.12241">
        <ele>513</ele>
        <time>2017-01-18T04:49:17Z</time>
      </trkpt>
      <trkpt lat="43.92818" lon="6.12249">
        <ele>512.9</ele>
        <time>2017-01-18T04:49:37Z</time>
      </trkpt>
      <trkpt lat="43.92792" lon="6.12232">
        <ele>518.1</ele>
        <time>2017-01-18T04:49:57Z</time>
      </trkpt>
      <trkpt lat="43.92744" lon="6.1225">
        <ele>519.7</ele>
        <time>2017-01-18T04:50:17Z</time>
      </trkpt>
      <trkpt lat="43.927" lon="6.12227">
        <ele>524.7</ele>
        <time>2017-01-18T04:50:37Z</time>
      </trkpt>
      <trkpt lat="43.92641" lon="6.12246">
        <ele>529.2</ele>
        <time>2017-01-18T04:50:57Z</time>
      </trkpt>
      <trkpt lat="43.92616" lon="6.12232">
        <ele>530</ele>
        <time>2017-01-18T04:51:17Z</time>
      </trkpt>
      <trkpt lat="43.92616" lon="6.1222">
        <ele>532.7</ele>
        <time>2017-01-18T04:51:37Z</time>
      </trkpt>
      <trkpt lat="43.92643" lon="6.12213">
        <ele>534.8</ele>
        <time>2017-01-18T04:51:57Z</time>
      </trkpt>
      <trkpt lat="43.92731" lon="6.1215">
        <ele>541.7</ele>
        <time>2017-01-18T04:52:17Z</time>
      </trkpt>
      <trkpt lat="43.92776" lon="6.12074">
        <ele>547.9</ele>
        <time>2017-01-18T04:52:37Z</time>
      </trkpt>
      <trkpt lat="43.9279" lon="6.12073">
        <ele>549.9</ele>
        <time>2017-01-18T04:52:57Z</time>
      </trkpt>
      <trkpt lat="43.92824" lon="6.12096">
        <ele>550</ele>
        <time>2017-01-18T04:53:17Z</time>
      </trkpt>
      <trkpt lat="43.92844" lon="6.12087">
        <ele>550.6</ele>
        <time>2017-01-18T04:53:37Z</time>
      </trkpt>
      <trkpt lat="43.92881" lon="6.11999">
        <ele>553.8</ele>
        <time>2017-01-18T04:53:57Z</time>
      </trkpt>
      <trkpt lat="43.92879" lon="6.1199">
        <ele>556</ele>
        <time>2017-01-18T04:54:17Z</time>
      </trkpt>
      <trkpt lat="43.92872" lon="6.11992">
        <ele>558.1</ele>
        <time>2017-01-18T04:54:37Z</time>
      </trkpt>
      <trkpt lat="43.92854" lon="6.12024">
        <ele>559.5</ele>
        <time>2017-01-18T04:54:57Z</time>
      </trkpt>
      <trkpt lat="43.92831" lon="6.12039">
        <ele>561.9</ele>
        <time>2017-01-18T04:55:17Z</time>
      </trkpt>
      <trkpt lat="43.92779" lon="6.12004">
        <ele>566.4</ele>
        <time>2017-01-18T04:55:37Z</time>
      </trkpt>
      <trkpt lat="43.92694" lon="6.12055">
        <ele>574.4</ele>
        <time>2017-01-18T04:55:57Z</time>
      </trkpt>
      <trkpt lat="43.9265" lon="6.12056">
        <ele>576.8</ele>
        <time>2017-01-18T04:56:17Z</time>
      </trkpt>
      <trkpt lat="43.9265" lon="6.12043">
        <ele>581</ele>
        <time>2017-01-18T04:56:37Z</time>
      </trkpt>
      <trkpt lat="43.92676" lon="6.12041">
        <ele>580.6</ele>
        <time>2017-01-18T04:56:57Z</time>
      </trkpt>
      <trkpt lat="43.92691" lon="6.12031">
        <ele>582.3</ele>
        <time>2017-01-18T04:57:17Z</time>
      </trkpt>
      <trkpt lat="43.92728" lon="6.1198">
        <ele>587.1</ele>
        <time>2017-01-18T04:57:37Z</time>
      </trkpt>
      <trkpt lat="43.9275" lon="6.11907">
        <ele>592.9</ele>
        <time>2017-01-18T04:57:57Z</time>
      </trkpt>
      <trkpt lat="43.92782" lon="6.11893">
        <ele>595.8</ele>
        <time>2017-01-18T04:58:17Z</time>
      </trkpt>
      <trkpt lat="43.92787" lon="6.11883">
        <ele>595.9</ele>
        <time>2017-01-18T04:58:37Z</time>
      </trkpt>
      <trkpt lat="43.92766" lon="6.11825">
        <ele>601.9</ele>
        <time>2017-01-18T04:58:57Z</time>
      </trkpt>
      <trkpt lat="43.92758" lon="6.11822">
        <ele>604.2</ele>
        <time>2017-01-18T04:59:17Z</time>
      </trkpt>
      <trkpt lat="43.92701" lon="6.11883">
        <ele>609.6</ele>
        <time>2017-01-18T04:59:37Z</time>
      </trkpt>
      <trkpt lat="43.92671" lon="6.11931">
        <ele>612.9</ele>
        <time>2017-01-18T04:59:57Z</time>
      </trkpt>
      <trkpt lat="43.92647" lon="6.11938">
        <ele>615.1</ele>
        <time>2017-01-18T05:00:17Z</time>
      </trkpt>
      <trkpt lat="43.92641" lon="6.11923">
        <ele>618.5</ele>
        <time>2017-01-18T05:00:37Z</time>
      </trkpt>
      <trkpt lat="43.92652" lon="6.11763">
        <ele>624.4</ele>
        <time>2017-01-18T05:00:57Z</time>
      </trkpt>
      <trkpt lat="43.92658" lon="6.11749">
        <ele>625.2</ele>
        <time>2017-01-18T05:01:17Z</time>
      </trkpt>
      <trkpt lat="43.92696" lon="6.11727">
        <ele>625.5</ele>
        <time>2017-01-18T05:01:37Z</time>
      </trkpt>
      <trkpt lat="43.92738" lon="6.11671">
        <ele>622</ele>
        <time>2017-01-18T05:01:57Z</time>
      </trkpt>
      <trkpt lat="43.92761" lon="6.11651">
        <ele>622.9</ele>
        <time>2017-01-18T05:02:17Z</time>
      </trkpt>
      <trkpt lat="43.92796" lon="6.11639">
        <ele>626.2</ele>
        <time>2017-01-18T05:02:37Z</time>
      </trkpt>
      <trkpt lat="43.92829" lon="6.11641">
        <ele>629</ele>
        <time>2017-01-18T05:02:57Z</time>
      </trkpt>
      <trkpt lat="43.92874" lon="6.11615">
        <ele>635.5</ele>
        <time>2017-01-18T05:03:17Z</time>
      </trkpt>
      <trkpt lat="43.92941" lon="6.11592">
        <ele>641</ele>
        <time>2017-01-18T05:03:37Z</time>
      </trkpt>
      <trkpt lat="43.93052" lon="6.11573">
        <ele>653.6</ele>
        <time>2017-01-18T05:03:57Z</time>
      </trkpt>
      <trkpt lat="43.93151" lon="6.11457">
        <ele>667.3</ele>
        <time>2017-01-18T05:04:17Z</time>
      </trkpt>
      <trkpt lat="43.93237" lon="6.11406">
        <ele>676.2</ele>
        <time>2017-01-18T05:04:37Z</time>
      </trkpt>
      <trkpt lat="43.93268" lon="6.11398">
        <ele>680.1</ele>
        <time>2017-01-18T05:04:57Z</time>
      </trkpt>
      <trkpt lat="43.93285" lon="6.11405">
        <ele>681.1</ele>
        <time>2017-01-18T05:05:17Z</time>
      </trkpt>
      <trkpt lat="43.93308" lon="6.11434">
        <ele>683.1</ele>
        <time>2017-01-18T05:05:37Z</time>
      </trkpt>
      <trkpt lat="43.93331" lon="6.11482">
        <ele>683.9</ele>
        <time>2017-01-18T05:05:57Z</time>
      </trkpt>
      <trkpt lat="43.93344" lon="6.11489">
        <ele>683.5</ele>
        <time>2017-01-18T05:06:17Z</time>
      </trkpt>
      <trkpt lat="43.93366" lon="6.1148">
        <ele>686.2</ele>
        <time>2017-01-18T05:06:37Z</time>
      </trkpt>
      <trkpt lat="43.93393" lon="6.11453">
        <ele>690.6</ele>
        <time>2017-01-18T05:06:57Z</time>
      </trkpt>
      <trkpt lat="43.93426" lon="6.11402">
        <ele>696.9</ele>
        <time>2017-01-18T05:07:17Z</time>
      </trkpt>
      <trkpt lat="43.9345" lon="6.11373">
        <ele>701.3</ele>
        <time>2017-01-18T05:07:37Z</time>
      </trkpt>
      <trkpt lat="43.93476" lon="6.11371">
        <ele>702.4</ele>
        <time>2017-01-18T05:07:57Z</time>
      </trkpt>
      <trkpt lat="43.93523" lon="6.11385">
        <ele>706</ele>
        <time>2017-01-18T05:08:17Z</time>
      </trkpt>
      <trkpt lat="43.93535" lon="6.11367">
        <ele>708.3</ele>
        <time>2017-01-18T05:08:37Z</time>
      </trkpt>
      <trkpt lat="43.93532" lon="6.11337">
        <ele>713</ele>
        <time>2017-01-18T05:08:57Z</time>
      </trkpt>
      <trkpt lat="43.93494" lon="6.11293">
        <ele>719.4</ele>
        <time>2017-01-18T05:09:17Z</time>
      </trkpt>
      <trkpt lat="43.93473" lon="6.11288">
        <ele>722.1</ele>
        <time>2017-01-18T05:09:37Z</time>
      </trkpt>
      <trkpt lat="43.93405" lon="6.11293">
        <ele>729.1</ele>
        <time>2017-01-18T05:09:57Z</time>
      </trkpt>
      <trkpt lat="43.93373" lon="6.11285">
        <ele>732.5</ele>
        <time>2017-01-18T05:10:17Z</time>
      </trkpt>
      <trkpt lat="43.9333" lon="6.11252">
        <ele>736.3</ele>
        <time>2017-01-18T05:10:37Z</time>
      </trkpt>
      <trkpt lat="43.93325" lon="6.11239">
        <ele>737.9</ele>
        <time>2017-01-18T05:10:57Z</time>
      </trkpt>
      <trkpt lat="43.93463" lon="6.11112">
        <ele>735.2</ele>
        <time>2017-01-18T05:11:17Z</time>
      </trkpt>
      <trkpt lat="43.9353" lon="6.11072">
        <ele>732</ele>
        <time>2017-01-18T05:11:37Z</time>
      </trkpt>
      <trkpt lat="43.9358" lon="6.11031">
        <ele>733.6</ele>
        <time>2017-01-18T05:11:57Z</time>
      </trkpt>
      <trkpt lat="43.93742" lon="6.10762">
        <ele>723.7</ele>
        <time>2017-01-18T05:12:17Z</time>
      </trkpt>
      <trkpt lat="43.93762" lon="6.10741">
        <ele>723.5</ele>
        <time>2017-01-18T05:12:37Z</time>
      </trkpt>
      <trkpt lat="43.93832" lon="6.10715">
        <ele>721.9</ele>
        <time>2017-01-18T05:12:57Z</time>
      </trkpt>
      <trkpt lat="43.93917" lon="6.10651">
        <ele>715.6</ele>
        <time>2017-01-18T05:13:17Z</time>
      </trkpt>
      <trkpt lat="43.93949" lon="6.10636">
        <ele>714</ele>
        <time>2017-01-18T05:13:37Z</time>
      </trkpt>
      <trkpt lat="43.94052" lon="6.10627">
        <ele>721.2</ele>
        <time>2017-01-18T05:13:57Z</time>
      </trkpt>
      <trkpt lat="43.94128" lon="6.10632">
        <ele>728.9</ele>
        <time>2017-01-18T05:14:17Z</time>
      </trkpt>
      <trkpt lat="43.94349" lon="6.10665">
        <ele>752</ele>
        <time>2017-01-18T05:14:37Z</time>
      </trkpt>
      <trkpt lat="43.94458" lon="6.10636">
        <ele>765.7</ele>
        <time>2017-01-18T05:14:57Z</time>
      </trkpt>
      <trkpt lat="43.94462" lon="6.10627">
        <ele>767.1</ele>
        <time>2017-01-18T05:15:17Z</time>
      </trkpt>
      <trkpt lat="43.94459" lon="6.10616">
        <ele>767.7</ele>
        <time>2017-01-18T05:15:37Z</time>
      </trkpt>
      <trkpt lat="43.94404" lon="6.10557">
        <ele>771.4</ele>
        <time>2017-01-18T05:15:57Z</time>
      </trkpt>
      <trkpt lat="43.943" lon="6.10319">
        <ele>772.8</ele>
        <time>2017-01-18T05:16:17Z</time>
      </trkpt>
      <trkpt lat="43.94296" lon="6.10295">
        <ele>772.4</ele>
        <time>2017-01-18T05:16:37Z</time>
      </trkpt>
      <trkpt lat="43.943" lon="6.10279">
        <ele>772</ele>
        <time>2017-01-18T05:16:57Z</time>
      </trkpt>
      <trkpt lat="43.94384" lon="6.10163">
        <ele>772.7</ele>
        <time>2017-01-18T05:17:17Z</time>
      </trkpt>
      <trkpt lat="43.94512" lon="6.10093">
        <ele>772.3</ele>
        <time>2017-01-18T05:17:37Z</time>
      </trkpt>
      <trkpt lat="43.94588" lon="6.10066">
        <ele>769.6</ele>
        <time>2017-01-18T05:17:57Z</time>
      </trkpt>
      <trkpt lat="43.94893" lon="6.09819">
        <ele>771.6</ele>
        <time>2017-01-18T05:18:17Z</time>
      </trkpt>
      <trkpt lat="43.94997" lon="6.09758">
        <ele>770.2</ele>
        <time>2017-01-18T05:18:37Z</time>
      </trkpt>
      <trkpt lat="43.95008" lon="6.09724">
        <ele>768.8</ele>
        <time>2017-01-18T05:18:57Z</time>
      </trkpt>
      <trkpt lat="43.94988" lon="6.09618">
        <ele>769</ele>
        <time>2017-01-18T05:19:17Z</time>
      </trkpt>
      <trkpt lat="43.9499" lon="6.09598">
        <ele>769</ele>
        <time>2017-01-18T05:19:37Z</time>
      </trkpt>
      <trkpt lat="43.94997" lon="6.09592">
        <ele>769</ele>
        <time>2017-01-18T05:19:57Z</time>
      </trkpt>
      <trkpt lat="43.95022" lon="6.0959">
        <ele>767.4</ele>
        <time>2017-01-18T05:20:17Z</time>
      </trkpt>
      <trkpt lat="43.95038" lon="6.09611">
        <ele>765.1</ele>
        <time>2017-01-18T05:20:37Z</time>
      </trkpt>
      <trkpt lat="43.95056" lon="6.09673">
        <ele>758.6</ele>
        <time>2017-01-18T05:20:57Z</time>
      </trkpt>
      <trkpt lat="43.95065" lon="6.09796">
        <ele>752.2</ele>
        <time>2017-01-18T05:21:17Z</time>
      </trkpt>
      <trkpt lat="43.9507" lon="6.09806">
        <ele>752.5</ele>
        <time>2017-01-18T05:21:37Z</time>
      </trkpt>
      <trkpt lat="43.95105" lon="6.09762">
        <ele>743.6</ele>
        <time>2017-01-18T05:21:57Z</time>
      </trkpt>
      <trkpt lat="43.95136" lon="6.09744">
        <ele>739.3</ele>
        <time>2017-01-18T05:22:17Z</time>
      </trkpt>
      <trkpt lat="43.95166" lon="6.09744">
        <ele>735.3</ele>
        <time>2017-01-18T05:22:37Z</time>
      </trkpt>
      <trkpt lat="43.95204" lon="6.09772">
        <ele>731.4</ele>
        <time>2017-01-18T05:22:57Z</time>
      </trkpt>
      <trkpt lat="43.95213" lon="6.09761">
        <ele>728.3</ele>
        <time>2017-01-18T05:23:17Z</time>
      </trkpt>
      <trkpt lat="43.95195" lon="6.09678">
        <ele>723.1</ele>
        <time>2017-01-18T05:23:37Z</time>
      </trkpt>
      <trkpt lat="43.95196" lon="6.0964">
        <ele>719.7</ele>
        <time>2017-01-18T05:23:57Z</time>
      </trkpt>
      <trkpt lat="43.95257" lon="6.09407">
        <ele>702.8</ele>
        <time>2017-01-18T05:24:17Z</time>
      </trkpt>
      <trkpt lat="43.95273" lon="6.09182">
        <ele>693.3</ele>
        <time>2017-01-18T05:24:37Z</time>
      </trkpt>
      <trkpt lat="43.95287" lon="6.09146">
        <ele>689.9</ele>
        <time>2017-01-18T05:24:57Z</time>
      </trkpt>
      <trkpt lat="43.95331" lon="6.09096">
        <ele>684.6</ele>
        <time>2017-01-18T05:25:17Z</time>
      </trkpt>
      <trkpt lat="43.9531" lon="6.08869">
        <ele>678.7</ele>
        <time>2017-01-18T05:25:37Z</time>
      </trkpt>
      <trkpt lat="43.95298" lon="6.08824">
        <ele>677.9</ele>
        <time>2017-01-18T05:25:57Z</time>
      </trkpt>
      <trkpt lat="43.95202" lon="6.08616">
        <ele>670.1</ele>
        <time>2017-01-18T05:26:17Z</time>
      </trkpt>
      <trkpt lat="43.95178" lon="6.08512">
        <ele>667.4</ele>
        <time>2017-01-18T05:26:37Z</time>
      </trkpt>
      <trkpt lat="43.95126" lon="6.08452">
        <ele>666.6</ele>
        <time>2017-01-18T05:26:57Z</time>
      </trkpt>
      <trkpt lat="43.95032" lon="6.08391">
        <ele>662.6</ele>
        <time>2017-01-18T05:27:17Z</time>
      </trkpt>
      <trkpt lat="43.9502" lon="6.08375">
        <ele>662.4</ele>
        <time>2017-01-18T05:27:37Z</time>
      </trkpt>
      <trkpt lat="43.95014" lon="6.08342">
        <ele>662.4</ele>
        <time>2017-01-18T05:27:57Z</time>
      </trkpt>
      <trkpt lat="43.95057" lon="6.07949">
        <ele>650.5</ele>
        <time>2017-01-18T05:28:17Z</time>
      </trkpt>
      <trkpt lat="43.95039" lon="6.07223">
        <ele>636.5</ele>
        <time>2017-01-18T05:28:37Z</time>
      </trkpt>
      <trkpt lat="43.9507" lon="6.06962">
        <ele>630.2</ele>
        <time>2017-01-18T05:28:57Z</time>
      </trkpt>
      <trkpt lat="43.95067" lon="6.06697">
        <ele>623.6</ele>
        <time>2017-01-18T05:29:17Z</time>
      </trkpt>
      <trkpt lat="43.95082" lon="6.06615">
        <ele>618.4</ele>
        <time>2017-01-18T05:29:37Z</time>
      </trkpt>
      <trkpt lat="43.95097" lon="6.06581">
        <ele>614.5</ele>
        <time>2017-01-18T05:29:57Z</time>
      </trkpt>
      <trkpt lat="43.9515" lon="6.06526">
        <ele>612.9</ele>
        <time>2017-01-18T05:30:17Z</time>
      </trkpt>
      <trkpt lat="43.95197" lon="6.0649">
        <ele>612.1</ele>
        <time>2017-01-18T05:30:37Z</time>
      </trkpt>
      <trkpt lat="43.95203" lon="6.06478">
        <ele>612.1</ele>
        <time>2017-01-18T05:30:57Z</time>
      </trkpt>
      <trkpt lat="43.95232" lon="6.06126">
        <ele>606.5</ele>
        <time>2017-01-18T05:31:17Z</time>
      </trkpt>
      <trkpt lat="43.95132" lon="6.05805">
        <ele>604.3</ele>
        <time>2017-01-18T05:31:37Z</time>
      </trkpt>
      <trkpt lat="43.9509" lon="6.05417">
        <ele>596.5</ele>
        <time>2017-01-18T05:31:57Z</time>
      </trkpt>
      <trkpt lat="43.95111" lon="6.05244">
        <ele>592.2</ele>
        <time>2017-01-18T05:32:17Z</time>
      </trkpt>
      <trkpt lat="43.9509" lon="6.05183">
        <ele>594.7</ele>
        <time>2017-01-18T05:32:37Z</time>
      </trkpt>
      <trkpt lat="43.95027" lon="6.0442">
        <ele>570.1</ele>
        <time>2017-01-18T05:32:57Z</time>
      </trkpt>
      <trkpt lat="43.95029" lon="6.04391">
        <ele>568.4</ele>
        <time>2017-01-18T05:33:17Z</time>
      </trkpt>
      <trkpt lat="43.95085" lon="6.04245">
        <ele>565.8</ele>
        <time>2017-01-18T05:33:37Z</time>
      </trkpt>
      <trkpt lat="43.95096" lon="6.04178">
        <ele>568.76</ele>
      </trkpt>
      <trkpt lat="43.95055" lon="6.03853">
        <ele>566.83</ele>
      </trkpt>
      <trkpt lat="43.94776" lon="6.02862">
        <ele>548.09</ele>
      </trkpt>
      <trkpt lat="43.94654" lon="6.02598">
        <ele>543.76</ele>
      </trkpt>
      <trkpt lat="43.94381" lon="6.02675">
        <ele>541.36</ele>
      </trkpt>
      <trkpt lat="43.94266" lon="6.02635">
        <ele>551.45</ele>
      </trkpt>
      <trkpt lat="43.9419" lon="6.0269">
        <ele>555.78</ele>
      </trkpt>
      <trkpt lat="43.94144" lon="6.02511">
        <ele>565.39</ele>
      </trkpt>
      <trkpt lat="43.94079" lon="6.02499">
        <ele>571.16</ele>
      </trkpt>
      <trkpt lat="43.9413" lon="6.02427">
        <ele>579.33</ele>
      </trkpt>
      <trkpt lat="43.9412" lon="6.02297">
        <ele>587.5</ele>
      </trkpt>
      <trkpt lat="43.94037" lon="6.02196">
        <ele>598.08</ele>
      </trkpt>
      <trkpt lat="43.94018" lon="6.02405">
        <ele>610.57</ele>
      </trkpt>
      <trkpt lat="43.93918" lon="6.02454">
        <ele>618.26</ele>
      </trkpt>
      <trkpt lat="43.93972" lon="6.02333">
        <ele>630.28</ele>
      </trkpt>
      <trkpt lat="43.93898" lon="6.02381">
        <ele>643.26</ele>
      </trkpt>
      <trkpt lat="43.93849" lon="6.02365">
        <ele>649.99</ele>
      </trkpt>
      <trkpt lat="43.93891" lon="6.02328">
        <ele>652.87</ele>
      </trkpt>
      <trkpt lat="43.93779" lon="6.02433">
        <ele>650.95</ele>
      </trkpt>
      <trkpt lat="43.93739" lon="6.02293">
        <ele>652.39</ele>
      </trkpt>
      <trkpt lat="43.9384" lon="6.02153">
        <ele>639.89</ele>
      </trkpt>
      <trkpt lat="43.93764" lon="6.02067">
        <ele>633.17</ele>
      </trkpt>
      <trkpt lat="43.93679" lon="6.0219">
        <ele>620.67</ele>
      </trkpt>
      <trkpt lat="43.93571" lon="6.02215">
        <ele>611.54</ele>
      </trkpt>
      <trkpt lat="43.93536" lon="6.02383">
        <ele>601.44</ele>
      </trkpt>
      <trkpt lat="43.93515" lon="6.02327">
        <ele>596.64</ele>
      </trkpt>
      <trkpt lat="43.93491" lon="6.02407">
        <ele>589.43</ele>
      </trkpt>
      <trkpt lat="43.93435" lon="6.02328">
        <ele>588.95</ele>
      </trkpt>
      <trkpt lat="43.93349" lon="6.02318">
        <ele>591.83</ele>
      </trkpt>
      <trkpt lat="43.93416" lon="6.02221">
        <ele>604.33</ele>
      </trkpt>
      <trkpt lat="43.93402" lon="6.02094">
        <ele>613.94</ele>
      </trkpt>
      <trkpt lat="43.93357" lon="6.02036">
        <ele>621.15</ele>
      </trkpt>
      <trkpt lat="43.93366" lon="6.01937">
        <ele>628.36</ele>
      </trkpt>
      <trkpt lat="43.93058" lon="6.02065">
        <ele>655.28</ele>
      </trkpt>
      <trkpt lat="43.92996" lon="6.0217">
        <ele>660.56</ele>
      </trkpt>
      <trkpt lat="43.92846" lon="6.02193">
        <ele>669.22</ele>
      </trkpt>
      <trkpt lat="43.92647" lon="6.0157">
        <ele>666.81</ele>
      </trkpt>
      <trkpt lat="43.92769" lon="6.01252">
        <ele>669.7</ele>
      </trkpt>
      <trkpt lat="43.92765" lon="6.01259">
        <ele>674.5</ele>
      </trkpt>
      <trkpt lat="43.92815" lon="6.00968">
        <ele>671.14</ele>
      </trkpt>
      <trkpt lat="43.92769" lon="6.0077">
        <ele>670.18</ele>
      </trkpt>
      <trkpt lat="43.92686" lon="5.99914">
        <ele>664.89</ele>
      </trkpt>
      <trkpt lat="43.92723" lon="5.99449">
        <ele>654.8</ele>
      </trkpt>
      <trkpt lat="43.93007" lon="5.99098">
        <ele>649.99</ele>
      </trkpt>
      <trkpt lat="43.93082" lon="5.98822">
        <ele>649.51</ele>
      </trkpt>
      <trkpt lat="43.92842" lon="5.98523">
        <ele>644.22</ele>
      </trkpt>
      <trkpt lat="43.9272" lon="5.98577">
        <ele>642.78</ele>
      </trkpt>
      <trkpt lat="43.92484" lon="5.98448">
        <ele>640.86</ele>
      </trkpt>
      <trkpt lat="43.92521" lon="5.9833">
        <ele>640.86</ele>
      </trkpt>
      <trkpt lat="43.92407" lon="5.97977">
        <ele>640.38</ele>
      </trkpt>
      <trkpt lat="43.923" lon="5.97864">
        <ele>638.93</ele>
      </trkpt>
      <trkpt lat="43.92348" lon="5.97801">
        <ele>639.41</ele>
      </trkpt>
      <trkpt lat="43.92315" lon="5.97643">
        <ele>639.41</ele>
      </trkpt>
      <trkpt lat="43.92313" lon="5.97634">
        <ele>637.01</ele>
      </trkpt>
      <trkpt lat="43.92103" lon="5.97296">
        <ele>624.03</ele>
      </trkpt>
      <trkpt lat="43.92048" lon="5.97244">
        <ele>622.11</ele>
      </trkpt>
      <trkpt lat="43.9195" lon="5.97075">
        <ele>609.61</ele>
      </trkpt>
      <trkpt lat="43.91941" lon="5.97032">
        <ele>610.57</ele>
      </trkpt>
      <trkpt lat="43.91714" lon="5.96626">
        <ele>608.17</ele>
      </trkpt>
      <trkpt lat="43.91668" lon="5.96486">
        <ele>609.13</ele>
      </trkpt>
      <trkpt lat="43.9164" lon="5.96446">
        <ele>611.54</ele>
      </trkpt>
      <trkpt lat="43.91594" lon="5.96409">
        <ele>614.9</ele>
      </trkpt>
      <trkpt lat="43.91531" lon="5.96415">
        <ele>618.26</ele>
      </trkpt>
      <trkpt lat="43.91436" lon="5.96354">
        <ele>624.51</ele>
      </trkpt>
      <trkpt lat="43.9141" lon="5.96328">
        <ele>622.11</ele>
      </trkpt>
      <trkpt lat="43.91377" lon="5.96311">
        <ele>619.23</ele>
      </trkpt>
      <trkpt lat="43.91243" lon="5.96294">
        <ele>610.57</ele>
      </trkpt>
      <trkpt lat="43.91214" lon="5.96267">
        <ele>607.21</ele>
      </trkpt>
      <trkpt lat="43.91148" lon="5.96183">
        <ele>600.96</ele>
      </trkpt>
      <trkpt lat="43.9111" lon="5.96088">
        <ele>601.44</ele>
      </trkpt>
      <trkpt lat="43.91106" lon="5.96056">
        <ele>603.85</ele>
      </trkpt>
      <trkpt lat="43.91131" lon="5.95867">
        <ele>601.92</ele>
      </trkpt>
      <trkpt lat="43.91118" lon="5.95737">
        <ele>603.85</ele>
      </trkpt>
      <trkpt lat="43.91109" lon="5.95705">
        <ele>608.17</ele>
      </trkpt>
      <trkpt lat="43.91007" lon="5.9556">
        <ele>606.73</ele>
      </trkpt>
      <trkpt lat="43.90977" lon="5.95391">
        <ele>610.57</ele>
      </trkpt>
      <trkpt lat="43.90856" lon="5.95133">
        <ele>614.42</ele>
      </trkpt>
      <trkpt lat="43.90794" lon="5.95081">
        <ele>612.5</ele>
      </trkpt>
      <trkpt lat="43.90734" lon="5.94994">
        <ele>612.98</ele>
      </trkpt>
      <trkpt lat="43.9072" lon="5.94939">
        <ele>614.9</ele>
      </trkpt>
      <trkpt lat="43.90804" lon="5.94695">
        <ele>608.17</ele>
      </trkpt>
      <trkpt lat="43.90792" lon="5.94681">
        <ele>608.17</ele>
      </trkpt>
      <trkpt lat="43.90745" lon="5.94657">
        <ele>607.21</ele>
      </trkpt>
      <trkpt lat="43.90667" lon="5.94634">
        <ele>605.29</ele>
      </trkpt>
      <trkpt lat="43.90548" lon="5.94517">
        <ele>607.21</ele>
      </trkpt>
      <trkpt lat="43.90493" lon="5.9449">
        <ele>603.85</ele>
      </trkpt>
      <trkpt lat="43.90454" lon="5.94453">
        <ele>602.4</ele>
      </trkpt>
      <trkpt lat="43.90429" lon="5.94412">
        <ele>603.36</ele>
      </trkpt>
      <trkpt lat="43.90408" lon="5.94314">
        <ele>601.92</ele>
      </trkpt>
      <trkpt lat="43.90325" lon="5.94242">
        <ele>604.33</ele>
      </trkpt>
      <trkpt lat="43.90297" lon="5.94208">
        <ele>600</ele>
      </trkpt>
      <trkpt lat="43.90259" lon="5.94096">
        <ele>591.35</ele>
      </trkpt>
      <trkpt lat="43.90188" lon="5.94007">
        <ele>585.58</ele>
      </trkpt>
      <trkpt lat="43.90147" lon="5.93972">
        <ele>582.7</ele>
      </trkpt>
      <trkpt lat="43.9008" lon="5.93939">
        <ele>575.97</ele>
      </trkpt>
      <trkpt lat="43.90039" lon="5.93857">
        <ele>570.68</ele>
      </trkpt>
      <trkpt lat="43.90013" lon="5.93825">
        <ele>567.32</ele>
      </trkpt>
      <trkpt lat="43.89999" lon="5.93785">
        <ele>564.43</ele>
      </trkpt>
      <trkpt lat="43.89993" lon="5.93738">
        <ele>561.07</ele>
      </trkpt>
      <trkpt lat="43.90011" lon="5.93698">
        <ele>557.7</ele>
      </trkpt>
      <trkpt lat="43.90049" lon="5.93664">
        <ele>554.34</ele>
      </trkpt>
      <trkpt lat="43.90101" lon="5.93669">
        <ele>553.38</ele>
      </trkpt>
      <trkpt lat="43.90171" lon="5.93712">
        <ele>553.86</ele>
      </trkpt>
      <trkpt lat="43.9019" lon="5.93707">
        <ele>555.3</ele>
      </trkpt>
      <trkpt lat="43.90218" lon="5.93674">
        <ele>554.82</ele>
      </trkpt>
      <trkpt lat="43.90252" lon="5.93607">
        <ele>552.9</ele>
      </trkpt>
      <trkpt lat="43.90268" lon="5.9351">
        <ele>551.45</ele>
      </trkpt>
      <trkpt lat="43.90237" lon="5.93316">
        <ele>550.01</ele>
      </trkpt>
      <trkpt lat="43.90134" lon="5.93141">
        <ele>547.61</ele>
      </trkpt>
      <trkpt lat="43.90105" lon="5.93072">
        <ele>546.17</ele>
      </trkpt>
      <trkpt lat="43.90104" lon="5.93044">
        <ele>544.24</ele>
      </trkpt>
      <trkpt lat="43.90126" lon="5.92968">
        <ele>540.88</ele>
      </trkpt>
      <trkpt lat="43.90127" lon="5.9291">
        <ele>540.88</ele>
      </trkpt>
      <trkpt lat="43.9008" lon="5.92753">
        <ele>540.88</ele>
      </trkpt>
      <trkpt lat="43.9008" lon="5.92671">
        <ele>541.36</ele>
      </trkpt>
      <trkpt lat="43.90065" lon="5.92581">
        <ele>541.36</ele>
      </trkpt>
      <trkpt lat="43.90064" lon="5.92482">
        <ele>539.92</ele>
      </trkpt>
      <trkpt lat="43.90094" lon="5.92396">
        <ele>537.03</ele>
      </trkpt>
      <trkpt lat="43.90097" lon="5.9233">
        <ele>538.48</ele>
      </trkpt>
      <trkpt lat="43.90029" lon="5.92179">
        <ele>538.96</ele>
      </trkpt>
      <trkpt lat="43.90017" lon="5.92124">
        <ele>539.44</ele>
      </trkpt>
      <trkpt lat="43.90007" lon="5.92116">
        <ele>539.92</ele>
      </trkpt>
      <trkpt lat="43.89994" lon="5.92118">
        <ele>539.92</ele>
      </trkpt>
      <trkpt lat="43.898" lon="5.92189">
        <ele>531.75</ele>
      </trkpt>
      <trkpt lat="43.89714" lon="5.92194">
        <ele>522.13</ele>
      </trkpt>
      <trkpt lat="43.89684" lon="5.9218">
        <ele>517.33</ele>
      </trkpt>
      <trkpt lat="43.89589" lon="5.92059">
        <ele>500.98</ele>
      </trkpt>
      <trkpt lat="43.89559" lon="5.92035">
        <ele>498.1</ele>
      </trkpt>
      <trkpt lat="43.8932" lon="5.91992">
        <ele>480.32</ele>
      </trkpt>
      <trkpt lat="43.89271" lon="5.9201">
        <ele>474.55</ele>
      </trkpt>
      <trkpt lat="43.89241" lon="5.92036">
        <ele>471.18</ele>
      </trkpt>
      <trkpt lat="43.89199" lon="5.92095">
        <ele>463.01</ele>
      </trkpt>
      <trkpt lat="43.89175" lon="5.921">
        <ele>461.57</ele>
      </trkpt>
      <trkpt lat="43.89159" lon="5.92088">
        <ele>460.13</ele>
      </trkpt>
      <trkpt lat="43.89153" lon="5.92075">
        <ele>459.17</ele>
      </trkpt>
      <trkpt lat="43.89133" lon="5.91986">
        <ele>451.48</ele>
      </trkpt>
      <trkpt lat="43.89132" lon="5.91954">
        <ele>449.55</ele>
      </trkpt>
      <trkpt lat="43.89167" lon="5.91832">
        <ele>437.06</ele>
      </trkpt>
      <trkpt lat="43.89184" lon="5.9181">
        <ele>433.21</ele>
      </trkpt>
      <trkpt lat="43.89212" lon="5.91798">
        <ele>430.81</ele>
      </trkpt>
      <trkpt lat="43.89218" lon="5.91782">
        <ele>429.37</ele>
      </trkpt>
      <trkpt lat="43.89213" lon="5.9177">
        <ele>428.4</ele>
      </trkpt>
      <trkpt lat="43.88996" lon="5.91685">
        <ele>399.08</ele>
      </trkpt>
      <trkpt lat="43.88949" lon="5.91679">
        <ele>394.28</ele>
      </trkpt>
      <trkpt lat="43.88906" lon="5.91689">
        <ele>385.63</ele>
      </trkpt>
      <trkpt lat="43.8863" lon="5.91573">
        <ele>355.34</ele>
      </trkpt>
      <trkpt lat="43.88608" lon="5.91579">
        <ele>351.5</ele>
      </trkpt>
      <trkpt lat="43.88605" lon="5.91627">
        <ele>351.02</ele>
      </trkpt>
      <trkpt lat="43.88584" lon="5.91625">
        <ele>350.54</ele>
      </trkpt>
      <trkpt lat="43.88572" lon="5.91569">
        <ele>351.98</ele>
      </trkpt>
      <trkpt lat="43.88561" lon="5.91549">
        <ele>351.5</ele>
      </trkpt>
      <trkpt lat="43.88483" lon="5.91511">
        <ele>349.1</ele>
      </trkpt>
      <trkpt lat="43.88465" lon="5.9149">
        <ele>346.69</ele>
      </trkpt>
      <trkpt lat="43.88455" lon="5.91462">
        <ele>347.17</ele>
      </trkpt>
      <trkpt lat="43.88494" lon="5.90857">
        <ele>336.12</ele>
      </trkpt>
      <trkpt lat="43.88502" lon="5.9084">
        <ele>336.6</ele>
      </trkpt>
      <trkpt lat="43.88599" lon="5.90775">
        <ele>337.08</ele>
      </trkpt>
      <trkpt lat="43.88722" lon="5.90731">
        <ele>339</ele>
      </trkpt>
      <trkpt lat="43.88917" lon="5.90708">
        <ele>336.12</ele>
      </trkpt>
      <trkpt lat="43.89078" lon="5.90743">
        <ele>337.08</ele>
      </trkpt>
      <trkpt lat="43.89441" lon="5.90689">
        <ele>336.12</ele>
      </trkpt>
      <trkpt lat="43.89826" lon="5.90781">
        <ele>338.52</ele>
      </trkpt>
      <trkpt lat="43.90171" lon="5.90927">
        <ele>339.96</ele>
      </trkpt>
      <trkpt lat="43.90347" lon="5.9111">
        <ele>342.85</ele>
      </trkpt>
      <trkpt lat="43.9065" lon="5.91179">
        <ele>346.21</ele>
      </trkpt>
      <trkpt lat="43.90906" lon="5.91322">
        <ele>350.54</ele>
      </trkpt>
      <trkpt lat="43.91098" lon="5.91496">
        <ele>354.86</ele>
      </trkpt>
      <trkpt lat="43.91168" lon="5.91534">
        <ele>357.27</ele>
      </trkpt>
      <trkpt lat="43.91282" lon="5.91581">
        <ele>359.19</ele>
      </trkpt>
      <trkpt lat="43.91525" lon="5.91737">
        <ele>362.55</ele>
      </trkpt>
      <trkpt lat="43.91631" lon="5.9186">
        <ele>369.76</ele>
      </trkpt>
      <trkpt lat="43.91678" lon="5.91901">
        <ele>368.8</ele>
      </trkpt>
      <trkpt lat="43.91719" lon="5.91904">
        <ele>367.84</ele>
      </trkpt>
      <trkpt lat="43.91968" lon="5.9179">
        <ele>362.55</ele>
      </trkpt>
      <trkpt lat="43.92099" lon="5.91666">
        <ele>355.34</ele>
      </trkpt>
      <trkpt lat="43.92173" lon="5.91554">
        <ele>351.5</ele>
      </trkpt>
      <trkpt lat="43.92261" lon="5.91323">
        <ele>349.58</ele>
      </trkpt>
      <trkpt lat="43.92581" lon="5.89268">
        <ele>345.73</ele>
      </trkpt>
      <trkpt lat="43.92542" lon="5.89161">
        <ele>349.1</ele>
      </trkpt>
      <trkpt lat="43.92544" lon="5.89118">
        <ele>351.5</ele>
      </trkpt>
      <trkpt lat="43.92561" lon="5.89109">
        <ele>353.42</ele>
      </trkpt>
      <trkpt lat="43.92606" lon="5.89132">
        <ele>358.71</ele>
      </trkpt>
      <trkpt lat="43.92688" lon="5.89116">
        <ele>365.92</ele>
      </trkpt>
      <trkpt lat="43.92697" lon="5.891">
        <ele>367.36</ele>
      </trkpt>
      <trkpt lat="43.92692" lon="5.8909">
        <ele>368.8</ele>
      </trkpt>
      <trkpt lat="43.92666" lon="5.89086">
        <ele>369.76</ele>
      </trkpt>
      <trkpt lat="43.92664" lon="5.89076">
        <ele>370.24</ele>
      </trkpt>
      <trkpt lat="43.92827" lon="5.89065">
        <ele>378.42</ele>
      </trkpt>
      <trkpt lat="43.9283" lon="5.88927">
        <ele>384.66</ele>
      </trkpt>
      <trkpt lat="43.93036" lon="5.87984">
        <ele>396.2</ele>
      </trkpt>
      <trkpt lat="43.93039" lon="5.87632">
        <ele>405.81</ele>
      </trkpt>
      <trkpt lat="43.93055" lon="5.87558">
        <ele>405.81</ele>
      </trkpt>
      <trkpt lat="43.93157" lon="5.87331">
        <ele>400.53</ele>
      </trkpt>
      <trkpt lat="43.9335" lon="5.87163">
        <ele>391.39</ele>
      </trkpt>
      <trkpt lat="43.93535" lon="5.86883">
        <ele>376.97</ele>
      </trkpt>
      <trkpt lat="43.93555" lon="5.86846">
        <ele>376.01</ele>
      </trkpt>
      <trkpt lat="43.93565" lon="5.86804">
        <ele>375.05</ele>
      </trkpt>
      <trkpt lat="43.93563" lon="5.86739">
        <ele>374.57</ele>
      </trkpt>
      <trkpt lat="43.93543" lon="5.86683">
        <ele>373.61</ele>
      </trkpt>
      <trkpt lat="43.93401" lon="5.86541">
        <ele>375.53</ele>
      </trkpt>
      <trkpt lat="43.93395" lon="5.86547">
        <ele>376.49</ele>
      </trkpt>
      <trkpt lat="43.93402" lon="5.86609">
        <ele>374.09</ele>
      </trkpt>
      <trkpt lat="43.93369" lon="5.86655">
        <ele>372.17</ele>
      </trkpt>
      <trkpt lat="43.93371" lon="5.86712">
        <ele>371.69</ele>
      </trkpt>
      <trkpt lat="43.93331" lon="5.86776">
        <ele>371.21</ele>
      </trkpt>
      <trkpt lat="43.93334" lon="5.86792">
        <ele>371.69</ele>
      </trkpt>
      <trkpt lat="43.93339" lon="5.86791">
        <ele>370.24</ele>
      </trkpt>
      <trkpt lat="43.93337" lon="5.86795">
        <ele>370.73</ele>
      </trkpt>
      <trkpt lat="43.93334" lon="5.86791">
        <ele>371.21</ele>
      </trkpt>
      <trkpt lat="43.93371" lon="5.86719">
        <ele>371.21</ele>
      </trkpt>
      <trkpt lat="43.9337" lon="5.86653">
        <ele>370.73</ele>
      </trkpt>
      <trkpt lat="43.93403" lon="5.86606">
        <ele>372.65</ele>
      </trkpt>
      <trkpt lat="43.93402" lon="5.86543">
        <ele>374.57</ele>
      </trkpt>
      <trkpt lat="43.93268" lon="5.86192">
        <ele>393.32</ele>
      </trkpt>
      <trkpt lat="43.93255" lon="5.86109">
        <ele>395.24</ele>
      </trkpt>
      <trkpt lat="43.93275" lon="5.85935">
        <ele>399.57</ele>
      </trkpt>
      <trkpt lat="43.93638" lon="5.85078">
        <ele>422.16</ele>
      </trkpt>
      <trkpt lat="43.93732" lon="5.84559">
        <ele>424.56</ele>
      </trkpt>
      <trkpt lat="43.93746" lon="5.84174">
        <ele>432.73</ele>
      </trkpt>
      <trkpt lat="43.93708" lon="5.84027">
        <ele>438.02</ele>
      </trkpt>
      <trkpt lat="43.93703" lon="5.83956">
        <ele>438.98</ele>
      </trkpt>
      <trkpt lat="43.93768" lon="5.83246">
        <ele>430.33</ele>
      </trkpt>
      <trkpt lat="43.93741" lon="5.82958">
        <ele>426.96</ele>
      </trkpt>
      <trkpt lat="43.93807" lon="5.82545">
        <ele>428.4</ele>
      </trkpt>
      <trkpt lat="43.93836" lon="5.82493">
        <ele>429.37</ele>
      </trkpt>
      <trkpt lat="43.93903" lon="5.82417">
        <ele>430.81</ele>
      </trkpt>
      <trkpt lat="43.94021" lon="5.82159">
        <ele>433.21</ele>
      </trkpt>
      <trkpt lat="43.94071" lon="5.81705">
        <ele>438.02</ele>
      </trkpt>
      <trkpt lat="43.94097" lon="5.81634">
        <ele>438.5</ele>
      </trkpt>
      <trkpt lat="43.94481" lon="5.81053">
        <ele>441.86</ele>
      </trkpt>
      <trkpt lat="43.9459" lon="5.80957">
        <ele>443.79</ele>
      </trkpt>
      <trkpt lat="43.94678" lon="5.80894">
        <ele>446.19</ele>
      </trkpt>
      <trkpt lat="43.94887" lon="5.80524">
        <ele>450.52</ele>
      </trkpt>
      <trkpt lat="43.95" lon="5.8043">
        <ele>454.84</ele>
      </trkpt>
      <trkpt lat="43.95087" lon="5.80323">
        <ele>456.76</ele>
      </trkpt>
      <trkpt lat="43.95199" lon="5.80125">
        <ele>458.21</ele>
      </trkpt>
      <trkpt lat="43.95218" lon="5.80053">
        <ele>459.17</ele>
      </trkpt>
      <trkpt lat="43.95215" lon="5.7976">
        <ele>465.42</ele>
      </trkpt>
      <trkpt lat="43.95251" lon="5.79635">
        <ele>467.82</ele>
      </trkpt>
      <trkpt lat="43.95377" lon="5.79464">
        <ele>475.03</ele>
      </trkpt>
      <trkpt lat="43.95427" lon="5.79421">
        <ele>478.87</ele>
      </trkpt>
      <trkpt lat="43.95831" lon="5.79185">
        <ele>500.02</ele>
      </trkpt>
      <trkpt lat="43.95862" lon="5.79201">
        <ele>499.54</ele>
      </trkpt>
      <trkpt lat="43.95875" lon="5.79195">
        <ele>500.02</ele>
      </trkpt>
      <trkpt lat="43.95882" lon="5.79179">
        <ele>502.91</ele>
      </trkpt>
      <trkpt lat="43.95875" lon="5.7912">
        <ele>506.27</ele>
      </trkpt>
      <trkpt lat="43.95889" lon="5.7893">
        <ele>515.4</ele>
      </trkpt>
      <trkpt lat="43.95867" lon="5.78782">
        <ele>518.77</ele>
      </trkpt>
      <trkpt lat="43.95883" lon="5.78696">
        <ele>521.17</ele>
      </trkpt>
      <trkpt lat="43.95905" lon="5.78663">
        <ele>523.58</ele>
      </trkpt>
      <trkpt lat="43.96081" lon="5.78502">
        <ele>532.23</ele>
      </trkpt>
      <trkpt lat="43.96107" lon="5.78466">
        <ele>533.67</ele>
      </trkpt>
      <trkpt lat="43.96093" lon="5.78354">
        <ele>539.44</ele>
      </trkpt>
      <trkpt lat="43.96065" lon="5.78305">
        <ele>542.32</ele>
      </trkpt>
      <trkpt lat="43.9596" lon="5.78186">
        <ele>547.13</ele>
      </trkpt>
      <trkpt lat="43.95968" lon="5.78133">
        <ele>549.53</ele>
      </trkpt>
      <trkpt lat="43.9595" lon="5.78081">
        <ele>549.05</ele>
      </trkpt>
      <trkpt lat="43.95924" lon="5.7806">
        <ele>548.57</ele>
      </trkpt>
      <trkpt lat="43.95849" lon="5.77958">
        <ele>544.24</ele>
      </trkpt>
      <trkpt lat="43.95792" lon="5.77938">
        <ele>538.48</ele>
      </trkpt>
      <trkpt lat="43.95773" lon="5.77919">
        <ele>536.07</ele>
      </trkpt>
      <trkpt lat="43.95774" lon="5.77894">
        <ele>536.55</ele>
      </trkpt>
      <trkpt lat="43.95812" lon="5.77745">
        <ele>529.34</ele>
      </trkpt>
      <trkpt lat="43.95788" lon="5.77672">
        <ele>529.34</ele>
      </trkpt>
      <trkpt lat="43.9575" lon="5.7764">
        <ele>527.9</ele>
      </trkpt>
      <trkpt lat="43.95561" lon="5.77561">
        <ele>520.69</ele>
      </trkpt>
      <trkpt lat="43.95546" lon="5.77535">
        <ele>520.69</ele>
      </trkpt>
      <trkpt lat="43.95456" lon="5.7727">
        <ele>519.25</ele>
      </trkpt>
      <trkpt lat="43.95394" lon="5.77183">
        <ele>520.69</ele>
      </trkpt>
      <trkpt lat="43.95265" lon="5.77113">
        <ele>513.96</ele>
      </trkpt>
      <trkpt lat="43.95246" lon="5.77087">
        <ele>516.85</ele>
      </trkpt>
      <trkpt lat="43.95213" lon="5.77063">
        <ele>516.37</ele>
      </trkpt>
      <trkpt lat="43.95086" lon="5.76911">
        <ele>521.65</ele>
      </trkpt>
      <trkpt lat="43.95057" lon="5.76903">
        <ele>521.65</ele>
      </trkpt>
      <trkpt lat="43.94955" lon="5.76912">
        <ele>522.61</ele>
      </trkpt>
      <trkpt lat="43.94915" lon="5.76887">
        <ele>524.54</ele>
      </trkpt>
      <trkpt lat="43.94866" lon="5.76841">
        <ele>528.38</ele>
      </trkpt>
      <trkpt lat="43.94846" lon="5.76788">
        <ele>529.82</ele>
      </trkpt>
      <trkpt lat="43.94856" lon="5.76289">
        <ele>529.82</ele>
      </trkpt>
      <trkpt lat="43.94848" lon="5.76239">
        <ele>529.82</ele>
      </trkpt>
      <trkpt lat="43.94832" lon="5.76194">
        <ele>535.59</ele>
      </trkpt>
      <trkpt lat="43.94331" lon="5.75562">
        <ele>525.98</ele>
      </trkpt>
      <trkpt lat="43.94321" lon="5.75524">
        <ele>522.61</ele>
      </trkpt>
      <trkpt lat="43.94339" lon="5.75497">
        <ele>522.13</ele>
      </trkpt>
      <trkpt lat="43.94361" lon="5.75487">
        <ele>522.61</ele>
      </trkpt>
      <trkpt lat="43.94499" lon="5.75383">
        <ele>523.58</ele>
      </trkpt>
      <trkpt lat="43.94587" lon="5.75261">
        <ele>520.21</ele>
      </trkpt>
      <trkpt lat="43.94603" lon="5.7522">
        <ele>517.81</ele>
      </trkpt>
      <trkpt lat="43.94611" lon="5.75176">
        <ele>516.37</ele>
      </trkpt>
      <trkpt lat="43.94607" lon="5.75213">
        <ele>513</ele>
      </trkpt>
      <trkpt lat="43.94606" lon="5.752">
        <ele>515.42</ele>
      </trkpt>
      <trkpt lat="43.94551" lon="5.75189">
        <ele>504.84</ele>
      </trkpt>
      <trkpt lat="43.94479" lon="5.75252">
        <ele>501.56</ele>
      </trkpt>
      <trkpt lat="43.9438" lon="5.75261">
        <ele>478.02</ele>
      </trkpt>
      <trkpt lat="43.94364" lon="5.75283">
        <ele>474.22</ele>
      </trkpt>
      <trkpt lat="43.94237" lon="5.75341">
        <ele>453.92</ele>
      </trkpt>
      <trkpt lat="43.94171" lon="5.75375">
        <ele>463.93</ele>
      </trkpt>
      <trkpt lat="43.9406" lon="5.7541">
        <ele>471.22</ele>
      </trkpt>
      <trkpt lat="43.93893" lon="5.75379">
        <ele>467.75</ele>
      </trkpt>
      <trkpt lat="43.93705" lon="5.75297">
        <ele>468.12</ele>
      </trkpt>
      <trkpt lat="43.93524" lon="5.75274">
        <ele>455.39</ele>
      </trkpt>
      <trkpt lat="43.93602" lon="5.75239">
        <ele>450.51</ele>
      </trkpt>
      <trkpt lat="43.93618" lon="5.75165">
        <ele>431.52</ele>
      </trkpt>
      <trkpt lat="43.93643" lon="5.75129">
        <ele>429.23</ele>
      </trkpt>
      <trkpt lat="43.93669" lon="5.75126">
        <ele>429.67</ele>
      </trkpt>
      <trkpt lat="43.93675" lon="5.75102">
        <ele>429.43</ele>
      </trkpt>
      <trkpt lat="43.93753" lon="5.75032">
        <ele>434.55</ele>
      </trkpt>
      <trkpt lat="43.93877" lon="5.74892">
        <ele>450.74</ele>
      </trkpt>
      <trkpt lat="43.93961" lon="5.74712">
        <ele>476.55</ele>
      </trkpt>
      <trkpt lat="43.93963" lon="5.74627">
        <ele>481.84</ele>
      </trkpt>
      <trkpt lat="43.94017" lon="5.74467">
        <ele>490.98</ele>
      </trkpt>
      <trkpt lat="43.94133" lon="5.74167">
        <ele>526.29</ele>
      </trkpt>
      <trkpt lat="43.94373" lon="5.73637">
        <ele>590.4</ele>
      </trkpt>
      <trkpt lat="43.94504" lon="5.73439">
        <ele>611.54</ele>
      </trkpt>
      <trkpt lat="43.94616" lon="5.73017">
        <ele>651.43</ele>
      </trkpt>
      <trkpt lat="43.947" lon="5.72837">
        <ele>661.04</ele>
      </trkpt>
      <trkpt lat="43.94705" lon="5.72727">
        <ele>672.1</ele>
      </trkpt>
      <trkpt lat="43.94869" lon="5.72127">
        <ele>701.9</ele>
      </trkpt>
      <trkpt lat="43.94952" lon="5.72033">
        <ele>707.19</ele>
      </trkpt>
      <trkpt lat="43.95031" lon="5.72003">
        <ele>716.32</ele>
      </trkpt>
      <trkpt lat="43.95097" lon="5.71939">
        <ele>722.57</ele>
      </trkpt>
      <trkpt lat="43.95148" lon="5.71832">
        <ele>734.1</ele>
      </trkpt>
      <trkpt lat="43.95178" lon="5.71802">
        <ele>738.43</ele>
      </trkpt>
      <trkpt lat="43.95241" lon="5.71775">
        <ele>743.72</ele>
      </trkpt>
      <trkpt lat="43.95384" lon="5.71627">
        <ele>760.54</ele>
      </trkpt>
      <trkpt lat="43.95504" lon="5.71428">
        <ele>773.04</ele>
      </trkpt>
      <trkpt lat="43.9561" lon="5.71079">
        <ele>786.5</ele>
      </trkpt>
      <trkpt lat="43.95729" lon="5.70925">
        <ele>793.22</ele>
      </trkpt>
      <trkpt lat="43.95785" lon="5.70821">
        <ele>796.11</ele>
      </trkpt>
      <trkpt lat="43.95872" lon="5.70484">
        <ele>809.09</ele>
      </trkpt>
      <trkpt lat="43.95875" lon="5.70353">
        <ele>816.78</ele>
      </trkpt>
      <trkpt lat="43.95888" lon="5.7032">
        <ele>815.82</ele>
      </trkpt>
      <trkpt lat="43.95913" lon="5.703">
        <ele>814.37</ele>
      </trkpt>
      <trkpt lat="43.96215" lon="5.70212">
        <ele>769.19</ele>
      </trkpt>
      <trkpt lat="43.96345" lon="5.70124">
        <ele>749</ele>
      </trkpt>
      <trkpt lat="43.96366" lon="5.70097">
        <ele>745.64</ele>
      </trkpt>
      <trkpt lat="43.96373" lon="5.70063">
        <ele>740.83</ele>
      </trkpt>
      <trkpt lat="43.96375" lon="5.69976">
        <ele>734.1</ele>
      </trkpt>
      <trkpt lat="43.96369" lon="5.69967">
        <ele>734.1</ele>
      </trkpt>
      <trkpt lat="43.96375" lon="5.69968">
        <ele>736.51</ele>
      </trkpt>
      <trkpt lat="43.96401" lon="5.69831">
        <ele>731.7</ele>
      </trkpt>
      <trkpt lat="43.96249" lon="5.69757">
        <ele>715.84</ele>
      </trkpt>
      <trkpt lat="43.96165" lon="5.69692">
        <ele>707.67</ele>
      </trkpt>
      <trkpt lat="43.95983" lon="5.69653">
        <ele>696.13</ele>
      </trkpt>
      <trkpt lat="43.95942" lon="5.69623">
        <ele>691.81</ele>
      </trkpt>
      <trkpt lat="43.95879" lon="5.696">
        <ele>687</ele>
      </trkpt>
      <trkpt lat="43.95843" lon="5.69576">
        <ele>685.56</ele>
      </trkpt>
      <trkpt lat="43.95707" lon="5.69525">
        <ele>673.06</ele>
      </trkpt>
      <trkpt lat="43.95566" lon="5.69514">
        <ele>658.64</ele>
      </trkpt>
      <trkpt lat="43.95501" lon="5.69521">
        <ele>651.43</ele>
      </trkpt>
      <trkpt lat="43.95489" lon="5.69529">
        <ele>649.99</ele>
      </trkpt>
      <trkpt lat="43.95458" lon="5.69614">
        <ele>648.07</ele>
      </trkpt>
      <trkpt lat="43.95443" lon="5.69645">
        <ele>651.43</ele>
      </trkpt>
      <trkpt lat="43.95429" lon="5.69656">
        <ele>651.91</ele>
      </trkpt>
      <trkpt lat="43.95393" lon="5.69664">
        <ele>649.51</ele>
      </trkpt>
      <trkpt lat="43.95271" lon="5.69657">
        <ele>647.59</ele>
      </trkpt>
      <trkpt lat="43.95221" lon="5.69678">
        <ele>648.07</ele>
      </trkpt>
      <trkpt lat="43.952" lon="5.69679">
        <ele>646.62</ele>
      </trkpt>
      <trkpt lat="43.95098" lon="5.69661">
        <ele>641.34</ele>
      </trkpt>
      <trkpt lat="43.95025" lon="5.69616">
        <ele>634.61</ele>
      </trkpt>
      <trkpt lat="43.94976" lon="5.69612">
        <ele>630.28</ele>
      </trkpt>
      <trkpt lat="43.94868" lon="5.69635">
        <ele>627.88</ele>
      </trkpt>
      <trkpt lat="43.94761" lon="5.69603">
        <ele>620.19</ele>
      </trkpt>
      <trkpt lat="43.94595" lon="5.69529">
        <ele>600.48</ele>
      </trkpt>
      <trkpt lat="43.94579" lon="5.69519">
        <ele>597.6</ele>
      </trkpt>
      <trkpt lat="43.9458" lon="5.69508">
        <ele>596.15</ele>
      </trkpt>
      <trkpt lat="43.94832" lon="5.694">
        <ele>590.39</ele>
      </trkpt>
      <trkpt lat="43.94945" lon="5.69367">
        <ele>583.66</ele>
      </trkpt>
      <trkpt lat="43.95078" lon="5.69266">
        <ele>578.37</ele>
      </trkpt>
      <trkpt lat="43.95111" lon="5.69275">
        <ele>577.41</ele>
      </trkpt>
      <trkpt lat="43.95145" lon="5.6932">
        <ele>577.41</ele>
      </trkpt>
      <trkpt lat="43.9516" lon="5.69329">
        <ele>576.93</ele>
      </trkpt>
      <trkpt lat="43.95176" lon="5.69322">
        <ele>577.41</ele>
      </trkpt>
      <trkpt lat="43.95211" lon="5.69263">
        <ele>573.56</ele>
      </trkpt>
      <trkpt lat="43.95502" lon="5.69263">
        <ele>579.33</ele>
      </trkpt>
      <trkpt lat="43.95714" lon="5.69284">
        <ele>577.41</ele>
      </trkpt>
      <trkpt lat="43.9589" lon="5.69253">
        <ele>569.72</ele>
      </trkpt>
      <trkpt lat="43.95906" lon="5.69244">
        <ele>569.72</ele>
      </trkpt>
      <trkpt lat="43.95934" lon="5.6922">
        <ele>569.24</ele>
      </trkpt>
      <trkpt lat="43.95993" lon="5.69144">
        <ele>567.32</ele>
      </trkpt>
      <trkpt lat="43.96024" lon="5.69131">
        <ele>567.8</ele>
      </trkpt>
      <trkpt lat="43.96091" lon="5.69119">
        <ele>565.87</ele>
      </trkpt>
      <trkpt lat="43.96149" lon="5.69071">
        <ele>563.47</ele>
      </trkpt>
      <trkpt lat="43.962" lon="5.68954">
        <ele>560.59</ele>
      </trkpt>
      <trkpt lat="43.96265" lon="5.68895">
        <ele>556.74</ele>
      </trkpt>
      <trkpt lat="43.9631" lon="5.68778">
        <ele>555.78</ele>
      </trkpt>
      <trkpt lat="43.96515" lon="5.68601">
        <ele>555.3</ele>
      </trkpt>
      <trkpt lat="43.96664" lon="5.68327">
        <ele>554.82</ele>
      </trkpt>
      <trkpt lat="43.96678" lon="5.68312">
        <ele>555.78</ele>
      </trkpt>
      <trkpt lat="43.97193" lon="5.67976">
        <ele>558.66</ele>
      </trkpt>
      <trkpt lat="43.97217" lon="5.67931">
        <ele>556.74</ele>
      </trkpt>
      <trkpt lat="43.97736" lon="5.66602">
        <ele>574.53</ele>
      </trkpt>
      <trkpt lat="43.97761" lon="5.66576">
        <ele>573.08</ele>
      </trkpt>
      <trkpt lat="43.97898" lon="5.66544">
        <ele>578.37</ele>
      </trkpt>
      <trkpt lat="43.97913" lon="5.66529">
        <ele>578.37</ele>
      </trkpt>
      <trkpt lat="43.97917" lon="5.66505">
        <ele>579.33</ele>
      </trkpt>
      <trkpt lat="43.97898" lon="5.66302">
        <ele>588.46</ele>
      </trkpt>
      <trkpt lat="43.97902" lon="5.66275">
        <ele>588.95</ele>
      </trkpt>
      <trkpt lat="43.97921" lon="5.66235">
        <ele>593.75</ele>
      </trkpt>
      <trkpt lat="43.97962" lon="5.66183">
        <ele>596.15</ele>
      </trkpt>
      <trkpt lat="43.97995" lon="5.66094">
        <ele>601.92</ele>
      </trkpt>
      <trkpt lat="43.98018" lon="5.66068">
        <ele>603.85</ele>
      </trkpt>
      <trkpt lat="43.98098" lon="5.66002">
        <ele>608.65</ele>
      </trkpt>
      <trkpt lat="43.98201" lon="5.65804">
        <ele>622.11</ele>
      </trkpt>
      <trkpt lat="43.98258" lon="5.65376">
        <ele>639.89</ele>
      </trkpt>
      <trkpt lat="43.98268" lon="5.65341">
        <ele>638.45</ele>
      </trkpt>
      <trkpt lat="43.9838" lon="5.6519">
        <ele>646.62</ele>
      </trkpt>
      <trkpt lat="43.98539" lon="5.65053">
        <ele>646.14</ele>
      </trkpt>
      <trkpt lat="43.9855" lon="5.6505">
        <ele>644.7</ele>
      </trkpt>
      <trkpt lat="43.98562" lon="5.6506">
        <ele>644.22</ele>
      </trkpt>
      <trkpt lat="43.98646" lon="5.65271">
        <ele>649.03</ele>
      </trkpt>
      <trkpt lat="43.98674" lon="5.65278">
        <ele>650.47</ele>
      </trkpt>
      <trkpt lat="43.9871" lon="5.65317">
        <ele>656.72</ele>
      </trkpt>
      <trkpt lat="43.98742" lon="5.65336">
        <ele>660.56</ele>
      </trkpt>
      <trkpt lat="43.98759" lon="5.65359">
        <ele>662.49</ele>
      </trkpt>
      <trkpt lat="43.98766" lon="5.65383">
        <ele>664.41</ele>
      </trkpt>
      <trkpt lat="43.98818" lon="5.65431">
        <ele>671.62</ele>
      </trkpt>
      <trkpt lat="43.98876" lon="5.65455">
        <ele>675.94</ele>
      </trkpt>
      <trkpt lat="43.99101" lon="5.65602">
        <ele>693.73</ele>
      </trkpt>
      <trkpt lat="43.99179" lon="5.65613">
        <ele>701.9</ele>
      </trkpt>
      <trkpt lat="43.99194" lon="5.65641">
        <ele>703.82</ele>
      </trkpt>
      <trkpt lat="43.99258" lon="5.6569">
        <ele>705.75</ele>
      </trkpt>
      <trkpt lat="43.99319" lon="5.6578">
        <ele>703.34</ele>
      </trkpt>
      <trkpt lat="43.9945" lon="5.65916">
        <ele>696.13</ele>
      </trkpt>
      <trkpt lat="43.9948" lon="5.65907">
        <ele>695.17</ele>
      </trkpt>
      <trkpt lat="43.99528" lon="5.65952">
        <ele>696.13</ele>
      </trkpt>
      <trkpt lat="43.99567" lon="5.65973">
        <ele>694.69</ele>
      </trkpt>
      <trkpt lat="43.99548" lon="5.65957">
        <ele>695.65</ele>
      </trkpt>
      <trkpt lat="43.9956" lon="5.65958">
        <ele>695.65</ele>
      </trkpt>
      <trkpt lat="43.99553" lon="5.65958">
        <ele>700.94</ele>
      </trkpt>
      <trkpt lat="43.99569" lon="5.65974">
        <ele>701.9</ele>
      </trkpt>
      <trkpt lat="43.99593" lon="5.66019">
        <ele>700.46</ele>
      </trkpt>
      <trkpt lat="43.996" lon="5.66061">
        <ele>695.17</ele>
      </trkpt>
      <trkpt lat="43.99666" lon="5.6616">
        <ele>697.09</ele>
      </trkpt>
      <trkpt lat="43.99679" lon="5.66155">
        <ele>700.46</ele>
      </trkpt>
      <trkpt lat="43.99696" lon="5.66113">
        <ele>705.75</ele>
      </trkpt>
      <trkpt lat="43.99723" lon="5.66105">
        <ele>709.59</ele>
      </trkpt>
      <trkpt lat="43.99765" lon="5.66107">
        <ele>715.36</ele>
      </trkpt>
      <trkpt lat="43.99886" lon="5.66079">
        <ele>722.09</ele>
      </trkpt>
      <trkpt lat="43.99965" lon="5.66093">
        <ele>720.65</ele>
      </trkpt>
      <trkpt lat="43.99999" lon="5.66089">
        <ele>720.65</ele>
      </trkpt>
      <trkpt lat="44.0007" lon="5.66121">
        <ele>722.57</ele>
      </trkpt>
      <trkpt lat="44.00571" lon="5.66428">
        <ele>761.98</ele>
      </trkpt>
      <trkpt lat="44.00588" lon="5.66451">
        <ele>761.98</ele>
      </trkpt>
      <trkpt lat="44.00594" lon="5.66446">
        <ele>761.98</ele>
      </trkpt>
      <trkpt lat="44.0059" lon="5.66452">
        <ele>761.98</ele>
      </trkpt>
      <trkpt lat="44.00586" lon="5.66449">
        <ele>761.98</ele>
      </trkpt>
      <trkpt lat="44.00615" lon="5.66435">
        <ele>766.31</ele>
      </trkpt>
      <trkpt lat="44.00639" lon="5.66441">
        <ele>768.71</ele>
      </trkpt>
      <trkpt lat="44.00665" lon="5.66429">
        <ele>770.63</ele>
      </trkpt>
      <trkpt lat="44.00749" lon="5.66304">
        <ele>791.78</ele>
      </trkpt>
      <trkpt lat="44.00832" lon="5.66283">
        <ele>801.4</ele>
      </trkpt>
      <trkpt lat="44.00893" lon="5.66225">
        <ele>805.72</ele>
      </trkpt>
      <trkpt lat="44.00899" lon="5.66172">
        <ele>804.28</ele>
      </trkpt>
      <trkpt lat="44.00948" lon="5.66132">
        <ele>809.09</ele>
      </trkpt>
      <trkpt lat="44.01037" lon="5.65942">
        <ele>818.22</ele>
      </trkpt>
      <trkpt lat="44.01065" lon="5.65898">
        <ele>821.1</ele>
      </trkpt>
      <trkpt lat="44.01085" lon="5.65877">
        <ele>823.99</ele>
      </trkpt>
      <trkpt lat="44.01106" lon="5.65872">
        <ele>827.35</ele>
      </trkpt>
      <trkpt lat="44.01232" lon="5.65785">
        <ele>844.18</ele>
      </trkpt>
      <trkpt lat="44.01294" lon="5.65767">
        <ele>850.42</ele>
      </trkpt>
      <trkpt lat="44.01367" lon="5.65759">
        <ele>860.04</ele>
      </trkpt>
      <trkpt lat="44.01409" lon="5.65741">
        <ele>865.8</ele>
      </trkpt>
      <trkpt lat="44.01469" lon="5.65699">
        <ele>873.98</ele>
      </trkpt>
      <trkpt lat="44.01567" lon="5.65714">
        <ele>876.38</ele>
      </trkpt>
      <trkpt lat="44.01617" lon="5.65702">
        <ele>877.34</ele>
      </trkpt>
      <trkpt lat="44.01665" lon="5.65663">
        <ele>878.78</ele>
      </trkpt>
      <trkpt lat="44.01702" lon="5.65662">
        <ele>879.74</ele>
      </trkpt>
      <trkpt lat="44.01886" lon="5.65703">
        <ele>869.17</ele>
      </trkpt>
      <trkpt lat="44.01924" lon="5.65675">
        <ele>863.88</ele>
      </trkpt>
      <trkpt lat="44.01948" lon="5.65646">
        <ele>860.52</ele>
      </trkpt>
      <trkpt lat="44.02075" lon="5.65553">
        <ele>859.56</ele>
      </trkpt>
      <trkpt lat="44.02177" lon="5.65518">
        <ele>851.38</ele>
      </trkpt>
      <trkpt lat="44.02387" lon="5.6549">
        <ele>836</ele>
      </trkpt>
      <trkpt lat="44.02534" lon="5.65522">
        <ele>822.06</ele>
      </trkpt>
      <trkpt lat="44.02567" lon="5.65519">
        <ele>817.26</ele>
      </trkpt>
      <trkpt lat="44.0259" lon="5.65509">
        <ele>813.89</ele>
      </trkpt>
      <trkpt lat="44.0264" lon="5.65465">
        <ele>809.57</ele>
      </trkpt>
      <trkpt lat="44.02736" lon="5.65416">
        <ele>808.61</ele>
      </trkpt>
      <trkpt lat="44.02773" lon="5.65408">
        <ele>809.09</ele>
      </trkpt>
      <trkpt lat="44.02996" lon="5.65434">
        <ele>806.2</ele>
      </trkpt>
      <trkpt lat="44.03043" lon="5.65415">
        <ele>804.28</ele>
      </trkpt>
      <trkpt lat="44.03138" lon="5.654">
        <ele>801.4</ele>
      </trkpt>
      <trkpt lat="44.03171" lon="5.65403">
        <ele>800.92</ele>
      </trkpt>
      <trkpt lat="44.03192" lon="5.65381">
        <ele>802.36</ele>
      </trkpt>
      <trkpt lat="44.03233" lon="5.65307">
        <ele>804.28</ele>
      </trkpt>
      <trkpt lat="44.03306" lon="5.65223">
        <ele>803.8</ele>
      </trkpt>
      <trkpt lat="44.03486" lon="5.65131">
        <ele>802.36</ele>
      </trkpt>
      <trkpt lat="44.03569" lon="5.65113">
        <ele>800.92</ele>
      </trkpt>
      <trkpt lat="44.03688" lon="5.64824">
        <ele>794.19</ele>
      </trkpt>
      <trkpt lat="44.037" lon="5.64719">
        <ele>789.38</ele>
      </trkpt>
      <trkpt lat="44.03683" lon="5.64629">
        <ele>785.05</ele>
      </trkpt>
      <trkpt lat="44.03689" lon="5.6463">
        <ele>784.09</ele>
      </trkpt>
      <trkpt lat="44.03748" lon="5.64733">
        <ele>777.84</ele>
      </trkpt>
      <trkpt lat="44.03784" lon="5.64748">
        <ele>774.48</ele>
      </trkpt>
      <trkpt lat="44.03823" lon="5.64777">
        <ele>772.08</ele>
      </trkpt>
      <trkpt lat="44.03842" lon="5.64812">
        <ele>768.71</ele>
      </trkpt>
      <trkpt lat="44.03892" lon="5.64821">
        <ele>764.39</ele>
      </trkpt>
      <trkpt lat="44.03896" lon="5.64806">
        <ele>763.42</ele>
      </trkpt>
      <trkpt lat="44.03684" lon="5.64444">
        <ele>733.62</ele>
      </trkpt>
      <trkpt lat="44.0369" lon="5.64436">
        <ele>731.7</ele>
      </trkpt>
      <trkpt lat="44.03722" lon="5.64434">
        <ele>727.86</ele>
      </trkpt>
      <trkpt lat="44.0377" lon="5.64413">
        <ele>723.53</ele>
      </trkpt>
      <trkpt lat="44.03786" lon="5.64389">
        <ele>722.09</ele>
      </trkpt>
      <trkpt lat="44.03861" lon="5.63737">
        <ele>737.95</ele>
      </trkpt>
      <trkpt lat="44.03858" lon="5.63714">
        <ele>740.35</ele>
      </trkpt>
      <trkpt lat="44.03258" lon="5.63573">
        <ele>736.99</ele>
      </trkpt>
      <trkpt lat="44.03001" lon="5.63441">
        <ele>729.78</ele>
      </trkpt>
      <trkpt lat="44.02988" lon="5.63426">
        <ele>728.82</ele>
      </trkpt>
      <trkpt lat="44.02922" lon="5.63385">
        <ele>726.89</ele>
      </trkpt>
      <trkpt lat="44.02634" lon="5.63111">
        <ele>721.13</ele>
      </trkpt>
      <trkpt lat="44.02483" lon="5.63005">
        <ele>715.36</ele>
      </trkpt>
      <trkpt lat="44.02457" lon="5.6296">
        <ele>713.92</ele>
      </trkpt>
      <trkpt lat="44.02421" lon="5.62803">
        <ele>709.59</ele>
      </trkpt>
      <trkpt lat="44.02412" lon="5.62795">
        <ele>710.55</ele>
      </trkpt>
      <trkpt lat="44.02066" lon="5.62689">
        <ele>704.3</ele>
      </trkpt>
      <trkpt lat="44.01951" lon="5.62635">
        <ele>701.9</ele>
      </trkpt>
      <trkpt lat="44.01812" lon="5.62534">
        <ele>695.17</ele>
      </trkpt>
      <trkpt lat="44.0117" lon="5.6227">
        <ele>667.29</ele>
      </trkpt>
      <trkpt lat="44.01004" lon="5.62252">
        <ele>656.24</ele>
      </trkpt>
      <trkpt lat="44.00989" lon="5.62238">
        <ele>654.31</ele>
      </trkpt>
      <trkpt lat="44.00989" lon="5.62212">
        <ele>653.83</ele>
      </trkpt>
      <trkpt lat="44.01023" lon="5.62098">
        <ele>650.47</ele>
      </trkpt>
      <trkpt lat="44.01047" lon="5.6205">
        <ele>648.07</ele>
      </trkpt>
      <trkpt lat="44.01068" lon="5.62026">
        <ele>647.1</ele>
      </trkpt>
      <trkpt lat="44.01093" lon="5.62011">
        <ele>644.7</ele>
      </trkpt>
      <trkpt lat="44.0117" lon="5.62">
        <ele>640.38</ele>
      </trkpt>
      <trkpt lat="44.01189" lon="5.61984">
        <ele>639.41</ele>
      </trkpt>
      <trkpt lat="44.01197" lon="5.61958">
        <ele>638.45</ele>
      </trkpt>
      <trkpt lat="44.01196" lon="5.61944">
        <ele>638.45</ele>
      </trkpt>
      <trkpt lat="44.01031" lon="5.61636">
        <ele>646.62</ele>
      </trkpt>
      <trkpt lat="44.01241" lon="5.60966">
        <ele>676.91</ele>
      </trkpt>
      <trkpt lat="44.01234" lon="5.60566">
        <ele>693.73</ele>
      </trkpt>
      <trkpt lat="44.01242" lon="5.60533">
        <ele>695.17</ele>
      </trkpt>
      <trkpt lat="44.013" lon="5.60448">
        <ele>701.42</ele>
      </trkpt>
      <trkpt lat="44.01354" lon="5.60411">
        <ele>707.19</ele>
      </trkpt>
      <trkpt lat="44.01372" lon="5.60408">
        <ele>707.67</ele>
      </trkpt>
      <trkpt lat="44.01442" lon="5.60428">
        <ele>711.51</ele>
      </trkpt>
      <trkpt lat="44.01535" lon="5.60435">
        <ele>716.8</ele>
      </trkpt>
      <trkpt lat="44.01606" lon="5.60453">
        <ele>720.65</ele>
      </trkpt>
      <trkpt lat="44.01692" lon="5.60436">
        <ele>724.97</ele>
      </trkpt>
      <trkpt lat="44.01768" lon="5.60408">
        <ele>727.86</ele>
      </trkpt>
      <trkpt lat="44.01949" lon="5.60309">
        <ele>736.99</ele>
      </trkpt>
      <trkpt lat="44.02034" lon="5.60291">
        <ele>740.83</ele>
      </trkpt>
      <trkpt lat="44.02175" lon="5.60339">
        <ele>747.08</ele>
      </trkpt>
      <trkpt lat="44.0225" lon="5.60316">
        <ele>749.97</ele>
      </trkpt>
      <trkpt lat="44.0232" lon="5.60312">
        <ele>755.25</ele>
      </trkpt>
      <trkpt lat="44.02367" lon="5.60302">
        <ele>756.69</ele>
      </trkpt>
      <trkpt lat="44.02496" lon="5.60317">
        <ele>763.42</ele>
      </trkpt>
      <trkpt lat="44.02535" lon="5.60302">
        <ele>765.35</ele>
      </trkpt>
      <trkpt lat="44.02573" lon="5.60318">
        <ele>768.23</ele>
      </trkpt>
      <trkpt lat="44.02614" lon="5.60325">
        <ele>771.11</ele>
      </trkpt>
      <trkpt lat="44.0266" lon="5.60345">
        <ele>772.56</ele>
      </trkpt>
      <trkpt lat="44.02923" lon="5.60323">
        <ele>781.21</ele>
      </trkpt>
      <trkpt lat="44.02982" lon="5.60346">
        <ele>785.05</ele>
      </trkpt>
      <trkpt lat="44.03095" lon="5.60356">
        <ele>787.46</ele>
      </trkpt>
      <trkpt lat="44.03129" lon="5.6038">
        <ele>788.42</ele>
      </trkpt>
      <trkpt lat="44.03176" lon="5.60524">
        <ele>794.67</ele>
      </trkpt>
      <trkpt lat="44.03193" lon="5.60553">
        <ele>796.59</ele>
      </trkpt>
      <trkpt lat="44.0323" lon="5.60581">
        <ele>798.03</ele>
      </trkpt>
      <trkpt lat="44.03257" lon="5.60583">
        <ele>800.44</ele>
      </trkpt>
      <trkpt lat="44.03288" lon="5.60563">
        <ele>801.88</ele>
      </trkpt>
      <trkpt lat="44.034" lon="5.60439">
        <ele>810.05</ele>
      </trkpt>
      <trkpt lat="44.03419" lon="5.60431">
        <ele>811.01</ele>
      </trkpt>
      <trkpt lat="44.0344" lon="5.60432">
        <ele>811.49</ele>
      </trkpt>
      <trkpt lat="44.03555" lon="5.60487">
        <ele>814.85</ele>
      </trkpt>
      <trkpt lat="44.03657" lon="5.60442">
        <ele>819.18</ele>
      </trkpt>
      <trkpt lat="44.03725" lon="5.60391">
        <ele>823.03</ele>
      </trkpt>
      <trkpt lat="44.03754" lon="5.60381">
        <ele>823.51</ele>
      </trkpt>
      <trkpt lat="44.03844" lon="5.6041">
        <ele>826.87</ele>
      </trkpt>
      <trkpt lat="44.0395" lon="5.60496">
        <ele>831.2</ele>
      </trkpt>
      <trkpt lat="44.03986" lon="5.60491">
        <ele>833.12</ele>
      </trkpt>
      <trkpt lat="44.04109" lon="5.6043">
        <ele>837.93</ele>
      </trkpt>
      <trkpt lat="44.04216" lon="5.60402">
        <ele>843.21</ele>
      </trkpt>
      <trkpt lat="44.04244" lon="5.60403">
        <ele>844.18</ele>
      </trkpt>
      <trkpt lat="44.04265" lon="5.60415">
        <ele>844.18</ele>
      </trkpt>
      <trkpt lat="44.04316" lon="5.60467">
        <ele>848.02</ele>
      </trkpt>
      <trkpt lat="44.04346" lon="5.60487">
        <ele>849.94</ele>
      </trkpt>
      <trkpt lat="44.04405" lon="5.6051">
        <ele>852.83</ele>
      </trkpt>
      <trkpt lat="44.0445" lon="5.60485">
        <ele>855.71</ele>
      </trkpt>
      <trkpt lat="44.04477" lon="5.60461">
        <ele>856.67</ele>
      </trkpt>
      <trkpt lat="44.04507" lon="5.60413">
        <ele>860.52</ele>
      </trkpt>
      <trkpt lat="44.04513" lon="5.60394">
        <ele>861.48</ele>
      </trkpt>
      <trkpt lat="44.04478" lon="5.60281">
        <ele>866.77</ele>
      </trkpt>
      <trkpt lat="44.04478" lon="5.6018">
        <ele>872.05</ele>
      </trkpt>
      <trkpt lat="44.04459" lon="5.60121">
        <ele>876.38</ele>
      </trkpt>
      <trkpt lat="44.04453" lon="5.60057">
        <ele>880.71</ele>
      </trkpt>
      <trkpt lat="44.04428" lon="5.59997">
        <ele>884.55</ele>
      </trkpt>
      <trkpt lat="44.04394" lon="5.59945">
        <ele>888.4</ele>
      </trkpt>
      <trkpt lat="44.04377" lon="5.59893">
        <ele>892.24</ele>
      </trkpt>
      <trkpt lat="44.04371" lon="5.59843">
        <ele>895.61</ele>
      </trkpt>
      <trkpt lat="44.04388" lon="5.5969">
        <ele>904.26</ele>
      </trkpt>
      <trkpt lat="44.04382" lon="5.59673">
        <ele>909.06</ele>
      </trkpt>
      <trkpt lat="44.0427" lon="5.59436">
        <ele>925.89</ele>
      </trkpt>
      <trkpt lat="44.04276" lon="5.59353">
        <ele>928.77</ele>
      </trkpt>
      <trkpt lat="44.04302" lon="5.59258">
        <ele>933.58</ele>
      </trkpt>
      <trkpt lat="44.04295" lon="5.59251">
        <ele>934.06</ele>
      </trkpt>
      <trkpt lat="44.0415" lon="5.59396">
        <ele>949.92</ele>
      </trkpt>
      <trkpt lat="44.04123" lon="5.5941">
        <ele>951.84</ele>
      </trkpt>
      <trkpt lat="44.04105" lon="5.59405">
        <ele>952.32</ele>
      </trkpt>
      <trkpt lat="44.04109" lon="5.59187">
        <ele>956.17</ele>
      </trkpt>
      <trkpt lat="44.04085" lon="5.59037">
        <ele>959.05</ele>
      </trkpt>
      <trkpt lat="44.04058" lon="5.58964">
        <ele>958.57</ele>
      </trkpt>
      <trkpt lat="44.04053" lon="5.5893">
        <ele>959.05</ele>
      </trkpt>
      <trkpt lat="44.04056" lon="5.58891">
        <ele>959.53</ele>
      </trkpt>
      <trkpt lat="44.04071" lon="5.58845">
        <ele>960.49</ele>
      </trkpt>
      <trkpt lat="44.04293" lon="5.58653">
        <ele>965.78</ele>
      </trkpt>
      <trkpt lat="44.04328" lon="5.58642">
        <ele>966.74</ele>
      </trkpt>
      <trkpt lat="44.04424" lon="5.58638">
        <ele>966.74</ele>
      </trkpt>
      <trkpt lat="44.04489" lon="5.586">
        <ele>966.26</ele>
      </trkpt>
      <trkpt lat="44.04607" lon="5.58445">
        <ele>967.22</ele>
      </trkpt>
      <trkpt lat="44.04648" lon="5.58408">
        <ele>966.74</ele>
      </trkpt>
      <trkpt lat="44.04695" lon="5.5838">
        <ele>964.82</ele>
      </trkpt>
      <trkpt lat="44.04768" lon="5.58352">
        <ele>963.86</ele>
      </trkpt>
      <trkpt lat="44.04921" lon="5.5843">
        <ele>960.49</ele>
      </trkpt>
      <trkpt lat="44.05051" lon="5.58373">
        <ele>956.17</ele>
      </trkpt>
      <trkpt lat="44.05064" lon="5.58363">
        <ele>954.73</ele>
      </trkpt>
      <trkpt lat="44.05072" lon="5.58331">
        <ele>954.25</ele>
      </trkpt>
      <trkpt lat="44.05071" lon="5.58217">
        <ele>950.88</ele>
      </trkpt>
      <trkpt lat="44.05083" lon="5.58197">
        <ele>948.96</ele>
      </trkpt>
      <trkpt lat="44.05154" lon="5.58136">
        <ele>941.75</ele>
      </trkpt>
      <trkpt lat="44.0519" lon="5.5813">
        <ele>938.86</ele>
      </trkpt>
      <trkpt lat="44.05225" lon="5.58135">
        <ele>935.98</ele>
      </trkpt>
      <trkpt lat="44.05391" lon="5.58069">
        <ele>925.89</ele>
      </trkpt>
      <trkpt lat="44.05414" lon="5.58069">
        <ele>923</ele>
      </trkpt>
      <trkpt lat="44.05429" lon="5.58056">
        <ele>922.52</ele>
      </trkpt>
      <trkpt lat="44.05439" lon="5.58025">
        <ele>922.04</ele>
      </trkpt>
      <trkpt lat="44.05442" lon="5.57978">
        <ele>920.6</ele>
      </trkpt>
      <trkpt lat="44.05428" lon="5.57927">
        <ele>920.12</ele>
      </trkpt>
      <trkpt lat="44.05407" lon="5.57894">
        <ele>919.16</ele>
      </trkpt>
      <trkpt lat="44.05351" lon="5.57858">
        <ele>916.27</ele>
      </trkpt>
      <trkpt lat="44.05337" lon="5.57841">
        <ele>914.83</ele>
      </trkpt>
      <trkpt lat="44.05337" lon="5.57788">
        <ele>911.95</ele>
      </trkpt>
      <trkpt lat="44.05322" lon="5.57731">
        <ele>910.51</ele>
      </trkpt>
      <trkpt lat="44.05335" lon="5.57657">
        <ele>907.14</ele>
      </trkpt>
      <trkpt lat="44.05319" lon="5.57432">
        <ele>894.64</ele>
      </trkpt>
      <trkpt lat="44.05291" lon="5.57334">
        <ele>888.4</ele>
      </trkpt>
      <trkpt lat="44.05291" lon="5.57282">
        <ele>885.99</ele>
      </trkpt>
      <trkpt lat="44.05311" lon="5.57223">
        <ele>881.67</ele>
      </trkpt>
      <trkpt lat="44.05309" lon="5.57048">
        <ele>873.5</ele>
      </trkpt>
      <trkpt lat="44.0527" lon="5.56958">
        <ele>866.77</ele>
      </trkpt>
      <trkpt lat="44.05225" lon="5.56923">
        <ele>864.84</ele>
      </trkpt>
      <trkpt lat="44.05209" lon="5.56894">
        <ele>861.96</ele>
      </trkpt>
      <trkpt lat="44.05203" lon="5.56842">
        <ele>859.08</ele>
      </trkpt>
      <trkpt lat="44.05219" lon="5.5679">
        <ele>854.75</ele>
      </trkpt>
      <trkpt lat="44.05243" lon="5.56767">
        <ele>854.75</ele>
      </trkpt>
      <trkpt lat="44.05313" lon="5.56746">
        <ele>862.92</ele>
      </trkpt>
      <trkpt lat="44.05421" lon="5.56738">
        <ele>875.9</ele>
      </trkpt>
      <trkpt lat="44.05437" lon="5.56742">
        <ele>879.26</ele>
      </trkpt>
      <trkpt lat="44.05539" lon="5.56865">
        <ele>889.36</ele>
      </trkpt>
      <trkpt lat="44.05485" lon="5.56728">
        <ele>900.89</ele>
      </trkpt>
      <trkpt lat="44.05452" lon="5.56688">
        <ele>904.26</ele>
      </trkpt>
      <trkpt lat="44.05435" lon="5.56635">
        <ele>906.66</ele>
      </trkpt>
      <trkpt lat="44.05446" lon="5.56586">
        <ele>908.58</ele>
      </trkpt>
      <trkpt lat="44.05491" lon="5.56545">
        <ele>908.58</ele>
      </trkpt>
      <trkpt lat="44.0553" lon="5.56543">
        <ele>905.22</ele>
      </trkpt>
      <trkpt lat="44.05569" lon="5.56557">
        <ele>902.33</ele>
      </trkpt>
      <trkpt lat="44.05621" lon="5.56591">
        <ele>903.3</ele>
      </trkpt>
      <trkpt lat="44.05681" lon="5.56615">
        <ele>905.22</ele>
      </trkpt>
      <trkpt lat="44.05816" lon="5.56588">
        <ele>908.58</ele>
      </trkpt>
      <trkpt lat="44.0587" lon="5.56586">
        <ele>911.47</ele>
      </trkpt>
      <trkpt lat="44.06072" lon="5.56492">
        <ele>918.68</ele>
      </trkpt>
      <trkpt lat="44.06215" lon="5.5641">
        <ele>927.81</ele>
      </trkpt>
      <trkpt lat="44.06243" lon="5.56402">
        <ele>927.81</ele>
      </trkpt>
      <trkpt lat="44.06244" lon="5.5641">
        <ele>928.77</ele>
      </trkpt>
      <trkpt lat="44.06245" lon="5.56403">
        <ele>929.25</ele>
      </trkpt>
      <trkpt lat="44.06249" lon="5.56407">
        <ele>929.73</ele>
      </trkpt>
      <trkpt lat="44.06244" lon="5.56402">
        <ele>930.21</ele>
      </trkpt>
      <trkpt lat="44.06299" lon="5.56387">
        <ele>930.21</ele>
      </trkpt>
      <trkpt lat="44.06635" lon="5.56191">
        <ele>930.69</ele>
      </trkpt>
      <trkpt lat="44.06869" lon="5.55913">
        <ele>929.73</ele>
      </trkpt>
      <trkpt lat="44.06899" lon="5.55852">
        <ele>929.25</ele>
      </trkpt>
      <trkpt lat="44.0691" lon="5.55841">
        <ele>928.29</ele>
      </trkpt>
      <trkpt lat="44.06982" lon="5.55806">
        <ele>925.89</ele>
      </trkpt>
      <trkpt lat="44.07044" lon="5.55789">
        <ele>927.33</ele>
      </trkpt>
      <trkpt lat="44.07071" lon="5.55795">
        <ele>927.81</ele>
      </trkpt>
      <trkpt lat="44.07239" lon="5.55782">
        <ele>931.65</ele>
      </trkpt>
      <trkpt lat="44.07278" lon="5.55787">
        <ele>933.1</ele>
      </trkpt>
      <trkpt lat="44.07524" lon="5.55774">
        <ele>927.33</ele>
      </trkpt>
      <trkpt lat="44.07654" lon="5.5569">
        <ele>928.77</ele>
      </trkpt>
      <trkpt lat="44.07684" lon="5.55693">
        <ele>932.62</ele>
      </trkpt>
      <trkpt lat="44.08057" lon="5.55288">
        <ele>930.21</ele>
      </trkpt>
      <trkpt lat="44.08141" lon="5.55103">
        <ele>933.58</ele>
      </trkpt>
      <trkpt lat="44.08154" lon="5.55087">
        <ele>935.5</ele>
      </trkpt>
      <trkpt lat="44.08373" lon="5.55042">
        <ele>933.58</ele>
      </trkpt>
      <trkpt lat="44.08403" lon="5.55051">
        <ele>932.62</ele>
      </trkpt>
      <trkpt lat="44.0843" lon="5.55071">
        <ele>932.14</ele>
      </trkpt>
      <trkpt lat="44.08572" lon="5.55246">
        <ele>932.62</ele>
      </trkpt>
      <trkpt lat="44.08647" lon="5.55403">
        <ele>935.98</ele>
      </trkpt>
      <trkpt lat="44.0899" lon="5.55831">
        <ele>954.73</ele>
      </trkpt>
      <trkpt lat="44.09138" lon="5.55919">
        <ele>963.38</ele>
      </trkpt>
      <trkpt lat="44.09187" lon="5.55966">
        <ele>968.18</ele>
      </trkpt>
      <trkpt lat="44.09293" lon="5.56133">
        <ele>974.43</ele>
      </trkpt>
      <trkpt lat="44.09394" lon="5.56385">
        <ele>976.84</ele>
      </trkpt>
      <trkpt lat="44.09421" lon="5.56419">
        <ele>978.76</ele>
      </trkpt>
      <trkpt lat="44.09612" lon="5.56589">
        <ele>989.81</ele>
      </trkpt>
      <trkpt lat="44.09653" lon="5.56644">
        <ele>992.7</ele>
      </trkpt>
      <trkpt lat="44.09717" lon="5.56774">
        <ele>999.91</ele>
      </trkpt>
      <trkpt lat="44.09771" lon="5.56971">
        <ele>1014.33</ele>
      </trkpt>
      <trkpt lat="44.09883" lon="5.5708">
        <ele>1027.31</ele>
      </trkpt>
      <trkpt lat="44.09938" lon="5.5723">
        <ele>1037.4</ele>
      </trkpt>
      <trkpt lat="44.09963" lon="5.57267">
        <ele>1038.36</ele>
      </trkpt>
      <trkpt lat="44.09997" lon="5.57273">
        <ele>1037.88</ele>
      </trkpt>
      <trkpt lat="44.10064" lon="5.57256">
        <ele>1038.36</ele>
      </trkpt>
      <trkpt lat="44.10159" lon="5.57196">
        <ele>1039.32</ele>
      </trkpt>
      <trkpt lat="44.1039" lon="5.5715">
        <ele>1039.32</ele>
      </trkpt>
      <trkpt lat="44.1046" lon="5.57122">
        <ele>1038.84</ele>
      </trkpt>
      <trkpt lat="44.10495" lon="5.57122">
        <ele>1038.84</ele>
      </trkpt>
      <trkpt lat="44.10544" lon="5.57155">
        <ele>1039.8</ele>
      </trkpt>
      <trkpt lat="44.10696" lon="5.57331">
        <ele>1039.8</ele>
      </trkpt>
      <trkpt lat="44.10726" lon="5.57354">
        <ele>1038.84</ele>
      </trkpt>
      <trkpt lat="44.10777" lon="5.57357">
        <ele>1039.32</ele>
      </trkpt>
      <trkpt lat="44.10952" lon="5.57313">
        <ele>1039.8</ele>
      </trkpt>
      <trkpt lat="44.11094" lon="5.57344">
        <ele>1038.36</ele>
      </trkpt>
      <trkpt lat="44.11222" lon="5.57434">
        <ele>1040.28</ele>
      </trkpt>
      <trkpt lat="44.11309" lon="5.57457">
        <ele>1042.69</ele>
      </trkpt>
      <trkpt lat="44.11343" lon="5.57477">
        <ele>1043.65</ele>
      </trkpt>
      <trkpt lat="44.11479" lon="5.57613">
        <ele>1047.01</ele>
      </trkpt>
      <trkpt lat="44.1166" lon="5.57697">
        <ele>1052.3</ele>
      </trkpt>
      <trkpt lat="44.11697" lon="5.57697">
        <ele>1052.78</ele>
      </trkpt>
      <trkpt lat="44.11771" lon="5.57667">
        <ele>1054.7</ele>
      </trkpt>
      <trkpt lat="44.11857" lon="5.57594">
        <ele>1057.59</ele>
      </trkpt>
      <trkpt lat="44.11893" lon="5.57575">
        <ele>1058.07</ele>
      </trkpt>
      <trkpt lat="44.11951" lon="5.57577">
        <ele>1060.47</ele>
      </trkpt>
      <trkpt lat="44.12001" lon="5.57611">
        <ele>1060.95</ele>
      </trkpt>
      <trkpt lat="44.12087" lon="5.57703">
        <ele>1061.43</ele>
      </trkpt>
      <trkpt lat="44.12206" lon="5.57742">
        <ele>1059.51</ele>
      </trkpt>
      <trkpt lat="44.12235" lon="5.57762">
        <ele>1060.95</ele>
      </trkpt>
      <trkpt lat="44.12287" lon="5.57814">
        <ele>1063.36</ele>
      </trkpt>
      <trkpt lat="44.12339" lon="5.57907">
        <ele>1066.24</ele>
      </trkpt>
      <trkpt lat="44.12369" lon="5.57929">
        <ele>1066.72</ele>
      </trkpt>
      <trkpt lat="44.12404" lon="5.57936">
        <ele>1068.16</ele>
      </trkpt>
      <trkpt lat="44.12514" lon="5.57919">
        <ele>1073.45</ele>
      </trkpt>
      <trkpt lat="44.1257" lon="5.57919">
        <ele>1076.33</ele>
      </trkpt>
      <trkpt lat="44.12625" lon="5.57941">
        <ele>1078.26</ele>
      </trkpt>
      <trkpt lat="44.13176" lon="5.58464">
        <ele>1109.02</ele>
      </trkpt>
      <trkpt lat="44.13181" lon="5.58479">
        <ele>1110.46</ele>
      </trkpt>
      <trkpt lat="44.13176" lon="5.58502">
        <ele>1111.42</ele>
      </trkpt>
      <trkpt lat="44.13179" lon="5.58661">
        <ele>1113.82</ele>
      </trkpt>
      <trkpt lat="44.13188" lon="5.58697">
        <ele>1113.82</ele>
      </trkpt>
      <trkpt lat="44.13216" lon="5.58743">
        <ele>1114.79</ele>
      </trkpt>
      <trkpt lat="44.13268" lon="5.5898">
        <ele>1121.52</ele>
      </trkpt>
      <trkpt lat="44.13417" lon="5.59196">
        <ele>1127.28</ele>
      </trkpt>
      <trkpt lat="44.13417" lon="5.5919">
        <ele>1128.24</ele>
      </trkpt>
      <trkpt lat="44.13418" lon="5.59199">
        <ele>1128.73</ele>
      </trkpt>
      <trkpt lat="44.1342" lon="5.59187">
        <ele>1127.76</ele>
      </trkpt>
      <trkpt lat="44.13461" lon="5.59243">
        <ele>1131.61</ele>
      </trkpt>
      <trkpt lat="44.13554" lon="5.59296">
        <ele>1135.45</ele>
      </trkpt>
      <trkpt lat="44.13634" lon="5.59373">
        <ele>1139.3</ele>
      </trkpt>
      <trkpt lat="44.13687" lon="5.59508">
        <ele>1145.07</ele>
      </trkpt>
      <trkpt lat="44.1379" lon="5.59669">
        <ele>1153.24</ele>
      </trkpt>
      <trkpt lat="44.13878" lon="5.59984">
        <ele>1171.5</ele>
      </trkpt>
      <trkpt lat="44.13893" lon="5.6001">
        <ele>1172.95</ele>
      </trkpt>
      <trkpt lat="44.13932" lon="5.60037">
        <ele>1176.31</ele>
      </trkpt>
      <trkpt lat="44.14167" lon="5.60133">
        <ele>1196.02</ele>
      </trkpt>
      <trkpt lat="44.14272" lon="5.60199">
        <ele>1206.11</ele>
      </trkpt>
      <trkpt lat="44.14301" lon="5.60208">
        <ele>1208.51</ele>
      </trkpt>
      <trkpt lat="44.14335" lon="5.60172">
        <ele>1211.88</ele>
      </trkpt>
      <trkpt lat="44.14372" lon="5.60155">
        <ele>1214.76</ele>
      </trkpt>
      <trkpt lat="44.14401" lon="5.60152">
        <ele>1217.65</ele>
      </trkpt>
      <trkpt lat="44.14447" lon="5.60177">
        <ele>1221.49</ele>
      </trkpt>
      <trkpt lat="44.14481" lon="5.60242">
        <ele>1227.26</ele>
      </trkpt>
      <trkpt lat="44.14498" lon="5.60254">
        <ele>1229.18</ele>
      </trkpt>
      <trkpt lat="44.14554" lon="5.60262">
        <ele>1233.99</ele>
      </trkpt>
      <trkpt lat="44.14653" lon="5.60308">
        <ele>1244.08</ele>
      </trkpt>
      <trkpt lat="44.14818" lon="5.60357">
        <ele>1259.94</ele>
      </trkpt>
      <trkpt lat="44.15021" lon="5.60369">
        <ele>1282.27734375</ele>
      </trkpt>
      <trkpt lat="44.15027" lon="5.60368">
        <ele>1282.44140625</ele>
      </trkpt>
      <trkpt lat="44.15209" lon="5.60432">
        <ele>1292.86328125</ele>
      </trkpt>
      <trkpt lat="44.15211" lon="5.60429">
        <ele>1292.7</ele>
      </trkpt>
      <trkpt lat="44.15164" lon="5.60485">
        <ele>1294.5</ele>
      </trkpt>
      <trkpt lat="44.15171" lon="5.60493">
        <ele>1293.5</ele>
      </trkpt>
      <trkpt lat="44.1511" lon="5.6068">
        <ele>1282.7</ele>
      </trkpt>
      <trkpt lat="44.15274" lon="5.60585">
        <ele>1269.6</ele>
      </trkpt>
      <trkpt lat="44.15361" lon="5.60612">
        <ele>1258.9</ele>
      </trkpt>
      <trkpt lat="44.15389" lon="5.60679">
        <ele>1247.1</ele>
      </trkpt>
      <trkpt lat="44.15078" lon="5.60984">
        <ele>1233.8</ele>
      </trkpt>
      <trkpt lat="44.15078" lon="5.61057">
        <ele>1227.3</ele>
      </trkpt>
      <trkpt lat="44.15212" lon="5.61139">
        <ele>1239.7</ele>
      </trkpt>
      <trkpt lat="44.15447" lon="5.60928">
        <ele>1207.2</ele>
      </trkpt>
      <trkpt lat="44.15313" lon="5.61253">
        <ele>1187.6</ele>
      </trkpt>
      <trkpt lat="44.15508" lon="5.61014">
        <ele>1143.3</ele>
      </trkpt>
      <trkpt lat="44.15397" lon="5.61218">
        <ele>1147.3</ele>
      </trkpt>
      <trkpt lat="44.15556" lon="5.6109">
        <ele>1098.2</ele>
      </trkpt>
      <trkpt lat="44.15629" lon="5.60775">
        <ele>1089.9</ele>
      </trkpt>
      <trkpt lat="44.1572" lon="5.60546">
        <ele>1065.1</ele>
      </trkpt>
      <trkpt lat="44.15706" lon="5.60763">
        <ele>1048.9</ele>
      </trkpt>
      <trkpt lat="44.15799" lon="5.60895">
        <ele>1014.9</ele>
      </trkpt>
      <trkpt lat="44.15792" lon="5.6069">
        <ele>1015.5</ele>
      </trkpt>
      <trkpt lat="44.15829" lon="5.60643">
        <ele>1011.6</ele>
      </trkpt>
      <trkpt lat="44.15899" lon="5.60665">
        <ele>982.4</ele>
      </trkpt>
      <trkpt lat="44.15925" lon="5.60645">
        <ele>969.4</ele>
      </trkpt>
      <trkpt lat="44.15896" lon="5.60583">
        <ele>985.2</ele>
      </trkpt>
      <trkpt lat="44.15922" lon="5.60588">
        <ele>974.8</ele>
      </trkpt>
      <trkpt lat="44.15944" lon="5.60632">
        <ele>966.6</ele>
      </trkpt>
      <trkpt lat="44.15915" lon="5.60729">
        <ele>980.2</ele>
      </trkpt>
      <trkpt lat="44.16137" lon="5.60742">
        <ele>937.6</ele>
      </trkpt>
      <trkpt lat="44.16412" lon="5.60817">
        <ele>894.7</ele>
      </trkpt>
      <trkpt lat="44.1642" lon="5.60843">
        <ele>888.8</ele>
      </trkpt>
      <trkpt lat="44.16402" lon="5.60877">
        <ele>897</ele>
      </trkpt>
      <trkpt lat="44.16432" lon="5.60872">
        <ele>882.9</ele>
      </trkpt>
      <trkpt lat="44.16442" lon="5.60851">
        <ele>883.6</ele>
      </trkpt>
      <trkpt lat="44.16448" lon="5.60824">
        <ele>882.6</ele>
      </trkpt>
      <trkpt lat="44.16399" lon="5.60782">
        <ele>893.4</ele>
      </trkpt>
      <trkpt lat="44.16364" lon="5.60754">
        <ele>896.5</ele>
      </trkpt>
      <trkpt lat="44.16362" lon="5.60713">
        <ele>890.5</ele>
      </trkpt>
      <trkpt lat="44.16467" lon="5.60701">
        <ele>878.7</ele>
      </trkpt>
      <trkpt lat="44.16483" lon="5.60742">
        <ele>875.6</ele>
      </trkpt>
      <trkpt lat="44.16498" lon="5.60898">
        <ele>875</ele>
      </trkpt>
      <trkpt lat="44.16472" lon="5.61001">
        <ele>864.5</ele>
      </trkpt>
      <trkpt lat="44.16585" lon="5.61632">
        <ele>832.8</ele>
      </trkpt>
      <trkpt lat="44.16623" lon="5.62134">
        <ele>818.3</ele>
      </trkpt>
      <trkpt lat="44.16659" lon="5.62212">
        <ele>814.1</ele>
      </trkpt>
      <trkpt lat="44.16951" lon="5.62058">
        <ele>806</ele>
      </trkpt>
      <trkpt lat="44.16923" lon="5.62484">
        <ele>802.4</ele>
      </trkpt>
      <trkpt lat="44.16781" lon="5.62661">
        <ele>804.3</ele>
      </trkpt>
      <trkpt lat="44.16698" lon="5.62938">
        <ele>809.7</ele>
      </trkpt>
      <trkpt lat="44.16775" lon="5.62887">
        <ele>804.8</ele>
      </trkpt>
      <trkpt lat="44.16833" lon="5.62905">
        <ele>802.1</ele>
      </trkpt>
      <trkpt lat="44.1689" lon="5.62908">
        <ele>797.3</ele>
      </trkpt>
      <trkpt lat="44.16948" lon="5.62877">
        <ele>792.3</ele>
      </trkpt>
      <trkpt lat="44.16974" lon="5.62896">
        <ele>791.6</ele>
      </trkpt>
      <trkpt lat="44.16986" lon="5.62929">
        <ele>792.2</ele>
      </trkpt>
      <trkpt lat="44.17063" lon="5.62983">
        <ele>791.9</ele>
      </trkpt>
      <trkpt lat="44.17115" lon="5.6309">
        <ele>790.7</ele>
      </trkpt>
      <trkpt lat="44.17171" lon="5.6309">
        <ele>792.3</ele>
      </trkpt>
      <trkpt lat="44.17229" lon="5.62992">
        <ele>803</ele>
      </trkpt>
      <trkpt lat="44.17194" lon="5.63171">
        <ele>804.2</ele>
      </trkpt>
      <trkpt lat="44.17216" lon="5.63233">
        <ele>810.7</ele>
      </trkpt>
      <trkpt lat="44.172" lon="5.6334">
        <ele>808.6</ele>
      </trkpt>
      <trkpt lat="44.17147" lon="5.6335">
        <ele>795.9</ele>
      </trkpt>
      <trkpt lat="44.17117" lon="5.63358">
        <ele>798.6</ele>
      </trkpt>
      <trkpt lat="44.17268" lon="5.63706">
        <ele>768.2</ele>
      </trkpt>
      <trkpt lat="44.1746" lon="5.63834">
        <ele>753.7</ele>
      </trkpt>
      <trkpt lat="44.17539" lon="5.63795">
        <ele>754.3</ele>
      </trkpt>
      <trkpt lat="44.17562" lon="5.63803">
        <ele>752.8</ele>
      </trkpt>
      <trkpt lat="44.1756" lon="5.63848">
        <ele>749.5</ele>
      </trkpt>
      <trkpt lat="44.17609" lon="5.63779">
        <ele>749.9</ele>
      </trkpt>
      <trkpt lat="44.17668" lon="5.63678">
        <ele>752</ele>
      </trkpt>
      <trkpt lat="44.17645" lon="5.63452">
        <ele>767.6</ele>
      </trkpt>
      <trkpt lat="44.17696" lon="5.63305">
        <ele>766.3</ele>
      </trkpt>
      <trkpt lat="44.1776" lon="5.63257">
        <ele>771.2</ele>
      </trkpt>
      <trkpt lat="44.17818" lon="5.63374">
        <ele>772.4</ele>
      </trkpt>
      <trkpt lat="44.17835" lon="5.63288">
        <ele>784.4</ele>
      </trkpt>
      <trkpt lat="44.18028" lon="5.6334">
        <ele>809.6</ele>
      </trkpt>
      <trkpt lat="44.18117" lon="5.63444">
        <ele>834.3</ele>
      </trkpt>
      <trkpt lat="44.18166" lon="5.63405">
        <ele>831.9</ele>
      </trkpt>
      <trkpt lat="44.18285" lon="5.6342">
        <ele>864</ele>
      </trkpt>
      <trkpt lat="44.18367" lon="5.63366">
        <ele>871.8</ele>
      </trkpt>
      <trkpt lat="44.18446" lon="5.63371">
        <ele>890.1</ele>
      </trkpt>
      <trkpt lat="44.18392" lon="5.63532">
        <ele>905</ele>
      </trkpt>
      <trkpt lat="44.18416" lon="5.63543">
        <ele>908.6</ele>
      </trkpt>
      <trkpt lat="44.18522" lon="5.63439">
        <ele>941.8</ele>
      </trkpt>
      <trkpt lat="44.18592" lon="5.63361">
        <ele>946.8</ele>
      </trkpt>
      <trkpt lat="44.18637" lon="5.63366">
        <ele>956.8</ele>
      </trkpt>
      <trkpt lat="44.18658" lon="5.63296">
        <ele>948.3</ele>
      </trkpt>
      <trkpt lat="44.18687" lon="5.63319">
        <ele>971.1</ele>
      </trkpt>
      <trkpt lat="44.18716" lon="5.63316">
        <ele>978.3</ele>
      </trkpt>
      <trkpt lat="44.18752" lon="5.63371">
        <ele>1003.2</ele>
      </trkpt>
      <trkpt lat="44.1882" lon="5.63171">
        <ele>1014.4</ele>
      </trkpt>
      <trkpt lat="44.18874" lon="5.6302">
        <ele>1035.4</ele>
      </trkpt>
      <trkpt lat="44.18942" lon="5.62975">
        <ele>1055.6</ele>
      </trkpt>
      <trkpt lat="44.18924" lon="5.62751">
        <ele>1065.5</ele>
      </trkpt>
      <trkpt lat="44.18913" lon="5.62688">
        <ele>1072.4</ele>
      </trkpt>
      <trkpt lat="44.18917" lon="5.62657">
        <ele>1081.3</ele>
      </trkpt>
      <trkpt lat="44.18895" lon="5.6262">
        <ele>1084.3</ele>
      </trkpt>
      <trkpt lat="44.18897" lon="5.62583">
        <ele>1089.1</ele>
      </trkpt>
      <trkpt lat="44.18967" lon="5.62583">
        <ele>1104.6</ele>
      </trkpt>
      <trkpt lat="44.18997" lon="5.62511">
        <ele>1116.5</ele>
      </trkpt>
      <trkpt lat="44.19" lon="5.62388">
        <ele>1126.3</ele>
      </trkpt>
      <trkpt lat="44.19026" lon="5.62283">
        <ele>1149.8</ele>
      </trkpt>
      <trkpt lat="44.19088" lon="5.6222">
        <ele>1169.8</ele>
      </trkpt>
      <trkpt lat="44.19142" lon="5.62123">
        <ele>1177.9</ele>
      </trkpt>
      <trkpt lat="44.19318" lon="5.62237">
        <ele>1181.9</ele>
      </trkpt>
      <trkpt lat="44.19483" lon="5.62112">
        <ele>1196.7</ele>
      </trkpt>
      <trkpt lat="44.19743" lon="5.62039">
        <ele>1188.9</ele>
      </trkpt>
      <trkpt lat="44.19816" lon="5.619">
        <ele>1194.7</ele>
      </trkpt>
      <trkpt lat="44.19819" lon="5.6173">
        <ele>1220</ele>
      </trkpt>
      <trkpt lat="44.19912" lon="5.6168">
        <ele>1224.5</ele>
      </trkpt>
      <trkpt lat="44.19903" lon="5.61555">
        <ele>1236.9</ele>
      </trkpt>
      <trkpt lat="44.19828" lon="5.61303">
        <ele>1263.8</ele>
      </trkpt>
      <trkpt lat="44.19821" lon="5.61189">
        <ele>1262.7</ele>
      </trkpt>
      <trkpt lat="44.19708" lon="5.61006">
        <ele>1262.2</ele>
      </trkpt>
      <trkpt lat="44.19858" lon="5.60933">
        <ele>1238.5</ele>
      </trkpt>
      <trkpt lat="44.19889" lon="5.60778">
        <ele>1244.9</ele>
      </trkpt>
      <trkpt lat="44.20031" lon="5.60637">
        <ele>1203.9</ele>
      </trkpt>
      <trkpt lat="44.20112" lon="5.60624">
        <ele>1183.7</ele>
      </trkpt>
      <trkpt lat="44.20211" lon="5.60486">
        <ele>1156.4</ele>
      </trkpt>
      <trkpt lat="44.20327" lon="5.6046">
        <ele>1141.6</ele>
      </trkpt>
      <trkpt lat="44.20342" lon="5.6034">
        <ele>1119.9</ele>
      </trkpt>
      <trkpt lat="44.2042" lon="5.60329">
        <ele>1107.3</ele>
      </trkpt>
      <trkpt lat="44.20494" lon="5.60301">
        <ele>1099.1</ele>
      </trkpt>
      <trkpt lat="44.20454" lon="5.60276">
        <ele>1098.7</ele>
      </trkpt>
      <trkpt lat="44.20388" lon="5.60267">
        <ele>1108</ele>
      </trkpt>
      <trkpt lat="44.20448" lon="5.60167">
        <ele>1092.6</ele>
      </trkpt>
      <trkpt lat="44.20543" lon="5.60127">
        <ele>1079.4</ele>
      </trkpt>
      <trkpt lat="44.20534" lon="5.60002">
        <ele>1081.7</ele>
      </trkpt>
      <trkpt lat="44.20482" lon="5.59942">
        <ele>1087.6</ele>
      </trkpt>
      <trkpt lat="44.20507" lon="5.59807">
        <ele>1085.5</ele>
      </trkpt>
      <trkpt lat="44.20473" lon="5.59589">
        <ele>1086.9</ele>
      </trkpt>
      <trkpt lat="44.2047" lon="5.59551">
        <ele>1086.8</ele>
      </trkpt>
      <trkpt lat="44.20529" lon="5.59531">
        <ele>1081.1</ele>
      </trkpt>
      <trkpt lat="44.20593" lon="5.59464">
        <ele>1081.8</ele>
      </trkpt>
      <trkpt lat="44.20814" lon="5.5928">
        <ele>1059.7</ele>
      </trkpt>
      <trkpt lat="44.20911" lon="5.59302">
        <ele>1057.7</ele>
      </trkpt>
      <trkpt lat="44.21012" lon="5.59694">
        <ele>1035.8</ele>
      </trkpt>
      <trkpt lat="44.21044" lon="5.59302">
        <ele>1011.4</ele>
      </trkpt>
      <trkpt lat="44.21181" lon="5.59661">
        <ele>975.2</ele>
      </trkpt>
      <trkpt lat="44.21199" lon="5.59673">
        <ele>973.6</ele>
      </trkpt>
      <trkpt lat="44.21232" lon="5.5964">
        <ele>965.8</ele>
      </trkpt>
      <trkpt lat="44.21281" lon="5.59737">
        <ele>953.3</ele>
      </trkpt>
      <trkpt lat="44.21272" lon="5.59564">
        <ele>937.9</ele>
      </trkpt>
      <trkpt lat="44.21432" lon="5.59703">
        <ele>895.4</ele>
      </trkpt>
      <trkpt lat="44.21419" lon="5.59626">
        <ele>886.6</ele>
      </trkpt>
      <trkpt lat="44.21351" lon="5.5949">
        <ele>884.8</ele>
      </trkpt>
      <trkpt lat="44.21361" lon="5.5938">
        <ele>860.8</ele>
      </trkpt>
      <trkpt lat="44.21321" lon="5.59259">
        <ele>868.7</ele>
      </trkpt>
      <trkpt lat="44.21351" lon="5.59174">
        <ele>835.2</ele>
      </trkpt>
      <trkpt lat="44.21325" lon="5.59076">
        <ele>825.8</ele>
      </trkpt>
      <trkpt lat="44.21379" lon="5.59104">
        <ele>812.2</ele>
      </trkpt>
      <trkpt lat="44.21412" lon="5.59211">
        <ele>819.6</ele>
      </trkpt>
      <trkpt lat="44.21445" lon="5.59196">
        <ele>796</ele>
      </trkpt>
      <trkpt lat="44.2146" lon="5.59148">
        <ele>786.3</ele>
      </trkpt>
      <trkpt lat="44.21499" lon="5.59121">
        <ele>781</ele>
      </trkpt>
      <trkpt lat="44.21518" lon="5.58998">
        <ele>767.3</ele>
      </trkpt>
      <trkpt lat="44.21585" lon="5.58915">
        <ele>762.9</ele>
      </trkpt>
      <trkpt lat="44.21831" lon="5.58832">
        <ele>742.4</ele>
      </trkpt>
      <trkpt lat="44.21873" lon="5.58806">
        <ele>741.4</ele>
      </trkpt>
      <trkpt lat="44.21839" lon="5.58723">
        <ele>742</ele>
      </trkpt>
      <trkpt lat="44.21943" lon="5.58765">
        <ele>740.1</ele>
      </trkpt>
      <trkpt lat="44.22092" lon="5.58843">
        <ele>747.3</ele>
      </trkpt>
      <trkpt lat="44.22104" lon="5.58983">
        <ele>747.4</ele>
      </trkpt>
      <trkpt lat="44.22082" lon="5.59249">
        <ele>740</ele>
      </trkpt>
      <trkpt lat="44.2214" lon="5.59555">
        <ele>738.6</ele>
      </trkpt>
      <trkpt lat="44.22456" lon="5.59262">
        <ele>765.1</ele>
      </trkpt>
      <trkpt lat="44.22624" lon="5.59243">
        <ele>757.4</ele>
      </trkpt>
      <trkpt lat="44.23148" lon="5.5961">
        <ele>769.4</ele>
      </trkpt>
      <trkpt lat="44.23417" lon="5.60075">
        <ele>798.4</ele>
      </trkpt>
      <trkpt lat="44.23548" lon="5.60483">
        <ele>784</ele>
      </trkpt>
      <trkpt lat="44.23575" lon="5.6056">
        <ele>780.4</ele>
      </trkpt>
      <trkpt lat="44.23612" lon="5.60682">
        <ele>775.5</ele>
      </trkpt>
      <trkpt lat="44.23774" lon="5.60687">
        <ele>780</ele>
      </trkpt>
      <trkpt lat="44.23894" lon="5.60752">
        <ele>783.1</ele>
      </trkpt>
      <trkpt lat="44.23942" lon="5.60615">
        <ele>788.8</ele>
      </trkpt>
      <trkpt lat="44.24073" lon="5.60426">
        <ele>796.4</ele>
      </trkpt>
      <trkpt lat="44.24181" lon="5.60178">
        <ele>806.3</ele>
      </trkpt>
      <trkpt lat="44.24209" lon="5.60088">
        <ele>809.4</ele>
      </trkpt>
      <trkpt lat="44.24258" lon="5.60051">
        <ele>816.7</ele>
      </trkpt>
      <trkpt lat="44.24455" lon="5.59885">
        <ele>837.5</ele>
      </trkpt>
      <trkpt lat="44.24534" lon="5.59809">
        <ele>843.7</ele>
      </trkpt>
      <trkpt lat="44.24521" lon="5.59697">
        <ele>846.8</ele>
      </trkpt>
      <trkpt lat="44.24598" lon="5.59732">
        <ele>853.3</ele>
      </trkpt>
      <trkpt lat="44.24643" lon="5.59691">
        <ele>860.8</ele>
      </trkpt>
      <trkpt lat="44.24575" lon="5.59649">
        <ele>857.3</ele>
      </trkpt>
      <trkpt lat="44.24687" lon="5.59632">
        <ele>876.6</ele>
      </trkpt>
      <trkpt lat="44.24716" lon="5.59665">
        <ele>878.8</ele>
      </trkpt>
      <trkpt lat="44.24754" lon="5.59594">
        <ele>888.1</ele>
      </trkpt>
      <trkpt lat="44.24723" lon="5.59491">
        <ele>890.1</ele>
      </trkpt>
      <trkpt lat="44.24794" lon="5.59475">
        <ele>901</ele>
      </trkpt>
      <trkpt lat="44.2481" lon="5.59609">
        <ele>894.2</ele>
      </trkpt>
      <trkpt lat="44.24835" lon="5.59547">
        <ele>909</ele>
      </trkpt>
      <trkpt lat="44.24879" lon="5.59594">
        <ele>906.1</ele>
      </trkpt>
      <trkpt lat="44.2495" lon="5.59527">
        <ele>922.7</ele>
      </trkpt>
      <trkpt lat="44.24959" lon="5.59432">
        <ele>928.9</ele>
      </trkpt>
      <trkpt lat="44.25057" lon="5.5942">
        <ele>940.3</ele>
      </trkpt>
      <trkpt lat="44.24996" lon="5.59346">
        <ele>942.6</ele>
      </trkpt>
      <trkpt lat="44.25067" lon="5.59338">
        <ele>950.5</ele>
      </trkpt>
      <trkpt lat="44.25135" lon="5.59327">
        <ele>966.8</ele>
      </trkpt>
      <trkpt lat="44.25149" lon="5.59427">
        <ele>957.4</ele>
      </trkpt>
      <trkpt lat="44.25186" lon="5.59448">
        <ele>966.1</ele>
      </trkpt>
      <trkpt lat="44.25246" lon="5.59441">
        <ele>971.1</ele>
      </trkpt>
      <trkpt lat="44.25286" lon="5.59474">
        <ele>978.2</ele>
      </trkpt>
      <trkpt lat="44.25309" lon="5.59503">
        <ele>973.4</ele>
      </trkpt>
      <trkpt lat="44.25361" lon="5.59471">
        <ele>989.3</ele>
      </trkpt>
      <trkpt lat="44.253" lon="5.59415">
        <ele>987.6</ele>
      </trkpt>
      <trkpt lat="44.25445" lon="5.59425">
        <ele>1002.3</ele>
      </trkpt>
      <trkpt lat="44.25386" lon="5.59297">
        <ele>1010.9</ele>
      </trkpt>
      <trkpt lat="44.25387" lon="5.59154">
        <ele>1026.8</ele>
      </trkpt>
      <trkpt lat="44.25518" lon="5.59263">
        <ele>1037.2</ele>
      </trkpt>
      <trkpt lat="44.25594" lon="5.59346">
        <ele>1042</ele>
      </trkpt>
      <trkpt lat="44.25627" lon="5.59327">
        <ele>1054.1</ele>
      </trkpt>
      <trkpt lat="44.25577" lon="5.59272">
        <ele>1044.8</ele>
      </trkpt>
      <trkpt lat="44.25552" lon="5.59207">
        <ele>1055.3</ele>
      </trkpt>
      <trkpt lat="44.25483" lon="5.58954">
        <ele>1073.2</ele>
      </trkpt>
      <trkpt lat="44.25429" lon="5.58827">
        <ele>1092</ele>
      </trkpt>
      <trkpt lat="44.25429" lon="5.58698">
        <ele>1114.8</ele>
      </trkpt>
      <trkpt lat="44.25395" lon="5.58667">
        <ele>1100.4</ele>
      </trkpt>
      <trkpt lat="44.25406" lon="5.58616">
        <ele>1110.7</ele>
      </trkpt>
      <trkpt lat="44.25457" lon="5.58644">
        <ele>1128.7</ele>
      </trkpt>
      <trkpt lat="44.25463" lon="5.58601">
        <ele>1132.2</ele>
      </trkpt>
      <trkpt lat="44.25408" lon="5.5856">
        <ele>1117.7</ele>
      </trkpt>
      <trkpt lat="44.25441" lon="5.58488">
        <ele>1135.8</ele>
      </trkpt>
      <trkpt lat="44.25483" lon="5.58511">
        <ele>1143.3</ele>
      </trkpt>
      <trkpt lat="44.2551" lon="5.58521">
        <ele>1160.7</ele>
      </trkpt>
      <trkpt lat="44.25595" lon="5.58415">
        <ele>1173.7</ele>
      </trkpt>
      <trkpt lat="44.25612" lon="5.58341">
        <ele>1177.6</ele>
      </trkpt>
      <trkpt lat="44.25591" lon="5.58213">
        <ele>1178</ele>
      </trkpt>
      <trkpt lat="44.25701" lon="5.58145">
        <ele>1196.7</ele>
      </trkpt>
      <trkpt lat="44.25647" lon="5.58119">
        <ele>1186.6</ele>
      </trkpt>
      <trkpt lat="44.25651" lon="5.58067">
        <ele>1196</ele>
      </trkpt>
      <trkpt lat="44.25598" lon="5.58046">
        <ele>1195.6</ele>
      </trkpt>
      <trkpt lat="44.25607" lon="5.57956">
        <ele>1213.3</ele>
      </trkpt>
      <trkpt lat="44.25642" lon="5.57986">
        <ele>1211.2</ele>
      </trkpt>
      <trkpt lat="44.25651" lon="5.57976">
        <ele>1212.1</ele>
      </trkpt>
      <trkpt lat="44.25629" lon="5.57904">
        <ele>1228.1</ele>
      </trkpt>
      <trkpt lat="44.25606" lon="5.57908">
        <ele>1226.5</ele>
      </trkpt>
      <trkpt lat="44.25561" lon="5.57894">
        <ele>1220.9</ele>
      </trkpt>
      <trkpt lat="44.25531" lon="5.57865">
        <ele>1220.6</ele>
      </trkpt>
      <trkpt lat="44.25515" lon="5.57817">
        <ele>1228.9</ele>
      </trkpt>
      <trkpt lat="44.25514" lon="5.57773">
        <ele>1234.4</ele>
      </trkpt>
      <trkpt lat="44.25487" lon="5.57695">
        <ele>1237.8</ele>
      </trkpt>
      <trkpt lat="44.25435" lon="5.5766">
        <ele>1242.5</ele>
      </trkpt>
      <trkpt lat="44.25395" lon="5.57597">
        <ele>1240.1</ele>
      </trkpt>
      <trkpt lat="44.2536" lon="5.57545">
        <ele>1245.9</ele>
      </trkpt>
      <trkpt lat="44.25353" lon="5.57533">
        <ele>1246.1</ele>
      </trkpt>
      <trkpt lat="44.25334" lon="5.57474">
        <ele>1252.7</ele>
      </trkpt>
      <trkpt lat="44.25327" lon="5.57428">
        <ele>1250.2</ele>
      </trkpt>
      <trkpt lat="44.2532" lon="5.5741">
        <ele>1254.8</ele>
      </trkpt>
      <trkpt lat="44.25316" lon="5.574">
        <ele>1255.3</ele>
      </trkpt>
      <trkpt lat="44.25293" lon="5.57377">
        <ele>1255.7</ele>
      </trkpt>
      <trkpt lat="44.25275" lon="5.57311">
        <ele>1260.8</ele>
      </trkpt>
      <trkpt lat="44.25296" lon="5.56829">
        <ele>1275</ele>
      </trkpt>
      <trkpt lat="44.25428" lon="5.56515">
        <ele>1302.8</ele>
      </trkpt>
      <trkpt lat="44.25552" lon="5.56019">
        <ele>1317.6</ele>
      </trkpt>
      <trkpt lat="44.25573" lon="5.55824">
        <ele>1327</ele>
      </trkpt>
      <trkpt lat="44.25676" lon="5.55695">
        <ele>1348.3</ele>
      </trkpt>
      <trkpt lat="44.25751" lon="5.55578">
        <ele>1348.5</ele>
      </trkpt>
      <trkpt lat="44.25738" lon="5.55489">
        <ele>1348.9</ele>
      </trkpt>
      <trkpt lat="44.25647" lon="5.5534">
        <ele>1354.9</ele>
      </trkpt>
      <trkpt lat="44.25597" lon="5.55165">
        <ele>1366.7</ele>
      </trkpt>
      <trkpt lat="44.25592" lon="5.54899">
        <ele>1380</ele>
      </trkpt>
      <trkpt lat="44.25525" lon="5.54732">
        <ele>1357.8</ele>
      </trkpt>
      <trkpt lat="44.25568" lon="5.54525">
        <ele>1344.5</ele>
      </trkpt>
      <trkpt lat="44.25522" lon="5.54412">
        <ele>1331.9</ele>
      </trkpt>
      <trkpt lat="44.25464" lon="5.54338">
        <ele>1317.2</ele>
      </trkpt>
      <trkpt lat="44.25455" lon="5.54017">
        <ele>1317.7</ele>
      </trkpt>
      <trkpt lat="44.25433" lon="5.53682">
        <ele>1299.7</ele>
      </trkpt>
      <trkpt lat="44.2543" lon="5.53577">
        <ele>1284.6</ele>
      </trkpt>
      <trkpt lat="44.25422" lon="5.53116">
        <ele>1230.4</ele>
      </trkpt>
      <trkpt lat="44.25382" lon="5.52796">
        <ele>1234.3</ele>
      </trkpt>
      <trkpt lat="44.25381" lon="5.52515">
        <ele>1213.4</ele>
      </trkpt>
      <trkpt lat="44.25367" lon="5.52472">
        <ele>1206.4</ele>
      </trkpt>
      <trkpt lat="44.25362" lon="5.52364">
        <ele>1194.8</ele>
      </trkpt>
      <trkpt lat="44.25372" lon="5.52313">
        <ele>1186.5</ele>
      </trkpt>
      <trkpt lat="44.25369" lon="5.52228">
        <ele>1178.5</ele>
      </trkpt>
      <trkpt lat="44.25361" lon="5.52186">
        <ele>1177.3</ele>
      </trkpt>
      <trkpt lat="44.25353" lon="5.52165">
        <ele>1174.5</ele>
      </trkpt>
      <trkpt lat="44.25332" lon="5.52146">
        <ele>1174.9</ele>
      </trkpt>
      <trkpt lat="44.25322" lon="5.52127">
        <ele>1173</ele>
      </trkpt>
      <trkpt lat="44.25318" lon="5.52117">
        <ele>1172.5</ele>
      </trkpt>
      <trkpt lat="44.25313" lon="5.52116">
        <ele>1172.3</ele>
      </trkpt>
      <trkpt lat="44.25267" lon="5.52073">
        <ele>1166.3</ele>
      </trkpt>
      <trkpt lat="44.25194" lon="5.51914">
        <ele>1148.4</ele>
      </trkpt>
      <trkpt lat="44.25205" lon="5.51796">
        <ele>1141.3</ele>
      </trkpt>
      <trkpt lat="44.25206" lon="5.51739">
        <ele>1134.8</ele>
      </trkpt>
      <trkpt lat="44.25197" lon="5.51689">
        <ele>1132</ele>
      </trkpt>
      <trkpt lat="44.25203" lon="5.51656">
        <ele>1126.8</ele>
      </trkpt>
      <trkpt lat="44.25161" lon="5.51538">
        <ele>1111.8</ele>
      </trkpt>
      <trkpt lat="44.25143" lon="5.51371">
        <ele>1101.7</ele>
      </trkpt>
      <trkpt lat="44.25159" lon="5.51133">
        <ele>1077.8</ele>
      </trkpt>
      <trkpt lat="44.25149" lon="5.50996">
        <ele>1068.8</ele>
      </trkpt>
      <trkpt lat="44.25118" lon="5.5026">
        <ele>1010.4</ele>
      </trkpt>
      <trkpt lat="44.25134" lon="5.50275">
        <ele>1016.1</ele>
      </trkpt>
      <trkpt lat="44.25156" lon="5.50012">
        <ele>1020.9</ele>
      </trkpt>
      <trkpt lat="44.25167" lon="5.49775">
        <ele>1046.2</ele>
      </trkpt>
      <trkpt lat="44.25204" lon="5.4969">
        <ele>1052.3</ele>
      </trkpt>
      <trkpt lat="44.25227" lon="5.49712">
        <ele>1054.7</ele>
      </trkpt>
      <trkpt lat="44.25389" lon="5.49401">
        <ele>1051.7</ele>
      </trkpt>
      <trkpt lat="44.25586" lon="5.48915">
        <ele>1009.2</ele>
      </trkpt>
      <trkpt lat="44.25626" lon="5.48466">
        <ele>1007.1</ele>
      </trkpt>
      <trkpt lat="44.25649" lon="5.48167">
        <ele>1027.4</ele>
      </trkpt>
      <trkpt lat="44.25653" lon="5.47744">
        <ele>1048.9</ele>
      </trkpt>
      <trkpt lat="44.25828" lon="5.47224">
        <ele>1092</ele>
      </trkpt>
      <trkpt lat="44.26129" lon="5.46918">
        <ele>1086.8</ele>
      </trkpt>
      <trkpt lat="44.26141" lon="5.46791">
        <ele>1035.09375</ele>
      </trkpt>
      <trkpt lat="44.26201" lon="5.46557">
        <ele>1010.46875</ele>
      </trkpt>
      <trkpt lat="44.26231" lon="5.46701">
        <ele>993.04296875</ele>
      </trkpt>
      <trkpt lat="44.26405" lon="5.46299">
        <ele>933.5</ele>
      </trkpt>
      <trkpt lat="44.26544" lon="5.45708">
        <ele>921.9</ele>
      </trkpt>
      <trkpt lat="44.26684" lon="5.45984">
        <ele>888.8</ele>
      </trkpt>
      <trkpt lat="44.26795" lon="5.45845">
        <ele>875.1</ele>
      </trkpt>
      <trkpt lat="44.26657" lon="5.45645">
        <ele>869.1</ele>
      </trkpt>
      <trkpt lat="44.26669" lon="5.45299">
        <ele>854.7</ele>
      </trkpt>
      <trkpt lat="44.2677" lon="5.45417">
        <ele>852.7</ele>
      </trkpt>
      <trkpt lat="44.2694" lon="5.45126">
        <ele>842.2</ele>
      </trkpt>
      <trkpt lat="44.26877" lon="5.45081">
        <ele>824.7</ele>
      </trkpt>
      <trkpt lat="44.27411" lon="5.43571">
        <ele>807.6</ele>
      </trkpt>
      <trkpt lat="44.27543" lon="5.43507">
        <ele>807.9</ele>
      </trkpt>
      <trkpt lat="44.27644" lon="5.43116">
        <ele>808.8</ele>
      </trkpt>
      <trkpt lat="44.27713" lon="5.42807">
        <ele>799.6</ele>
      </trkpt>
      <trkpt lat="44.28065" lon="5.42261">
        <ele>792.1</ele>
      </trkpt>
      <trkpt lat="44.28254" lon="5.41997">
        <ele>790.1</ele>
      </trkpt>
      <trkpt lat="44.27877" lon="5.41988">
        <ele>797.4</ele>
      </trkpt>
      <trkpt lat="44.27921" lon="5.41825">
        <ele>800.8</ele>
      </trkpt>
      <trkpt lat="44.27443" lon="5.41906">
        <ele>795.5</ele>
      </trkpt>
      <trkpt lat="44.27091" lon="5.42079">
        <ele>785.3</ele>
      </trkpt>
      <trkpt lat="44.2682" lon="5.42425">
        <ele>780.5</ele>
      </trkpt>
      <trkpt lat="44.26556" lon="5.4268">
        <ele>784.9</ele>
      </trkpt>
      <trkpt lat="44.26347" lon="5.42938">
        <ele>772.9</ele>
      </trkpt>
      <trkpt lat="44.26091" lon="5.4301">
        <ele>766.43359375</ele>
      </trkpt>
      <trkpt lat="44.25971" lon="5.43094">
        <ele>768.96484375</ele>
      </trkpt>
      <trkpt lat="44.25905" lon="5.43051">
        <ele>760.0625</ele>
      </trkpt>
      <trkpt lat="44.25782" lon="5.43097">
        <ele>763.25</ele>
      </trkpt>
      <trkpt lat="44.25692" lon="5.43228">
        <ele>763.9921875</ele>
      </trkpt>
      <trkpt lat="44.25596" lon="5.434">
        <ele>766.421875</ele>
      </trkpt>
      <trkpt lat="44.25596" lon="5.434">
        <ele>766.4296875</ele>
      </trkpt>
      <trkpt lat="44.25645" lon="5.433">
        <ele>765.34765625</ele>
      </trkpt>
      <trkpt lat="44.25643" lon="5.43266">
        <ele>765.46875</ele>
      </trkpt>
      <trkpt lat="44.25648" lon="5.43251">
        <ele>765.234375</ele>
      </trkpt>
      <trkpt lat="44.25638" lon="5.4324">
        <ele>767.40625</ele>
      </trkpt>
      <trkpt lat="44.25615" lon="5.43239">
        <ele>769.50390625</ele>
      </trkpt>
      <trkpt lat="44.25562" lon="5.43146">
        <ele>781.453125</ele>
      </trkpt>
      <trkpt lat="44.25562" lon="5.43146">
        <ele>781.484375</ele>
      </trkpt>
      <trkpt lat="44.25584" lon="5.43123">
        <ele>783.64453125</ele>
      </trkpt>
      <trkpt lat="44.25571" lon="5.43014">
        <ele>797.41015625</ele>
      </trkpt>
      <trkpt lat="44.25571" lon="5.43013">
        <ele>797.57421875</ele>
      </trkpt>
      <trkpt lat="44.25572" lon="5.42956">
        <ele>810.95703125</ele>
      </trkpt>
      <trkpt lat="44.25572" lon="5.42955">
        <ele>811.01953125</ele>
      </trkpt>
      <trkpt lat="44.25692" lon="5.42842">
        <ele>829.6796875</ele>
      </trkpt>
      <trkpt lat="44.25696" lon="5.42812">
        <ele>834.9140625</ele>
      </trkpt>
      <trkpt lat="44.25616" lon="5.42815">
        <ele>846.3984375</ele>
      </trkpt>
      <trkpt lat="44.25593" lon="5.42794">
        <ele>851.046875</ele>
      </trkpt>
      <trkpt lat="44.25546" lon="5.42612">
        <ele>877.375</ele>
      </trkpt>
      <trkpt lat="44.25516" lon="5.42572">
        <ele>888.7578125</ele>
      </trkpt>
      <trkpt lat="44.25463" lon="5.42563">
        <ele>899.15234375</ele>
      </trkpt>
      <trkpt lat="44.25522" lon="5.42412">
        <ele>926.32421875</ele>
      </trkpt>
      <trkpt lat="44.25522" lon="5.4241">
        <ele>926.53125</ele>
      </trkpt>
      <trkpt lat="44.25543" lon="5.42395">
        <ele>925.77734375</ele>
      </trkpt>
      <trkpt lat="44.25558" lon="5.42343">
        <ele>930.05078125</ele>
      </trkpt>
      <trkpt lat="44.25558" lon="5.42343">
        <ele>930.0625</ele>
      </trkpt>
      <trkpt lat="44.25556" lon="5.42273">
        <ele>939.609375</ele>
      </trkpt>
      <trkpt lat="44.25544" lon="5.4217">
        <ele>953.41796875</ele>
      </trkpt>
      <trkpt lat="44.25429" lon="5.42203">
        <ele>972.140625</ele>
      </trkpt>
      <trkpt lat="44.25419" lon="5.42238">
        <ele>972.109375</ele>
      </trkpt>
      <trkpt lat="44.2541" lon="5.42248">
        <ele>973.3046875</ele>
      </trkpt>
      <trkpt lat="44.25395" lon="5.42332">
        <ele>972.54296875</ele>
      </trkpt>
      <trkpt lat="44.25395" lon="5.42335">
        <ele>972.40234375</ele>
      </trkpt>
      <trkpt lat="44.25396" lon="5.42353">
        <ele>970.83984375</ele>
      </trkpt>
      <trkpt lat="44.25396" lon="5.42353">
        <ele>970.8359375</ele>
      </trkpt>
      <trkpt lat="44.25388" lon="5.42368">
        <ele>972.9453125</ele>
      </trkpt>
      <trkpt lat="44.25322" lon="5.42313">
        <ele>988.91015625</ele>
      </trkpt>
      <trkpt lat="44.25322" lon="5.42313">
        <ele>988.8828125</ele>
      </trkpt>
      <trkpt lat="44.25327" lon="5.42271">
        <ele>991.49609375</ele>
      </trkpt>
      <trkpt lat="44.2533" lon="5.42257">
        <ele>991.98046875</ele>
      </trkpt>
      <trkpt lat="44.2532" lon="5.42201">
        <ele>1001.02734375</ele>
      </trkpt>
      <trkpt lat="44.25331" lon="5.4213">
        <ele>1007.0859375</ele>
      </trkpt>
      <trkpt lat="44.2533" lon="5.42094">
        <ele>1012.83984375</ele>
      </trkpt>
      <trkpt lat="44.25313" lon="5.42063">
        <ele>1022.55078125</ele>
      </trkpt>
      <trkpt lat="44.25313" lon="5.42063">
        <ele>1022.5859375</ele>
      </trkpt>
      <trkpt lat="44.25327" lon="5.41913">
        <ele>1037.421875</ele>
      </trkpt>
      <trkpt lat="44.25345" lon="5.41708">
        <ele>1053.1484375</ele>
      </trkpt>
      <trkpt lat="44.25339" lon="5.41699">
        <ele>1055.72265625</ele>
      </trkpt>
      <trkpt lat="44.25145" lon="5.42119">
        <ele>1079.265625</ele>
      </trkpt>
      <trkpt lat="44.25127" lon="5.42121">
        <ele>1078.57421875</ele>
      </trkpt>
      <trkpt lat="44.25096" lon="5.42069">
        <ele>1077.46484375</ele>
      </trkpt>
      <trkpt lat="44.25087" lon="5.41891">
        <ele>1100.46875</ele>
      </trkpt>
      <trkpt lat="44.25018" lon="5.4176">
        <ele>1109.03125</ele>
      </trkpt>
      <trkpt lat="44.24952" lon="5.41602">
        <ele>1114.15234375</ele>
      </trkpt>
      <trkpt lat="44.24892" lon="5.41653">
        <ele>1117.609375</ele>
      </trkpt>
      <trkpt lat="44.24892" lon="5.41653">
        <ele>1117.60546875</ele>
      </trkpt>
      <trkpt lat="44.24869" lon="5.41766">
        <ele>1116.38671875</ele>
      </trkpt>
      <trkpt lat="44.24869" lon="5.41766">
        <ele>1116.40234375</ele>
      </trkpt>
      <trkpt lat="44.24849" lon="5.41781">
        <ele>1116.828125</ele>
      </trkpt>
      <trkpt lat="44.2482" lon="5.41767">
        <ele>1115.30078125</ele>
      </trkpt>
      <trkpt lat="44.2482" lon="5.41767">
        <ele>1115.375</ele>
      </trkpt>
      <trkpt lat="44.24697" lon="5.41799">
        <ele>1109.98046875</ele>
      </trkpt>
      <trkpt lat="44.24697" lon="5.41798">
        <ele>1109.96484375</ele>
      </trkpt>
      <trkpt lat="44.24673" lon="5.41739">
        <ele>1107.38671875</ele>
      </trkpt>
      <trkpt lat="44.24679" lon="5.41467">
        <ele>1083.84375</ele>
      </trkpt>
      <trkpt lat="44.24585" lon="5.41463">
        <ele>1092.17578125</ele>
      </trkpt>
      <trkpt lat="44.24582" lon="5.41426">
        <ele>1085.75390625</ele>
      </trkpt>
      <trkpt lat="44.24567" lon="5.41404">
        <ele>1082.78125</ele>
      </trkpt>
      <trkpt lat="44.24568" lon="5.41404">
        <ele>1082.76171875</ele>
      </trkpt>
      <trkpt lat="44.24576" lon="5.41387">
        <ele>1079.3046875</ele>
      </trkpt>
      <trkpt lat="44.24577" lon="5.41389">
        <ele>1079.62109375</ele>
      </trkpt>
      <trkpt lat="44.24599" lon="5.41406">
        <ele>1081.26953125</ele>
      </trkpt>
      <trkpt lat="44.246" lon="5.41369">
        <ele>1076.0859375</ele>
      </trkpt>
      <trkpt lat="44.24578" lon="5.41369">
        <ele>1076.0078125</ele>
      </trkpt>
      <trkpt lat="44.24581" lon="5.41358">
        <ele>1074.1640625</ele>
      </trkpt>
      <trkpt lat="44.24581" lon="5.41358">
        <ele>1074.125</ele>
      </trkpt>
      <trkpt lat="44.24647" lon="5.41291">
        <ele>1068.71484375</ele>
      </trkpt>
      <trkpt lat="44.24698" lon="5.41304">
        <ele>1060.87109375</ele>
      </trkpt>
      <trkpt lat="44.24697" lon="5.41329">
        <ele>1065.47265625</ele>
      </trkpt>
      <trkpt lat="44.24721" lon="5.41341">
        <ele>1064.4453125</ele>
      </trkpt>
      <trkpt lat="44.24729" lon="5.414">
        <ele>1071.76953125</ele>
      </trkpt>
      <trkpt lat="44.24742" lon="5.41402">
        <ele>1072.39453125</ele>
      </trkpt>
      <trkpt lat="44.24799" lon="5.41263">
        <ele>1060.02734375</ele>
      </trkpt>
      <trkpt lat="44.24792" lon="5.41219">
        <ele>1056.046875</ele>
      </trkpt>
      <trkpt lat="44.24803" lon="5.41113">
        <ele>1054.140625</ele>
      </trkpt>
      <trkpt lat="44.2479" lon="5.41077">
        <ele>1046.83203125</ele>
      </trkpt>
      <trkpt lat="44.248" lon="5.41064">
        <ele>1048.84375</ele>
      </trkpt>
      <trkpt lat="44.24802" lon="5.41064">
        <ele>1049.47265625</ele>
      </trkpt>
      <trkpt lat="44.2483" lon="5.41087">
        <ele>1054.8984375</ele>
      </trkpt>
      <trkpt lat="44.2487" lon="5.41035">
        <ele>1050.58984375</ele>
      </trkpt>
      <trkpt lat="44.24902" lon="5.40976">
        <ele>1050.3203125</ele>
      </trkpt>
      <trkpt lat="44.24918" lon="5.4086">
        <ele>1051.265625</ele>
      </trkpt>
      <trkpt lat="44.24936" lon="5.40849">
        <ele>1055.03515625</ele>
      </trkpt>
      <trkpt lat="44.24918" lon="5.40812">
        <ele>1049.3203125</ele>
      </trkpt>
      <trkpt lat="44.2492" lon="5.40767">
        <ele>1047.890625</ele>
      </trkpt>
      <trkpt lat="44.24964" lon="5.4063">
        <ele>1045.4765625</ele>
      </trkpt>
      <trkpt lat="44.25006" lon="5.40555">
        <ele>1046.65234375</ele>
      </trkpt>
      <trkpt lat="44.25008" lon="5.4047">
        <ele>1039.30078125</ele>
      </trkpt>
      <trkpt lat="44.25077" lon="5.40271">
        <ele>1037.703125</ele>
      </trkpt>
      <trkpt lat="44.25114" lon="5.40207">
        <ele>1035.34375</ele>
      </trkpt>
      <trkpt lat="44.25116" lon="5.40207">
        <ele>1035.65234375</ele>
      </trkpt>
      <trkpt lat="44.25164" lon="5.40156">
        <ele>1043.1328125</ele>
      </trkpt>
      <trkpt lat="44.25201" lon="5.40002">
        <ele>1038.79296875</ele>
      </trkpt>
      <trkpt lat="44.25251" lon="5.39951">
        <ele>1044.421875</ele>
      </trkpt>
      <trkpt lat="44.25239" lon="5.3988">
        <ele>1040.13671875</ele>
      </trkpt>
      <trkpt lat="44.25268" lon="5.39715">
        <ele>1040.01171875</ele>
      </trkpt>
      <trkpt lat="44.25268" lon="5.39715">
        <ele>1040.0390625</ele>
      </trkpt>
      <trkpt lat="44.25326" lon="5.39588">
        <ele>1026.03515625</ele>
      </trkpt>
      <trkpt lat="44.25434" lon="5.39585">
        <ele>1042.28125</ele>
      </trkpt>
      <trkpt lat="44.25443" lon="5.39531">
        <ele>1041.546875</ele>
      </trkpt>
      <trkpt lat="44.25427" lon="5.39383">
        <ele>1021.62890625</ele>
      </trkpt>
      <trkpt lat="44.25446" lon="5.39301">
        <ele>1016.828125</ele>
      </trkpt>
      <trkpt lat="44.25442" lon="5.39274">
        <ele>1013.421875</ele>
      </trkpt>
      <trkpt lat="44.25467" lon="5.39205">
        <ele>1017.609375</ele>
      </trkpt>
      <trkpt lat="44.25472" lon="5.3916">
        <ele>1017.890625</ele>
      </trkpt>
      <trkpt lat="44.25487" lon="5.39146">
        <ele>1021.2890625</ele>
      </trkpt>
      <trkpt lat="44.25499" lon="5.39116">
        <ele>1023.1875</ele>
      </trkpt>
      <trkpt lat="44.25499" lon="5.39116">
        <ele>1023.20703125</ele>
      </trkpt>
      <trkpt lat="44.25508" lon="5.39058">
        <ele>1022.55078125</ele>
      </trkpt>
      <trkpt lat="44.2556" lon="5.38994">
        <ele>1031.0390625</ele>
      </trkpt>
      <trkpt lat="44.25647" lon="5.38963">
        <ele>1043.7734375</ele>
      </trkpt>
      <trkpt lat="44.25649" lon="5.38964">
        <ele>1044.4375</ele>
      </trkpt>
      <trkpt lat="44.25668" lon="5.38968">
        <ele>1049.69921875</ele>
      </trkpt>
      <trkpt lat="44.2585" lon="5.38791">
        <ele>1055.796875</ele>
      </trkpt>
      <trkpt lat="44.25911" lon="5.38795">
        <ele>1061.9765625</ele>
      </trkpt>
      <trkpt lat="44.26025" lon="5.38692">
        <ele>1038.83984375</ele>
      </trkpt>
      <trkpt lat="44.26074" lon="5.38715">
        <ele>1049.65625</ele>
      </trkpt>
      <trkpt lat="44.26092" lon="5.38642">
        <ele>1041.6015625</ele>
      </trkpt>
      <trkpt lat="44.26187" lon="5.38458">
        <ele>1036.22265625</ele>
      </trkpt>
      <trkpt lat="44.26413" lon="5.38321">
        <ele>1032.328125</ele>
      </trkpt>
      <trkpt lat="44.264" lon="5.3822">
        <ele>1015</ele>
      </trkpt>
      <trkpt lat="44.26459" lon="5.38117">
        <ele>1013.25</ele>
      </trkpt>
      <trkpt lat="44.26483" lon="5.37957">
        <ele>995.15234375</ele>
      </trkpt>
      <trkpt lat="44.26363" lon="5.38082">
        <ele>985.18359375</ele>
      </trkpt>
      <trkpt lat="44.26308" lon="5.38079">
        <ele>975.5859375</ele>
      </trkpt>
      <trkpt lat="44.26308" lon="5.38079">
        <ele>975.6328125</ele>
      </trkpt>
      <trkpt lat="44.26163" lon="5.38115">
        <ele>957.8828125</ele>
      </trkpt>
      <trkpt lat="44.26166" lon="5.38063">
        <ele>951.0390625</ele>
      </trkpt>
      <trkpt lat="44.2623" lon="5.38037">
        <ele>952.80078125</ele>
      </trkpt>
      <trkpt lat="44.26277" lon="5.37934">
        <ele>940.48046875</ele>
      </trkpt>
      <trkpt lat="44.26281" lon="5.37936">
        <ele>941.56640625</ele>
      </trkpt>
      <trkpt lat="44.26307" lon="5.37944">
        <ele>947.7890625</ele>
      </trkpt>
      <trkpt lat="44.26335" lon="5.37863">
        <ele>941.90234375</ele>
      </trkpt>
      <trkpt lat="44.26348" lon="5.37677">
        <ele>946.37109375</ele>
      </trkpt>
      <trkpt lat="44.26314" lon="5.37884">
        <ele>955.9296875</ele>
      </trkpt>
      <trkpt lat="44.26242" lon="5.38008">
        <ele>963.6328125</ele>
      </trkpt>
      <trkpt lat="44.26156" lon="5.3806">
        <ele>962.234375</ele>
      </trkpt>
      <trkpt lat="44.2617" lon="5.38131">
        <ele>971.14453125</ele>
      </trkpt>
      <trkpt lat="44.26349" lon="5.38079">
        <ele>995.3828125</ele>
      </trkpt>
      <trkpt lat="44.26502" lon="5.37949">
        <ele>1012.4765625</ele>
      </trkpt>
      <trkpt lat="44.26444" lon="5.3817">
        <ele>1036.16015625</ele>
      </trkpt>
      <trkpt lat="44.26381" lon="5.38183">
        <ele>1020.5625</ele>
      </trkpt>
      <trkpt lat="44.26408" lon="5.38339">
        <ele>1055.73828125</ele>
      </trkpt>
      <trkpt lat="44.26183" lon="5.38443">
        <ele>1047.0078125</ele>
      </trkpt>
      <trkpt lat="44.26067" lon="5.38729">
        <ele>1070.27734375</ele>
      </trkpt>
      <trkpt lat="44.26004" lon="5.3869">
        <ele>1053.46484375</ele>
      </trkpt>
      <trkpt lat="44.25873" lon="5.38807">
        <ele>1072.234375</ele>
      </trkpt>
      <trkpt lat="44.25685" lon="5.3893">
        <ele>1060.18359375</ele>
      </trkpt>
      <trkpt lat="44.25536" lon="5.39002">
        <ele>1043.19921875</ele>
      </trkpt>
      <trkpt lat="44.25498" lon="5.38995">
        <ele>1013.91796875</ele>
      </trkpt>
      <trkpt lat="44.25016" lon="5.39657">
        <ele>942.44921875</ele>
      </trkpt>
      <trkpt lat="44.25015" lon="5.39645">
        <ele>939.875</ele>
      </trkpt>
      <trkpt lat="44.25431" lon="5.38619">
        <ele>875.66796875</ele>
      </trkpt>
      <trkpt lat="44.2543" lon="5.38618">
        <ele>875.2578125</ele>
      </trkpt>
      <trkpt lat="44.25087" lon="5.38813">
        <ele>843.75</ele>
      </trkpt>
      <trkpt lat="44.25086" lon="5.38813">
        <ele>843.35546875</ele>
      </trkpt>
      <trkpt lat="44.25248" lon="5.37986">
        <ele>796.171875</ele>
      </trkpt>
      <trkpt lat="44.25249" lon="5.37935">
        <ele>791.54296875</ele>
      </trkpt>
      <trkpt lat="44.25596" lon="5.36782">
        <ele>754.83984375</ele>
      </trkpt>
      <trkpt lat="44.25883" lon="5.36277">
        <ele>818.10546875</ele>
      </trkpt>
      <trkpt lat="44.25883" lon="5.36277">
        <ele>818.13671875</ele>
      </trkpt>
      <trkpt lat="44.26453" lon="5.354">
        <ele>805.140625</ele>
      </trkpt>
      <trkpt lat="44.26453" lon="5.35399">
        <ele>805.25</ele>
      </trkpt>
      <trkpt lat="44.26605" lon="5.35525">
        <ele>775.83203125</ele>
      </trkpt>
      <trkpt lat="44.2654" lon="5.35775">
        <ele>758.38671875</ele>
      </trkpt>
      <trkpt lat="44.2654" lon="5.35776">
        <ele>758.37890625</ele>
      </trkpt>
      <trkpt lat="44.26785" lon="5.35671">
        <ele>742.046875</ele>
      </trkpt>
      <trkpt lat="44.26807" lon="5.35367">
        <ele>746.63671875</ele>
      </trkpt>
      <trkpt lat="44.26898" lon="5.35241">
        <ele>744.53515625</ele>
      </trkpt>
      <trkpt lat="44.27147" lon="5.34516">
        <ele>729.6796875</ele>
      </trkpt>
      <trkpt lat="44.27147" lon="5.34514">
        <ele>729.94140625</ele>
      </trkpt>
      <trkpt lat="44.2708" lon="5.34152">
        <ele>702.04296875</ele>
      </trkpt>
      <trkpt lat="44.27079" lon="5.34143">
        <ele>701.24609375</ele>
      </trkpt>
      <trkpt lat="44.27157" lon="5.34299">
        <ele>703.8125</ele>
      </trkpt>
      <trkpt lat="44.27125" lon="5.34126">
        <ele>677.0234375</ele>
      </trkpt>
      <trkpt lat="44.27123" lon="5.34115">
        <ele>677.4375</ele>
      </trkpt>
      <trkpt lat="44.27225" lon="5.33562">
        <ele>652.08203125</ele>
      </trkpt>
      <trkpt lat="44.27225" lon="5.33562">
        <ele>652.01953125</ele>
      </trkpt>
      <trkpt lat="44.27141" lon="5.33369">
        <ele>632.31640625</ele>
      </trkpt>
      <trkpt lat="44.27159" lon="5.33133">
        <ele>623.29296875</ele>
      </trkpt>
      <trkpt lat="44.27159" lon="5.33133">
        <ele>623.26953125</ele>
      </trkpt>
      <trkpt lat="44.27177" lon="5.33101">
        <ele>629.34375</ele>
      </trkpt>
      <trkpt lat="44.27214" lon="5.33038">
        <ele>634.828125</ele>
      </trkpt>
      <trkpt lat="44.27214" lon="5.33038">
        <ele>634.78515625</ele>
      </trkpt>
      <trkpt lat="44.27207" lon="5.33174">
        <ele>648.66015625</ele>
      </trkpt>
      <trkpt lat="44.27207" lon="5.33175">
        <ele>648.7421875</ele>
      </trkpt>
      <trkpt lat="44.27405" lon="5.32981">
        <ele>690.94140625</ele>
      </trkpt>
      <trkpt lat="44.27405" lon="5.32981">
        <ele>690.796875</ele>
      </trkpt>
      <trkpt lat="44.27404" lon="5.33487">
        <ele>758.7890625</ele>
      </trkpt>
      <trkpt lat="44.27646" lon="5.33205">
        <ele>809.65234375</ele>
      </trkpt>
      <trkpt lat="44.27675" lon="5.33074">
        <ele>798.734375</ele>
      </trkpt>
      <trkpt lat="44.27822" lon="5.32878">
        <ele>851.7265625</ele>
      </trkpt>
      <trkpt lat="44.28222" lon="5.32045">
        <ele>938.984375</ele>
      </trkpt>
      <trkpt lat="44.28222" lon="5.32045">
        <ele>938.9765625</ele>
      </trkpt>
      <trkpt lat="44.28535" lon="5.31921">
        <ele>934.33984375</ele>
      </trkpt>
      <trkpt lat="44.28705" lon="5.32458">
        <ele>914.80859375</ele>
      </trkpt>
      <trkpt lat="44.28625" lon="5.32982">
        <ele>897.890625</ele>
      </trkpt>
      <trkpt lat="44.28652" lon="5.33857">
        <ele>820.1328125</ele>
      </trkpt>
      <trkpt lat="44.28652" lon="5.33857">
        <ele>819.984375</ele>
      </trkpt>
      <trkpt lat="44.28727" lon="5.33675">
        <ele>788.98046875</ele>
      </trkpt>
      <trkpt lat="44.28726" lon="5.33642">
        <ele>788.890625</ele>
      </trkpt>
      <trkpt lat="44.29403" lon="5.33869">
        <ele>592.02734375</ele>
      </trkpt>
      <trkpt lat="44.29494" lon="5.33995">
        <ele>559.62890625</ele>
      </trkpt>
      <trkpt lat="44.29562" lon="5.34273">
        <ele>549.90234375</ele>
      </trkpt>
      <trkpt lat="44.29554" lon="5.34561">
        <ele>541.57421875</ele>
      </trkpt>
      <trkpt lat="44.2956" lon="5.34589">
        <ele>542.9453125</ele>
      </trkpt>
      <trkpt lat="44.29565" lon="5.34613">
        <ele>545.00390625</ele>
      </trkpt>
      <trkpt lat="44.2972" lon="5.34445">
        <ele>544.0546875</ele>
      </trkpt>
      <trkpt lat="44.30115" lon="5.34807">
        <ele>522.5390625</ele>
      </trkpt>
      <trkpt lat="44.30172" lon="5.35367">
        <ele>530.58203125</ele>
      </trkpt>
      <trkpt lat="44.30172" lon="5.35367">
        <ele>530.51171875</ele>
      </trkpt>
      <trkpt lat="44.30596" lon="5.35986">
        <ele>603.8359375</ele>
      </trkpt>
      <trkpt lat="44.30454" lon="5.36149">
        <ele>646.5703125</ele>
      </trkpt>
      <trkpt lat="44.30451" lon="5.36163">
        <ele>648.71875</ele>
      </trkpt>
      <trkpt lat="44.30831" lon="5.37117">
        <ele>756.8203125</ele>
      </trkpt>
      <trkpt lat="44.3083" lon="5.37128">
        <ele>757.44921875</ele>
      </trkpt>
      <trkpt lat="44.309" lon="5.37809">
        <ele>783.2890625</ele>
      </trkpt>
      <trkpt lat="44.30901" lon="5.37824">
        <ele>782.171875</ele>
      </trkpt>
      <trkpt lat="44.31092" lon="5.38087">
        <ele>769.7890625</ele>
      </trkpt>
      <trkpt lat="44.31092" lon="5.38087">
        <ele>769.7578125</ele>
      </trkpt>
      <trkpt lat="44.30993" lon="5.38106">
        <ele>757.71484375</ele>
      </trkpt>
      <trkpt lat="44.30993" lon="5.38106">
        <ele>757.69921875</ele>
      </trkpt>
      <trkpt lat="44.31072" lon="5.38211">
        <ele>751.89453125</ele>
      </trkpt>
      <trkpt lat="44.30995" lon="5.38291">
        <ele>745.4921875</ele>
      </trkpt>
      <trkpt lat="44.30993" lon="5.38292">
        <ele>745.60546875</ele>
        <time>2019-05-27T14:23:12Z</time>
      </trkpt>
      <trkpt lat="44.31125" lon="5.38359">
        <ele>765.83</ele>
      </trkpt>
      <trkpt lat="44.31212" lon="5.38259">
        <ele>770.63</ele>
      </trkpt>
      <trkpt lat="44.31247" lon="5.38237">
        <ele>772.56</ele>
      </trkpt>
      <trkpt lat="44.31295" lon="5.38267">
        <ele>774.48</ele>
      </trkpt>
      <trkpt lat="44.31366" lon="5.38193">
        <ele>777.84</ele>
      </trkpt>
      <trkpt lat="44.31476" lon="5.38184">
        <ele>782.65</ele>
      </trkpt>
      <trkpt lat="44.31538" lon="5.38156">
        <ele>785.53</ele>
      </trkpt>
      <trkpt lat="44.31601" lon="5.38103">
        <ele>788.42</ele>
      </trkpt>
      <trkpt lat="44.317" lon="5.37978">
        <ele>794.19</ele>
      </trkpt>
      <trkpt lat="44.31627" lon="5.37619">
        <ele>824.95</ele>
      </trkpt>
      <trkpt lat="44.31624" lon="5.37456">
        <ele>837.45</ele>
      </trkpt>
      <trkpt lat="44.31598" lon="5.37396">
        <ele>839.37</ele>
      </trkpt>
      <trkpt lat="44.31532" lon="5.37036">
        <ele>887.91</ele>
      </trkpt>
      <trkpt lat="44.31529" lon="5.36895">
        <ele>901.37</ele>
      </trkpt>
      <trkpt lat="44.31529" lon="5.3671">
        <ele>873.5</ele>
      </trkpt>
      <trkpt lat="44.31509" lon="5.36589">
        <ele>862.92</ele>
      </trkpt>
      <trkpt lat="44.3151" lon="5.36577">
        <ele>858.11</ele>
      </trkpt>
      <trkpt lat="44.31524" lon="5.36559">
        <ele>853.79</ele>
      </trkpt>
      <trkpt lat="44.31559" lon="5.36526">
        <ele>843.69</ele>
      </trkpt>
      <trkpt lat="44.31631" lon="5.36402">
        <ele>825.43</ele>
      </trkpt>
      <trkpt lat="44.31657" lon="5.36382">
        <ele>820.62</ele>
      </trkpt>
      <trkpt lat="44.31668" lon="5.36364">
        <ele>819.66</ele>
      </trkpt>
      <trkpt lat="44.31674" lon="5.36207">
        <ele>805.24</ele>
      </trkpt>
      <trkpt lat="44.31694" lon="5.36149">
        <ele>797.55</ele>
      </trkpt>
      <trkpt lat="44.3169" lon="5.36129">
        <ele>794.67</ele>
      </trkpt>
      <trkpt lat="44.31588" lon="5.35878">
        <ele>793.22</ele>
      </trkpt>
      <trkpt lat="44.3157" lon="5.35852">
        <ele>792.26</ele>
      </trkpt>
      <trkpt lat="44.3146" lon="5.35768">
        <ele>788.42</ele>
      </trkpt>
      <trkpt lat="44.31421" lon="5.35726">
        <ele>783.61</ele>
      </trkpt>
      <trkpt lat="44.31417" lon="5.35636">
        <ele>777.84</ele>
      </trkpt>
      <trkpt lat="44.31462" lon="5.35508">
        <ele>784.09</ele>
      </trkpt>
      <trkpt lat="44.31493" lon="5.35293">
        <ele>803.8</ele>
      </trkpt>
      <trkpt lat="44.31536" lon="5.35281">
        <ele>798.99</ele>
      </trkpt>
      <trkpt lat="44.31523" lon="5.35256">
        <ele>794.19</ele>
      </trkpt>
      <trkpt lat="44.31529" lon="5.35244">
        <ele>792.26</ele>
      </trkpt>
      <trkpt lat="44.31547" lon="5.35265">
        <ele>788.9</ele>
      </trkpt>
      <trkpt lat="44.31517" lon="5.35028">
        <ele>761.5</ele>
      </trkpt>
      <trkpt lat="44.31467" lon="5.34832">
        <ele>748.52</ele>
      </trkpt>
      <trkpt lat="44.31463" lon="5.34798">
        <ele>743.24</ele>
      </trkpt>
      <trkpt lat="44.31463" lon="5.34796">
        <ele>759.1</ele>
      </trkpt>
      <trkpt lat="44.31457" lon="5.34796">
        <ele>750.45</ele>
      </trkpt>
      <trkpt lat="44.31406" lon="5.34556">
        <ele>744.68</ele>
      </trkpt>
      <trkpt lat="44.31376" lon="5.33769">
        <ele>708.15</ele>
      </trkpt>
      <trkpt lat="44.31303" lon="5.33694">
        <ele>712.47</ele>
      </trkpt>
      <trkpt lat="44.31267" lon="5.33268">
        <ele>733.62</ele>
      </trkpt>
      <trkpt lat="44.31219" lon="5.33175">
        <ele>739.87</ele>
      </trkpt>
      <trkpt lat="44.31188" lon="5.3306">
        <ele>745.16</ele>
      </trkpt>
      <trkpt lat="44.31198" lon="5.33026">
        <ele>748.04</ele>
      </trkpt>
      <trkpt lat="44.31214" lon="5.33001">
        <ele>750.93</ele>
      </trkpt>
      <trkpt lat="44.31291" lon="5.32942">
        <ele>761.02</ele>
      </trkpt>
      <trkpt lat="44.31292" lon="5.3293">
        <ele>761.5</ele>
      </trkpt>
      <trkpt lat="44.31279" lon="5.32919">
        <ele>764.39</ele>
      </trkpt>
      <trkpt lat="44.31215" lon="5.32902">
        <ele>774</ele>
      </trkpt>
      <trkpt lat="44.31205" lon="5.32874">
        <ele>775.92</ele>
      </trkpt>
      <trkpt lat="44.3121" lon="5.32721">
        <ele>775.92</ele>
      </trkpt>
      <trkpt lat="44.31269" lon="5.32582">
        <ele>779.29</ele>
      </trkpt>
      <trkpt lat="44.3127" lon="5.3243">
        <ele>784.09</ele>
      </trkpt>
      <trkpt lat="44.31186" lon="5.31965">
        <ele>812.45</ele>
      </trkpt>
      <trkpt lat="44.31175" lon="5.31943">
        <ele>811.97</ele>
      </trkpt>
      <trkpt lat="44.31156" lon="5.3183">
        <ele>801.88</ele>
      </trkpt>
      <trkpt lat="44.31147" lon="5.31786">
        <ele>805.72</ele>
      </trkpt>
      <trkpt lat="44.3114" lon="5.3162">
        <ele>811.01</ele>
      </trkpt>
      <trkpt lat="44.31069" lon="5.31339">
        <ele>845.14</ele>
      </trkpt>
      <trkpt lat="44.31045" lon="5.3089">
        <ele>844.18</ele>
      </trkpt>
      <trkpt lat="44.31057" lon="5.30782">
        <ele>837.93</ele>
      </trkpt>
      <trkpt lat="44.31091" lon="5.30225">
        <ele>810.05</ele>
      </trkpt>
      <trkpt lat="44.31108" lon="5.3018">
        <ele>808.61</ele>
      </trkpt>
      <trkpt lat="44.31104" lon="5.29899">
        <ele>799.47</ele>
      </trkpt>
      <trkpt lat="44.31161" lon="5.29675">
        <ele>784.09</ele>
      </trkpt>
      <trkpt lat="44.31178" lon="5.29523">
        <ele>779.77</ele>
      </trkpt>
      <trkpt lat="44.31168" lon="5.2923">
        <ele>778.32</ele>
      </trkpt>
      <trkpt lat="44.31154" lon="5.29171">
        <ele>778.81</ele>
      </trkpt>
      <trkpt lat="44.311" lon="5.29076">
        <ele>775.92</ele>
      </trkpt>
      <trkpt lat="44.31084" lon="5.28968">
        <ele>773.04</ele>
      </trkpt>
      <trkpt lat="44.31092" lon="5.28922">
        <ele>773.52</ele>
      </trkpt>
      <trkpt lat="44.31146" lon="5.2876">
        <ele>764.39</ele>
      </trkpt>
      <trkpt lat="44.3114" lon="5.28739">
        <ele>762.94</ele>
      </trkpt>
      <trkpt lat="44.31115" lon="5.28724">
        <ele>761.02</ele>
      </trkpt>
      <trkpt lat="44.31102" lon="5.28689">
        <ele>760.06</ele>
      </trkpt>
      <trkpt lat="44.31115" lon="5.28538">
        <ele>755.25</ele>
      </trkpt>
      <trkpt lat="44.31147" lon="5.28446">
        <ele>750.93</ele>
      </trkpt>
      <trkpt lat="44.31155" lon="5.28256">
        <ele>739.39</ele>
      </trkpt>
      <trkpt lat="44.31175" lon="5.28193">
        <ele>735.07</ele>
      </trkpt>
      <trkpt lat="44.31183" lon="5.28108">
        <ele>729.78</ele>
      </trkpt>
      <trkpt lat="44.31245" lon="5.28069">
        <ele>727.37</ele>
      </trkpt>
      <trkpt lat="44.31271" lon="5.27764">
        <ele>718.72</ele>
      </trkpt>
      <trkpt lat="44.31304" lon="5.27462">
        <ele>702.38</ele>
      </trkpt>
      <trkpt lat="44.31284" lon="5.27334">
        <ele>697.09</ele>
      </trkpt>
      <trkpt lat="44.31289" lon="5.27258">
        <ele>694.21</ele>
      </trkpt>
      <trkpt lat="44.31338" lon="5.27092">
        <ele>685.56</ele>
      </trkpt>
      <trkpt lat="44.31429" lon="5.26927">
        <ele>675.46</ele>
      </trkpt>
      <trkpt lat="44.31461" lon="5.26906">
        <ele>673.54</ele>
      </trkpt>
      <trkpt lat="44.31515" lon="5.26899">
        <ele>669.7</ele>
      </trkpt>
      <trkpt lat="44.31566" lon="5.2686">
        <ele>666.81</ele>
      </trkpt>
      <trkpt lat="44.31614" lon="5.26841">
        <ele>663.93</ele>
      </trkpt>
      <trkpt lat="44.31897" lon="5.2653">
        <ele>646.62</ele>
      </trkpt>
      <trkpt lat="44.31947" lon="5.26447">
        <ele>642.78</ele>
      </trkpt>
      <trkpt lat="44.31989" lon="5.26407">
        <ele>640.38</ele>
      </trkpt>
      <trkpt lat="44.32018" lon="5.26327">
        <ele>638.45</ele>
      </trkpt>
      <trkpt lat="44.32057" lon="5.26277">
        <ele>636.53</ele>
      </trkpt>
      <trkpt lat="44.32094" lon="5.26254">
        <ele>635.09</ele>
      </trkpt>
      <trkpt lat="44.32143" lon="5.2628">
        <ele>631.72</ele>
      </trkpt>
      <trkpt lat="44.32221" lon="5.26396">
        <ele>624.03</ele>
      </trkpt>
      <trkpt lat="44.32264" lon="5.26394">
        <ele>621.15</ele>
      </trkpt>
      <trkpt lat="44.32288" lon="5.26372">
        <ele>619.71</ele>
      </trkpt>
      <trkpt lat="44.32333" lon="5.26347">
        <ele>616.34</ele>
      </trkpt>
      <trkpt lat="44.32373" lon="5.26344">
        <ele>612.5</ele>
      </trkpt>
      <trkpt lat="44.32382" lon="5.26324">
        <ele>611.54</ele>
      </trkpt>
      <trkpt lat="44.32379" lon="5.26267">
        <ele>609.61</ele>
      </trkpt>
      <trkpt lat="44.32407" lon="5.26223">
        <ele>608.17</ele>
      </trkpt>
      <trkpt lat="44.32459" lon="5.26213">
        <ele>609.13</ele>
      </trkpt>
      <trkpt lat="44.3256" lon="5.2617">
        <ele>610.09</ele>
      </trkpt>
      <trkpt lat="44.32608" lon="5.2614">
        <ele>611.06</ele>
      </trkpt>
      <trkpt lat="44.32781" lon="5.2582">
        <ele>608.65</ele>
      </trkpt>
      <trkpt lat="44.32798" lon="5.25766">
        <ele>608.17</ele>
      </trkpt>
      <trkpt lat="44.32787" lon="5.25554">
        <ele>610.57</ele>
      </trkpt>
      <trkpt lat="44.32803" lon="5.25533">
        <ele>610.57</ele>
      </trkpt>
      <trkpt lat="44.32844" lon="5.25535">
        <ele>610.09</ele>
      </trkpt>
      <trkpt lat="44.32881" lon="5.25508">
        <ele>610.57</ele>
      </trkpt>
      <trkpt lat="44.32902" lon="5.25473">
        <ele>611.06</ele>
      </trkpt>
      <trkpt lat="44.32914" lon="5.25374">
        <ele>611.54</ele>
      </trkpt>
      <trkpt lat="44.32898" lon="5.25335">
        <ele>612.02</ele>
      </trkpt>
      <trkpt lat="44.32841" lon="5.25305">
        <ele>610.57</ele>
      </trkpt>
      <trkpt lat="44.32778" lon="5.25239">
        <ele>608.65</ele>
      </trkpt>
      <trkpt lat="44.3275" lon="5.25184">
        <ele>606.73</ele>
      </trkpt>
      <trkpt lat="44.32722" lon="5.25082">
        <ele>603.85</ele>
      </trkpt>
      <trkpt lat="44.32746" lon="5.24956">
        <ele>600.96</ele>
      </trkpt>
      <trkpt lat="44.32794" lon="5.24916">
        <ele>604.33</ele>
      </trkpt>
      <trkpt lat="44.32861" lon="5.24902">
        <ele>608.17</ele>
      </trkpt>
      <trkpt lat="44.32877" lon="5.24868">
        <ele>611.06</ele>
      </trkpt>
      <trkpt lat="44.32877" lon="5.24793">
        <ele>617.3</ele>
      </trkpt>
      <trkpt lat="44.32848" lon="5.2469">
        <ele>623.55</ele>
      </trkpt>
      <trkpt lat="44.32843" lon="5.24622">
        <ele>625.96</ele>
      </trkpt>
      <trkpt lat="44.32821" lon="5.24594">
        <ele>627.4</ele>
      </trkpt>
      <trkpt lat="44.32782" lon="5.24473">
        <ele>631.24</ele>
      </trkpt>
      <trkpt lat="44.32795" lon="5.24425">
        <ele>633.17</ele>
      </trkpt>
      <trkpt lat="44.32836" lon="5.244">
        <ele>632.1</ele>
      </trkpt>
      <trkpt lat="44.33119" lon="5.24201">
        <ele>651.4</ele>
      </trkpt>
      <trkpt lat="44.32855" lon="5.23772">
        <ele>689.5</ele>
      </trkpt>
      <trkpt lat="44.32796" lon="5.23487">
        <ele>709.1</ele>
      </trkpt>
      <trkpt lat="44.33174" lon="5.23602">
        <ele>715.5</ele>
      </trkpt>
      <trkpt lat="44.3318" lon="5.23529">
        <ele>722.3</ele>
      </trkpt>
      <trkpt lat="44.3291" lon="5.22911">
        <ele>703.5</ele>
      </trkpt>
      <trkpt lat="44.32413" lon="5.22785">
        <ele>698.7</ele>
      </trkpt>
      <trkpt lat="44.3257" lon="5.22418">
        <ele>715.1</ele>
      </trkpt>
      <trkpt lat="44.32388" lon="5.21947">
        <ele>736.3</ele>
      </trkpt>
      <trkpt lat="44.32583" lon="5.21894">
        <ele>724.1</ele>
      </trkpt>
      <trkpt lat="44.32614" lon="5.21821">
        <ele>723.3</ele>
      </trkpt>
      <trkpt lat="44.32608" lon="5.21811">
        <ele>722.8</ele>
      </trkpt>
      <trkpt lat="44.32805" lon="5.21662">
        <ele>714.4</ele>
        <time>2017-10-28T08:33:26Z</time>
      </trkpt>
      <trkpt lat="44.32876" lon="5.21583">
        <ele>707.19</ele>
        <time>2017-10-28T08:33:36Z</time>
      </trkpt>
      <trkpt lat="44.33058" lon="5.21538">
        <ele>688.92</ele>
        <time>2017-10-28T08:33:57Z</time>
      </trkpt>
      <trkpt lat="44.33148" lon="5.21489">
        <ele>684.6</ele>
        <time>2017-10-28T08:34:07Z</time>
      </trkpt>
      <trkpt lat="44.33318" lon="5.21362">
        <ele>669.7</ele>
        <time>2017-10-28T08:34:26Z</time>
      </trkpt>
      <trkpt lat="44.33399" lon="5.21339">
        <ele>665.85</ele>
        <time>2017-10-28T08:34:43Z</time>
      </trkpt>
      <trkpt lat="44.33482" lon="5.21374">
        <ele>660.56</ele>
        <time>2017-10-28T08:34:55Z</time>
      </trkpt>
      <trkpt lat="44.33511" lon="5.21477">
        <ele>651.91</ele>
        <time>2017-10-28T08:35:09Z</time>
      </trkpt>
      <trkpt lat="44.33608" lon="5.21451">
        <ele>646.62</ele>
        <time>2017-10-28T08:35:21Z</time>
      </trkpt>
      <trkpt lat="44.33693" lon="5.21384">
        <ele>641.82</ele>
        <time>2017-10-28T08:35:31Z</time>
      </trkpt>
      <trkpt lat="44.33776" lon="5.21356">
        <ele>637.49</ele>
        <time>2017-10-28T08:35:44Z</time>
      </trkpt>
      <trkpt lat="44.33953" lon="5.21312">
        <ele>625.47</ele>
        <time>2017-10-28T08:36:06Z</time>
      </trkpt>
      <trkpt lat="44.34007" lon="5.21393">
        <ele>615.86</ele>
        <time>2017-10-28T08:36:23Z</time>
      </trkpt>
      <trkpt lat="44.34005" lon="5.21645">
        <ele>603.36</ele>
        <time>2017-10-28T08:36:47Z</time>
      </trkpt>
      <trkpt lat="44.33952" lon="5.21753">
        <ele>603.36</ele>
        <time>2017-10-28T08:36:56Z</time>
      </trkpt>
      <trkpt lat="44.33937" lon="5.21868">
        <ele>599.52</ele>
        <time>2017-10-28T08:37:08Z</time>
      </trkpt>
      <trkpt lat="44.33991" lon="5.22012">
        <ele>592.79</ele>
        <time>2017-10-28T08:37:40Z</time>
      </trkpt>
      <trkpt lat="44.34182" lon="5.2199">
        <ele>593.75</ele>
        <time>2017-10-28T08:37:58Z</time>
      </trkpt>
      <trkpt lat="44.34243" lon="5.21922">
        <ele>594.23</ele>
        <time>2017-10-28T08:38:11Z</time>
      </trkpt>
      <trkpt lat="44.34335" lon="5.21876">
        <ele>597.12</ele>
        <time>2017-10-28T08:38:21Z</time>
      </trkpt>
      <trkpt lat="44.34423" lon="5.21863">
        <ele>597.12</ele>
        <time>2017-10-28T08:38:34Z</time>
      </trkpt>
      <trkpt lat="44.3448" lon="5.21921">
        <ele>588.95</ele>
        <time>2017-10-28T08:38:48Z</time>
      </trkpt>
      <trkpt lat="44.3466" lon="5.21953">
        <ele>576.45</ele>
        <time>2017-10-28T08:39:11Z</time>
      </trkpt>
      <trkpt lat="44.34747" lon="5.21937">
        <ele>573.08</ele>
        <time>2017-10-28T08:39:22Z</time>
      </trkpt>
      <trkpt lat="44.34818" lon="5.22025">
        <ele>572.6</ele>
        <time>2017-10-28T08:39:31Z</time>
      </trkpt>
      <trkpt lat="44.34905" lon="5.22077">
        <ele>559.14</ele>
        <time>2017-10-28T08:39:44Z</time>
      </trkpt>
      <trkpt lat="44.34985" lon="5.22151">
        <ele>547.13</ele>
        <time>2017-10-28T08:39:54Z</time>
      </trkpt>
      <trkpt lat="44.35025" lon="5.22246">
        <ele>547.61</ele>
        <time>2017-10-28T08:40:08Z</time>
      </trkpt>
      <trkpt lat="44.35108" lon="5.22174">
        <ele>547.13</ele>
        <time>2017-10-28T08:40:18Z</time>
      </trkpt>
      <trkpt lat="44.352" lon="5.22185">
        <ele>542.8</ele>
        <time>2017-10-28T08:40:29Z</time>
      </trkpt>
      <trkpt lat="44.35224" lon="5.22299">
        <ele>535.59</ele>
        <time>2017-10-28T08:40:43Z</time>
      </trkpt>
      <trkpt lat="44.35272" lon="5.22409">
        <ele>527.42</ele>
        <time>2017-10-28T08:40:55Z</time>
      </trkpt>
      <trkpt lat="44.35353" lon="5.22478">
        <ele>517.33</ele>
        <time>2017-10-28T08:41:06Z</time>
      </trkpt>
      <trkpt lat="44.35438" lon="5.22468">
        <ele>511.08</ele>
        <time>2017-10-28T08:41:18Z</time>
      </trkpt>
      <trkpt lat="44.35529" lon="5.22407">
        <ele>502.91</ele>
        <time>2017-10-28T08:41:29Z</time>
      </trkpt>
      <trkpt lat="44.35615" lon="5.22448">
        <ele>500.5</ele>
        <time>2017-10-28T08:41:38Z</time>
      </trkpt>
      <trkpt lat="44.35707" lon="5.22443">
        <ele>500.02</ele>
        <time>2017-10-28T08:41:46Z</time>
      </trkpt>
      <trkpt lat="44.35792" lon="5.22453">
        <ele>503.87</ele>
        <time>2017-10-28T08:41:58Z</time>
      </trkpt>
      <trkpt lat="44.35806" lon="5.22576">
        <ele>499.54</ele>
        <time>2017-10-28T08:42:11Z</time>
      </trkpt>
      <trkpt lat="44.35847" lon="5.22641">
        <ele>493.29</ele>
        <time>2017-10-28T08:42:40Z</time>
      </trkpt>
      <trkpt lat="44.35836" lon="5.22513">
        <ele>488.97</ele>
        <time>2017-10-28T08:44:12Z</time>
      </trkpt>
      <trkpt lat="44.35907" lon="5.22423">
        <ele>479.35</ele>
        <time>2017-10-28T08:44:21Z</time>
      </trkpt>
      <trkpt lat="44.35963" lon="5.22422">
        <ele>469.74</ele>
        <time>2017-10-28T08:44:36Z</time>
      </trkpt>
      <trkpt lat="44.35924" lon="5.22334">
        <ele>458.69</ele>
        <time>2017-10-28T08:44:48Z</time>
      </trkpt>
      <trkpt lat="44.36015" lon="5.22391">
        <ele>451.48</ele>
        <time>2017-10-28T08:45:00Z</time>
      </trkpt>
      <trkpt lat="44.35973" lon="5.22479">
        <ele>442.34</ele>
        <time>2017-10-28T08:45:10Z</time>
      </trkpt>
      <trkpt lat="44.36055" lon="5.22427">
        <ele>434.65</ele>
        <time>2017-10-28T08:45:21Z</time>
      </trkpt>
      <trkpt lat="44.36044" lon="5.22318">
        <ele>425.04</ele>
        <time>2017-10-28T08:45:30Z</time>
      </trkpt>
      <trkpt lat="44.36083" lon="5.22335">
        <ele>416.87</ele>
        <time>2017-10-28T08:45:43Z</time>
      </trkpt>
      <trkpt lat="44.36081" lon="5.22301">
        <ele>409.18</ele>
        <time>2017-10-28T08:45:55Z</time>
      </trkpt>
      <trkpt lat="44.36205" lon="5.22371">
        <ele>395.72</ele>
        <time>2017-10-28T08:46:17Z</time>
      </trkpt>
      <trkpt lat="44.36307" lon="5.22358">
        <ele>389.47</ele>
        <time>2017-10-28T08:46:24Z</time>
      </trkpt>
      <trkpt lat="44.36367" lon="5.22288">
        <ele>384.18</ele>
        <time>2017-10-28T08:46:33Z</time>
      </trkpt>
      <trkpt lat="44.36468" lon="5.22276">
        <ele>387.07</ele>
        <time>2017-10-28T08:46:43Z</time>
      </trkpt>
      <trkpt lat="44.36563" lon="5.22293">
        <ele>384.66</ele>
        <time>2017-10-28T08:46:50Z</time>
      </trkpt>
      <trkpt lat="44.36669" lon="5.22287">
        <ele>376.49</ele>
        <time>2017-10-28T08:46:58Z</time>
      </trkpt>
      <trkpt lat="44.36853" lon="5.22364">
        <ele>373.13</ele>
        <time>2017-10-28T08:47:14Z</time>
      </trkpt>
      <trkpt lat="44.36937" lon="5.22318">
        <ele>373.13</ele>
        <time>2017-10-28T08:47:21Z</time>
      </trkpt>
      <trkpt lat="44.37024" lon="5.22276">
        <ele>370.73</ele>
        <time>2017-10-28T08:47:28Z</time>
      </trkpt>
      <trkpt lat="44.37127" lon="5.22267">
        <ele>368.32</ele>
        <time>2017-10-28T08:47:35Z</time>
      </trkpt>
      <trkpt lat="44.37228" lon="5.22273">
        <ele>364</ele>
        <time>2017-10-28T08:47:45Z</time>
      </trkpt>
      <trkpt lat="44.37321" lon="5.2225">
        <ele>359.19</ele>
        <time>2017-10-28T08:47:51Z</time>
      </trkpt>
      <trkpt lat="44.37422" lon="5.22258">
        <ele>357.27</ele>
        <time>2017-10-28T08:47:58Z</time>
      </trkpt>
      <trkpt lat="44.37516" lon="5.22227">
        <ele>355.34</ele>
        <time>2017-10-28T08:48:05Z</time>
      </trkpt>
      <trkpt lat="44.37595" lon="5.22164">
        <ele>352.46</ele>
        <time>2017-10-28T08:48:10Z</time>
      </trkpt>
      <trkpt lat="44.37692" lon="5.22113">
        <ele>350.54</ele>
        <time>2017-10-28T08:48:16Z</time>
      </trkpt>
      <trkpt lat="44.37789" lon="5.22094">
        <ele>346.69</ele>
        <time>2017-10-28T08:48:22Z</time>
      </trkpt>
      <trkpt lat="44.37876" lon="5.22084">
        <ele>344.29</ele>
        <time>2017-10-28T08:48:28Z</time>
      </trkpt>
      <trkpt lat="44.37982" lon="5.22079">
        <ele>338.04</ele>
        <time>2017-10-28T08:48:36Z</time>
      </trkpt>
      <trkpt lat="44.38072" lon="5.22129">
        <ele>336.12</ele>
        <time>2017-10-28T08:48:42Z</time>
      </trkpt>
      <trkpt lat="44.38164" lon="5.22162">
        <ele>331.79</ele>
        <time>2017-10-28T08:48:50Z</time>
      </trkpt>
      <trkpt lat="44.38219" lon="5.22074">
        <ele>330.83</ele>
        <time>2017-10-28T08:49:02Z</time>
      </trkpt>
      <trkpt lat="44.38322" lon="5.22103">
        <ele>329.39</ele>
        <time>2017-10-28T08:49:11Z</time>
      </trkpt>
      <trkpt lat="44.38388" lon="5.22019">
        <ele>329.87</ele>
        <time>2017-10-28T08:49:20Z</time>
      </trkpt>
      <trkpt lat="44.38413" lon="5.21891">
        <ele>328.43</ele>
        <time>2017-10-28T08:49:26Z</time>
      </trkpt>
      <trkpt lat="44.38482" lon="5.21785">
        <ele>328.43</ele>
        <time>2017-10-28T08:49:33Z</time>
      </trkpt>
      <trkpt lat="44.38557" lon="5.21696">
        <ele>327.47</ele>
        <time>2017-10-28T08:49:39Z</time>
      </trkpt>
      <trkpt lat="44.38618" lon="5.21605">
        <ele>326.99</ele>
        <time>2017-10-28T08:49:46Z</time>
      </trkpt>
      <trkpt lat="44.38611" lon="5.21475">
        <ele>326.02</ele>
        <time>2017-10-28T08:49:55Z</time>
      </trkpt>
      <trkpt lat="44.38581" lon="5.21356">
        <ele>326.02</ele>
        <time>2017-10-28T08:50:02Z</time>
      </trkpt>
      <trkpt lat="44.3853" lon="5.21246">
        <ele>326.02</ele>
        <time>2017-10-28T08:50:10Z</time>
      </trkpt>
      <trkpt lat="44.3845" lon="5.21172">
        <ele>329.87</ele>
        <time>2017-10-28T08:50:17Z</time>
      </trkpt>
      <trkpt lat="44.38318" lon="5.20975">
        <ele>325.06</ele>
        <time>2017-10-28T08:50:32Z</time>
      </trkpt>
      <trkpt lat="44.3828" lon="5.20839">
        <ele>322.18</ele>
        <time>2017-10-28T08:50:40Z</time>
      </trkpt>
      <trkpt lat="44.38258" lon="5.20441">
        <ele>318.81</ele>
        <time>2017-10-28T08:50:59Z</time>
      </trkpt>
      <trkpt lat="44.38257" lon="5.20311">
        <ele>320.74</ele>
        <time>2017-10-28T08:51:06Z</time>
      </trkpt>
      <trkpt lat="44.38241" lon="5.20172">
        <ele>317.85</ele>
        <time>2017-10-28T08:51:13Z</time>
      </trkpt>
      <trkpt lat="44.38179" lon="5.20061">
        <ele>322.66</ele>
        <time>2017-10-28T08:51:21Z</time>
      </trkpt>
      <trkpt lat="44.38143" lon="5.19938">
        <ele>320.26</ele>
        <time>2017-10-28T08:51:28Z</time>
      </trkpt>
      <trkpt lat="44.38056" lon="5.19911">
        <ele>320.74</ele>
        <time>2017-10-28T08:51:36Z</time>
      </trkpt>
      <trkpt lat="44.37994" lon="5.19848">
        <ele>321.7</ele>
        <time>2017-10-28T08:51:45Z</time>
      </trkpt>
      <trkpt lat="44.37921" lon="5.19741">
        <ele>322.66</ele>
        <time>2017-10-28T08:51:52Z</time>
      </trkpt>
      <trkpt lat="44.37863" lon="5.19642">
        <ele>317.85</ele>
        <time>2017-10-28T08:51:58Z</time>
      </trkpt>
      <trkpt lat="44.3781" lon="5.19389">
        <ele>316.41</ele>
        <time>2017-10-28T08:52:11Z</time>
      </trkpt>
      <trkpt lat="44.37848" lon="5.19127">
        <ele>307.76</ele>
        <time>2017-10-28T08:52:28Z</time>
      </trkpt>
      <trkpt lat="44.37896" lon="5.19073">
        <ele>308.24</ele>
        <time>2017-10-28T08:52:45Z</time>
      </trkpt>
      <trkpt lat="44.37916" lon="5.18943">
        <ele>308.72</ele>
        <time>2017-10-28T08:53:02Z</time>
      </trkpt>
      <trkpt lat="44.37844" lon="5.19079">
        <ele>303.6</ele>
      </trkpt>
      <trkpt lat="44.37895" lon="5.1907">
        <ele>306.4</ele>
      </trkpt>
      <trkpt lat="44.37887" lon="5.19037">
        <ele>301.3</ele>
      </trkpt>
      <trkpt lat="44.37917" lon="5.18998">
        <ele>304</ele>
      </trkpt>
      <trkpt lat="44.38072" lon="5.19245">
        <ele>305.7</ele>
      </trkpt>
      <trkpt lat="44.38434" lon="5.19459">
        <ele>313.1</ele>
      </trkpt>
      <trkpt lat="44.38838" lon="5.19646">
        <ele>319.2</ele>
      </trkpt>
      <trkpt lat="44.39096" lon="5.1952">
        <ele>323.4</ele>
      </trkpt>
      <trkpt lat="44.3939" lon="5.19607">
        <ele>329.2</ele>
      </trkpt>
      <trkpt lat="44.39907" lon="5.19532">
        <ele>333</ele>
      </trkpt>
      <trkpt lat="44.40427" lon="5.19787">
        <ele>347.7</ele>
      </trkpt>
      <trkpt lat="44.40726" lon="5.20047">
        <ele>352.4</ele>
      </trkpt>
      <trkpt lat="44.41054" lon="5.20195">
        <ele>355.9</ele>
      </trkpt>
      <trkpt lat="44.41106" lon="5.20016">
        <ele>359.1</ele>
      </trkpt>
      <trkpt lat="44.41253" lon="5.19881">
        <ele>365.7</ele>
      </trkpt>
      <trkpt lat="44.41289" lon="5.19689">
        <ele>368.3</ele>
      </trkpt>
      <trkpt lat="44.41417" lon="5.19626">
        <ele>376.7</ele>
      </trkpt>
      <trkpt lat="44.41436" lon="5.1948">
        <ele>374.3</ele>
      </trkpt>
      <trkpt lat="44.41653" lon="5.19471">
        <ele>388.3</ele>
      </trkpt>
      <trkpt lat="44.41898" lon="5.19269">
        <ele>388.7</ele>
      </trkpt>
      <trkpt lat="44.42254" lon="5.19143">
        <ele>398.6</ele>
      </trkpt>
      <trkpt lat="44.42257" lon="5.18838">
        <ele>405.4</ele>
      </trkpt>
      <trkpt lat="44.42359" lon="5.18613">
        <ele>417.6</ele>
      </trkpt>
      <trkpt lat="44.42418" lon="5.18393">
        <ele>417.8</ele>
      </trkpt>
      <trkpt lat="44.42809" lon="5.17998">
        <ele>436.3</ele>
      </trkpt>
      <trkpt lat="44.42817" lon="5.17945">
        <ele>434.7</ele>
      </trkpt>
      <trkpt lat="44.42889" lon="5.17888">
        <ele>432.9</ele>
      </trkpt>
      <trkpt lat="44.42925" lon="5.17909">
        <ele>438.5</ele>
      </trkpt>
      <trkpt lat="44.43401" lon="5.17142">
        <ele>514.7</ele>
      </trkpt>
      <trkpt lat="44.4345" lon="5.17184">
        <ele>529.9</ele>
      </trkpt>
      <trkpt lat="44.4347" lon="5.17115">
        <ele>537.6</ele>
      </trkpt>
      <trkpt lat="44.43525" lon="5.17253">
        <ele>560.8</ele>
      </trkpt>
      <trkpt lat="44.43574" lon="5.17047">
        <ele>590.8</ele>
      </trkpt>
      <trkpt lat="44.43563" lon="5.16915">
        <ele>609.3</ele>
      </trkpt>
      <trkpt lat="44.43459" lon="5.16924">
        <ele>606.4</ele>
      </trkpt>
      <trkpt lat="44.43457" lon="5.16867">
        <ele>622.9</ele>
      </trkpt>
      <trkpt lat="44.43532" lon="5.16738">
        <ele>642.1</ele>
      </trkpt>
      <trkpt lat="44.43542" lon="5.16667">
        <ele>641.7</ele>
      </trkpt>
      <trkpt lat="44.43616" lon="5.16502">
        <ele>651.2</ele>
      </trkpt>
      <trkpt lat="44.43864" lon="5.16262">
        <ele>706.1</ele>
      </trkpt>
      <trkpt lat="44.44064" lon="5.16177">
        <ele>724.4</ele>
      </trkpt>
      <trkpt lat="44.44291" lon="5.16013">
        <ele>744.6</ele>
      </trkpt>
      <trkpt lat="44.4433" lon="5.15953">
        <ele>750.7</ele>
      </trkpt>
      <trkpt lat="44.44472" lon="5.15893">
        <ele>761.7</ele>
      </trkpt>
      <trkpt lat="44.44542" lon="5.16043">
        <ele>754.5</ele>
      </trkpt>
      <trkpt lat="44.44722" lon="5.16058">
        <ele>773.2</ele>
      </trkpt>
      <trkpt lat="44.44788" lon="5.15986">
        <ele>758.3</ele>
      </trkpt>
      <trkpt lat="44.44862" lon="5.16053">
        <ele>748.5</ele>
      </trkpt>
      <trkpt lat="44.44893" lon="5.16001">
        <ele>737.8</ele>
      </trkpt>
      <trkpt lat="44.44914" lon="5.16006">
        <ele>736.8</ele>
      </trkpt>
      <trkpt lat="44.44991" lon="5.15876">
        <ele>707.9</ele>
      </trkpt>
      <trkpt lat="44.45048" lon="5.15878">
        <ele>716.3</ele>
      </trkpt>
      <trkpt lat="44.45199" lon="5.15766">
        <ele>682.7</ele>
      </trkpt>
      <trkpt lat="44.45581" lon="5.15842">
        <ele>655.7</ele>
      </trkpt>
      <trkpt lat="44.45713" lon="5.16053">
        <ele>652.5</ele>
      </trkpt>
      <trkpt lat="44.45681" lon="5.15905">
        <ele>641.2</ele>
      </trkpt>
      <trkpt lat="44.45617" lon="5.15793">
        <ele>642.5</ele>
      </trkpt>
      <trkpt lat="44.45595" lon="5.15609">
        <ele>630.1</ele>
      </trkpt>
      <trkpt lat="44.45452" lon="5.15564">
        <ele>627.1</ele>
      </trkpt>
      <trkpt lat="44.4542" lon="5.15501">
        <ele>621.9</ele>
      </trkpt>
      <trkpt lat="44.45296" lon="5.15411">
        <ele>616.1</ele>
      </trkpt>
      <trkpt lat="44.45247" lon="5.15263">
        <ele>611.7</ele>
      </trkpt>
      <trkpt lat="44.45681" lon="5.15294">
        <ele>600.3</ele>
      </trkpt>
      <trkpt lat="44.45819" lon="5.15115">
        <ele>593.7</ele>
      </trkpt>
      <trkpt lat="44.45969" lon="5.1503">
        <ele>588.2</ele>
      </trkpt>
      <trkpt lat="44.46218" lon="5.1472">
        <ele>575.6</ele>
      </trkpt>
      <trkpt lat="44.46303" lon="5.14748">
        <ele>573.9</ele>
      </trkpt>
      <trkpt lat="44.46491" lon="5.14281">
        <ele>569.6</ele>
      </trkpt>
      <trkpt lat="44.46658" lon="5.14163">
        <ele>561.1</ele>
      </trkpt>
      <trkpt lat="44.47102" lon="5.13602">
        <ele>547.8</ele>
      </trkpt>
      <trkpt lat="44.47588" lon="5.13086">
        <ele>539.6</ele>
      </trkpt>
      <trkpt lat="44.47588" lon="5.13063">
        <ele>535.9</ele>
      </trkpt>
      <trkpt lat="44.48437" lon="5.12726">
        <ele>521.4</ele>
      </trkpt>
      <trkpt lat="44.48868" lon="5.11963">
        <ele>502.5</ele>
      </trkpt>
      <trkpt lat="44.49649" lon="5.11559">
        <ele>482.5</ele>
      </trkpt>
      <trkpt lat="44.49663" lon="5.11312">
        <ele>478.1</ele>
      </trkpt>
      <trkpt lat="44.49919" lon="5.1111">
        <ele>472</ele>
      </trkpt>
      <trkpt lat="44.50094" lon="5.10414">
        <ele>461</ele>
      </trkpt>
      <trkpt lat="44.5004" lon="5.09786">
        <ele>464</ele>
      </trkpt>
      <trkpt lat="44.50013" lon="5.09629">
        <ele>460.2</ele>
      </trkpt>
      <trkpt lat="44.5004" lon="5.09068">
        <ele>464.9</ele>
      </trkpt>
      <trkpt lat="44.5008" lon="5.09068">
        <ele>453.4</ele>
      </trkpt>
      <trkpt lat="44.50323" lon="5.08731">
        <ele>442.8</ele>
      </trkpt>
      <trkpt lat="44.50026" lon="5.07811">
        <ele>434.3</ele>
      </trkpt>
      <trkpt lat="44.50121" lon="5.0707">
        <ele>430.8</ele>
      </trkpt>
      <trkpt lat="44.49811" lon="5.06329">
        <ele>425.8</ele>
      </trkpt>
      <trkpt lat="44.49636" lon="5.05993">
        <ele>416.7</ele>
      </trkpt>
      <trkpt lat="44.49649" lon="5.05319">
        <ele>401</ele>
      </trkpt>
      <trkpt lat="44.49663" lon="5.05319">
        <ele>398.3</ele>
      </trkpt>
      <trkpt lat="44.49838" lon="5.04623">
        <ele>387.7</ele>
      </trkpt>
      <trkpt lat="44.49734" lon="5.04268">
        <ele>395.2</ele>
      </trkpt>
      <trkpt lat="44.48656" lon="5.0337">
        <ele>367.9</ele>
      </trkpt>
      <trkpt lat="44.48656" lon="5.03355">
        <ele>367.6</ele>
      </trkpt>
      <trkpt lat="44.48224" lon="5.03101">
        <ele>356.3</ele>
      </trkpt>
      <trkpt lat="44.47964" lon="5.02921">
        <ele>352.1</ele>
      </trkpt>
      <trkpt lat="44.48054" lon="5.02697">
        <ele>343.9</ele>
      </trkpt>
      <trkpt lat="44.47827" lon="5.02897">
        <ele>350.48</ele>
        <time>2017-11-12T11:41:38Z</time>
      </trkpt>
      <trkpt lat="44.47749" lon="5.02878">
        <ele>349.42</ele>
        <time>2017-11-12T11:41:48Z</time>
      </trkpt>
      <trkpt lat="44.47648" lon="5.02843">
        <ele>350.31</ele>
        <time>2017-11-12T11:42:00Z</time>
      </trkpt>
      <trkpt lat="44.46574" lon="5.02325">
        <ele>338.6</ele>
        <time>2017-11-12T11:42:57Z</time>
      </trkpt>
      <trkpt lat="44.46369" lon="5.02231">
        <ele>335</ele>
        <time>2017-11-12T11:43:04Z</time>
      </trkpt>
      <trkpt lat="44.46216" lon="5.02185">
        <ele>328.28</ele>
        <time>2017-11-12T11:43:10Z</time>
      </trkpt>
      <trkpt lat="44.45476" lon="5.01855">
        <ele>315.94</ele>
        <time>2017-11-12T11:43:40Z</time>
      </trkpt>
      <trkpt lat="44.45155" lon="5.01739">
        <ele>312.96</ele>
        <time>2017-11-12T11:43:53Z</time>
      </trkpt>
      <trkpt lat="44.45001" lon="5.01695">
        <ele>309.91</ele>
        <time>2017-11-12T11:43:59Z</time>
      </trkpt>
      <trkpt lat="44.44893" lon="5.01642">
        <ele>306.12</ele>
        <time>2017-11-12T11:44:04Z</time>
      </trkpt>
      <trkpt lat="44.44859" lon="5.01603">
        <ele>305.14</ele>
        <time>2017-11-12T11:44:06Z</time>
      </trkpt>
      <trkpt lat="44.44746" lon="5.014">
        <ele>296.69</ele>
        <time>2017-11-12T11:44:14Z</time>
      </trkpt>
      <trkpt lat="44.44708" lon="5.01368">
        <ele>297.35</ele>
        <time>2017-11-12T11:44:16Z</time>
      </trkpt>
      <trkpt lat="44.44572" lon="5.01283">
        <ele>292.93</ele>
        <time>2017-11-12T11:44:23Z</time>
      </trkpt>
      <trkpt lat="44.44471" lon="5.01211">
        <ele>285.49</ele>
        <time>2017-11-12T11:44:31Z</time>
      </trkpt>
      <trkpt lat="44.4446" lon="5.01186">
        <ele>286.11</ele>
        <time>2017-11-12T11:44:33Z</time>
      </trkpt>
      <trkpt lat="44.44457" lon="5.01146">
        <ele>288.27</ele>
        <time>2017-11-12T11:44:35Z</time>
      </trkpt>
      <trkpt lat="44.44461" lon="5.01041">
        <ele>288.16</ele>
        <time>2017-11-12T11:44:40Z</time>
      </trkpt>
      <trkpt lat="44.44429" lon="5.00917">
        <ele>292.11</ele>
        <time>2017-11-12T11:44:45Z</time>
      </trkpt>
      <trkpt lat="44.44253" lon="5.00308">
        <ele>299.91</ele>
        <time>2017-11-12T11:45:07Z</time>
      </trkpt>
      <trkpt lat="44.44224" lon="5.00201">
        <ele>304.04</ele>
        <time>2017-11-12T11:45:11Z</time>
      </trkpt>
      <trkpt lat="44.44219" lon="5.0012">
        <ele>307.82</ele>
        <time>2017-11-12T11:45:14Z</time>
      </trkpt>
      <trkpt lat="44.44232" lon="5.00044">
        <ele>312.47</ele>
        <time>2017-11-12T11:45:17Z</time>
      </trkpt>
      <trkpt lat="44.44261" lon="4.99927">
        <ele>314.79</ele>
        <time>2017-11-12T11:45:21Z</time>
      </trkpt>
      <trkpt lat="44.44354" lon="4.99541">
        <ele>314.11</ele>
        <time>2017-11-12T11:45:33Z</time>
      </trkpt>
      <trkpt lat="44.444" lon="4.99181">
        <ele>306.48</ele>
        <time>2017-11-12T11:45:44Z</time>
      </trkpt>
      <trkpt lat="44.44425" lon="4.9899">
        <ele>301.61</ele>
        <time>2017-11-12T11:45:50Z</time>
      </trkpt>
      <trkpt lat="44.44475" lon="4.98772">
        <ele>294.53</ele>
        <time>2017-11-12T11:45:58Z</time>
      </trkpt>
      <trkpt lat="44.44524" lon="4.98621">
        <ele>294.63</ele>
        <time>2017-11-12T11:46:06Z</time>
      </trkpt>
      <trkpt lat="44.44567" lon="4.98396">
        <ele>277.27</ele>
        <time>2017-11-12T11:46:21Z</time>
      </trkpt>
      <trkpt lat="44.44546" lon="4.98343">
        <ele>274.43</ele>
        <time>2017-11-12T11:46:26Z</time>
      </trkpt>
      <trkpt lat="44.44439" lon="4.98151">
        <ele>275.8</ele>
      </trkpt>
      <trkpt lat="44.44531" lon="4.98015">
        <ele>279.7</ele>
      </trkpt>
      <trkpt lat="44.44664" lon="4.97962">
        <ele>287.1</ele>
      </trkpt>
      <trkpt lat="44.44721" lon="4.97906">
        <ele>284.62</ele>
        <time>2017-11-12T11:48:08Z</time>
      </trkpt>
      <trkpt lat="44.44786" lon="4.9782">
        <ele>292.59</ele>
        <time>2017-11-12T11:48:14Z</time>
      </trkpt>
      <trkpt lat="44.44898" lon="4.97689">
        <ele>298.03</ele>
        <time>2017-11-12T11:48:22Z</time>
      </trkpt>
      <trkpt lat="44.45023" lon="4.97584">
        <ele>300.92</ele>
        <time>2017-11-12T11:48:31Z</time>
      </trkpt>
      <trkpt lat="44.45257" lon="4.97447">
        <ele>307.1</ele>
        <time>2017-11-12T11:48:49Z</time>
      </trkpt>
      <trkpt lat="44.45273" lon="4.97445">
        <ele>306.91</ele>
        <time>2017-11-12T11:48:51Z</time>
      </trkpt>
      <trkpt lat="44.45564" lon="4.97612">
        <ele>305.75</ele>
        <time>2017-11-12T11:49:12Z</time>
      </trkpt>
      <trkpt lat="44.45633" lon="4.97745">
        <ele>313.03</ele>
        <time>2017-11-12T11:49:21Z</time>
      </trkpt>
      <trkpt lat="44.45694" lon="4.97819">
        <ele>318.68</ele>
        <time>2017-11-12T11:49:28Z</time>
      </trkpt>
      <trkpt lat="44.45732" lon="4.97851">
        <ele>322.57</ele>
        <time>2017-11-12T11:49:32Z</time>
      </trkpt>
      <trkpt lat="44.4576" lon="4.97881">
        <ele>324.05</ele>
        <time>2017-11-12T11:49:35Z</time>
      </trkpt>
      <trkpt lat="44.45809" lon="4.97946">
        <ele>327.25</ele>
        <time>2017-11-12T11:49:40Z</time>
      </trkpt>
      <trkpt lat="44.4586" lon="4.97988">
        <ele>331.46</ele>
        <time>2017-11-12T11:49:44Z</time>
      </trkpt>
      <trkpt lat="44.45978" lon="4.9803">
        <ele>338.23</ele>
        <time>2017-11-12T11:49:52Z</time>
      </trkpt>
      <trkpt lat="44.46076" lon="4.98044">
        <ele>340.26</ele>
        <time>2017-11-12T11:49:59Z</time>
      </trkpt>
      <trkpt lat="44.46135" lon="4.98026">
        <ele>344.47</ele>
        <time>2017-11-12T11:50:03Z</time>
      </trkpt>
      <trkpt lat="44.46195" lon="4.98007">
        <ele>347.04</ele>
        <time>2017-11-12T11:50:07Z</time>
      </trkpt>
      <trkpt lat="44.46284" lon="4.98011">
        <ele>348.75</ele>
        <time>2017-11-12T11:50:14Z</time>
      </trkpt>
      <trkpt lat="44.46441" lon="4.98105">
        <ele>355.39</ele>
        <time>2017-11-12T11:50:31Z</time>
      </trkpt>
      <trkpt lat="44.46543" lon="4.98077">
        <ele>358.99</ele>
        <time>2017-11-12T11:50:45Z</time>
      </trkpt>
      <trkpt lat="44.46596" lon="4.98083">
        <ele>360.13</ele>
        <time>2017-11-12T11:50:53Z</time>
      </trkpt>
      <trkpt lat="44.4661" lon="4.98027">
        <ele>360.07</ele>
        <time>2017-11-12T11:51:22Z</time>
      </trkpt>
      <trkpt lat="44.46584" lon="4.98001">
        <ele>360.01</ele>
        <time>2017-11-12T11:51:27Z</time>
      </trkpt>
      <trkpt lat="44.46558" lon="4.97951">
        <ele>362.33</ele>
        <time>2017-11-12T11:55:12Z</time>
      </trkpt>
      <trkpt lat="44.46563" lon="4.97939">
        <ele>362.89</ele>
        <time>2017-11-12T11:55:14Z</time>
      </trkpt>
      <trkpt lat="44.46577" lon="4.97908">
        <ele>360.75</ele>
        <time>2017-11-12T11:55:18Z</time>
      </trkpt>
      <trkpt lat="44.46607" lon="4.97891">
        <ele>357.27</ele>
        <time>2017-11-12T11:55:23Z</time>
      </trkpt>
      <trkpt lat="44.46603" lon="4.97848">
        <ele>359.34</ele>
        <time>2017-11-12T11:55:29Z</time>
      </trkpt>
      <trkpt lat="44.4666" lon="4.97757">
        <ele>364.45</ele>
        <time>2017-11-12T11:55:39Z</time>
      </trkpt>
      <trkpt lat="44.4672" lon="4.97563">
        <ele>365.49</ele>
        <time>2017-11-12T11:55:54Z</time>
      </trkpt>
      <trkpt lat="44.46723" lon="4.97548">
        <ele>365.37</ele>
        <time>2017-11-12T11:55:55Z</time>
      </trkpt>
      <trkpt lat="44.4674" lon="4.97401">
        <ele>360.96</ele>
        <time>2017-11-12T11:56:06Z</time>
      </trkpt>
      <trkpt lat="44.46756" lon="4.97335">
        <ele>359.79</ele>
        <time>2017-11-12T11:56:12Z</time>
      </trkpt>
      <trkpt lat="44.46768" lon="4.97319">
        <ele>359.97</ele>
        <time>2017-11-12T11:56:14Z</time>
      </trkpt>
      <trkpt lat="44.46781" lon="4.97308">
        <ele>359.99</ele>
        <time>2017-11-12T11:56:16Z</time>
      </trkpt>
      <trkpt lat="44.46793" lon="4.97299">
        <ele>358.26</ele>
        <time>2017-11-12T11:56:18Z</time>
      </trkpt>
      <trkpt lat="44.46799" lon="4.97282">
        <ele>356.39</ele>
        <time>2017-11-12T11:56:21Z</time>
      </trkpt>
      <trkpt lat="44.46784" lon="4.97245">
        <ele>361.72</ele>
        <time>2017-11-12T11:59:49Z</time>
      </trkpt>
      <trkpt lat="44.46766" lon="4.97224">
        <ele>360.27</ele>
        <time>2017-11-12T11:59:53Z</time>
      </trkpt>
      <trkpt lat="44.46552" lon="4.9716">
        <ele>350.39</ele>
        <time>2017-11-12T12:00:17Z</time>
      </trkpt>
      <trkpt lat="44.46509" lon="4.97088">
        <ele>347.56</ele>
        <time>2017-11-12T12:00:24Z</time>
      </trkpt>
      <trkpt lat="44.465" lon="4.96821">
        <ele>339.49</ele>
        <time>2017-11-12T12:00:47Z</time>
      </trkpt>
      <trkpt lat="44.4648" lon="4.96691">
        <ele>332.73</ele>
        <time>2017-11-12T12:00:58Z</time>
      </trkpt>
      <trkpt lat="44.46462" lon="4.96627">
        <ele>328.57</ele>
        <time>2017-11-12T12:01:04Z</time>
      </trkpt>
      <trkpt lat="44.46396" lon="4.96506">
        <ele>318.57</ele>
        <time>2017-11-12T12:01:20Z</time>
      </trkpt>
      <trkpt lat="44.46331" lon="4.96497">
        <ele>315.29</ele>
        <time>2017-11-12T12:01:29Z</time>
      </trkpt>
      <trkpt lat="44.46317" lon="4.9649">
        <ele>311.8</ele>
        <time>2017-11-12T12:01:35Z</time>
      </trkpt>
      <trkpt lat="44.46365" lon="4.96447">
        <ele>316.07</ele>
        <time>2017-11-12T12:01:42Z</time>
      </trkpt>
      <trkpt lat="44.46554" lon="4.964">
        <ele>317.42</ele>
        <time>2017-11-12T12:01:56Z</time>
      </trkpt>
      <trkpt lat="44.46613" lon="4.9629">
        <ele>319.9</ele>
        <time>2017-11-12T12:02:03Z</time>
      </trkpt>
      <trkpt lat="44.46791" lon="4.96114">
        <ele>335.9</ele>
        <time>2017-11-12T12:02:26Z</time>
      </trkpt>
      <trkpt lat="44.46855" lon="4.96021">
        <ele>336.3</ele>
        <time>2017-11-12T12:02:31Z</time>
      </trkpt>
      <trkpt lat="44.46912" lon="4.95981">
        <ele>338.87</ele>
        <time>2017-11-12T12:02:35Z</time>
      </trkpt>
      <trkpt lat="44.47033" lon="4.95934">
        <ele>338.33</ele>
        <time>2017-11-12T12:02:47Z</time>
      </trkpt>
      <trkpt lat="44.47025" lon="4.95988">
        <ele>341.25</ele>
        <time>2017-11-12T12:02:57Z</time>
      </trkpt>
      <trkpt lat="44.47032" lon="4.95988">
        <ele>341.91</ele>
        <time>2017-11-12T12:02:59Z</time>
      </trkpt>
      <trkpt lat="44.47056" lon="4.9599">
        <ele>345.46</ele>
        <time>2017-11-12T12:03:04Z</time>
      </trkpt>
      <trkpt lat="44.4712" lon="4.9604">
        <ele>353.99</ele>
        <time>2017-11-12T12:03:18Z</time>
      </trkpt>
      <trkpt lat="44.472" lon="4.96027">
        <ele>366.09</ele>
        <time>2017-11-12T12:03:34Z</time>
      </trkpt>
      <trkpt lat="44.47266" lon="4.9604">
        <ele>376.23</ele>
        <time>2017-11-12T12:03:46Z</time>
      </trkpt>
      <trkpt lat="44.47407" lon="4.96066">
        <ele>390.15</ele>
        <time>2017-11-12T12:04:11Z</time>
      </trkpt>
      <trkpt lat="44.47428" lon="4.96097">
        <ele>393.48</ele>
        <time>2017-11-12T12:04:16Z</time>
      </trkpt>
      <trkpt lat="44.47573" lon="4.96147">
        <ele>409.28</ele>
        <time>2017-11-12T12:04:39Z</time>
      </trkpt>
      <trkpt lat="44.47825" lon="4.96153">
        <ele>438.65</ele>
        <time>2017-11-12T12:05:16Z</time>
      </trkpt>
      <trkpt lat="44.47863" lon="4.96157">
        <ele>440.68</ele>
        <time>2017-11-12T12:05:21Z</time>
      </trkpt>
      <trkpt lat="44.47955" lon="4.9618">
        <ele>449.74</ele>
        <time>2017-11-12T12:05:34Z</time>
      </trkpt>
      <trkpt lat="44.48007" lon="4.96203">
        <ele>453.51</ele>
        <time>2017-11-12T12:05:41Z</time>
      </trkpt>
      <trkpt lat="44.48032" lon="4.9621">
        <ele>454.22</ele>
        <time>2017-11-12T12:05:45Z</time>
      </trkpt>
      <trkpt lat="44.48107" lon="4.96207">
        <ele>457.59</ele>
        <time>2017-11-12T12:05:56Z</time>
      </trkpt>
      <trkpt lat="44.48141" lon="4.96217">
        <ele>459.77</ele>
        <time>2017-11-12T12:06:01Z</time>
      </trkpt>
      <trkpt lat="44.48244" lon="4.96218">
        <ele>464.83</ele>
        <time>2017-11-12T12:06:17Z</time>
      </trkpt>
      <trkpt lat="44.48315" lon="4.96227">
        <ele>465.74</ele>
        <time>2017-11-12T12:06:28Z</time>
      </trkpt>
      <trkpt lat="44.4836" lon="4.96242">
        <ele>468.36</ele>
        <time>2017-11-12T12:06:36Z</time>
      </trkpt>
      <trkpt lat="44.48374" lon="4.96244">
        <ele>468.56</ele>
        <time>2017-11-12T12:06:38Z</time>
      </trkpt>
      <trkpt lat="44.48598" lon="4.96361">
        <ele>494.33</ele>
        <time>2017-11-12T12:07:18Z</time>
      </trkpt>
      <trkpt lat="44.48624" lon="4.9636">
        <ele>498.01</ele>
        <time>2017-11-12T12:07:23Z</time>
      </trkpt>
      <trkpt lat="44.48819" lon="4.96427">
        <ele>521.57</ele>
        <time>2017-11-12T12:07:59Z</time>
      </trkpt>
      <trkpt lat="44.4888" lon="4.96486">
        <ele>530.45</ele>
        <time>2017-11-12T12:08:24Z</time>
      </trkpt>
      <trkpt lat="44.48909" lon="4.96554">
        <ele>535.62</ele>
        <time>2017-11-12T12:08:42Z</time>
      </trkpt>
      <trkpt lat="44.49046" lon="4.96774">
        <ele>548.81</ele>
        <time>2017-11-12T12:09:13Z</time>
      </trkpt>
      <trkpt lat="44.49088" lon="4.96806">
        <ele>549.81</ele>
        <time>2017-11-12T12:09:20Z</time>
      </trkpt>
      <trkpt lat="44.49096" lon="4.96825">
        <ele>550.17</ele>
        <time>2017-11-12T12:09:22Z</time>
      </trkpt>
      <trkpt lat="44.49122" lon="4.96901">
        <ele>553.25</ele>
        <time>2017-11-12T12:09:30Z</time>
      </trkpt>
      <trkpt lat="44.49178" lon="4.96995">
        <ele>553.11</ele>
        <time>2017-11-12T12:09:45Z</time>
      </trkpt>
      <trkpt lat="44.49234" lon="4.97047">
        <ele>553.97</ele>
        <time>2017-11-12T12:09:55Z</time>
      </trkpt>
      <trkpt lat="44.49348" lon="4.97088">
        <ele>556.49</ele>
        <time>2017-11-12T12:10:10Z</time>
      </trkpt>
      <trkpt lat="44.49383" lon="4.97127">
        <ele>558.53</ele>
        <time>2017-11-12T12:10:16Z</time>
      </trkpt>
      <trkpt lat="44.49499" lon="4.97198">
        <ele>575.96</ele>
        <time>2017-11-12T12:10:35Z</time>
      </trkpt>
      <trkpt lat="44.49506" lon="4.972">
        <ele>576.76</ele>
        <time>2017-11-12T12:10:36Z</time>
      </trkpt>
      <trkpt lat="44.49552" lon="4.97205">
        <ele>579.52</ele>
        <time>2017-11-12T12:10:42Z</time>
      </trkpt>
      <trkpt lat="44.49575" lon="4.97188">
        <ele>581.5</ele>
        <time>2017-11-12T12:10:47Z</time>
      </trkpt>
      <trkpt lat="44.49606" lon="4.97123">
        <ele>579.89</ele>
        <time>2017-11-12T12:10:55Z</time>
      </trkpt>
      <trkpt lat="44.49673" lon="4.97048">
        <ele>579.86</ele>
        <time>2017-11-12T12:11:06Z</time>
      </trkpt>
      <trkpt lat="44.49693" lon="4.97002">
        <ele>579.55</ele>
        <time>2017-11-12T12:11:11Z</time>
      </trkpt>
      <trkpt lat="44.49698" lon="4.96982">
        <ele>578.66</ele>
        <time>2017-11-12T12:11:13Z</time>
      </trkpt>
      <trkpt lat="44.49753" lon="4.96755">
        <ele>562.95</ele>
        <time>2017-11-12T12:11:44Z</time>
      </trkpt>
      <trkpt lat="44.49818" lon="4.96587">
        <ele>563.75</ele>
        <time>2017-11-12T12:11:59Z</time>
      </trkpt>
      <trkpt lat="44.49834" lon="4.96517">
        <ele>558.92</ele>
        <time>2017-11-12T12:12:08Z</time>
      </trkpt>
      <trkpt lat="44.49772" lon="4.96313">
        <ele>557.14</ele>
        <time>2017-11-12T12:12:25Z</time>
      </trkpt>
      <trkpt lat="44.49756" lon="4.96221">
        <ele>554.67</ele>
        <time>2017-11-12T12:12:33Z</time>
      </trkpt>
      <trkpt lat="44.4976" lon="4.96145">
        <ele>552.33</ele>
        <time>2017-11-12T12:12:40Z</time>
      </trkpt>
      <trkpt lat="44.49733" lon="4.96075">
        <ele>555.52</ele>
        <time>2017-11-12T12:12:47Z</time>
      </trkpt>
      <trkpt lat="44.49728" lon="4.96065">
        <ele>555.48</ele>
        <time>2017-11-12T12:12:48Z</time>
      </trkpt>
      <trkpt lat="44.49717" lon="4.96019">
        <ele>554.54</ele>
        <time>2017-11-12T12:12:52Z</time>
      </trkpt>
      <trkpt lat="44.49692" lon="4.95931">
        <ele>553.45</ele>
        <time>2017-11-12T12:12:59Z</time>
      </trkpt>
      <trkpt lat="44.49678" lon="4.95795">
        <ele>553.29</ele>
        <time>2017-11-12T12:13:09Z</time>
      </trkpt>
      <trkpt lat="44.49632" lon="4.95676">
        <ele>547.75</ele>
        <time>2017-11-12T12:13:26Z</time>
      </trkpt>
      <trkpt lat="44.4957" lon="4.95576">
        <ele>539.77</ele>
        <time>2017-11-12T12:13:41Z</time>
      </trkpt>
      <trkpt lat="44.49526" lon="4.95482">
        <ele>530.26</ele>
        <time>2017-11-12T12:13:56Z</time>
      </trkpt>
      <trkpt lat="44.49443" lon="4.95358">
        <ele>518.7</ele>
        <time>2017-11-12T12:14:17Z</time>
      </trkpt>
      <trkpt lat="44.49432" lon="4.95311">
        <ele>513.99</ele>
        <time>2017-11-12T12:14:25Z</time>
      </trkpt>
      <trkpt lat="44.49433" lon="4.95297">
        <ele>512.51</ele>
        <time>2017-11-12T12:14:27Z</time>
      </trkpt>
      <trkpt lat="44.49438" lon="4.95284">
        <ele>511.68</ele>
        <time>2017-11-12T12:14:29Z</time>
      </trkpt>
      <trkpt lat="44.49442" lon="4.95278">
        <ele>511.7</ele>
        <time>2017-11-12T12:14:30Z</time>
      </trkpt>
      <trkpt lat="44.4947" lon="4.95221">
        <ele>510.71</ele>
        <time>2017-11-12T12:14:37Z</time>
      </trkpt>
      <trkpt lat="44.49498" lon="4.9507">
        <ele>510.05</ele>
        <time>2017-11-12T12:14:52Z</time>
      </trkpt>
      <trkpt lat="44.49594" lon="4.94914">
        <ele>499.77</ele>
        <time>2017-11-12T12:15:18Z</time>
      </trkpt>
      <trkpt lat="44.49609" lon="4.94814">
        <ele>492.93</ele>
        <time>2017-11-12T12:15:30Z</time>
      </trkpt>
      <trkpt lat="44.49646" lon="4.94746">
        <ele>490.95</ele>
        <time>2017-11-12T12:15:41Z</time>
      </trkpt>
      <trkpt lat="44.49658" lon="4.94627">
        <ele>491.5</ele>
        <time>2017-11-12T12:15:54Z</time>
      </trkpt>
      <trkpt lat="44.49621" lon="4.94361">
        <ele>494.59</ele>
        <time>2017-11-12T12:16:06Z</time>
      </trkpt>
      <trkpt lat="44.49545" lon="4.9418">
        <ele>495.77</ele>
        <time>2017-11-12T12:16:15Z</time>
      </trkpt>
      <trkpt lat="44.49536" lon="4.94137">
        <ele>495.82</ele>
        <time>2017-11-12T12:16:17Z</time>
      </trkpt>
      <trkpt lat="44.49509" lon="4.9386">
        <ele>489.89</ele>
        <time>2017-11-12T12:17:23Z</time>
      </trkpt>
      <trkpt lat="44.49493" lon="4.93796">
        <ele>485.91</ele>
        <time>2017-11-12T12:17:27Z</time>
      </trkpt>
      <trkpt lat="44.49503" lon="4.93683">
        <ele>479.51</ele>
        <time>2017-11-12T12:17:36Z</time>
      </trkpt>
      <trkpt lat="44.49494" lon="4.93674">
        <ele>478.08</ele>
        <time>2017-11-12T12:17:40Z</time>
      </trkpt>
      <trkpt lat="44.49487" lon="4.93685">
        <ele>479.54</ele>
        <time>2017-11-12T12:17:42Z</time>
      </trkpt>
      <trkpt lat="44.49466" lon="4.93772">
        <ele>482.75</ele>
        <time>2017-11-12T12:17:47Z</time>
      </trkpt>
      <trkpt lat="44.49467" lon="4.93829">
        <ele>483.32</ele>
        <time>2017-11-12T12:17:50Z</time>
      </trkpt>
      <trkpt lat="44.49468" lon="4.93862">
        <ele>482.01</ele>
        <time>2017-11-12T12:17:52Z</time>
      </trkpt>
      <trkpt lat="44.49454" lon="4.93891">
        <ele>483.27</ele>
        <time>2017-11-12T12:17:54Z</time>
      </trkpt>
      <trkpt lat="44.49409" lon="4.9392">
        <ele>483.84</ele>
        <time>2017-11-12T12:17:57Z</time>
      </trkpt>
      <trkpt lat="44.49342" lon="4.93966">
        <ele>482.59</ele>
        <time>2017-11-12T12:18:02Z</time>
      </trkpt>
      <trkpt lat="44.49282" lon="4.93992">
        <ele>484.75</ele>
        <time>2017-11-12T12:18:14Z</time>
      </trkpt>
      <trkpt lat="44.4928" lon="4.94002">
        <ele>484.37</ele>
        <time>2017-11-12T12:18:16Z</time>
      </trkpt>
      <trkpt lat="44.49275" lon="4.94016">
        <ele>483.88</ele>
        <time>2017-11-12T12:18:18Z</time>
      </trkpt>
      <trkpt lat="44.49242" lon="4.94055">
        <ele>484.56</ele>
        <time>2017-11-12T12:18:24Z</time>
      </trkpt>
      <trkpt lat="44.4915" lon="4.94097">
        <ele>495.91</ele>
        <time>2017-11-12T12:18:36Z</time>
      </trkpt>
      <trkpt lat="44.49106" lon="4.94109">
        <ele>499.31</ele>
        <time>2017-11-12T12:18:41Z</time>
      </trkpt>
      <trkpt lat="44.4906" lon="4.94103">
        <ele>501.76</ele>
        <time>2017-11-12T12:18:47Z</time>
      </trkpt>
      <trkpt lat="44.49026" lon="4.94076">
        <ele>503.88</ele>
        <time>2017-11-12T12:18:52Z</time>
      </trkpt>
      <trkpt lat="44.49019" lon="4.94055">
        <ele>504.97</ele>
        <time>2017-11-12T12:19:01Z</time>
      </trkpt>
      <trkpt lat="44.49019" lon="4.94042">
        <ele>505.93</ele>
        <time>2017-11-12T12:19:03Z</time>
      </trkpt>
      <trkpt lat="44.48997" lon="4.93937">
        <ele>502.64</ele>
        <time>2017-11-12T12:19:13Z</time>
      </trkpt>
      <trkpt lat="44.48986" lon="4.93918">
        <ele>501.28</ele>
        <time>2017-11-12T12:19:15Z</time>
      </trkpt>
      <trkpt lat="44.48966" lon="4.93883">
        <ele>498.66</ele>
        <time>2017-11-12T12:19:19Z</time>
      </trkpt>
      <trkpt lat="44.4892" lon="4.93843">
        <ele>495.32</ele>
        <time>2017-11-12T12:19:27Z</time>
      </trkpt>
      <trkpt lat="44.48885" lon="4.93773">
        <ele>493.73</ele>
        <time>2017-11-12T12:19:35Z</time>
      </trkpt>
      <trkpt lat="44.48796" lon="4.93647">
        <ele>483.18</ele>
        <time>2017-11-12T12:19:53Z</time>
      </trkpt>
      <trkpt lat="44.48731" lon="4.93514">
        <ele>477.57</ele>
        <time>2017-11-12T12:20:11Z</time>
      </trkpt>
      <trkpt lat="44.48682" lon="4.93429">
        <ele>471.75</ele>
        <time>2017-11-12T12:20:24Z</time>
      </trkpt>
      <trkpt lat="44.48558" lon="4.92984">
        <ele>467.73</ele>
        <time>2017-11-12T12:21:05Z</time>
      </trkpt>
      <trkpt lat="44.48552" lon="4.92974">
        <ele>467.62</ele>
        <time>2017-11-12T12:21:07Z</time>
      </trkpt>
      <trkpt lat="44.48545" lon="4.92941">
        <ele>467.32</ele>
        <time>2017-11-12T12:21:10Z</time>
      </trkpt>
      <trkpt lat="44.48532" lon="4.92864">
        <ele>467.25</ele>
        <time>2017-11-12T12:21:16Z</time>
      </trkpt>
      <trkpt lat="44.48483" lon="4.92775">
        <ele>463.3</ele>
        <time>2017-11-12T12:21:26Z</time>
      </trkpt>
      <trkpt lat="44.48474" lon="4.92707">
        <ele>464.15</ele>
        <time>2017-11-12T12:21:32Z</time>
      </trkpt>
      <trkpt lat="44.48415" lon="4.9247">
        <ele>469.76</ele>
        <time>2017-11-12T12:21:51Z</time>
      </trkpt>
      <trkpt lat="44.4839" lon="4.92336">
        <ele>469.3</ele>
        <time>2017-11-12T12:22:01Z</time>
      </trkpt>
      <trkpt lat="44.48322" lon="4.92202">
        <ele>471.13</ele>
        <time>2017-11-12T12:22:13Z</time>
      </trkpt>
      <trkpt lat="44.48259" lon="4.9196">
        <ele>471.14</ele>
        <time>2017-11-12T12:22:32Z</time>
      </trkpt>
      <trkpt lat="44.48247" lon="4.91928">
        <ele>470.32</ele>
        <time>2017-11-12T12:22:35Z</time>
      </trkpt>
      <trkpt lat="44.48236" lon="4.91901">
        <ele>469.42</ele>
        <time>2017-11-12T12:22:38Z</time>
      </trkpt>
      <trkpt lat="44.48216" lon="4.91848">
        <ele>466.87</ele>
        <time>2017-11-12T12:22:44Z</time>
      </trkpt>
      <trkpt lat="44.48222" lon="4.91724">
        <ele>463.54</ele>
        <time>2017-11-12T12:22:58Z</time>
      </trkpt>
      <trkpt lat="44.48192" lon="4.91553">
        <ele>472.46</ele>
        <time>2017-11-12T12:23:15Z</time>
      </trkpt>
      <trkpt lat="44.4815" lon="4.91466">
        <ele>473.45</ele>
        <time>2017-11-12T12:23:25Z</time>
      </trkpt>
      <trkpt lat="44.47947" lon="4.91118">
        <ele>462.98</ele>
        <time>2017-11-12T12:24:07Z</time>
      </trkpt>
      <trkpt lat="44.4793" lon="4.91086">
        <ele>462.86</ele>
        <time>2017-11-12T12:24:10Z</time>
      </trkpt>
      <trkpt lat="44.47875" lon="4.90986">
        <ele>461.55</ele>
        <time>2017-11-12T12:24:20Z</time>
      </trkpt>
      <trkpt lat="44.47829" lon="4.90896">
        <ele>457.65</ele>
        <time>2017-11-12T12:24:30Z</time>
      </trkpt>
      <trkpt lat="44.47797" lon="4.90727">
        <ele>449.82</ele>
        <time>2017-11-12T12:24:50Z</time>
      </trkpt>
      <trkpt lat="44.47823" lon="4.90702">
        <ele>448.03</ele>
        <time>2017-11-12T12:24:56Z</time>
      </trkpt>
      <trkpt lat="44.48038" lon="4.9066">
        <ele>433.41</ele>
        <time>2017-11-12T12:25:32Z</time>
      </trkpt>
      <trkpt lat="44.48073" lon="4.90423">
        <ele>433.59</ele>
        <time>2017-11-12T12:26:00Z</time>
      </trkpt>
      <trkpt lat="44.48076" lon="4.90378">
        <ele>431.53</ele>
        <time>2017-11-12T12:26:07Z</time>
      </trkpt>
      <trkpt lat="44.48072" lon="4.90318">
        <ele>431.02</ele>
        <time>2017-11-12T12:26:16Z</time>
      </trkpt>
      <trkpt lat="44.4807" lon="4.90311">
        <ele>430.95</ele>
        <time>2017-11-12T12:26:17Z</time>
      </trkpt>
      <trkpt lat="44.48003" lon="4.9012">
        <ele>424.47</ele>
        <time>2017-11-12T12:26:35Z</time>
      </trkpt>
      <trkpt lat="44.47976" lon="4.90078">
        <ele>422.93</ele>
        <time>2017-11-12T12:26:44Z</time>
      </trkpt>
      <trkpt lat="44.48145" lon="4.89827">
        <ele>436.66</ele>
        <time>2017-11-12T12:27:07Z</time>
      </trkpt>
      <trkpt lat="44.4823" lon="4.89526">
        <ele>442.92</ele>
        <time>2017-11-12T12:29:11Z</time>
      </trkpt>
      <trkpt lat="44.48264" lon="4.89401">
        <ele>444.05</ele>
        <time>2017-11-12T12:29:20Z</time>
      </trkpt>
      <trkpt lat="44.48524" lon="4.88488">
        <ele>445.24</ele>
        <time>2017-11-12T12:30:18Z</time>
      </trkpt>
      <trkpt lat="44.48602" lon="4.88366">
        <ele>445.51</ele>
        <time>2017-11-12T12:30:27Z</time>
      </trkpt>
      <trkpt lat="44.48693" lon="4.88331">
        <ele>445.73</ele>
        <time>2017-11-12T12:30:36Z</time>
      </trkpt>
      <trkpt lat="44.48744" lon="4.88223">
        <ele>447.35</ele>
        <time>2017-11-12T12:30:44Z</time>
      </trkpt>
      <trkpt lat="44.48802" lon="4.88172">
        <ele>448.17</ele>
        <time>2017-11-12T12:30:49Z</time>
      </trkpt>
      <trkpt lat="44.48903" lon="4.881">
        <ele>448.03</ele>
        <time>2017-11-12T12:30:57Z</time>
      </trkpt>
      <trkpt lat="44.49051" lon="4.87871">
        <ele>446.9</ele>
        <time>2017-11-12T12:31:23Z</time>
      </trkpt>
      <trkpt lat="44.49059" lon="4.87866">
        <ele>446.75</ele>
        <time>2017-11-12T12:31:24Z</time>
      </trkpt>
      <trkpt lat="44.49107" lon="4.87846">
        <ele>441.83</ele>
        <time>2017-11-12T12:31:30Z</time>
      </trkpt>
      <trkpt lat="44.49132" lon="4.87814">
        <ele>439.07</ele>
        <time>2017-11-12T12:31:34Z</time>
      </trkpt>
      <trkpt lat="44.4914" lon="4.87776">
        <ele>436.95</ele>
        <time>2017-11-12T12:31:37Z</time>
      </trkpt>
      <trkpt lat="44.49151" lon="4.87614">
        <ele>427.48</ele>
        <time>2017-11-12T12:31:56Z</time>
      </trkpt>
      <trkpt lat="44.49143" lon="4.87604">
        <ele>428.54</ele>
        <time>2017-11-12T12:31:58Z</time>
      </trkpt>
      <trkpt lat="44.49055" lon="4.87572">
        <ele>436.52</ele>
        <time>2017-11-12T12:32:05Z</time>
      </trkpt>
      <trkpt lat="44.49006" lon="4.87537">
        <ele>438.25</ele>
        <time>2017-11-12T12:32:09Z</time>
      </trkpt>
      <trkpt lat="44.48939" lon="4.87486">
        <ele>432.72</ele>
        <time>2017-11-12T12:32:16Z</time>
      </trkpt>
      <trkpt lat="44.48937" lon="4.87475">
        <ele>432.22</ele>
        <time>2017-11-12T12:32:18Z</time>
      </trkpt>
      <trkpt lat="44.4871" lon="4.87506">
        <ele>434.39</ele>
        <time>2017-11-12T12:32:24Z</time>
      </trkpt>
      <trkpt lat="44.48417" lon="4.87438">
        <ele>437.51</ele>
        <time>2017-11-12T12:32:30Z</time>
      </trkpt>
      <trkpt lat="44.48157" lon="4.87179">
        <ele>439.59</ele>
        <time>2017-11-12T12:32:34Z</time>
      </trkpt>
      <trkpt lat="44.48126" lon="4.86687">
        <ele>440.66</ele>
        <time>2017-11-12T12:32:37Z</time>
      </trkpt>
      <trkpt lat="44.48832" lon="4.86989">
        <ele>429.93</ele>
        <time>2017-11-12T12:32:52Z</time>
      </trkpt>
      <trkpt lat="44.48893" lon="4.87173">
        <ele>428.17</ele>
        <time>2017-11-12T12:32:54Z</time>
      </trkpt>
      <trkpt lat="44.48937" lon="4.87189">
        <ele>417.59</ele>
        <time>2017-11-12T12:33:06Z</time>
      </trkpt>
      <trkpt lat="44.48946" lon="4.86901">
        <ele>401.94</ele>
        <time>2017-11-12T12:33:33Z</time>
      </trkpt>
      <trkpt lat="44.49034" lon="4.86439">
        <ele>400.47</ele>
        <time>2017-11-12T12:33:38Z</time>
      </trkpt>
      <trkpt lat="44.4912" lon="4.86203">
        <ele>398.48</ele>
        <time>2017-11-12T12:33:53Z</time>
      </trkpt>
      <trkpt lat="44.49142" lon="4.86073">
        <ele>396</ele>
        <time>2017-11-12T12:34:01Z</time>
      </trkpt>
      <trkpt lat="44.49187" lon="4.85988">
        <ele>395.57</ele>
        <time>2017-11-12T12:34:07Z</time>
      </trkpt>
      <trkpt lat="44.49216" lon="4.85965">
        <ele>396.41</ele>
        <time>2017-11-12T12:34:10Z</time>
      </trkpt>
      <trkpt lat="44.49246" lon="4.85949">
        <ele>396.84</ele>
        <time>2017-11-12T12:34:13Z</time>
      </trkpt>
      <trkpt lat="44.49306" lon="4.85809">
        <ele>400.32</ele>
        <time>2017-11-12T12:34:28Z</time>
      </trkpt>
      <trkpt lat="44.49307" lon="4.8573">
        <ele>404.29</ele>
        <time>2017-11-12T12:34:33Z</time>
      </trkpt>
      <trkpt lat="44.49329" lon="4.85551">
        <ele>409.77</ele>
        <time>2017-11-12T12:34:44Z</time>
      </trkpt>
      <trkpt lat="44.49325" lon="4.85528">
        <ele>409.08</ele>
        <time>2017-11-12T12:34:46Z</time>
      </trkpt>
      <trkpt lat="44.49321" lon="4.85505">
        <ele>408.23</ele>
        <time>2017-11-12T12:34:48Z</time>
      </trkpt>
      <trkpt lat="44.49326" lon="4.85272">
        <ele>402.99</ele>
        <time>2017-11-12T12:34:57Z</time>
      </trkpt>
      <trkpt lat="44.49255" lon="4.85214">
        <ele>402.07</ele>
        <time>2017-11-12T12:35:00Z</time>
      </trkpt>
      <trkpt lat="44.48814" lon="4.85117">
        <ele>405.19</ele>
        <time>2017-11-12T12:35:10Z</time>
      </trkpt>
      <trkpt lat="44.48877" lon="4.84922">
        <ele>410.28</ele>
        <time>2017-11-12T12:35:31Z</time>
      </trkpt>
      <trkpt lat="44.4903" lon="4.84753">
        <ele>410.11</ele>
        <time>2017-11-12T12:35:41Z</time>
      </trkpt>
      <trkpt lat="44.49264" lon="4.84532">
        <ele>410.16</ele>
        <time>2017-11-12T12:35:47Z</time>
      </trkpt>
      <trkpt lat="44.49308" lon="4.84486">
        <ele>408.84</ele>
        <time>2017-11-12T12:35:53Z</time>
      </trkpt>
      <trkpt lat="44.49317" lon="4.84484">
        <ele>407.3</ele>
        <time>2017-11-12T12:36:05Z</time>
      </trkpt>
      <trkpt lat="44.49333" lon="4.84467">
        <ele>408.08</ele>
        <time>2017-11-12T12:36:10Z</time>
      </trkpt>
      <trkpt lat="44.49386" lon="4.84433">
        <ele>407.11</ele>
        <time>2017-11-12T12:36:18Z</time>
      </trkpt>
      <trkpt lat="44.49566" lon="4.84312">
        <ele>395.83</ele>
        <time>2017-11-12T12:36:45Z</time>
      </trkpt>
      <trkpt lat="44.49656" lon="4.84123">
        <ele>394.22</ele>
        <time>2017-11-12T12:37:08Z</time>
      </trkpt>
      <trkpt lat="44.49679" lon="4.84044">
        <ele>390.47</ele>
        <time>2017-11-12T12:37:16Z</time>
      </trkpt>
      <trkpt lat="44.49695" lon="4.83962">
        <ele>385.12</ele>
        <time>2017-11-12T12:37:25Z</time>
      </trkpt>
      <trkpt lat="44.49687" lon="4.83911">
        <ele>383.18</ele>
        <time>2017-11-12T12:37:31Z</time>
      </trkpt>
      <trkpt lat="44.49683" lon="4.83755">
        <ele>374.2</ele>
        <time>2017-11-12T12:37:45Z</time>
      </trkpt>
      <trkpt lat="44.49706" lon="4.83654">
        <ele>369.24</ele>
        <time>2017-11-12T12:37:54Z</time>
      </trkpt>
      <trkpt lat="44.49752" lon="4.83595">
        <ele>364.9</ele>
        <time>2017-11-12T12:39:01Z</time>
      </trkpt>
      <trkpt lat="44.4975" lon="4.83581">
        <ele>366.44</ele>
        <time>2017-11-12T12:39:03Z</time>
      </trkpt>
      <trkpt lat="44.49782" lon="4.83455">
        <ele>375.15</ele>
        <time>2017-11-12T12:39:16Z</time>
      </trkpt>
      <trkpt lat="44.49789" lon="4.83409">
        <ele>376.69</ele>
        <time>2017-11-12T12:39:20Z</time>
      </trkpt>
      <trkpt lat="44.4988" lon="4.83132">
        <ele>382.2</ele>
        <time>2017-11-12T12:39:47Z</time>
      </trkpt>
      <trkpt lat="44.49958" lon="4.82968">
        <ele>389.23</ele>
        <time>2017-11-12T12:40:19Z</time>
      </trkpt>
      <trkpt lat="44.50056" lon="4.82724">
        <ele>367.71</ele>
        <time>2017-11-12T12:40:59Z</time>
      </trkpt>
      <trkpt lat="44.5008" lon="4.82566">
        <ele>364.84</ele>
        <time>2017-11-12T12:41:14Z</time>
      </trkpt>
      <trkpt lat="44.50112" lon="4.82512">
        <ele>365.65</ele>
        <time>2017-11-12T12:41:24Z</time>
      </trkpt>
      <trkpt lat="44.50105" lon="4.82486">
        <ele>367.29</ele>
        <time>2017-11-12T12:41:27Z</time>
      </trkpt>
      <trkpt lat="44.50072" lon="4.82436">
        <ele>363.59</ele>
        <time>2017-11-12T12:41:34Z</time>
      </trkpt>
      <trkpt lat="44.50059" lon="4.82425">
        <ele>363.01</ele>
        <time>2017-11-12T12:41:36Z</time>
      </trkpt>
      <trkpt lat="44.50031" lon="4.82349">
        <ele>359.28</ele>
        <time>2017-11-12T12:41:46Z</time>
      </trkpt>
      <trkpt lat="44.50023" lon="4.82285">
        <ele>358.39</ele>
        <time>2017-11-12T12:41:55Z</time>
      </trkpt>
      <trkpt lat="44.50045" lon="4.82212">
        <ele>358.92</ele>
        <time>2017-11-12T12:42:13Z</time>
      </trkpt>
      <trkpt lat="44.5005" lon="4.82194">
        <ele>357.77</ele>
        <time>2017-11-12T12:42:15Z</time>
      </trkpt>
      <trkpt lat="44.50047" lon="4.82106">
        <ele>347.71</ele>
        <time>2017-11-12T12:42:26Z</time>
      </trkpt>
      <trkpt lat="44.50127" lon="4.82039">
        <ele>335.06</ele>
        <time>2017-11-12T12:42:39Z</time>
      </trkpt>
      <trkpt lat="44.50157" lon="4.82004">
        <ele>331.92</ele>
        <time>2017-11-12T12:42:43Z</time>
      </trkpt>
      <trkpt lat="44.50171" lon="4.81956">
        <ele>330.08</ele>
        <time>2017-11-12T12:42:47Z</time>
      </trkpt>
      <trkpt lat="44.50186" lon="4.8187">
        <ele>325.31</ele>
        <time>2017-11-12T12:42:55Z</time>
      </trkpt>
      <trkpt lat="44.50231" lon="4.81817">
        <ele>317.22</ele>
        <time>2017-11-12T12:49:02Z</time>
      </trkpt>
      <trkpt lat="44.50163" lon="4.81721">
        <ele>308.03</ele>
        <time>2017-11-12T12:49:15Z</time>
      </trkpt>
      <trkpt lat="44.50162" lon="4.81715">
        <ele>307.83</ele>
        <time>2017-11-12T12:49:24Z</time>
      </trkpt>
      <trkpt lat="44.50165" lon="4.81703">
        <ele>308.05</ele>
        <time>2017-11-12T12:49:26Z</time>
      </trkpt>
      <trkpt lat="44.50165" lon="4.81653">
        <ele>306.96</ele>
        <time>2017-11-12T12:49:31Z</time>
      </trkpt>
      <trkpt lat="44.50126" lon="4.8155">
        <ele>309.13</ele>
        <time>2017-11-12T12:49:39Z</time>
      </trkpt>
      <trkpt lat="44.50109" lon="4.81496">
        <ele>308.83</ele>
        <time>2017-11-12T12:49:44Z</time>
      </trkpt>
      <trkpt lat="44.50109" lon="4.8148">
        <ele>308.99</ele>
        <time>2017-11-12T12:49:46Z</time>
      </trkpt>
      <trkpt lat="44.50108" lon="4.8145">
        <ele>308.85</ele>
        <time>2017-11-12T12:49:49Z</time>
      </trkpt>
      <trkpt lat="44.50105" lon="4.81357">
        <ele>300.12</ele>
        <time>2017-11-12T12:49:57Z</time>
      </trkpt>
      <trkpt lat="44.5009" lon="4.81228">
        <ele>296.19</ele>
        <time>2017-11-12T12:50:10Z</time>
      </trkpt>
      <trkpt lat="44.5004" lon="4.81089">
        <ele>298.65</ele>
        <time>2017-11-12T12:50:20Z</time>
      </trkpt>
      <trkpt lat="44.49981" lon="4.80904">
        <ele>291.25</ele>
        <time>2017-11-12T12:50:36Z</time>
      </trkpt>
      <trkpt lat="44.49976" lon="4.80897">
        <ele>291.61</ele>
        <time>2017-11-12T12:50:37Z</time>
      </trkpt>
      <trkpt lat="44.49856" lon="4.80774">
        <ele>295.44</ele>
        <time>2017-11-12T12:50:52Z</time>
      </trkpt>
      <trkpt lat="44.49808" lon="4.8068">
        <ele>300.11</ele>
        <time>2017-11-12T12:50:59Z</time>
      </trkpt>
      <trkpt lat="44.49748" lon="4.80556">
        <ele>298.13</ele>
        <time>2017-11-12T12:51:10Z</time>
      </trkpt>
      <trkpt lat="44.4973" lon="4.80508">
        <ele>293.3</ele>
        <time>2017-11-12T12:51:17Z</time>
      </trkpt>
      <trkpt lat="44.49699" lon="4.80568">
        <ele>296.62</ele>
        <time>2017-11-12T12:54:19Z</time>
      </trkpt>
      <trkpt lat="44.49685" lon="4.80639">
        <ele>294.26</ele>
        <time>2017-11-12T12:54:26Z</time>
      </trkpt>
      <trkpt lat="44.49669" lon="4.80728">
        <ele>285.8</ele>
        <time>2017-11-12T12:54:34Z</time>
      </trkpt>
      <trkpt lat="44.49672" lon="4.80757">
        <ele>284.32</ele>
        <time>2017-11-12T12:54:37Z</time>
      </trkpt>
      <trkpt lat="44.49685" lon="4.80859">
        <ele>276.3</ele>
        <time>2017-11-12T12:54:47Z</time>
      </trkpt>
      <trkpt lat="44.49706" lon="4.80892">
        <ele>275.43</ele>
        <time>2017-11-12T12:54:52Z</time>
      </trkpt>
      <trkpt lat="44.49705" lon="4.80927">
        <ele>276.64</ele>
        <time>2017-11-12T12:54:55Z</time>
      </trkpt>
      <trkpt lat="44.49697" lon="4.81008">
        <ele>273.72</ele>
        <time>2017-11-12T12:55:03Z</time>
      </trkpt>
      <trkpt lat="44.49724" lon="4.81077">
        <ele>268.3</ele>
        <time>2017-11-12T12:55:11Z</time>
      </trkpt>
      <trkpt lat="44.4973" lon="4.81085">
        <ele>267.55</ele>
        <time>2017-11-12T12:55:12Z</time>
      </trkpt>
      <trkpt lat="44.49771" lon="4.81141">
        <ele>260.79</ele>
        <time>2017-11-12T12:55:22Z</time>
      </trkpt>
      <trkpt lat="44.49712" lon="4.81156">
        <ele>256.1</ele>
        <time>2017-11-12T12:55:33Z</time>
      </trkpt>
      <trkpt lat="44.49703" lon="4.81145">
        <ele>255.65</ele>
        <time>2017-11-12T12:55:35Z</time>
      </trkpt>
      <trkpt lat="44.49673" lon="4.81105">
        <ele>256.38</ele>
        <time>2017-11-12T12:55:39Z</time>
      </trkpt>
      <trkpt lat="44.49625" lon="4.81068">
        <ele>252.78</ele>
        <time>2017-11-12T12:55:44Z</time>
      </trkpt>
      <trkpt lat="44.4955" lon="4.81062">
        <ele>246.91</ele>
        <time>2017-11-12T12:55:52Z</time>
      </trkpt>
      <trkpt lat="44.49488" lon="4.81027">
        <ele>238.01</ele>
        <time>2017-11-12T12:56:04Z</time>
      </trkpt>
      <trkpt lat="44.49483" lon="4.8102">
        <ele>238.04</ele>
        <time>2017-11-12T12:56:05Z</time>
      </trkpt>
      <trkpt lat="44.4945" lon="4.80927">
        <ele>234.12</ele>
        <time>2017-11-12T12:56:12Z</time>
      </trkpt>
      <trkpt lat="44.49339" lon="4.80785">
        <ele>233.09</ele>
        <time>2017-11-12T12:56:24Z</time>
      </trkpt>
      <trkpt lat="44.49303" lon="4.80728">
        <ele>227.03</ele>
        <time>2017-11-12T12:56:29Z</time>
      </trkpt>
      <trkpt lat="44.49302" lon="4.80712">
        <ele>226.7</ele>
        <time>2017-11-12T12:56:31Z</time>
      </trkpt>
      <trkpt lat="44.49299" lon="4.80654">
        <ele>228.95</ele>
        <time>2017-11-12T12:56:36Z</time>
      </trkpt>
      <trkpt lat="44.49227" lon="4.80474">
        <ele>231.64</ele>
        <time>2017-11-12T12:56:47Z</time>
      </trkpt>
      <trkpt lat="44.49214" lon="4.80395">
        <ele>228.39</ele>
        <time>2017-11-12T12:56:52Z</time>
      </trkpt>
      <trkpt lat="44.49205" lon="4.80321">
        <ele>220.91</ele>
        <time>2017-11-12T12:56:59Z</time>
      </trkpt>
      <trkpt lat="44.49139" lon="4.80316">
        <ele>216.65</ele>
        <time>2017-11-12T12:57:08Z</time>
      </trkpt>
      <trkpt lat="44.49123" lon="4.80312">
        <ele>216.66</ele>
        <time>2017-11-12T12:57:10Z</time>
      </trkpt>
      <trkpt lat="44.49089" lon="4.80293">
        <ele>213.58</ele>
        <time>2017-11-12T12:57:15Z</time>
      </trkpt>
      <trkpt lat="44.49045" lon="4.80257">
        <ele>212.55</ele>
        <time>2017-11-12T12:57:24Z</time>
      </trkpt>
      <trkpt lat="44.49035" lon="4.80243">
        <ele>210.69</ele>
        <time>2017-11-12T12:57:27Z</time>
      </trkpt>
      <trkpt lat="44.49033" lon="4.80226">
        <ele>210.75</ele>
        <time>2017-11-12T12:57:29Z</time>
      </trkpt>
      <trkpt lat="44.49071" lon="4.80019">
        <ele>202.92</ele>
        <time>2017-11-12T12:57:44Z</time>
      </trkpt>
      <trkpt lat="44.49081" lon="4.79992">
        <ele>202.76</ele>
        <time>2017-11-12T12:57:46Z</time>
      </trkpt>
      <trkpt lat="44.49148" lon="4.79877">
        <ele>200.56</ele>
        <time>2017-11-12T12:57:55Z</time>
      </trkpt>
      <trkpt lat="44.49198" lon="4.79729">
        <ele>199.7</ele>
        <time>2017-11-12T12:58:03Z</time>
      </trkpt>
      <trkpt lat="44.49257" lon="4.7951">
        <ele>188.74</ele>
        <time>2017-11-12T12:58:16Z</time>
      </trkpt>
      <trkpt lat="44.49207" lon="4.79328">
        <ele>187.79</ele>
        <time>2017-11-12T12:58:26Z</time>
      </trkpt>
      <trkpt lat="44.49125" lon="4.79011">
        <ele>170.05</ele>
        <time>2017-11-12T12:58:48Z</time>
      </trkpt>
      <trkpt lat="44.4909" lon="4.78906">
        <ele>166.89</ele>
        <time>2017-11-12T12:58:55Z</time>
      </trkpt>
      <trkpt lat="44.49119" lon="4.78704">
        <ele>158.6</ele>
        <time>2017-11-12T12:59:09Z</time>
      </trkpt>
      <trkpt lat="44.4913" lon="4.7852">
        <ele>159.52</ele>
        <time>2017-11-12T12:59:18Z</time>
      </trkpt>
      <trkpt lat="44.49135" lon="4.78401">
        <ele>155.88</ele>
        <time>2017-11-12T12:59:23Z</time>
      </trkpt>
      <trkpt lat="44.49142" lon="4.78307">
        <ele>150.31</ele>
        <time>2017-11-12T12:59:30Z</time>
      </trkpt>
      <trkpt lat="44.49133" lon="4.78178">
        <ele>148.07</ele>
        <time>2017-11-12T12:59:39Z</time>
      </trkpt>
      <trkpt lat="44.49132" lon="4.78175">
        <ele>148.16</ele>
        <time>2017-11-12T12:59:41Z</time>
      </trkpt>
      <trkpt lat="44.49125" lon="4.78173">
        <ele>148.52</ele>
        <time>2017-11-12T12:59:43Z</time>
      </trkpt>
      <trkpt lat="44.49108" lon="4.78177">
        <ele>149.63</ele>
        <time>2017-11-12T12:59:45Z</time>
      </trkpt>
      <trkpt lat="44.48973" lon="4.78185">
        <ele>156.52</ele>
        <time>2017-11-12T12:59:52Z</time>
      </trkpt>
      <trkpt lat="44.48838" lon="4.7812">
        <ele>155.63</ele>
        <time>2017-11-12T12:59:58Z</time>
      </trkpt>
      <trkpt lat="44.48717" lon="4.77975">
        <ele>151.71</ele>
        <time>2017-11-12T13:00:05Z</time>
      </trkpt>
      <trkpt lat="44.48599" lon="4.77872">
        <ele>149.5</ele>
        <time>2017-11-12T13:00:11Z</time>
      </trkpt>
      <trkpt lat="44.48478" lon="4.77768">
        <ele>145.57</ele>
        <time>2017-11-12T13:00:19Z</time>
      </trkpt>
      <trkpt lat="44.48457" lon="4.77718">
        <ele>145.16</ele>
        <time>2017-11-12T13:00:22Z</time>
      </trkpt>
      <trkpt lat="44.48459" lon="4.7767">
        <ele>146.14</ele>
        <time>2017-11-12T13:00:24Z</time>
      </trkpt>
      <trkpt lat="44.48463" lon="4.77614">
        <ele>147.92</ele>
        <time>2017-11-12T13:00:26Z</time>
      </trkpt>
      <trkpt lat="44.4851" lon="4.77108">
        <ele>146.39</ele>
        <time>2017-11-12T13:00:42Z</time>
      </trkpt>
      <trkpt lat="44.48536" lon="4.76746">
        <ele>147.26</ele>
        <time>2017-11-12T13:00:53Z</time>
      </trkpt>
      <trkpt lat="44.48568" lon="4.76299">
        <ele>133</ele>
      </trkpt>
      <trkpt lat="44.48432" lon="4.7593">
        <ele>130.1</ele>
      </trkpt>
      <trkpt lat="44.48516" lon="4.75507">
        <ele>124.47</ele>
        <time>2017-11-12T13:02:35Z</time>
      </trkpt>
      <trkpt lat="44.48541" lon="4.75474">
        <ele>123.08</ele>
        <time>2017-11-12T13:02:38Z</time>
      </trkpt>
      <trkpt lat="44.48605" lon="4.75392">
        <ele>118.12</ele>
        <time>2017-11-12T13:02:46Z</time>
      </trkpt>
      <trkpt lat="44.48623" lon="4.75261">
        <ele>113.87</ele>
        <time>2017-11-12T13:02:59Z</time>
      </trkpt>
      <trkpt lat="44.48625" lon="4.75256">
        <ele>114.4</ele>
        <time>2017-11-12T13:03:00Z</time>
      </trkpt>
      <trkpt lat="44.48624" lon="4.7524">
        <ele>114.59</ele>
        <time>2017-11-12T13:03:02Z</time>
      </trkpt>
      <trkpt lat="44.48622" lon="4.75229">
        <ele>114.8</ele>
        <time>2017-11-12T13:03:03Z</time>
      </trkpt>
      <trkpt lat="44.48593" lon="4.75016">
        <ele>113.7</ele>
        <time>2017-11-12T13:03:20Z</time>
      </trkpt>
      <trkpt lat="44.48607" lon="4.74732">
        <ele>119.82</ele>
        <time>2017-11-12T13:03:37Z</time>
      </trkpt>
      <trkpt lat="44.48563" lon="4.74639">
        <ele>127.57</ele>
        <time>2017-11-12T13:03:42Z</time>
      </trkpt>
      <trkpt lat="44.48526" lon="4.74591">
        <ele>129.16</ele>
        <time>2017-11-12T13:03:45Z</time>
      </trkpt>
      <trkpt lat="44.48516" lon="4.74553">
        <ele>131.81</ele>
        <time>2017-11-12T13:03:47Z</time>
      </trkpt>
      <trkpt lat="44.48524" lon="4.74516">
        <ele>132.99</ele>
        <time>2017-11-12T13:03:49Z</time>
      </trkpt>
      <trkpt lat="44.48562" lon="4.74476">
        <ele>134.68</ele>
        <time>2017-11-12T13:03:52Z</time>
      </trkpt>
      <trkpt lat="44.48586" lon="4.74416">
        <ele>137.35</ele>
        <time>2017-11-12T13:03:55Z</time>
      </trkpt>
      <trkpt lat="44.4859" lon="4.74394">
        <ele>137.11</ele>
        <time>2017-11-12T13:03:56Z</time>
      </trkpt>
      <trkpt lat="44.48598" lon="4.74337">
        <ele>134.9</ele>
        <time>2017-11-12T13:03:59Z</time>
      </trkpt>
      <trkpt lat="44.48587" lon="4.74302">
        <ele>134.68</ele>
        <time>2017-11-12T13:04:01Z</time>
      </trkpt>
      <trkpt lat="44.48566" lon="4.74235">
        <ele>128.51</ele>
        <time>2017-11-12T13:04:06Z</time>
      </trkpt>
      <trkpt lat="44.48623" lon="4.74198">
        <ele>122.85</ele>
        <time>2017-11-12T13:04:14Z</time>
      </trkpt>
      <trkpt lat="44.48648" lon="4.74202">
        <ele>123.29</ele>
        <time>2017-11-12T13:04:18Z</time>
      </trkpt>
      <trkpt lat="44.48677" lon="4.74164">
        <ele>126.07</ele>
        <time>2017-10-28T10:58:23Z</time>
      </trkpt>
      <trkpt lat="44.48737" lon="4.74041">
        <ele>134.72</ele>
        <time>2017-10-28T10:58:30Z</time>
      </trkpt>
      <trkpt lat="44.4874" lon="4.739">
        <ele>137.13</ele>
        <time>2017-10-28T10:58:36Z</time>
      </trkpt>
      <trkpt lat="44.48697" lon="4.73773">
        <ele>135.68</ele>
        <time>2017-10-28T10:58:41Z</time>
      </trkpt>
      <trkpt lat="44.48676" lon="4.73629">
        <ele>133.76</ele>
        <time>2017-10-28T10:58:46Z</time>
      </trkpt>
      <trkpt lat="44.48669" lon="4.73488">
        <ele>131.84</ele>
        <time>2017-10-28T10:58:51Z</time>
      </trkpt>
      <trkpt lat="44.48682" lon="4.73349">
        <ele>130.88</ele>
        <time>2017-10-28T10:58:56Z</time>
      </trkpt>
      <trkpt lat="44.48676" lon="4.73218">
        <ele>125.59</ele>
        <time>2017-10-28T10:59:01Z</time>
      </trkpt>
      <trkpt lat="44.48637" lon="4.72954">
        <ele>127.99</ele>
        <time>2017-10-28T10:59:11Z</time>
      </trkpt>
      <trkpt lat="44.4864" lon="4.72668">
        <ele>127.99</ele>
        <time>2017-10-28T10:59:21Z</time>
      </trkpt>
      <trkpt lat="44.48641" lon="4.72514">
        <ele>126.07</ele>
        <time>2017-10-28T10:59:26Z</time>
      </trkpt>
      <trkpt lat="44.48643" lon="4.72364">
        <ele>120.78</ele>
        <time>2017-10-28T10:59:31Z</time>
      </trkpt>
      <trkpt lat="44.48643" lon="4.72236">
        <ele>112.61</ele>
        <time>2017-10-28T10:59:37Z</time>
      </trkpt>
      <trkpt lat="44.48637" lon="4.72082">
        <ele>108.29</ele>
        <time>2017-10-28T10:59:45Z</time>
      </trkpt>
      <trkpt lat="44.48626" lon="4.71799">
        <ele>93.87</ele>
        <time>2017-10-28T11:00:00Z</time>
      </trkpt>
      <trkpt lat="44.48639" lon="4.71687">
        <ele>89.54</ele>
        <time>2017-10-28T11:00:10Z</time>
      </trkpt>
      <trkpt lat="44.48552" lon="4.71478">
        <ele>85.69</ele>
        <time>2017-10-28T11:00:36Z</time>
      </trkpt>
      <trkpt lat="44.48568" lon="4.71346">
        <ele>84.25</ele>
        <time>2017-10-28T11:00:45Z</time>
      </trkpt>
      <trkpt lat="44.4852" lon="4.71219">
        <ele>85.21</ele>
        <time>2017-10-28T11:00:52Z</time>
      </trkpt>
      <trkpt lat="44.48467" lon="4.71107">
        <ele>83.29</ele>
        <time>2017-10-28T11:00:58Z</time>
      </trkpt>
      <trkpt lat="44.48432" lon="4.70994">
        <ele>81.37</ele>
        <time>2017-10-28T11:01:06Z</time>
      </trkpt>
      <trkpt lat="44.48446" lon="4.70853">
        <ele>80.41</ele>
        <time>2017-10-28T11:01:15Z</time>
      </trkpt>
      <trkpt lat="44.48237" lon="4.70561">
        <ele>70.79</ele>
        <time>2017-10-28T11:01:36Z</time>
      </trkpt>
      <trkpt lat="44.48204" lon="4.70435">
        <ele>73.2</ele>
        <time>2017-10-28T11:01:43Z</time>
      </trkpt>
      <trkpt lat="44.48155" lon="4.69887">
        <ele>78.97</ele>
        <time>2017-10-28T11:02:10Z</time>
      </trkpt>
      <trkpt lat="44.48133" lon="4.69611">
        <ele>75.6</ele>
        <time>2017-10-28T11:02:23Z</time>
      </trkpt>
      <trkpt lat="44.48106" lon="4.69324">
        <ele>72.72</ele>
        <time>2017-10-28T11:02:37Z</time>
      </trkpt>
      <trkpt lat="44.48047" lon="4.69073">
        <ele>75.6</ele>
        <time>2017-10-28T11:02:54Z</time>
      </trkpt>
      <trkpt lat="44.48091" lon="4.68971">
        <ele>79.45</ele>
        <time>2017-10-28T11:03:07Z</time>
      </trkpt>
      <trkpt lat="44.48262" lon="4.68851">
        <ele>83.29</ele>
        <time>2017-10-28T11:03:27Z</time>
      </trkpt>
      <trkpt lat="44.485" lon="4.68438">
        <ele>78</ele>
        <time>2017-10-28T11:04:04Z</time>
      </trkpt>
      <trkpt lat="44.48534" lon="4.68339">
        <ele>77.52</ele>
        <time>2017-10-28T11:04:11Z</time>
      </trkpt>
      <trkpt lat="44.48547" lon="4.68099">
        <ele>83.77</ele>
        <time>2017-10-28T11:04:25Z</time>
      </trkpt>
      <trkpt lat="44.48539" lon="4.67933">
        <ele>79.45</ele>
        <time>2017-10-28T11:04:32Z</time>
      </trkpt>
      <trkpt lat="44.4856" lon="4.678">
        <ele>76.56</ele>
        <time>2017-10-28T11:04:40Z</time>
      </trkpt>
      <trkpt lat="44.48727" lon="4.67474">
        <ele>73.68</ele>
        <time>2017-10-28T11:05:02Z</time>
      </trkpt>
      <trkpt lat="44.48814" lon="4.67457">
        <ele>78.48</ele>
        <time>2017-10-28T11:05:11Z</time>
      </trkpt>
      <trkpt lat="44.48889" lon="4.67489">
        <ele>78.48</ele>
        <time>2017-10-28T11:05:22Z</time>
      </trkpt>
      <trkpt lat="44.48968" lon="4.674">
        <ele>79.45</ele>
        <time>2017-10-28T11:05:33Z</time>
      </trkpt>
      <trkpt lat="44.49008" lon="4.67269">
        <ele>81.85</ele>
        <time>2017-10-28T11:05:40Z</time>
      </trkpt>
      <trkpt lat="44.49004" lon="4.67133">
        <ele>82.33</ele>
        <time>2017-10-28T11:05:46Z</time>
      </trkpt>
    </trkseg>
  </trk>
</gpx>